<?xml version="1.0" encoding="UTF-8" standalone="no" ?>
<gpx xmlns="http://www.topografix.com/GPX/1/1" xmlns:xsi="http://www.w3.org/2001/XMLSchema-instance" xsi:schemaLocation="http://www.topografix.com/GPX/1/1 http://www.topografix.com/GPX/1/1/gpx.xsd" version="1.1" creator="VisuGPX - https://www.visugpx.com">
  <metadata>
    <name>Trail de Gorbio</name>
    <desc><![CDATA[10 octobre 2010
41km, 2200m D ]]></desc>
  </metadata>
  <trk>
    <name><![CDATA[Trail de Gorbio]]></name>
    <cmt><![CDATA[24e sur environ 80
Victoire de Julien Navarro, 20 ans en 3h50' !!]]></cmt>
    <trkseg>
      <trkpt lat="43.78667" lon="7.44348">
        <ele>368.79998779297</ele>
        <time>2010-10-10T06:04:59Z</time>
      </trkpt>
      <trkpt lat="43.78667" lon="7.44348">
        <ele>368.32000732422</ele>
        <time>2010-10-10T06:05:02Z</time>
      </trkpt>
      <trkpt lat="43.78669" lon="7.4434">
        <ele>369.2799987793</ele>
        <time>2010-10-10T06:05:07Z</time>
      </trkpt>
      <trkpt lat="43.78667" lon="7.44325">
        <ele>369.76000976562</ele>
        <time>2010-10-10T06:05:12Z</time>
      </trkpt>
      <trkpt lat="43.78644" lon="7.44291">
        <ele>371.20999145508</ele>
        <time>2010-10-10T06:05:24Z</time>
      </trkpt>
      <trkpt lat="43.7862" lon="7.4427">
        <ele>373.13000488281</ele>
        <time>2010-10-10T06:05:35Z</time>
      </trkpt>
      <trkpt lat="43.7859" lon="7.44268">
        <ele>376.9700012207</ele>
        <time>2010-10-10T06:05:47Z</time>
      </trkpt>
      <trkpt lat="43.78571" lon="7.44249">
        <ele>378.89999389648</ele>
        <time>2010-10-10T06:05:56Z</time>
      </trkpt>
      <trkpt lat="43.78535" lon="7.44238">
        <ele>378.89999389648</ele>
        <time>2010-10-10T06:06:09Z</time>
      </trkpt>
      <trkpt lat="43.78532" lon="7.44239">
        <ele>379.38000488281</ele>
        <time>2010-10-10T06:06:10Z</time>
      </trkpt>
      <trkpt lat="43.78517" lon="7.44228">
        <ele>379.38000488281</ele>
        <time>2010-10-10T06:06:16Z</time>
      </trkpt>
      <trkpt lat="43.78516" lon="7.44204">
        <ele>380.33999633789</ele>
        <time>2010-10-10T06:06:21Z</time>
      </trkpt>
      <trkpt lat="43.78517" lon="7.44184">
        <ele>381.7799987793</ele>
        <time>2010-10-10T06:06:26Z</time>
      </trkpt>
      <trkpt lat="43.78521" lon="7.44153">
        <ele>385.63000488281</ele>
        <time>2010-10-10T06:06:36Z</time>
      </trkpt>
      <trkpt lat="43.78518" lon="7.44125">
        <ele>388.51000976562</ele>
        <time>2010-10-10T06:06:46Z</time>
      </trkpt>
      <trkpt lat="43.78518" lon="7.44104">
        <ele>392.35998535156</ele>
        <time>2010-10-10T06:06:54Z</time>
      </trkpt>
      <trkpt lat="43.78518" lon="7.44101">
        <ele>391.86999511719</ele>
        <time>2010-10-10T06:06:55Z</time>
      </trkpt>
      <trkpt lat="43.78511" lon="7.4409">
        <ele>393.79998779297</ele>
        <time>2010-10-10T06:07:02Z</time>
      </trkpt>
      <trkpt lat="43.78492" lon="7.44125">
        <ele>397.64001464844</ele>
        <time>2010-10-10T06:07:15Z</time>
      </trkpt>
      <trkpt lat="43.78481" lon="7.44151">
        <ele>400.04998779297</ele>
        <time>2010-10-10T06:07:25Z</time>
      </trkpt>
      <trkpt lat="43.78461" lon="7.44171">
        <ele>402.45001220703</ele>
        <time>2010-10-10T06:07:34Z</time>
      </trkpt>
      <trkpt lat="43.78455" lon="7.44169">
        <ele>403.89001464844</ele>
        <time>2010-10-10T06:07:38Z</time>
      </trkpt>
      <trkpt lat="43.78472" lon="7.44137">
        <ele>407.26000976562</ele>
        <time>2010-10-10T06:07:48Z</time>
      </trkpt>
      <trkpt lat="43.78474" lon="7.44131">
        <ele>407.26000976562</ele>
        <time>2010-10-10T06:07:50Z</time>
      </trkpt>
      <trkpt lat="43.78468" lon="7.44121">
        <ele>409.17999267578</ele>
        <time>2010-10-10T06:07:56Z</time>
      </trkpt>
      <trkpt lat="43.78447" lon="7.44144">
        <ele>413.5</ele>
        <time>2010-10-10T06:08:08Z</time>
      </trkpt>
      <trkpt lat="43.78444" lon="7.44148">
        <ele>413.98001098633</ele>
        <time>2010-10-10T06:08:10Z</time>
      </trkpt>
      <trkpt lat="43.78439" lon="7.44142">
        <ele>415.42999267578</ele>
        <time>2010-10-10T06:08:16Z</time>
      </trkpt>
      <trkpt lat="43.78453" lon="7.44117">
        <ele>418.79000854492</ele>
        <time>2010-10-10T06:08:25Z</time>
      </trkpt>
      <trkpt lat="43.78458" lon="7.44104">
        <ele>419.75</ele>
        <time>2010-10-10T06:08:30Z</time>
      </trkpt>
      <trkpt lat="43.78457" lon="7.44097">
        <ele>421.19000244141</ele>
        <time>2010-10-10T06:08:35Z</time>
      </trkpt>
      <trkpt lat="43.78431" lon="7.44131">
        <ele>425.04000854492</ele>
        <time>2010-10-10T06:08:51Z</time>
      </trkpt>
      <trkpt lat="43.78413" lon="7.44149">
        <ele>427.92001342773</ele>
        <time>2010-10-10T06:09:01Z</time>
      </trkpt>
      <trkpt lat="43.78392" lon="7.4417">
        <ele>429.85000610352</ele>
        <time>2010-10-10T06:09:14Z</time>
      </trkpt>
      <trkpt lat="43.78372" lon="7.44195">
        <ele>432.25</ele>
        <time>2010-10-10T06:09:25Z</time>
      </trkpt>
      <trkpt lat="43.78335" lon="7.44226">
        <ele>432.73001098633</ele>
        <time>2010-10-10T06:09:40Z</time>
      </trkpt>
      <trkpt lat="43.78296" lon="7.4422">
        <ele>433.69000244141</ele>
        <time>2010-10-10T06:09:53Z</time>
      </trkpt>
      <trkpt lat="43.78252" lon="7.44253">
        <ele>433.20999145508</ele>
        <time>2010-10-10T06:10:10Z</time>
      </trkpt>
      <trkpt lat="43.78217" lon="7.44278">
        <ele>434.64999389648</ele>
        <time>2010-10-10T06:10:23Z</time>
      </trkpt>
      <trkpt lat="43.78185" lon="7.44292">
        <ele>436.10000610352</ele>
        <time>2010-10-10T06:10:35Z</time>
      </trkpt>
      <trkpt lat="43.78173" lon="7.443">
        <ele>437.54000854492</ele>
        <time>2010-10-10T06:10:40Z</time>
      </trkpt>
      <trkpt lat="43.78155" lon="7.44326">
        <ele>440.42001342773</ele>
        <time>2010-10-10T06:10:50Z</time>
      </trkpt>
      <trkpt lat="43.78143" lon="7.44354">
        <ele>443.79000854492</ele>
        <time>2010-10-10T06:11:00Z</time>
      </trkpt>
      <trkpt lat="43.78136" lon="7.44392">
        <ele>446.67001342773</ele>
        <time>2010-10-10T06:11:11Z</time>
      </trkpt>
      <trkpt lat="43.78114" lon="7.4441">
        <ele>448.58999633789</ele>
        <time>2010-10-10T06:11:21Z</time>
      </trkpt>
      <trkpt lat="43.78087" lon="7.44385">
        <ele>451.48001098633</ele>
        <time>2010-10-10T06:11:32Z</time>
      </trkpt>
      <trkpt lat="43.7805" lon="7.44353">
        <ele>452.44000244141</ele>
        <time>2010-10-10T06:11:48Z</time>
      </trkpt>
      <trkpt lat="43.78014" lon="7.44349">
        <ele>453.39999389648</ele>
        <time>2010-10-10T06:12:01Z</time>
      </trkpt>
      <trkpt lat="43.78006" lon="7.4438">
        <ele>454.83999633789</ele>
        <time>2010-10-10T06:12:12Z</time>
      </trkpt>
      <trkpt lat="43.77973" lon="7.44403">
        <ele>456.76000976562</ele>
        <time>2010-10-10T06:12:23Z</time>
      </trkpt>
      <trkpt lat="43.77943" lon="7.44395">
        <ele>459.17001342773</ele>
        <time>2010-10-10T06:12:34Z</time>
      </trkpt>
      <trkpt lat="43.77912" lon="7.44378">
        <ele>461.08999633789</ele>
        <time>2010-10-10T06:12:46Z</time>
      </trkpt>
      <trkpt lat="43.77883" lon="7.44399">
        <ele>463.48999023438</ele>
        <time>2010-10-10T06:12:58Z</time>
      </trkpt>
      <trkpt lat="43.77876" lon="7.44405">
        <ele>463.48999023438</ele>
        <time>2010-10-10T06:13:01Z</time>
      </trkpt>
      <trkpt lat="43.77849" lon="7.4438">
        <ele>463.48999023438</ele>
        <time>2010-10-10T06:13:12Z</time>
      </trkpt>
      <trkpt lat="43.77805" lon="7.44375">
        <ele>463.48999023438</ele>
        <time>2010-10-10T06:13:26Z</time>
      </trkpt>
      <trkpt lat="43.77768" lon="7.44373">
        <ele>462.5299987793</ele>
        <time>2010-10-10T06:13:38Z</time>
      </trkpt>
      <trkpt lat="43.77748" lon="7.44383">
        <ele>464.45001220703</ele>
        <time>2010-10-10T06:13:45Z</time>
      </trkpt>
      <trkpt lat="43.77699" lon="7.44417">
        <ele>465.42001342773</ele>
        <time>2010-10-10T06:14:02Z</time>
      </trkpt>
      <trkpt lat="43.77671" lon="7.44448">
        <ele>464.92999267578</ele>
        <time>2010-10-10T06:14:14Z</time>
      </trkpt>
      <trkpt lat="43.77664" lon="7.44456">
        <ele>468.7799987793</ele>
        <time>2010-10-10T06:14:17Z</time>
      </trkpt>
      <trkpt lat="43.77644" lon="7.44477">
        <ele>465.89999389648</ele>
        <time>2010-10-10T06:14:26Z</time>
      </trkpt>
      <trkpt lat="43.77628" lon="7.4449">
        <ele>468.7799987793</ele>
        <time>2010-10-10T06:14:32Z</time>
      </trkpt>
      <trkpt lat="43.77592" lon="7.44516">
        <ele>470.2200012207</ele>
        <time>2010-10-10T06:14:46Z</time>
      </trkpt>
      <trkpt lat="43.77588" lon="7.44538">
        <ele>466.85998535156</ele>
        <time>2010-10-10T06:14:51Z</time>
      </trkpt>
      <trkpt lat="43.77585" lon="7.44552">
        <ele>468.7799987793</ele>
        <time>2010-10-10T06:14:54Z</time>
      </trkpt>
      <trkpt lat="43.77561" lon="7.44608">
        <ele>469.73999023438</ele>
        <time>2010-10-10T06:15:08Z</time>
      </trkpt>
      <trkpt lat="43.77552" lon="7.44637">
        <ele>474.54998779297</ele>
        <time>2010-10-10T06:15:17Z</time>
      </trkpt>
      <trkpt lat="43.77552" lon="7.44649">
        <ele>473.10998535156</ele>
        <time>2010-10-10T06:15:21Z</time>
      </trkpt>
      <trkpt lat="43.77554" lon="7.44657">
        <ele>476.4700012207</ele>
        <time>2010-10-10T06:15:24Z</time>
      </trkpt>
      <trkpt lat="43.77555" lon="7.4466">
        <ele>472.14001464844</ele>
        <time>2010-10-10T06:15:25Z</time>
      </trkpt>
      <trkpt lat="43.77556" lon="7.44676">
        <ele>474.07000732422</ele>
        <time>2010-10-10T06:15:29Z</time>
      </trkpt>
      <trkpt lat="43.77555" lon="7.44684">
        <ele>476.95001220703</ele>
        <time>2010-10-10T06:15:31Z</time>
      </trkpt>
      <trkpt lat="43.77554" lon="7.44686">
        <ele>473.58999633789</ele>
        <time>2010-10-10T06:15:32Z</time>
      </trkpt>
      <trkpt lat="43.77552" lon="7.44686">
        <ele>476.95001220703</ele>
        <time>2010-10-10T06:15:33Z</time>
      </trkpt>
      <trkpt lat="43.77546" lon="7.44678">
        <ele>474.07000732422</ele>
        <time>2010-10-10T06:15:36Z</time>
      </trkpt>
      <trkpt lat="43.77525" lon="7.44655">
        <ele>470.70001220703</ele>
        <time>2010-10-10T06:15:44Z</time>
      </trkpt>
      <trkpt lat="43.77499" lon="7.44652">
        <ele>474.07000732422</ele>
        <time>2010-10-10T06:15:52Z</time>
      </trkpt>
      <trkpt lat="43.77462" lon="7.44646">
        <ele>469.73999023438</ele>
        <time>2010-10-10T06:16:03Z</time>
      </trkpt>
      <trkpt lat="43.77459" lon="7.44646">
        <ele>470.2200012207</ele>
        <time>2010-10-10T06:16:04Z</time>
      </trkpt>
      <trkpt lat="43.77449" lon="7.44642">
        <ele>473.58999633789</ele>
        <time>2010-10-10T06:16:07Z</time>
      </trkpt>
      <trkpt lat="43.77446" lon="7.44641">
        <ele>472.14001464844</ele>
        <time>2010-10-10T06:16:08Z</time>
      </trkpt>
      <trkpt lat="43.77408" lon="7.44616">
        <ele>473.58999633789</ele>
        <time>2010-10-10T06:16:22Z</time>
      </trkpt>
      <trkpt lat="43.77372" lon="7.44581">
        <ele>474.07000732422</ele>
        <time>2010-10-10T06:16:36Z</time>
      </trkpt>
      <trkpt lat="43.77351" lon="7.44568">
        <ele>476.95001220703</ele>
        <time>2010-10-10T06:16:44Z</time>
      </trkpt>
      <trkpt lat="43.77329" lon="7.44555">
        <ele>480.32000732422</ele>
        <time>2010-10-10T06:16:54Z</time>
      </trkpt>
      <trkpt lat="43.77324" lon="7.44549">
        <ele>476.95001220703</ele>
        <time>2010-10-10T06:16:57Z</time>
      </trkpt>
      <trkpt lat="43.77322" lon="7.44546">
        <ele>481.76000976562</ele>
        <time>2010-10-10T06:16:58Z</time>
      </trkpt>
      <trkpt lat="43.77306" lon="7.44521">
        <ele>481.2799987793</ele>
        <time>2010-10-10T06:17:07Z</time>
      </trkpt>
      <trkpt lat="43.77298" lon="7.44489">
        <ele>485.11999511719</ele>
        <time>2010-10-10T06:17:16Z</time>
      </trkpt>
      <trkpt lat="43.77298" lon="7.44485">
        <ele>481.76000976562</ele>
        <time>2010-10-10T06:17:17Z</time>
      </trkpt>
      <trkpt lat="43.77296" lon="7.44449">
        <ele>485.60000610352</ele>
        <time>2010-10-10T06:17:27Z</time>
      </trkpt>
      <trkpt lat="43.77291" lon="7.44437">
        <ele>488.48999023438</ele>
        <time>2010-10-10T06:17:32Z</time>
      </trkpt>
      <trkpt lat="43.77275" lon="7.44407">
        <ele>490.89001464844</ele>
        <time>2010-10-10T06:17:44Z</time>
      </trkpt>
      <trkpt lat="43.77244" lon="7.44414">
        <ele>493.76998901367</ele>
        <time>2010-10-10T06:17:56Z</time>
      </trkpt>
      <trkpt lat="43.77242" lon="7.44415">
        <ele>493.76998901367</ele>
        <time>2010-10-10T06:17:57Z</time>
      </trkpt>
      <trkpt lat="43.77236" lon="7.44415">
        <ele>495.70001220703</ele>
        <time>2010-10-10T06:18:00Z</time>
      </trkpt>
      <trkpt lat="43.7723" lon="7.44413">
        <ele>499.05999755859</ele>
        <time>2010-10-10T06:18:03Z</time>
      </trkpt>
      <trkpt lat="43.77228" lon="7.44412">
        <ele>498.10000610352</ele>
        <time>2010-10-10T06:18:04Z</time>
      </trkpt>
      <trkpt lat="43.77222" lon="7.44401">
        <ele>497.61999511719</ele>
        <time>2010-10-10T06:18:08Z</time>
      </trkpt>
      <trkpt lat="43.7722" lon="7.44382">
        <ele>501.95001220703</ele>
        <time>2010-10-10T06:18:14Z</time>
      </trkpt>
      <trkpt lat="43.7722" lon="7.44377">
        <ele>504.82998657227</ele>
        <time>2010-10-10T06:18:16Z</time>
      </trkpt>
      <trkpt lat="43.7722" lon="7.44374">
        <ele>504.82998657227</ele>
        <time>2010-10-10T06:18:17Z</time>
      </trkpt>
      <trkpt lat="43.77219" lon="7.44368">
        <ele>501.45999145508</ele>
        <time>2010-10-10T06:18:19Z</time>
      </trkpt>
      <trkpt lat="43.77219" lon="7.44365">
        <ele>504.35000610352</ele>
        <time>2010-10-10T06:18:20Z</time>
      </trkpt>
      <trkpt lat="43.77215" lon="7.44353">
        <ele>505.30999755859</ele>
        <time>2010-10-10T06:18:25Z</time>
      </trkpt>
      <trkpt lat="43.77206" lon="7.4435">
        <ele>506.26998901367</ele>
        <time>2010-10-10T06:18:30Z</time>
      </trkpt>
      <trkpt lat="43.77205" lon="7.4435">
        <ele>509.64001464844</ele>
        <time>2010-10-10T06:18:31Z</time>
      </trkpt>
      <trkpt lat="43.77198" lon="7.44353">
        <ele>506.26998901367</ele>
        <time>2010-10-10T06:18:35Z</time>
      </trkpt>
      <trkpt lat="43.7719" lon="7.44357">
        <ele>510.60000610352</ele>
        <time>2010-10-10T06:18:39Z</time>
      </trkpt>
      <trkpt lat="43.7718" lon="7.4436">
        <ele>512.03997802734</ele>
        <time>2010-10-10T06:18:44Z</time>
      </trkpt>
      <trkpt lat="43.77167" lon="7.44355">
        <ele>516.36999511719</ele>
        <time>2010-10-10T06:18:51Z</time>
      </trkpt>
      <trkpt lat="43.77165" lon="7.44353">
        <ele>512.52001953125</ele>
        <time>2010-10-10T06:18:52Z</time>
      </trkpt>
      <trkpt lat="43.77163" lon="7.44352">
        <ele>516.84997558594</ele>
        <time>2010-10-10T06:18:53Z</time>
      </trkpt>
      <trkpt lat="43.77154" lon="7.44345">
        <ele>517.33001708984</ele>
        <time>2010-10-10T06:18:59Z</time>
      </trkpt>
      <trkpt lat="43.77131" lon="7.44332">
        <ele>520.69000244141</ele>
        <time>2010-10-10T06:19:12Z</time>
      </trkpt>
      <trkpt lat="43.77121" lon="7.44328">
        <ele>521.16998291016</ele>
        <time>2010-10-10T06:19:17Z</time>
      </trkpt>
      <trkpt lat="43.77103" lon="7.44321">
        <ele>524.53997802734</ele>
        <time>2010-10-10T06:19:27Z</time>
      </trkpt>
      <trkpt lat="43.77092" lon="7.44317">
        <ele>527.90002441406</ele>
        <time>2010-10-10T06:19:33Z</time>
      </trkpt>
      <trkpt lat="43.77068" lon="7.44298">
        <ele>531.75</ele>
        <time>2010-10-10T06:19:47Z</time>
      </trkpt>
      <trkpt lat="43.77062" lon="7.44295">
        <ele>531.27001953125</ele>
        <time>2010-10-10T06:19:51Z</time>
      </trkpt>
      <trkpt lat="43.77052" lon="7.44293">
        <ele>534.63000488281</ele>
        <time>2010-10-10T06:19:57Z</time>
      </trkpt>
      <trkpt lat="43.7703" lon="7.4428">
        <ele>537.51000976562</ele>
        <time>2010-10-10T06:20:14Z</time>
      </trkpt>
      <trkpt lat="43.7701" lon="7.4427">
        <ele>540.88000488281</ele>
        <time>2010-10-10T06:20:23Z</time>
      </trkpt>
      <trkpt lat="43.7697" lon="7.44255">
        <ele>544.71997070312</ele>
        <time>2010-10-10T06:20:39Z</time>
      </trkpt>
      <trkpt lat="43.76965" lon="7.44254">
        <ele>540.88000488281</ele>
        <time>2010-10-10T06:20:41Z</time>
      </trkpt>
      <trkpt lat="43.76956" lon="7.44251">
        <ele>544.71997070312</ele>
        <time>2010-10-10T06:20:44Z</time>
      </trkpt>
      <trkpt lat="43.76953" lon="7.4425">
        <ele>540.88000488281</ele>
        <time>2010-10-10T06:20:45Z</time>
      </trkpt>
      <trkpt lat="43.76928" lon="7.44255">
        <ele>542.32000732422</ele>
        <time>2010-10-10T06:20:54Z</time>
      </trkpt>
      <trkpt lat="43.76923" lon="7.44261">
        <ele>540.88000488281</ele>
        <time>2010-10-10T06:20:56Z</time>
      </trkpt>
      <trkpt lat="43.76912" lon="7.44276">
        <ele>543.28002929688</ele>
        <time>2010-10-10T06:21:01Z</time>
      </trkpt>
      <trkpt lat="43.76894" lon="7.44319">
        <ele>540.88000488281</ele>
        <time>2010-10-10T06:21:14Z</time>
      </trkpt>
      <trkpt lat="43.76891" lon="7.44325">
        <ele>544.23999023438</ele>
        <time>2010-10-10T06:21:16Z</time>
      </trkpt>
      <trkpt lat="43.76889" lon="7.44328">
        <ele>543.28002929688</ele>
        <time>2010-10-10T06:21:17Z</time>
      </trkpt>
      <trkpt lat="43.76884" lon="7.44339">
        <ele>544.71997070312</ele>
        <time>2010-10-10T06:21:20Z</time>
      </trkpt>
      <trkpt lat="43.76882" lon="7.44349">
        <ele>543.76000976562</ele>
        <time>2010-10-10T06:21:24Z</time>
      </trkpt>
      <trkpt lat="43.76884" lon="7.44356">
        <ele>545.69000244141</ele>
        <time>2010-10-10T06:21:27Z</time>
      </trkpt>
      <trkpt lat="43.76888" lon="7.44366">
        <ele>546.65002441406</ele>
        <time>2010-10-10T06:21:31Z</time>
      </trkpt>
      <trkpt lat="43.76891" lon="7.44376">
        <ele>547.13000488281</ele>
        <time>2010-10-10T06:21:35Z</time>
      </trkpt>
      <trkpt lat="43.76893" lon="7.44383">
        <ele>549.53002929688</ele>
        <time>2010-10-10T06:21:38Z</time>
      </trkpt>
      <trkpt lat="43.76897" lon="7.44395">
        <ele>548.57000732422</ele>
        <time>2010-10-10T06:21:43Z</time>
      </trkpt>
      <trkpt lat="43.76901" lon="7.44404">
        <ele>551.92999267578</ele>
        <time>2010-10-10T06:21:47Z</time>
      </trkpt>
      <trkpt lat="43.769" lon="7.44422">
        <ele>553.85998535156</ele>
        <time>2010-10-10T06:21:54Z</time>
      </trkpt>
      <trkpt lat="43.76896" lon="7.44431">
        <ele>555.78002929688</ele>
        <time>2010-10-10T06:21:58Z</time>
      </trkpt>
      <trkpt lat="43.7689" lon="7.44433">
        <ele>553.85998535156</ele>
        <time>2010-10-10T06:22:02Z</time>
      </trkpt>
      <trkpt lat="43.76887" lon="7.44426">
        <ele>555.78002929688</ele>
        <time>2010-10-10T06:22:05Z</time>
      </trkpt>
      <trkpt lat="43.76886" lon="7.44421">
        <ele>559.14001464844</ele>
        <time>2010-10-10T06:22:07Z</time>
      </trkpt>
      <trkpt lat="43.76886" lon="7.44418">
        <ele>558.17999267578</ele>
        <time>2010-10-10T06:22:08Z</time>
      </trkpt>
      <trkpt lat="43.76884" lon="7.44413">
        <ele>561.54998779297</ele>
        <time>2010-10-10T06:22:10Z</time>
      </trkpt>
      <trkpt lat="43.76859" lon="7.44399">
        <ele>562.51000976562</ele>
        <time>2010-10-10T06:22:24Z</time>
      </trkpt>
      <trkpt lat="43.76843" lon="7.4439">
        <ele>565.86999511719</ele>
        <time>2010-10-10T06:22:35Z</time>
      </trkpt>
      <trkpt lat="43.76842" lon="7.44389">
        <ele>564.42999267578</ele>
        <time>2010-10-10T06:22:36Z</time>
      </trkpt>
      <trkpt lat="43.76833" lon="7.44378">
        <ele>569.23999023438</ele>
        <time>2010-10-10T06:22:43Z</time>
      </trkpt>
      <trkpt lat="43.76832" lon="7.44377">
        <ele>565.86999511719</ele>
        <time>2010-10-10T06:22:44Z</time>
      </trkpt>
      <trkpt lat="43.76827" lon="7.44371">
        <ele>567.79998779297</ele>
        <time>2010-10-10T06:22:47Z</time>
      </trkpt>
      <trkpt lat="43.76823" lon="7.44369">
        <ele>570.20001220703</ele>
        <time>2010-10-10T06:22:49Z</time>
      </trkpt>
      <trkpt lat="43.76814" lon="7.44358">
        <ele>570.67999267578</ele>
        <time>2010-10-10T06:22:55Z</time>
      </trkpt>
      <trkpt lat="43.76807" lon="7.44351">
        <ele>573.55999755859</ele>
        <time>2010-10-10T06:22:59Z</time>
      </trkpt>
      <trkpt lat="43.76793" lon="7.44332">
        <ele>575.48999023438</ele>
        <time>2010-10-10T06:23:09Z</time>
      </trkpt>
      <trkpt lat="43.76785" lon="7.44317">
        <ele>579.33001708984</ele>
        <time>2010-10-10T06:23:16Z</time>
      </trkpt>
      <trkpt lat="43.7678" lon="7.44304">
        <ele>579.80999755859</ele>
        <time>2010-10-10T06:23:22Z</time>
      </trkpt>
      <trkpt lat="43.76778" lon="7.44299">
        <ele>578.84997558594</ele>
        <time>2010-10-10T06:23:24Z</time>
      </trkpt>
      <trkpt lat="43.76775" lon="7.44288">
        <ele>582.70001220703</ele>
        <time>2010-10-10T06:23:28Z</time>
      </trkpt>
      <trkpt lat="43.76774" lon="7.4427">
        <ele>583.65997314453</ele>
        <time>2010-10-10T06:23:35Z</time>
      </trkpt>
      <trkpt lat="43.76779" lon="7.44251">
        <ele>587.02001953125</ele>
        <time>2010-10-10T06:23:41Z</time>
      </trkpt>
      <trkpt lat="43.76792" lon="7.4423">
        <ele>587.02001953125</ele>
        <time>2010-10-10T06:23:49Z</time>
      </trkpt>
      <trkpt lat="43.76811" lon="7.4422">
        <ele>589.90997314453</ele>
        <time>2010-10-10T06:23:58Z</time>
      </trkpt>
      <trkpt lat="43.76841" lon="7.44199">
        <ele>588.46002197266</ele>
        <time>2010-10-10T06:24:11Z</time>
      </trkpt>
      <trkpt lat="43.76871" lon="7.44164">
        <ele>591.34997558594</ele>
        <time>2010-10-10T06:24:27Z</time>
      </trkpt>
      <trkpt lat="43.76887" lon="7.4414">
        <ele>593.75</ele>
        <time>2010-10-10T06:24:37Z</time>
      </trkpt>
      <trkpt lat="43.76896" lon="7.44111">
        <ele>595.19000244141</ele>
        <time>2010-10-10T06:24:49Z</time>
      </trkpt>
      <trkpt lat="43.76901" lon="7.44098">
        <ele>599.52001953125</ele>
        <time>2010-10-10T06:24:55Z</time>
      </trkpt>
      <trkpt lat="43.76897" lon="7.44093">
        <ele>600.47998046875</ele>
        <time>2010-10-10T06:25:00Z</time>
      </trkpt>
      <trkpt lat="43.76891" lon="7.44104">
        <ele>601.44000244141</ele>
        <time>2010-10-10T06:25:05Z</time>
      </trkpt>
      <trkpt lat="43.76882" lon="7.44121">
        <ele>603.35998535156</ele>
        <time>2010-10-10T06:25:12Z</time>
      </trkpt>
      <trkpt lat="43.76871" lon="7.44132">
        <ele>602.88000488281</ele>
        <time>2010-10-10T06:25:18Z</time>
      </trkpt>
      <trkpt lat="43.76859" lon="7.44143">
        <ele>606.25</ele>
        <time>2010-10-10T06:25:25Z</time>
      </trkpt>
      <trkpt lat="43.76849" lon="7.44153">
        <ele>606.72998046875</ele>
        <time>2010-10-10T06:25:30Z</time>
      </trkpt>
      <trkpt lat="43.7682" lon="7.44171">
        <ele>610.57000732422</ele>
        <time>2010-10-10T06:25:45Z</time>
      </trkpt>
      <trkpt lat="43.76812" lon="7.44174">
        <ele>612.02001953125</ele>
        <time>2010-10-10T06:25:49Z</time>
      </trkpt>
      <trkpt lat="43.76783" lon="7.44179">
        <ele>614.41998291016</ele>
        <time>2010-10-10T06:26:04Z</time>
      </trkpt>
      <trkpt lat="43.76781" lon="7.4418">
        <ele>614.41998291016</ele>
        <time>2010-10-10T06:26:05Z</time>
      </trkpt>
      <trkpt lat="43.76756" lon="7.4419">
        <ele>617.78002929688</ele>
        <time>2010-10-10T06:26:17Z</time>
      </trkpt>
      <trkpt lat="43.7673" lon="7.44197">
        <ele>620.66998291016</ele>
        <time>2010-10-10T06:26:31Z</time>
      </trkpt>
      <trkpt lat="43.7671" lon="7.44197">
        <ele>623.07000732422</ele>
        <time>2010-10-10T06:26:46Z</time>
      </trkpt>
      <trkpt lat="43.767" lon="7.44201">
        <ele>625.96002197266</ele>
        <time>2010-10-10T06:26:52Z</time>
      </trkpt>
      <trkpt lat="43.76696" lon="7.44191">
        <ele>626.91998291016</ele>
        <time>2010-10-10T06:27:00Z</time>
      </trkpt>
      <trkpt lat="43.76723" lon="7.44175">
        <ele>630.76000976562</ele>
        <time>2010-10-10T06:27:12Z</time>
      </trkpt>
      <trkpt lat="43.7674" lon="7.44158">
        <ele>633.65002441406</ele>
        <time>2010-10-10T06:27:23Z</time>
      </trkpt>
      <trkpt lat="43.76755" lon="7.44143">
        <ele>636.53002929688</ele>
        <time>2010-10-10T06:27:33Z</time>
      </trkpt>
      <trkpt lat="43.7676" lon="7.44137">
        <ele>638.45001220703</ele>
        <time>2010-10-10T06:27:37Z</time>
      </trkpt>
      <trkpt lat="43.76768" lon="7.44129">
        <ele>639.40997314453</ele>
        <time>2010-10-10T06:27:43Z</time>
      </trkpt>
      <trkpt lat="43.76776" lon="7.44124">
        <ele>641.34002685547</ele>
        <time>2010-10-10T06:27:48Z</time>
      </trkpt>
      <trkpt lat="43.76784" lon="7.44118">
        <ele>643.73999023438</ele>
        <time>2010-10-10T06:27:55Z</time>
      </trkpt>
      <trkpt lat="43.76792" lon="7.44112">
        <ele>644.21997070312</ele>
        <time>2010-10-10T06:28:01Z</time>
      </trkpt>
      <trkpt lat="43.76794" lon="7.44107">
        <ele>645.65997314453</ele>
        <time>2010-10-10T06:28:05Z</time>
      </trkpt>
      <trkpt lat="43.76778" lon="7.44112">
        <ele>648.54998779297</ele>
        <time>2010-10-10T06:28:14Z</time>
      </trkpt>
      <trkpt lat="43.76768" lon="7.44113">
        <ele>650.46997070312</ele>
        <time>2010-10-10T06:28:21Z</time>
      </trkpt>
      <trkpt lat="43.76749" lon="7.44117">
        <ele>653.83001708984</ele>
        <time>2010-10-10T06:28:33Z</time>
      </trkpt>
      <trkpt lat="43.76716" lon="7.44128">
        <ele>655.28002929688</ele>
        <time>2010-10-10T06:28:48Z</time>
      </trkpt>
      <trkpt lat="43.76687" lon="7.44132">
        <ele>658.64001464844</ele>
        <time>2010-10-10T06:29:02Z</time>
      </trkpt>
      <trkpt lat="43.76667" lon="7.44135">
        <ele>662.01000976562</ele>
        <time>2010-10-10T06:29:12Z</time>
      </trkpt>
      <trkpt lat="43.76663" lon="7.44135">
        <ele>662.48999023438</ele>
        <time>2010-10-10T06:29:14Z</time>
      </trkpt>
      <trkpt lat="43.7666" lon="7.44135">
        <ele>662.96997070312</ele>
        <time>2010-10-10T06:29:16Z</time>
      </trkpt>
      <trkpt lat="43.76652" lon="7.44125">
        <ele>664.40997314453</ele>
        <time>2010-10-10T06:29:33Z</time>
      </trkpt>
      <trkpt lat="43.76652" lon="7.44125">
        <ele>662.48999023438</ele>
        <time>2010-10-10T06:29:34Z</time>
      </trkpt>
      <trkpt lat="43.76662" lon="7.44119">
        <ele>663.45001220703</ele>
        <time>2010-10-10T06:29:46Z</time>
      </trkpt>
      <trkpt lat="43.76672" lon="7.44112">
        <ele>668.25</ele>
        <time>2010-10-10T06:29:53Z</time>
      </trkpt>
      <trkpt lat="43.76685" lon="7.44103">
        <ele>667.28997802734</ele>
        <time>2010-10-10T06:30:00Z</time>
      </trkpt>
      <trkpt lat="43.76688" lon="7.441">
        <ele>668.25</ele>
        <time>2010-10-10T06:30:02Z</time>
      </trkpt>
      <trkpt lat="43.76702" lon="7.44086">
        <ele>672.58001708984</ele>
        <time>2010-10-10T06:30:10Z</time>
      </trkpt>
      <trkpt lat="43.7673" lon="7.4407">
        <ele>672.09997558594</ele>
        <time>2010-10-10T06:30:24Z</time>
      </trkpt>
      <trkpt lat="43.76736" lon="7.4407">
        <ele>674.5</ele>
        <time>2010-10-10T06:30:35Z</time>
      </trkpt>
      <trkpt lat="43.76747" lon="7.44039">
        <ele>674.97998046875</ele>
        <time>2010-10-10T06:30:48Z</time>
      </trkpt>
      <trkpt lat="43.76741" lon="7.44028">
        <ele>671.14001464844</ele>
        <time>2010-10-10T06:30:52Z</time>
      </trkpt>
      <trkpt lat="43.76736" lon="7.44026">
        <ele>674.5</ele>
        <time>2010-10-10T06:30:54Z</time>
      </trkpt>
      <trkpt lat="43.76714" lon="7.44002">
        <ele>673.53997802734</ele>
        <time>2010-10-10T06:31:04Z</time>
      </trkpt>
      <trkpt lat="43.7671" lon="7.43981">
        <ele>675.94000244141</ele>
        <time>2010-10-10T06:31:11Z</time>
      </trkpt>
      <trkpt lat="43.76701" lon="7.43952">
        <ele>678.83001708984</ele>
        <time>2010-10-10T06:31:21Z</time>
      </trkpt>
      <trkpt lat="43.76697" lon="7.4394">
        <ele>679.78997802734</ele>
        <time>2010-10-10T06:31:25Z</time>
      </trkpt>
      <trkpt lat="43.76695" lon="7.4391">
        <ele>683.15002441406</ele>
        <time>2010-10-10T06:31:35Z</time>
      </trkpt>
      <trkpt lat="43.76695" lon="7.43906">
        <ele>682.66998291016</ele>
        <time>2010-10-10T06:31:36Z</time>
      </trkpt>
      <trkpt lat="43.7671" lon="7.43859">
        <ele>684.11999511719</ele>
        <time>2010-10-10T06:31:51Z</time>
      </trkpt>
      <trkpt lat="43.76732" lon="7.4384">
        <ele>682.19000244141</ele>
        <time>2010-10-10T06:32:00Z</time>
      </trkpt>
      <trkpt lat="43.76737" lon="7.43826">
        <ele>679.30999755859</ele>
        <time>2010-10-10T06:32:04Z</time>
      </trkpt>
      <trkpt lat="43.76727" lon="7.43814">
        <ele>677.39001464844</ele>
        <time>2010-10-10T06:32:09Z</time>
      </trkpt>
      <trkpt lat="43.7672" lon="7.43811">
        <ele>675.46002197266</ele>
        <time>2010-10-10T06:32:11Z</time>
      </trkpt>
      <trkpt lat="43.76719" lon="7.43796">
        <ele>672.09997558594</ele>
        <time>2010-10-10T06:32:15Z</time>
      </trkpt>
      <trkpt lat="43.76727" lon="7.43771">
        <ele>670.17999267578</ele>
        <time>2010-10-10T06:32:20Z</time>
      </trkpt>
      <trkpt lat="43.76728" lon="7.43751">
        <ele>669.70001220703</ele>
        <time>2010-10-10T06:32:25Z</time>
      </trkpt>
      <trkpt lat="43.76721" lon="7.43702">
        <ele>670.17999267578</ele>
        <time>2010-10-10T06:32:39Z</time>
      </trkpt>
      <trkpt lat="43.76722" lon="7.43692">
        <ele>671.61999511719</ele>
        <time>2010-10-10T06:32:43Z</time>
      </trkpt>
      <trkpt lat="43.76724" lon="7.43679">
        <ele>674.97998046875</ele>
        <time>2010-10-10T06:32:48Z</time>
      </trkpt>
      <trkpt lat="43.76724" lon="7.43677">
        <ele>674.97998046875</ele>
        <time>2010-10-10T06:32:49Z</time>
      </trkpt>
      <trkpt lat="43.7673" lon="7.43671">
        <ele>676.90997314453</ele>
        <time>2010-10-10T06:32:54Z</time>
      </trkpt>
      <trkpt lat="43.76748" lon="7.43671">
        <ele>680.27001953125</ele>
        <time>2010-10-10T06:33:04Z</time>
      </trkpt>
      <trkpt lat="43.76749" lon="7.4367">
        <ele>680.75</ele>
        <time>2010-10-10T06:33:05Z</time>
      </trkpt>
      <trkpt lat="43.76752" lon="7.43667">
        <ele>681.71002197266</ele>
        <time>2010-10-10T06:33:07Z</time>
      </trkpt>
      <trkpt lat="43.76753" lon="7.43658">
        <ele>682.66998291016</ele>
        <time>2010-10-10T06:33:11Z</time>
      </trkpt>
      <trkpt lat="43.76749" lon="7.43646">
        <ele>685.55999755859</ele>
        <time>2010-10-10T06:33:16Z</time>
      </trkpt>
      <trkpt lat="43.7674" lon="7.43635">
        <ele>688.44000244141</ele>
        <time>2010-10-10T06:33:24Z</time>
      </trkpt>
      <trkpt lat="43.76734" lon="7.43628">
        <ele>688.91998291016</ele>
        <time>2010-10-10T06:33:28Z</time>
      </trkpt>
      <trkpt lat="43.76723" lon="7.43613">
        <ele>688.91998291016</ele>
        <time>2010-10-10T06:33:35Z</time>
      </trkpt>
      <trkpt lat="43.76712" lon="7.43593">
        <ele>692.77001953125</ele>
        <time>2010-10-10T06:33:43Z</time>
      </trkpt>
      <trkpt lat="43.76698" lon="7.43567">
        <ele>693.72998046875</ele>
        <time>2010-10-10T06:33:54Z</time>
      </trkpt>
      <trkpt lat="43.76678" lon="7.43537">
        <ele>697.57000732422</ele>
        <time>2010-10-10T06:34:08Z</time>
      </trkpt>
      <trkpt lat="43.76656" lon="7.43525">
        <ele>700.46002197266</ele>
        <time>2010-10-10T06:34:20Z</time>
      </trkpt>
      <trkpt lat="43.76629" lon="7.43506">
        <ele>703.34002685547</ele>
        <time>2010-10-10T06:34:34Z</time>
      </trkpt>
      <trkpt lat="43.76602" lon="7.43493">
        <ele>706.71002197266</ele>
        <time>2010-10-10T06:34:48Z</time>
      </trkpt>
      <trkpt lat="43.76571" lon="7.43486">
        <ele>709.59002685547</ele>
        <time>2010-10-10T06:35:02Z</time>
      </trkpt>
      <trkpt lat="43.76541" lon="7.43485">
        <ele>712.95001220703</ele>
        <time>2010-10-10T06:35:15Z</time>
      </trkpt>
      <trkpt lat="43.7651" lon="7.43466">
        <ele>714.88000488281</ele>
        <time>2010-10-10T06:35:30Z</time>
      </trkpt>
      <trkpt lat="43.7649" lon="7.43436">
        <ele>718.71997070312</ele>
        <time>2010-10-10T06:35:43Z</time>
      </trkpt>
      <trkpt lat="43.76489" lon="7.43434">
        <ele>718.23999023438</ele>
        <time>2010-10-10T06:35:44Z</time>
      </trkpt>
      <trkpt lat="43.7648" lon="7.43384">
        <ele>720.15997314453</ele>
        <time>2010-10-10T06:36:00Z</time>
      </trkpt>
      <trkpt lat="43.76472" lon="7.43344">
        <ele>723.53002929688</ele>
        <time>2010-10-10T06:36:13Z</time>
      </trkpt>
      <trkpt lat="43.76469" lon="7.43304">
        <ele>726.40997314453</ele>
        <time>2010-10-10T06:36:27Z</time>
      </trkpt>
      <trkpt lat="43.76471" lon="7.43285">
        <ele>726.40997314453</ele>
        <time>2010-10-10T06:36:33Z</time>
      </trkpt>
      <trkpt lat="43.76474" lon="7.43252">
        <ele>729.78002929688</ele>
        <time>2010-10-10T06:36:44Z</time>
      </trkpt>
      <trkpt lat="43.76474" lon="7.43249">
        <ele>729.78002929688</ele>
        <time>2010-10-10T06:36:45Z</time>
      </trkpt>
      <trkpt lat="43.76482" lon="7.43209">
        <ele>734.09997558594</ele>
        <time>2010-10-10T06:36:59Z</time>
      </trkpt>
      <trkpt lat="43.76483" lon="7.43206">
        <ele>732.17999267578</ele>
        <time>2010-10-10T06:37:00Z</time>
      </trkpt>
      <trkpt lat="43.76487" lon="7.43165">
        <ele>736.03002929688</ele>
        <time>2010-10-10T06:37:14Z</time>
      </trkpt>
      <trkpt lat="43.76487" lon="7.43131">
        <ele>738.90997314453</ele>
        <time>2010-10-10T06:37:27Z</time>
      </trkpt>
      <trkpt lat="43.76488" lon="7.43116">
        <ele>740.34997558594</ele>
        <time>2010-10-10T06:37:32Z</time>
      </trkpt>
      <trkpt lat="43.76492" lon="7.43104">
        <ele>741.78997802734</ele>
        <time>2010-10-10T06:37:36Z</time>
      </trkpt>
      <trkpt lat="43.76498" lon="7.43061">
        <ele>744.20001220703</ele>
        <time>2010-10-10T06:37:49Z</time>
      </trkpt>
      <trkpt lat="43.76498" lon="7.43013">
        <ele>746.11999511719</ele>
        <time>2010-10-10T06:38:05Z</time>
      </trkpt>
      <trkpt lat="43.76498" lon="7.42973">
        <ele>749.48999023438</ele>
        <time>2010-10-10T06:38:18Z</time>
      </trkpt>
      <trkpt lat="43.76501" lon="7.42927">
        <ele>751.40997314453</ele>
        <time>2010-10-10T06:38:32Z</time>
      </trkpt>
      <trkpt lat="43.76489" lon="7.429">
        <ele>752.36999511719</ele>
        <time>2010-10-10T06:38:42Z</time>
      </trkpt>
      <trkpt lat="43.76463" lon="7.42887">
        <ele>754.77001953125</ele>
        <time>2010-10-10T06:38:53Z</time>
      </trkpt>
      <trkpt lat="43.76437" lon="7.429">
        <ele>757.17999267578</ele>
        <time>2010-10-10T06:39:06Z</time>
      </trkpt>
      <trkpt lat="43.76406" lon="7.42896">
        <ele>760.53997802734</ele>
        <time>2010-10-10T06:39:19Z</time>
      </trkpt>
      <trkpt lat="43.76403" lon="7.42896">
        <ele>760.53997802734</ele>
        <time>2010-10-10T06:39:20Z</time>
      </trkpt>
      <trkpt lat="43.76377" lon="7.42897">
        <ele>761.5</ele>
        <time>2010-10-10T06:39:31Z</time>
      </trkpt>
      <trkpt lat="43.76374" lon="7.42889">
        <ele>762.94000244141</ele>
        <time>2010-10-10T06:39:34Z</time>
      </trkpt>
      <trkpt lat="43.76377" lon="7.42886">
        <ele>766.30999755859</ele>
        <time>2010-10-10T06:39:37Z</time>
      </trkpt>
      <trkpt lat="43.76379" lon="7.42885">
        <ele>766.30999755859</ele>
        <time>2010-10-10T06:39:39Z</time>
      </trkpt>
      <trkpt lat="43.76392" lon="7.42885">
        <ele>763.90002441406</ele>
        <time>2010-10-10T06:39:46Z</time>
      </trkpt>
      <trkpt lat="43.76405" lon="7.42881">
        <ele>765.83001708984</ele>
        <time>2010-10-10T06:39:51Z</time>
      </trkpt>
      <trkpt lat="43.76431" lon="7.42876">
        <ele>766.78997802734</ele>
        <time>2010-10-10T06:40:01Z</time>
      </trkpt>
      <trkpt lat="43.7644" lon="7.42866">
        <ele>767.27001953125</ele>
        <time>2010-10-10T06:40:06Z</time>
      </trkpt>
      <trkpt lat="43.76449" lon="7.42859">
        <ele>768.22998046875</ele>
        <time>2010-10-10T06:40:11Z</time>
      </trkpt>
      <trkpt lat="43.76472" lon="7.42857">
        <ele>770.15002441406</ele>
        <time>2010-10-10T06:40:21Z</time>
      </trkpt>
      <trkpt lat="43.76474" lon="7.42857">
        <ele>770.15002441406</ele>
        <time>2010-10-10T06:40:22Z</time>
      </trkpt>
      <trkpt lat="43.76478" lon="7.42857">
        <ele>771.10998535156</ele>
        <time>2010-10-10T06:40:24Z</time>
      </trkpt>
      <trkpt lat="43.76487" lon="7.42858">
        <ele>773.52001953125</ele>
        <time>2010-10-10T06:40:32Z</time>
      </trkpt>
      <trkpt lat="43.76489" lon="7.42856">
        <ele>774.96002197266</ele>
        <time>2010-10-10T06:40:35Z</time>
      </trkpt>
      <trkpt lat="43.76493" lon="7.42854">
        <ele>776.88000488281</ele>
        <time>2010-10-10T06:40:39Z</time>
      </trkpt>
      <trkpt lat="43.76502" lon="7.42853">
        <ele>778.80999755859</ele>
        <time>2010-10-10T06:40:47Z</time>
      </trkpt>
      <trkpt lat="43.76509" lon="7.42852">
        <ele>781.21002197266</ele>
        <time>2010-10-10T06:40:53Z</time>
      </trkpt>
      <trkpt lat="43.76524" lon="7.42843">
        <ele>783.60998535156</ele>
        <time>2010-10-10T06:41:04Z</time>
      </trkpt>
      <trkpt lat="43.76525" lon="7.42843">
        <ele>783.13000488281</ele>
        <time>2010-10-10T06:41:05Z</time>
      </trkpt>
      <trkpt lat="43.76532" lon="7.42838">
        <ele>786.5</ele>
        <time>2010-10-10T06:41:12Z</time>
      </trkpt>
      <trkpt lat="43.76533" lon="7.42836">
        <ele>786.02001953125</ele>
        <time>2010-10-10T06:41:14Z</time>
      </trkpt>
      <trkpt lat="43.7654" lon="7.42829">
        <ele>788.41998291016</ele>
        <time>2010-10-10T06:41:22Z</time>
      </trkpt>
      <trkpt lat="43.76544" lon="7.42824">
        <ele>789.38000488281</ele>
        <time>2010-10-10T06:41:27Z</time>
      </trkpt>
      <trkpt lat="43.76552" lon="7.42814">
        <ele>791.29998779297</ele>
        <time>2010-10-10T06:41:37Z</time>
      </trkpt>
      <trkpt lat="43.76561" lon="7.42805">
        <ele>794.19000244141</ele>
        <time>2010-10-10T06:41:46Z</time>
      </trkpt>
      <trkpt lat="43.76562" lon="7.42804">
        <ele>794.19000244141</ele>
        <time>2010-10-10T06:41:47Z</time>
      </trkpt>
      <trkpt lat="43.76583" lon="7.42802">
        <ele>798.03002929688</ele>
        <time>2010-10-10T06:42:00Z</time>
      </trkpt>
      <trkpt lat="43.76593" lon="7.42802">
        <ele>798.51000976562</ele>
        <time>2010-10-10T06:42:04Z</time>
      </trkpt>
      <trkpt lat="43.76615" lon="7.42818">
        <ele>799.46997070312</ele>
        <time>2010-10-10T06:42:16Z</time>
      </trkpt>
      <trkpt lat="43.76627" lon="7.42844">
        <ele>800.44000244141</ele>
        <time>2010-10-10T06:42:26Z</time>
      </trkpt>
      <trkpt lat="43.76639" lon="7.42861">
        <ele>804.28002929688</ele>
        <time>2010-10-10T06:42:37Z</time>
      </trkpt>
      <trkpt lat="43.76645" lon="7.42871">
        <ele>807.64001464844</ele>
        <time>2010-10-10T06:42:43Z</time>
      </trkpt>
      <trkpt lat="43.76664" lon="7.42889">
        <ele>809.57000732422</ele>
        <time>2010-10-10T06:42:55Z</time>
      </trkpt>
      <trkpt lat="43.76675" lon="7.42908">
        <ele>810.04998779297</ele>
        <time>2010-10-10T06:43:01Z</time>
      </trkpt>
      <trkpt lat="43.7669" lon="7.42924">
        <ele>809.57000732422</ele>
        <time>2010-10-10T06:43:09Z</time>
      </trkpt>
      <trkpt lat="43.76693" lon="7.42929">
        <ele>810.04998779297</ele>
        <time>2010-10-10T06:43:11Z</time>
      </trkpt>
      <trkpt lat="43.76696" lon="7.42933">
        <ele>810.53002929688</ele>
        <time>2010-10-10T06:43:13Z</time>
      </trkpt>
      <trkpt lat="43.76711" lon="7.42952">
        <ele>814.84997558594</ele>
        <time>2010-10-10T06:43:24Z</time>
      </trkpt>
      <trkpt lat="43.76715" lon="7.42955">
        <ele>813.40997314453</ele>
        <time>2010-10-10T06:43:28Z</time>
      </trkpt>
      <trkpt lat="43.76719" lon="7.42957">
        <ele>816.29998779297</ele>
        <time>2010-10-10T06:43:32Z</time>
      </trkpt>
      <trkpt lat="43.76729" lon="7.42966">
        <ele>817.26000976562</ele>
        <time>2010-10-10T06:43:40Z</time>
      </trkpt>
      <trkpt lat="43.76737" lon="7.42971">
        <ele>817.26000976562</ele>
        <time>2010-10-10T06:43:44Z</time>
      </trkpt>
      <trkpt lat="43.76751" lon="7.42977">
        <ele>816.78002929688</ele>
        <time>2010-10-10T06:43:50Z</time>
      </trkpt>
      <trkpt lat="43.76766" lon="7.43008">
        <ele>819.65997314453</ele>
        <time>2010-10-10T06:44:01Z</time>
      </trkpt>
      <trkpt lat="43.76789" lon="7.43033">
        <ele>817.73999023438</ele>
        <time>2010-10-10T06:44:12Z</time>
      </trkpt>
      <trkpt lat="43.76809" lon="7.43071">
        <ele>819.17999267578</ele>
        <time>2010-10-10T06:44:24Z</time>
      </trkpt>
      <trkpt lat="43.76817" lon="7.43108">
        <ele>820.14001464844</ele>
        <time>2010-10-10T06:44:35Z</time>
      </trkpt>
      <trkpt lat="43.76828" lon="7.43145">
        <ele>821.58001708984</ele>
        <time>2010-10-10T06:44:46Z</time>
      </trkpt>
      <trkpt lat="43.76837" lon="7.43178">
        <ele>823.03002929688</ele>
        <time>2010-10-10T06:44:57Z</time>
      </trkpt>
      <trkpt lat="43.76852" lon="7.43206">
        <ele>828.78997802734</ele>
        <time>2010-10-10T06:45:08Z</time>
      </trkpt>
      <trkpt lat="43.76876" lon="7.43225">
        <ele>828.30999755859</ele>
        <time>2010-10-10T06:45:20Z</time>
      </trkpt>
      <trkpt lat="43.76886" lon="7.43228">
        <ele>829.76000976562</ele>
        <time>2010-10-10T06:45:26Z</time>
      </trkpt>
      <trkpt lat="43.76902" lon="7.43237">
        <ele>834.55999755859</ele>
        <time>2010-10-10T06:45:36Z</time>
      </trkpt>
      <trkpt lat="43.76908" lon="7.43238">
        <ele>833.59997558594</ele>
        <time>2010-10-10T06:45:39Z</time>
      </trkpt>
      <trkpt lat="43.76913" lon="7.4324">
        <ele>835.03997802734</ele>
        <time>2010-10-10T06:45:43Z</time>
      </trkpt>
      <trkpt lat="43.76916" lon="7.43246">
        <ele>836</ele>
        <time>2010-10-10T06:45:47Z</time>
      </trkpt>
      <trkpt lat="43.76918" lon="7.43252">
        <ele>836.96002197266</ele>
        <time>2010-10-10T06:45:51Z</time>
      </trkpt>
      <trkpt lat="43.76919" lon="7.43255">
        <ele>838.40997314453</ele>
        <time>2010-10-10T06:45:53Z</time>
      </trkpt>
      <trkpt lat="43.76928" lon="7.43265">
        <ele>841.77001953125</ele>
        <time>2010-10-10T06:46:04Z</time>
      </trkpt>
      <trkpt lat="43.76933" lon="7.43276">
        <ele>843.69000244141</ele>
        <time>2010-10-10T06:46:13Z</time>
      </trkpt>
      <trkpt lat="43.7694" lon="7.43283">
        <ele>846.58001708984</ele>
        <time>2010-10-10T06:46:23Z</time>
      </trkpt>
      <trkpt lat="43.76941" lon="7.43285">
        <ele>847.53997802734</ele>
        <time>2010-10-10T06:46:25Z</time>
      </trkpt>
      <trkpt lat="43.76942" lon="7.43292">
        <ele>848.5</ele>
        <time>2010-10-10T06:46:29Z</time>
      </trkpt>
      <trkpt lat="43.7695" lon="7.43303">
        <ele>850.41998291016</ele>
        <time>2010-10-10T06:46:38Z</time>
      </trkpt>
      <trkpt lat="43.76953" lon="7.43303">
        <ele>851.38000488281</ele>
        <time>2010-10-10T06:46:40Z</time>
      </trkpt>
      <trkpt lat="43.76963" lon="7.43306">
        <ele>855.22998046875</ele>
        <time>2010-10-10T06:46:48Z</time>
      </trkpt>
      <trkpt lat="43.76974" lon="7.43314">
        <ele>854.75</ele>
        <time>2010-10-10T06:46:55Z</time>
      </trkpt>
      <trkpt lat="43.76978" lon="7.43315">
        <ele>855.71002197266</ele>
        <time>2010-10-10T06:46:57Z</time>
      </trkpt>
      <trkpt lat="43.76985" lon="7.4331">
        <ele>856.66998291016</ele>
        <time>2010-10-10T06:47:02Z</time>
      </trkpt>
      <trkpt lat="43.76998" lon="7.43309">
        <ele>858.10998535156</ele>
        <time>2010-10-10T06:47:09Z</time>
      </trkpt>
      <trkpt lat="43.7701" lon="7.43326">
        <ele>861</ele>
        <time>2010-10-10T06:47:17Z</time>
      </trkpt>
      <trkpt lat="43.77037" lon="7.43345">
        <ele>861</ele>
        <time>2010-10-10T06:47:31Z</time>
      </trkpt>
      <trkpt lat="43.77042" lon="7.43347">
        <ele>861</ele>
        <time>2010-10-10T06:47:33Z</time>
      </trkpt>
      <trkpt lat="43.77048" lon="7.43349">
        <ele>859.08001708984</ele>
        <time>2010-10-10T06:47:36Z</time>
      </trkpt>
      <trkpt lat="43.77072" lon="7.43355">
        <ele>862.44000244141</ele>
        <time>2010-10-10T06:47:47Z</time>
      </trkpt>
      <trkpt lat="43.77092" lon="7.43357">
        <ele>862.91998291016</ele>
        <time>2010-10-10T06:47:55Z</time>
      </trkpt>
      <trkpt lat="43.77104" lon="7.43358">
        <ele>861.96002197266</ele>
        <time>2010-10-10T06:48:00Z</time>
      </trkpt>
      <trkpt lat="43.77121" lon="7.43356">
        <ele>863.88000488281</ele>
        <time>2010-10-10T06:48:10Z</time>
      </trkpt>
      <trkpt lat="43.7712" lon="7.43356">
        <ele>864.35998535156</ele>
        <time>2010-10-10T06:48:21Z</time>
      </trkpt>
      <trkpt lat="43.77124" lon="7.43354">
        <ele>865.32000732422</ele>
        <time>2010-10-10T06:48:24Z</time>
      </trkpt>
      <trkpt lat="43.77137" lon="7.43349">
        <ele>865.79998779297</ele>
        <time>2010-10-10T06:48:31Z</time>
      </trkpt>
      <trkpt lat="43.77143" lon="7.43347">
        <ele>867.72998046875</ele>
        <time>2010-10-10T06:48:34Z</time>
      </trkpt>
      <trkpt lat="43.77165" lon="7.43339">
        <ele>870.60998535156</ele>
        <time>2010-10-10T06:48:46Z</time>
      </trkpt>
      <trkpt lat="43.77175" lon="7.43335">
        <ele>873.01000976562</ele>
        <time>2010-10-10T06:48:53Z</time>
      </trkpt>
      <trkpt lat="43.77178" lon="7.43333">
        <ele>872.53002929688</ele>
        <time>2010-10-10T06:48:55Z</time>
      </trkpt>
      <trkpt lat="43.77196" lon="7.43328">
        <ele>874.94000244141</ele>
        <time>2010-10-10T06:49:05Z</time>
      </trkpt>
      <trkpt lat="43.77205" lon="7.43324">
        <ele>875.90002441406</ele>
        <time>2010-10-10T06:49:11Z</time>
      </trkpt>
      <trkpt lat="43.77204" lon="7.43318">
        <ele>876.38000488281</ele>
        <time>2010-10-10T06:49:17Z</time>
      </trkpt>
      <trkpt lat="43.77188" lon="7.43312">
        <ele>881.19000244141</ele>
        <time>2010-10-10T06:49:27Z</time>
      </trkpt>
      <trkpt lat="43.77169" lon="7.4331">
        <ele>884.54998779297</ele>
        <time>2010-10-10T06:49:39Z</time>
      </trkpt>
      <trkpt lat="43.7715" lon="7.43298">
        <ele>885.51000976562</ele>
        <time>2010-10-10T06:49:51Z</time>
      </trkpt>
      <trkpt lat="43.77148" lon="7.43297">
        <ele>885.98999023438</ele>
        <time>2010-10-10T06:49:52Z</time>
      </trkpt>
      <trkpt lat="43.77143" lon="7.43291">
        <ele>886.46997070312</ele>
        <time>2010-10-10T06:49:56Z</time>
      </trkpt>
      <trkpt lat="43.77137" lon="7.43284">
        <ele>887.90997314453</ele>
        <time>2010-10-10T06:50:01Z</time>
      </trkpt>
      <trkpt lat="43.77127" lon="7.43272">
        <ele>888.88000488281</ele>
        <time>2010-10-10T06:50:08Z</time>
      </trkpt>
      <trkpt lat="43.77124" lon="7.43267">
        <ele>889.84002685547</ele>
        <time>2010-10-10T06:50:10Z</time>
      </trkpt>
      <trkpt lat="43.77124" lon="7.43263">
        <ele>890.32000732422</ele>
        <time>2010-10-10T06:50:12Z</time>
      </trkpt>
      <trkpt lat="43.77132" lon="7.43262">
        <ele>891.76000976562</ele>
        <time>2010-10-10T06:50:17Z</time>
      </trkpt>
      <trkpt lat="43.77138" lon="7.43263">
        <ele>892.23999023438</ele>
        <time>2010-10-10T06:50:21Z</time>
      </trkpt>
      <trkpt lat="43.7714" lon="7.43262">
        <ele>893.20001220703</ele>
        <time>2010-10-10T06:50:23Z</time>
      </trkpt>
      <trkpt lat="43.77135" lon="7.43248">
        <ele>895.60998535156</ele>
        <time>2010-10-10T06:50:33Z</time>
      </trkpt>
      <trkpt lat="43.77126" lon="7.43227">
        <ele>899.92999267578</ele>
        <time>2010-10-10T06:50:47Z</time>
      </trkpt>
      <trkpt lat="43.77125" lon="7.43223">
        <ele>898.96997070312</ele>
        <time>2010-10-10T06:50:49Z</time>
      </trkpt>
      <trkpt lat="43.77126" lon="7.43218">
        <ele>900.40997314453</ele>
        <time>2010-10-10T06:50:53Z</time>
      </trkpt>
      <trkpt lat="43.77131" lon="7.4322">
        <ele>901.84997558594</ele>
        <time>2010-10-10T06:50:56Z</time>
      </trkpt>
      <trkpt lat="43.77138" lon="7.43225">
        <ele>902.33001708984</ele>
        <time>2010-10-10T06:51:00Z</time>
      </trkpt>
      <trkpt lat="43.77146" lon="7.43229">
        <ele>903.29998779297</ele>
        <time>2010-10-10T06:51:05Z</time>
      </trkpt>
      <trkpt lat="43.77154" lon="7.43234">
        <ele>903.78002929688</ele>
        <time>2010-10-10T06:51:10Z</time>
      </trkpt>
      <trkpt lat="43.77161" lon="7.43238">
        <ele>902.82000732422</ele>
        <time>2010-10-10T06:51:14Z</time>
      </trkpt>
      <trkpt lat="43.7717" lon="7.43238">
        <ele>905.70001220703</ele>
        <time>2010-10-10T06:51:18Z</time>
      </trkpt>
      <trkpt lat="43.77179" lon="7.43232">
        <ele>907.61999511719</ele>
        <time>2010-10-10T06:51:24Z</time>
      </trkpt>
      <trkpt lat="43.77187" lon="7.43228">
        <ele>908.58001708984</ele>
        <time>2010-10-10T06:51:29Z</time>
      </trkpt>
      <trkpt lat="43.77203" lon="7.43224">
        <ele>910.98999023438</ele>
        <time>2010-10-10T06:51:38Z</time>
      </trkpt>
      <trkpt lat="43.7721" lon="7.43225">
        <ele>910.98999023438</ele>
        <time>2010-10-10T06:51:42Z</time>
      </trkpt>
      <trkpt lat="43.77215" lon="7.43226">
        <ele>910.98999023438</ele>
        <time>2010-10-10T06:51:44Z</time>
      </trkpt>
      <trkpt lat="43.77232" lon="7.43215">
        <ele>913.86999511719</ele>
        <time>2010-10-10T06:51:54Z</time>
      </trkpt>
      <trkpt lat="43.77234" lon="7.43214">
        <ele>914.34997558594</ele>
        <time>2010-10-10T06:51:55Z</time>
      </trkpt>
      <trkpt lat="43.7725" lon="7.43197">
        <ele>916.27001953125</ele>
        <time>2010-10-10T06:52:08Z</time>
      </trkpt>
      <trkpt lat="43.77251" lon="7.43196">
        <ele>916.75</ele>
        <time>2010-10-10T06:52:09Z</time>
      </trkpt>
      <trkpt lat="43.77276" lon="7.43189">
        <ele>918.20001220703</ele>
        <time>2010-10-10T06:52:21Z</time>
      </trkpt>
      <trkpt lat="43.77279" lon="7.43188">
        <ele>919.15997314453</ele>
        <time>2010-10-10T06:52:23Z</time>
      </trkpt>
      <trkpt lat="43.77282" lon="7.43187">
        <ele>919.64001464844</ele>
        <time>2010-10-10T06:52:25Z</time>
      </trkpt>
      <trkpt lat="43.77304" lon="7.43179">
        <ele>923.47998046875</ele>
        <time>2010-10-10T06:52:37Z</time>
      </trkpt>
      <trkpt lat="43.77334" lon="7.43165">
        <ele>923.96002197266</ele>
        <time>2010-10-10T06:52:51Z</time>
      </trkpt>
      <trkpt lat="43.77358" lon="7.43152">
        <ele>925.89001464844</ele>
        <time>2010-10-10T06:53:04Z</time>
      </trkpt>
      <trkpt lat="43.77375" lon="7.43139">
        <ele>929.25</ele>
        <time>2010-10-10T06:53:14Z</time>
      </trkpt>
      <trkpt lat="43.77394" lon="7.43129">
        <ele>929.25</ele>
        <time>2010-10-10T06:53:24Z</time>
      </trkpt>
      <trkpt lat="43.77412" lon="7.43128">
        <ele>929.25</ele>
        <time>2010-10-10T06:53:34Z</time>
      </trkpt>
      <trkpt lat="43.77441" lon="7.43126">
        <ele>933.58001708984</ele>
        <time>2010-10-10T06:53:49Z</time>
      </trkpt>
      <trkpt lat="43.77443" lon="7.43126">
        <ele>932.61999511719</ele>
        <time>2010-10-10T06:53:50Z</time>
      </trkpt>
      <trkpt lat="43.77461" lon="7.43125">
        <ele>935.02001953125</ele>
        <time>2010-10-10T06:54:00Z</time>
      </trkpt>
      <trkpt lat="43.77489" lon="7.4311">
        <ele>937.41998291016</ele>
        <time>2010-10-10T06:54:16Z</time>
      </trkpt>
      <trkpt lat="43.77496" lon="7.43108">
        <ele>939.34997558594</ele>
        <time>2010-10-10T06:54:20Z</time>
      </trkpt>
      <trkpt lat="43.77516" lon="7.43101">
        <ele>941.27001953125</ele>
        <time>2010-10-10T06:54:31Z</time>
      </trkpt>
      <trkpt lat="43.77536" lon="7.43099">
        <ele>942.22998046875</ele>
        <time>2010-10-10T06:54:41Z</time>
      </trkpt>
      <trkpt lat="43.77546" lon="7.43094">
        <ele>943.66998291016</ele>
        <time>2010-10-10T06:54:47Z</time>
      </trkpt>
      <trkpt lat="43.77557" lon="7.43089">
        <ele>946.07000732422</ele>
        <time>2010-10-10T06:54:54Z</time>
      </trkpt>
      <trkpt lat="43.77571" lon="7.43078">
        <ele>948.47998046875</ele>
        <time>2010-10-10T06:55:04Z</time>
      </trkpt>
      <trkpt lat="43.77575" lon="7.43076">
        <ele>948.96002197266</ele>
        <time>2010-10-10T06:55:06Z</time>
      </trkpt>
      <trkpt lat="43.77594" lon="7.43066">
        <ele>951.84002685547</ele>
        <time>2010-10-10T06:55:18Z</time>
      </trkpt>
      <trkpt lat="43.77595" lon="7.43065">
        <ele>952.32000732422</ele>
        <time>2010-10-10T06:55:19Z</time>
      </trkpt>
      <trkpt lat="43.77612" lon="7.43053">
        <ele>955.21002197266</ele>
        <time>2010-10-10T06:55:31Z</time>
      </trkpt>
      <trkpt lat="43.7762" lon="7.43045">
        <ele>954.72998046875</ele>
        <time>2010-10-10T06:55:36Z</time>
      </trkpt>
      <trkpt lat="43.77638" lon="7.43034">
        <ele>958.09002685547</ele>
        <time>2010-10-10T06:55:48Z</time>
      </trkpt>
      <trkpt lat="43.77643" lon="7.4303">
        <ele>959.53002929688</ele>
        <time>2010-10-10T06:55:51Z</time>
      </trkpt>
      <trkpt lat="43.77657" lon="7.43021">
        <ele>960.48999023438</ele>
        <time>2010-10-10T06:55:59Z</time>
      </trkpt>
      <trkpt lat="43.77675" lon="7.43012">
        <ele>962.90002441406</ele>
        <time>2010-10-10T06:56:10Z</time>
      </trkpt>
      <trkpt lat="43.77695" lon="7.42995">
        <ele>964.82000732422</ele>
        <time>2010-10-10T06:56:22Z</time>
      </trkpt>
      <trkpt lat="43.77706" lon="7.42987">
        <ele>964.82000732422</ele>
        <time>2010-10-10T06:56:28Z</time>
      </trkpt>
      <trkpt lat="43.77731" lon="7.4297">
        <ele>965.78002929688</ele>
        <time>2010-10-10T06:56:40Z</time>
      </trkpt>
      <trkpt lat="43.77753" lon="7.42954">
        <ele>965.78002929688</ele>
        <time>2010-10-10T06:56:51Z</time>
      </trkpt>
      <trkpt lat="43.77777" lon="7.42936">
        <ele>962.41998291016</ele>
        <time>2010-10-10T06:57:01Z</time>
      </trkpt>
      <trkpt lat="43.77789" lon="7.42927">
        <ele>966.26000976562</ele>
        <time>2010-10-10T06:57:06Z</time>
      </trkpt>
      <trkpt lat="43.77798" lon="7.42919">
        <ele>964.34002685547</ele>
        <time>2010-10-10T06:57:10Z</time>
      </trkpt>
      <trkpt lat="43.7782" lon="7.42898">
        <ele>962.90002441406</ele>
        <time>2010-10-10T06:57:21Z</time>
      </trkpt>
      <trkpt lat="43.77829" lon="7.42888">
        <ele>962.90002441406</ele>
        <time>2010-10-10T06:57:25Z</time>
      </trkpt>
      <trkpt lat="43.7784" lon="7.42876">
        <ele>961.46002197266</ele>
        <time>2010-10-10T06:57:30Z</time>
      </trkpt>
      <trkpt lat="43.77861" lon="7.42854">
        <ele>960.48999023438</ele>
        <time>2010-10-10T06:57:41Z</time>
      </trkpt>
      <trkpt lat="43.77885" lon="7.42822">
        <ele>959.04998779297</ele>
        <time>2010-10-10T06:57:52Z</time>
      </trkpt>
      <trkpt lat="43.77888" lon="7.42817">
        <ele>960.97998046875</ele>
        <time>2010-10-10T06:57:54Z</time>
      </trkpt>
      <trkpt lat="43.77893" lon="7.42812">
        <ele>959.53002929688</ele>
        <time>2010-10-10T06:57:56Z</time>
      </trkpt>
      <trkpt lat="43.77903" lon="7.42799">
        <ele>956.16998291016</ele>
        <time>2010-10-10T06:58:01Z</time>
      </trkpt>
      <trkpt lat="43.77911" lon="7.42786">
        <ele>960.01000976562</ele>
        <time>2010-10-10T06:58:06Z</time>
      </trkpt>
      <trkpt lat="43.77913" lon="7.42783">
        <ele>956.16998291016</ele>
        <time>2010-10-10T06:58:07Z</time>
      </trkpt>
      <trkpt lat="43.77914" lon="7.42781">
        <ele>955.69000244141</ele>
        <time>2010-10-10T06:58:08Z</time>
      </trkpt>
      <trkpt lat="43.77921" lon="7.42773">
        <ele>953.28002929688</ele>
        <time>2010-10-10T06:58:12Z</time>
      </trkpt>
      <trkpt lat="43.77924" lon="7.4277">
        <ele>952.32000732422</ele>
        <time>2010-10-10T06:58:14Z</time>
      </trkpt>
      <trkpt lat="43.77932" lon="7.42763">
        <ele>949.91998291016</ele>
        <time>2010-10-10T06:58:18Z</time>
      </trkpt>
      <trkpt lat="43.77946" lon="7.42744">
        <ele>946.55999755859</ele>
        <time>2010-10-10T06:58:24Z</time>
      </trkpt>
      <trkpt lat="43.77951" lon="7.42739">
        <ele>946.07000732422</ele>
        <time>2010-10-10T06:58:26Z</time>
      </trkpt>
      <trkpt lat="43.77957" lon="7.42735">
        <ele>944.15002441406</ele>
        <time>2010-10-10T06:58:29Z</time>
      </trkpt>
      <trkpt lat="43.77973" lon="7.42712">
        <ele>941.27001953125</ele>
        <time>2010-10-10T06:58:38Z</time>
      </trkpt>
      <trkpt lat="43.77977" lon="7.42705">
        <ele>941.27001953125</ele>
        <time>2010-10-10T06:58:40Z</time>
      </trkpt>
      <trkpt lat="43.77996" lon="7.42679">
        <ele>938.85998535156</ele>
        <time>2010-10-10T06:58:50Z</time>
      </trkpt>
      <trkpt lat="43.77998" lon="7.42672">
        <ele>939.34997558594</ele>
        <time>2010-10-10T06:58:52Z</time>
      </trkpt>
      <trkpt lat="43.78021" lon="7.42646">
        <ele>937.90002441406</ele>
        <time>2010-10-10T06:59:01Z</time>
      </trkpt>
      <trkpt lat="43.78032" lon="7.42617">
        <ele>937.90002441406</ele>
        <time>2010-10-10T06:59:10Z</time>
      </trkpt>
      <trkpt lat="43.7804" lon="7.42582">
        <ele>939.34997558594</ele>
        <time>2010-10-10T06:59:18Z</time>
      </trkpt>
      <trkpt lat="43.78034" lon="7.42561">
        <ele>940.30999755859</ele>
        <time>2010-10-10T06:59:25Z</time>
      </trkpt>
      <trkpt lat="43.78038" lon="7.42539">
        <ele>943.19000244141</ele>
        <time>2010-10-10T06:59:34Z</time>
      </trkpt>
      <trkpt lat="43.78044" lon="7.42519">
        <ele>942.71002197266</ele>
        <time>2010-10-10T06:59:40Z</time>
      </trkpt>
      <trkpt lat="43.78044" lon="7.42514">
        <ele>943.19000244141</ele>
        <time>2010-10-10T06:59:42Z</time>
      </trkpt>
      <trkpt lat="43.78043" lon="7.4251">
        <ele>943.19000244141</ele>
        <time>2010-10-10T06:59:44Z</time>
      </trkpt>
      <trkpt lat="43.78043" lon="7.42498">
        <ele>945.10998535156</ele>
        <time>2010-10-10T06:59:50Z</time>
      </trkpt>
      <trkpt lat="43.78044" lon="7.42495">
        <ele>945.10998535156</ele>
        <time>2010-10-10T06:59:51Z</time>
      </trkpt>
      <trkpt lat="43.78046" lon="7.42466">
        <ele>948.47998046875</ele>
        <time>2010-10-10T07:00:01Z</time>
      </trkpt>
      <trkpt lat="43.78047" lon="7.42462">
        <ele>948.47998046875</ele>
        <time>2010-10-10T07:00:03Z</time>
      </trkpt>
      <trkpt lat="43.78056" lon="7.42434">
        <ele>948.96002197266</ele>
        <time>2010-10-10T07:00:14Z</time>
      </trkpt>
      <trkpt lat="43.78065" lon="7.42409">
        <ele>946.55999755859</ele>
        <time>2010-10-10T07:00:24Z</time>
      </trkpt>
      <trkpt lat="43.78076" lon="7.42398">
        <ele>946.55999755859</ele>
        <time>2010-10-10T07:00:32Z</time>
      </trkpt>
      <trkpt lat="43.78081" lon="7.42396">
        <ele>947.03997802734</ele>
        <time>2010-10-10T07:00:35Z</time>
      </trkpt>
      <trkpt lat="43.78093" lon="7.42396">
        <ele>948</ele>
        <time>2010-10-10T07:00:41Z</time>
      </trkpt>
      <trkpt lat="43.78102" lon="7.42394">
        <ele>948.47998046875</ele>
        <time>2010-10-10T07:00:45Z</time>
      </trkpt>
      <trkpt lat="43.7811" lon="7.42386">
        <ele>950.88000488281</ele>
        <time>2010-10-10T07:00:50Z</time>
      </trkpt>
      <trkpt lat="43.78123" lon="7.42375">
        <ele>950.88000488281</ele>
        <time>2010-10-10T07:00:57Z</time>
      </trkpt>
      <trkpt lat="43.78141" lon="7.42355">
        <ele>950.40002441406</ele>
        <time>2010-10-10T07:01:05Z</time>
      </trkpt>
      <trkpt lat="43.78148" lon="7.42348">
        <ele>951.35998535156</ele>
        <time>2010-10-10T07:01:09Z</time>
      </trkpt>
      <trkpt lat="43.78163" lon="7.42343">
        <ele>950.40002441406</ele>
        <time>2010-10-10T07:01:15Z</time>
      </trkpt>
      <trkpt lat="43.78168" lon="7.42343">
        <ele>950.88000488281</ele>
        <time>2010-10-10T07:01:18Z</time>
      </trkpt>
      <trkpt lat="43.78173" lon="7.42335">
        <ele>951.35998535156</ele>
        <time>2010-10-10T07:01:22Z</time>
      </trkpt>
      <trkpt lat="43.78178" lon="7.42332">
        <ele>951.84002685547</ele>
        <time>2010-10-10T07:01:25Z</time>
      </trkpt>
      <trkpt lat="43.78186" lon="7.42325">
        <ele>953.77001953125</ele>
        <time>2010-10-10T07:01:30Z</time>
      </trkpt>
      <trkpt lat="43.78213" lon="7.42298">
        <ele>956.65002441406</ele>
        <time>2010-10-10T07:01:42Z</time>
      </trkpt>
      <trkpt lat="43.7823" lon="7.4228">
        <ele>956.16998291016</ele>
        <time>2010-10-10T07:01:50Z</time>
      </trkpt>
      <trkpt lat="43.78248" lon="7.42266">
        <ele>960.01000976562</ele>
        <time>2010-10-10T07:02:00Z</time>
      </trkpt>
      <trkpt lat="43.78248" lon="7.42265">
        <ele>958.57000732422</ele>
        <time>2010-10-10T07:02:01Z</time>
      </trkpt>
      <trkpt lat="43.7825" lon="7.42263">
        <ele>959.53002929688</ele>
        <time>2010-10-10T07:02:04Z</time>
      </trkpt>
      <trkpt lat="43.78271" lon="7.42248">
        <ele>959.53002929688</ele>
        <time>2010-10-10T07:02:14Z</time>
      </trkpt>
      <trkpt lat="43.78283" lon="7.42245">
        <ele>959.04998779297</ele>
        <time>2010-10-10T07:02:18Z</time>
      </trkpt>
      <trkpt lat="43.78296" lon="7.42242">
        <ele>961.94000244141</ele>
        <time>2010-10-10T07:02:24Z</time>
      </trkpt>
      <trkpt lat="43.7831" lon="7.42236">
        <ele>963.38000488281</ele>
        <time>2010-10-10T07:02:31Z</time>
      </trkpt>
      <trkpt lat="43.78314" lon="7.42233">
        <ele>963.85998535156</ele>
        <time>2010-10-10T07:02:33Z</time>
      </trkpt>
      <trkpt lat="43.78343" lon="7.42224">
        <ele>965.29998779297</ele>
        <time>2010-10-10T07:02:47Z</time>
      </trkpt>
      <trkpt lat="43.78348" lon="7.42223">
        <ele>964.82000732422</ele>
        <time>2010-10-10T07:02:49Z</time>
      </trkpt>
      <trkpt lat="43.78366" lon="7.42217">
        <ele>965.78002929688</ele>
        <time>2010-10-10T07:02:57Z</time>
      </trkpt>
      <trkpt lat="43.78374" lon="7.42212">
        <ele>965.78002929688</ele>
        <time>2010-10-10T07:03:00Z</time>
      </trkpt>
      <trkpt lat="43.78392" lon="7.42192">
        <ele>966.73999023438</ele>
        <time>2010-10-10T07:03:09Z</time>
      </trkpt>
      <trkpt lat="43.78395" lon="7.42188">
        <ele>968.17999267578</ele>
        <time>2010-10-10T07:03:12Z</time>
      </trkpt>
      <trkpt lat="43.78398" lon="7.42184">
        <ele>969.63000488281</ele>
        <time>2010-10-10T07:03:15Z</time>
      </trkpt>
      <trkpt lat="43.78401" lon="7.42174">
        <ele>970.10998535156</ele>
        <time>2010-10-10T07:03:19Z</time>
      </trkpt>
      <trkpt lat="43.78402" lon="7.42158">
        <ele>972.51000976562</ele>
        <time>2010-10-10T07:03:26Z</time>
      </trkpt>
      <trkpt lat="43.78404" lon="7.42154">
        <ele>972.51000976562</ele>
        <time>2010-10-10T07:03:28Z</time>
      </trkpt>
      <trkpt lat="43.78407" lon="7.42147">
        <ele>972.98999023438</ele>
        <time>2010-10-10T07:03:32Z</time>
      </trkpt>
      <trkpt lat="43.78409" lon="7.42142">
        <ele>974.42999267578</ele>
        <time>2010-10-10T07:03:34Z</time>
      </trkpt>
      <trkpt lat="43.78413" lon="7.42128">
        <ele>974.90997314453</ele>
        <time>2010-10-10T07:03:39Z</time>
      </trkpt>
      <trkpt lat="43.78425" lon="7.42105">
        <ele>976.35998535156</ele>
        <time>2010-10-10T07:03:48Z</time>
      </trkpt>
      <trkpt lat="43.78436" lon="7.42096">
        <ele>976.35998535156</ele>
        <time>2010-10-10T07:03:55Z</time>
      </trkpt>
      <trkpt lat="43.78445" lon="7.42087">
        <ele>976.35998535156</ele>
        <time>2010-10-10T07:04:01Z</time>
      </trkpt>
      <trkpt lat="43.78463" lon="7.4207">
        <ele>978.76000976562</ele>
        <time>2010-10-10T07:04:11Z</time>
      </trkpt>
      <trkpt lat="43.78484" lon="7.4206">
        <ele>977.32000732422</ele>
        <time>2010-10-10T07:04:22Z</time>
      </trkpt>
      <trkpt lat="43.78492" lon="7.42059">
        <ele>976.84002685547</ele>
        <time>2010-10-10T07:04:25Z</time>
      </trkpt>
      <trkpt lat="43.78513" lon="7.42045">
        <ele>979.71997070312</ele>
        <time>2010-10-10T07:04:35Z</time>
      </trkpt>
      <trkpt lat="43.78514" lon="7.42043">
        <ele>980.67999267578</ele>
        <time>2010-10-10T07:04:36Z</time>
      </trkpt>
      <trkpt lat="43.78521" lon="7.42039">
        <ele>980.67999267578</ele>
        <time>2010-10-10T07:04:40Z</time>
      </trkpt>
      <trkpt lat="43.7854" lon="7.42039">
        <ele>985.48999023438</ele>
        <time>2010-10-10T07:04:51Z</time>
      </trkpt>
      <trkpt lat="43.78542" lon="7.42039">
        <ele>985.01000976562</ele>
        <time>2010-10-10T07:04:52Z</time>
      </trkpt>
      <trkpt lat="43.78556" lon="7.42041">
        <ele>986.45001220703</ele>
        <time>2010-10-10T07:04:59Z</time>
      </trkpt>
      <trkpt lat="43.78568" lon="7.42046">
        <ele>988.36999511719</ele>
        <time>2010-10-10T07:05:04Z</time>
      </trkpt>
      <trkpt lat="43.78574" lon="7.42053">
        <ele>988.84997558594</ele>
        <time>2010-10-10T07:05:08Z</time>
      </trkpt>
      <trkpt lat="43.78587" lon="7.42066">
        <ele>989.80999755859</ele>
        <time>2010-10-10T07:05:16Z</time>
      </trkpt>
      <trkpt lat="43.78594" lon="7.42069">
        <ele>989.33001708984</ele>
        <time>2010-10-10T07:05:19Z</time>
      </trkpt>
      <trkpt lat="43.78614" lon="7.42092">
        <ele>990.78002929688</ele>
        <time>2010-10-10T07:05:30Z</time>
      </trkpt>
      <trkpt lat="43.78625" lon="7.42105">
        <ele>991.73999023438</ele>
        <time>2010-10-10T07:05:37Z</time>
      </trkpt>
      <trkpt lat="43.7863" lon="7.42113">
        <ele>992.21997070312</ele>
        <time>2010-10-10T07:05:41Z</time>
      </trkpt>
      <trkpt lat="43.78634" lon="7.4212">
        <ele>993.17999267578</ele>
        <time>2010-10-10T07:05:45Z</time>
      </trkpt>
      <trkpt lat="43.7865" lon="7.42135">
        <ele>995.58001708984</ele>
        <time>2010-10-10T07:05:55Z</time>
      </trkpt>
      <trkpt lat="43.78663" lon="7.42147">
        <ele>998.95001220703</ele>
        <time>2010-10-10T07:06:04Z</time>
      </trkpt>
      <trkpt lat="43.78664" lon="7.42148">
        <ele>998.95001220703</ele>
        <time>2010-10-10T07:06:05Z</time>
      </trkpt>
      <trkpt lat="43.78677" lon="7.42156">
        <ele>998.95001220703</ele>
        <time>2010-10-10T07:06:12Z</time>
      </trkpt>
      <trkpt lat="43.78704" lon="7.42162">
        <ele>999.42999267578</ele>
        <time>2010-10-10T07:06:24Z</time>
      </trkpt>
      <trkpt lat="43.7872" lon="7.42141">
        <ele>999.90997314453</ele>
        <time>2010-10-10T07:06:33Z</time>
      </trkpt>
      <trkpt lat="43.78739" lon="7.42131">
        <ele>998.46997070312</ele>
        <time>2010-10-10T07:06:41Z</time>
      </trkpt>
      <trkpt lat="43.78747" lon="7.42123">
        <ele>1000.8699951172</ele>
        <time>2010-10-10T07:06:45Z</time>
      </trkpt>
      <trkpt lat="43.78754" lon="7.42119">
        <ele>1001.8300170898</ele>
        <time>2010-10-10T07:06:50Z</time>
      </trkpt>
      <trkpt lat="43.78777" lon="7.42107">
        <ele>1004.7199707031</ele>
        <time>2010-10-10T07:07:02Z</time>
      </trkpt>
      <trkpt lat="43.78778" lon="7.42106">
        <ele>1004.7199707031</ele>
        <time>2010-10-10T07:07:03Z</time>
      </trkpt>
      <trkpt lat="43.78796" lon="7.42102">
        <ele>1007.5999755859</ele>
        <time>2010-10-10T07:07:14Z</time>
      </trkpt>
      <trkpt lat="43.78799" lon="7.42102">
        <ele>1008.5599975586</ele>
        <time>2010-10-10T07:07:16Z</time>
      </trkpt>
      <trkpt lat="43.78805" lon="7.42103">
        <ele>1009.0399780273</ele>
        <time>2010-10-10T07:07:19Z</time>
      </trkpt>
      <trkpt lat="43.78825" lon="7.42101">
        <ele>1011.9299926758</ele>
        <time>2010-10-10T07:07:32Z</time>
      </trkpt>
      <trkpt lat="43.78833" lon="7.42101">
        <ele>1013.8499755859</ele>
        <time>2010-10-10T07:07:38Z</time>
      </trkpt>
      <trkpt lat="43.78841" lon="7.42103">
        <ele>1015.2899780273</ele>
        <time>2010-10-10T07:07:46Z</time>
      </trkpt>
      <trkpt lat="43.78847" lon="7.42109">
        <ele>1019.6199951172</ele>
        <time>2010-10-10T07:07:56Z</time>
      </trkpt>
      <trkpt lat="43.7885" lon="7.4211">
        <ele>1020.0999755859</ele>
        <time>2010-10-10T07:08:00Z</time>
      </trkpt>
      <trkpt lat="43.78853" lon="7.42109">
        <ele>1021.0599975586</ele>
        <time>2010-10-10T07:08:04Z</time>
      </trkpt>
      <trkpt lat="43.78855" lon="7.42108">
        <ele>1021.5399780273</ele>
        <time>2010-10-10T07:08:06Z</time>
      </trkpt>
      <trkpt lat="43.78871" lon="7.42129">
        <ele>1022.5</ele>
        <time>2010-10-10T07:08:18Z</time>
      </trkpt>
      <trkpt lat="43.78875" lon="7.42138">
        <ele>1023.9400024414</ele>
        <time>2010-10-10T07:08:21Z</time>
      </trkpt>
      <trkpt lat="43.78888" lon="7.42147">
        <ele>1024.9000244141</ele>
        <time>2010-10-10T07:08:28Z</time>
      </trkpt>
      <trkpt lat="43.78898" lon="7.42153">
        <ele>1025.8599853516</ele>
        <time>2010-10-10T07:08:34Z</time>
      </trkpt>
      <trkpt lat="43.78911" lon="7.42161">
        <ele>1029.2299804688</ele>
        <time>2010-10-10T07:08:46Z</time>
      </trkpt>
      <trkpt lat="43.78913" lon="7.42162">
        <ele>1030.6700439453</ele>
        <time>2010-10-10T07:08:49Z</time>
      </trkpt>
      <trkpt lat="43.78915" lon="7.42165">
        <ele>1030.1899414062</ele>
        <time>2010-10-10T07:08:53Z</time>
      </trkpt>
      <trkpt lat="43.78925" lon="7.4217">
        <ele>1033.5500488281</ele>
        <time>2010-10-10T07:09:02Z</time>
      </trkpt>
      <trkpt lat="43.7893" lon="7.4217">
        <ele>1034.5200195312</ele>
        <time>2010-10-10T07:09:06Z</time>
      </trkpt>
      <trkpt lat="43.78938" lon="7.42167">
        <ele>1037.8800048828</ele>
        <time>2010-10-10T07:09:16Z</time>
      </trkpt>
      <trkpt lat="43.78954" lon="7.42155">
        <ele>1041.25</ele>
        <time>2010-10-10T07:09:31Z</time>
      </trkpt>
      <trkpt lat="43.78967" lon="7.42141">
        <ele>1040.7600097656</ele>
        <time>2010-10-10T07:09:37Z</time>
      </trkpt>
      <trkpt lat="43.7898" lon="7.42131">
        <ele>1039.3199462891</ele>
        <time>2010-10-10T07:09:42Z</time>
      </trkpt>
      <trkpt lat="43.79005" lon="7.42099">
        <ele>1037.4000244141</ele>
        <time>2010-10-10T07:09:54Z</time>
      </trkpt>
      <trkpt lat="43.79007" lon="7.4208">
        <ele>1037.8800048828</ele>
        <time>2010-10-10T07:10:00Z</time>
      </trkpt>
      <trkpt lat="43.79014" lon="7.42045">
        <ele>1039.3199462891</ele>
        <time>2010-10-10T07:10:11Z</time>
      </trkpt>
      <trkpt lat="43.7903" lon="7.42017">
        <ele>1042.2099609375</ele>
        <time>2010-10-10T07:10:23Z</time>
      </trkpt>
      <trkpt lat="43.7905" lon="7.41993">
        <ele>1042.6899414062</ele>
        <time>2010-10-10T07:10:34Z</time>
      </trkpt>
      <trkpt lat="43.79081" lon="7.41963">
        <ele>1043.1700439453</ele>
        <time>2010-10-10T07:10:48Z</time>
      </trkpt>
      <trkpt lat="43.79108" lon="7.41947">
        <ele>1045.5699462891</ele>
        <time>2010-10-10T07:11:00Z</time>
      </trkpt>
      <trkpt lat="43.79118" lon="7.41938">
        <ele>1047.4899902344</ele>
        <time>2010-10-10T07:11:06Z</time>
      </trkpt>
      <trkpt lat="43.79128" lon="7.41934">
        <ele>1047.9699707031</ele>
        <time>2010-10-10T07:11:11Z</time>
      </trkpt>
      <trkpt lat="43.79146" lon="7.41937">
        <ele>1048.9399414062</ele>
        <time>2010-10-10T07:11:19Z</time>
      </trkpt>
      <trkpt lat="43.79176" lon="7.41915">
        <ele>1047.4899902344</ele>
        <time>2010-10-10T07:11:32Z</time>
      </trkpt>
      <trkpt lat="43.79215" lon="7.41904">
        <ele>1044.6099853516</ele>
        <time>2010-10-10T07:11:45Z</time>
      </trkpt>
      <trkpt lat="43.79255" lon="7.41898">
        <ele>1042.6899414062</ele>
        <time>2010-10-10T07:11:59Z</time>
      </trkpt>
      <trkpt lat="43.79293" lon="7.41891">
        <ele>1039.3199462891</ele>
        <time>2010-10-10T07:12:11Z</time>
      </trkpt>
      <trkpt lat="43.79296" lon="7.4189">
        <ele>1039.3199462891</ele>
        <time>2010-10-10T07:12:12Z</time>
      </trkpt>
      <trkpt lat="43.79334" lon="7.41896">
        <ele>1036.4399414062</ele>
        <time>2010-10-10T07:12:24Z</time>
      </trkpt>
      <trkpt lat="43.79377" lon="7.41912">
        <ele>1032.5899658203</ele>
        <time>2010-10-10T07:12:38Z</time>
      </trkpt>
      <trkpt lat="43.79402" lon="7.41892">
        <ele>1030.1899414062</ele>
        <time>2010-10-10T07:12:48Z</time>
      </trkpt>
      <trkpt lat="43.79411" lon="7.41872">
        <ele>1027.7900390625</ele>
        <time>2010-10-10T07:12:53Z</time>
      </trkpt>
      <trkpt lat="43.79421" lon="7.41846">
        <ele>1024.9000244141</ele>
        <time>2010-10-10T07:12:59Z</time>
      </trkpt>
      <trkpt lat="43.79443" lon="7.41834">
        <ele>1022.0200195312</ele>
        <time>2010-10-10T07:13:06Z</time>
      </trkpt>
      <trkpt lat="43.79466" lon="7.41834">
        <ele>1019.1300048828</ele>
        <time>2010-10-10T07:13:13Z</time>
      </trkpt>
      <trkpt lat="43.79478" lon="7.4183">
        <ele>1018.1699829102</ele>
        <time>2010-10-10T07:13:17Z</time>
      </trkpt>
      <trkpt lat="43.79483" lon="7.41821">
        <ele>1017.2100219727</ele>
        <time>2010-10-10T07:13:21Z</time>
      </trkpt>
      <trkpt lat="43.79479" lon="7.41818">
        <ele>1015.7700195312</ele>
        <time>2010-10-10T07:13:23Z</time>
      </trkpt>
      <trkpt lat="43.79447" lon="7.41806">
        <ele>1014.3300170898</ele>
        <time>2010-10-10T07:13:33Z</time>
      </trkpt>
      <trkpt lat="43.79449" lon="7.41788">
        <ele>1012.4099731445</ele>
        <time>2010-10-10T07:13:38Z</time>
      </trkpt>
      <trkpt lat="43.79485" lon="7.41781">
        <ele>1007.5999755859</ele>
        <time>2010-10-10T07:13:50Z</time>
      </trkpt>
      <trkpt lat="43.79502" lon="7.41761">
        <ele>1004.7199707031</ele>
        <time>2010-10-10T07:13:57Z</time>
      </trkpt>
      <trkpt lat="43.79539" lon="7.41743">
        <ele>1000.3900146484</ele>
        <time>2010-10-10T07:14:09Z</time>
      </trkpt>
      <trkpt lat="43.79552" lon="7.41739">
        <ele>998.95001220703</ele>
        <time>2010-10-10T07:14:13Z</time>
      </trkpt>
      <trkpt lat="43.79569" lon="7.41734">
        <ele>996.05999755859</ele>
        <time>2010-10-10T07:14:18Z</time>
      </trkpt>
      <trkpt lat="43.79595" lon="7.4173">
        <ele>992.21997070312</ele>
        <time>2010-10-10T07:14:26Z</time>
      </trkpt>
      <trkpt lat="43.79598" lon="7.4173">
        <ele>992.21997070312</ele>
        <time>2010-10-10T07:14:27Z</time>
      </trkpt>
      <trkpt lat="43.79624" lon="7.41728">
        <ele>989.33001708984</ele>
        <time>2010-10-10T07:14:35Z</time>
      </trkpt>
      <trkpt lat="43.79647" lon="7.41726">
        <ele>985.48999023438</ele>
        <time>2010-10-10T07:14:42Z</time>
      </trkpt>
      <trkpt lat="43.7966" lon="7.41729">
        <ele>985.01000976562</ele>
        <time>2010-10-10T07:14:46Z</time>
      </trkpt>
      <trkpt lat="43.79676" lon="7.41742">
        <ele>983.57000732422</ele>
        <time>2010-10-10T07:14:53Z</time>
      </trkpt>
      <trkpt lat="43.79682" lon="7.41749">
        <ele>983.09002685547</ele>
        <time>2010-10-10T07:14:56Z</time>
      </trkpt>
      <trkpt lat="43.79686" lon="7.41764">
        <ele>979.71997070312</ele>
        <time>2010-10-10T07:15:05Z</time>
      </trkpt>
      <trkpt lat="43.79688" lon="7.41768">
        <ele>979.23999023438</ele>
        <time>2010-10-10T07:15:07Z</time>
      </trkpt>
      <trkpt lat="43.79692" lon="7.4178">
        <ele>979.23999023438</ele>
        <time>2010-10-10T07:15:11Z</time>
      </trkpt>
      <trkpt lat="43.79699" lon="7.41791">
        <ele>978.76000976562</ele>
        <time>2010-10-10T07:15:15Z</time>
      </trkpt>
      <trkpt lat="43.79721" lon="7.41804">
        <ele>977.32000732422</ele>
        <time>2010-10-10T07:15:25Z</time>
      </trkpt>
      <trkpt lat="43.79752" lon="7.41834">
        <ele>974.42999267578</ele>
        <time>2010-10-10T07:15:37Z</time>
      </trkpt>
      <trkpt lat="43.79762" lon="7.41842">
        <ele>975.39001464844</ele>
        <time>2010-10-10T07:15:41Z</time>
      </trkpt>
      <trkpt lat="43.79782" lon="7.41839">
        <ele>971.07000732422</ele>
        <time>2010-10-10T07:15:49Z</time>
      </trkpt>
      <trkpt lat="43.79785" lon="7.41839">
        <ele>971.07000732422</ele>
        <time>2010-10-10T07:15:50Z</time>
      </trkpt>
      <trkpt lat="43.79811" lon="7.41852">
        <ele>969.63000488281</ele>
        <time>2010-10-10T07:16:00Z</time>
      </trkpt>
      <trkpt lat="43.79834" lon="7.41881">
        <ele>968.17999267578</ele>
        <time>2010-10-10T07:16:10Z</time>
      </trkpt>
      <trkpt lat="43.7985" lon="7.41905">
        <ele>965.29998779297</ele>
        <time>2010-10-10T07:16:18Z</time>
      </trkpt>
      <trkpt lat="43.79871" lon="7.41936">
        <ele>962.90002441406</ele>
        <time>2010-10-10T07:16:29Z</time>
      </trkpt>
      <trkpt lat="43.79883" lon="7.41947">
        <ele>961.46002197266</ele>
        <time>2010-10-10T07:16:38Z</time>
      </trkpt>
      <trkpt lat="43.79901" lon="7.41984">
        <ele>959.04998779297</ele>
        <time>2010-10-10T07:16:49Z</time>
      </trkpt>
      <trkpt lat="43.7991" lon="7.4199">
        <ele>957.60998535156</ele>
        <time>2010-10-10T07:16:52Z</time>
      </trkpt>
      <trkpt lat="43.79916" lon="7.41992">
        <ele>956.16998291016</ele>
        <time>2010-10-10T07:16:54Z</time>
      </trkpt>
      <trkpt lat="43.79939" lon="7.42005">
        <ele>955.21002197266</ele>
        <time>2010-10-10T07:17:03Z</time>
      </trkpt>
      <trkpt lat="43.7997" lon="7.42008">
        <ele>953.28002929688</ele>
        <time>2010-10-10T07:17:14Z</time>
      </trkpt>
      <trkpt lat="43.79979" lon="7.42041">
        <ele>949.91998291016</ele>
        <time>2010-10-10T07:17:22Z</time>
      </trkpt>
      <trkpt lat="43.79978" lon="7.42053">
        <ele>949.91998291016</ele>
        <time>2010-10-10T07:17:25Z</time>
      </trkpt>
      <trkpt lat="43.79982" lon="7.42075">
        <ele>948.47998046875</ele>
        <time>2010-10-10T07:17:31Z</time>
      </trkpt>
      <trkpt lat="43.79995" lon="7.4209">
        <ele>947.03997802734</ele>
        <time>2010-10-10T07:17:37Z</time>
      </trkpt>
      <trkpt lat="43.80033" lon="7.42075">
        <ele>943.19000244141</ele>
        <time>2010-10-10T07:17:51Z</time>
      </trkpt>
      <trkpt lat="43.80043" lon="7.42073">
        <ele>942.71002197266</ele>
        <time>2010-10-10T07:17:54Z</time>
      </trkpt>
      <trkpt lat="43.80059" lon="7.42103">
        <ele>942.22998046875</ele>
        <time>2010-10-10T07:18:04Z</time>
      </trkpt>
      <trkpt lat="43.8007" lon="7.42153">
        <ele>938.85998535156</ele>
        <time>2010-10-10T07:18:17Z</time>
      </trkpt>
      <trkpt lat="43.80073" lon="7.42159">
        <ele>938.85998535156</ele>
        <time>2010-10-10T07:18:19Z</time>
      </trkpt>
      <trkpt lat="43.80072" lon="7.42176">
        <ele>937.90002441406</ele>
        <time>2010-10-10T07:18:26Z</time>
      </trkpt>
      <trkpt lat="43.80057" lon="7.42219">
        <ele>935.02001953125</ele>
        <time>2010-10-10T07:18:37Z</time>
      </trkpt>
      <trkpt lat="43.80045" lon="7.4225">
        <ele>932.14001464844</ele>
        <time>2010-10-10T07:18:47Z</time>
      </trkpt>
      <trkpt lat="43.80033" lon="7.42271">
        <ele>932.14001464844</ele>
        <time>2010-10-10T07:18:53Z</time>
      </trkpt>
      <trkpt lat="43.80034" lon="7.42292">
        <ele>929.72998046875</ele>
        <time>2010-10-10T07:18:58Z</time>
      </trkpt>
      <trkpt lat="43.80036" lon="7.42309">
        <ele>928.28997802734</ele>
        <time>2010-10-10T07:19:02Z</time>
      </trkpt>
      <trkpt lat="43.80051" lon="7.42345">
        <ele>925.89001464844</ele>
        <time>2010-10-10T07:19:12Z</time>
      </trkpt>
      <trkpt lat="43.80073" lon="7.42364">
        <ele>923</ele>
        <time>2010-10-10T07:19:21Z</time>
      </trkpt>
      <trkpt lat="43.80105" lon="7.42375">
        <ele>921.08001708984</ele>
        <time>2010-10-10T07:19:32Z</time>
      </trkpt>
      <trkpt lat="43.80114" lon="7.42375">
        <ele>919.64001464844</ele>
        <time>2010-10-10T07:19:35Z</time>
      </trkpt>
      <trkpt lat="43.80138" lon="7.42378">
        <ele>916.75</ele>
        <time>2010-10-10T07:19:43Z</time>
      </trkpt>
      <trkpt lat="43.80167" lon="7.42376">
        <ele>913.86999511719</ele>
        <time>2010-10-10T07:19:53Z</time>
      </trkpt>
      <trkpt lat="43.80175" lon="7.42376">
        <ele>913.86999511719</ele>
        <time>2010-10-10T07:19:56Z</time>
      </trkpt>
      <trkpt lat="43.80214" lon="7.42378">
        <ele>911.46997070312</ele>
        <time>2010-10-10T07:20:07Z</time>
      </trkpt>
      <trkpt lat="43.80245" lon="7.42375">
        <ele>910.98999023438</ele>
        <time>2010-10-10T07:20:18Z</time>
      </trkpt>
      <trkpt lat="43.80262" lon="7.4237">
        <ele>913.86999511719</ele>
        <time>2010-10-10T07:20:28Z</time>
      </trkpt>
      <trkpt lat="43.80267" lon="7.42367">
        <ele>914.83001708984</ele>
        <time>2010-10-10T07:20:32Z</time>
      </trkpt>
      <trkpt lat="43.8027" lon="7.42366">
        <ele>916.27001953125</ele>
        <time>2010-10-10T07:20:34Z</time>
      </trkpt>
      <trkpt lat="43.8028" lon="7.42363">
        <ele>918.67999267578</ele>
        <time>2010-10-10T07:20:42Z</time>
      </trkpt>
      <trkpt lat="43.80291" lon="7.42364">
        <ele>922.52001953125</ele>
        <time>2010-10-10T07:20:56Z</time>
      </trkpt>
      <trkpt lat="43.803" lon="7.42356">
        <ele>925.89001464844</ele>
        <time>2010-10-10T07:21:06Z</time>
      </trkpt>
      <trkpt lat="43.80304" lon="7.42352">
        <ele>927.80999755859</ele>
        <time>2010-10-10T07:21:11Z</time>
      </trkpt>
      <trkpt lat="43.80308" lon="7.4235">
        <ele>928.28997802734</ele>
        <time>2010-10-10T07:21:14Z</time>
      </trkpt>
      <trkpt lat="43.80309" lon="7.4234">
        <ele>929.72998046875</ele>
        <time>2010-10-10T07:21:19Z</time>
      </trkpt>
      <trkpt lat="43.80309" lon="7.42333">
        <ele>928.28997802734</ele>
        <time>2010-10-10T07:21:43Z</time>
      </trkpt>
      <trkpt lat="43.8031" lon="7.42333">
        <ele>930.21002197266</ele>
        <time>2010-10-10T07:22:05Z</time>
      </trkpt>
      <trkpt lat="43.8031" lon="7.42329">
        <ele>930.21002197266</ele>
        <time>2010-10-10T07:22:21Z</time>
      </trkpt>
      <trkpt lat="43.80311" lon="7.42331">
        <ele>930.69000244141</ele>
        <time>2010-10-10T07:22:51Z</time>
      </trkpt>
      <trkpt lat="43.80312" lon="7.42331">
        <ele>930.69000244141</ele>
        <time>2010-10-10T07:22:54Z</time>
      </trkpt>
      <trkpt lat="43.80315" lon="7.42325">
        <ele>931.65002441406</ele>
        <time>2010-10-10T07:22:58Z</time>
      </trkpt>
      <trkpt lat="43.80336" lon="7.42323">
        <ele>934.05999755859</ele>
        <time>2010-10-10T07:23:08Z</time>
      </trkpt>
      <trkpt lat="43.80346" lon="7.42333">
        <ele>936.46002197266</ele>
        <time>2010-10-10T07:23:14Z</time>
      </trkpt>
      <trkpt lat="43.80346" lon="7.42337">
        <ele>936.46002197266</ele>
        <time>2010-10-10T07:23:15Z</time>
      </trkpt>
      <trkpt lat="43.80351" lon="7.42346">
        <ele>938.85998535156</ele>
        <time>2010-10-10T07:23:19Z</time>
      </trkpt>
      <trkpt lat="43.80357" lon="7.42348">
        <ele>939.83001708984</ele>
        <time>2010-10-10T07:23:22Z</time>
      </trkpt>
      <trkpt lat="43.80361" lon="7.42349">
        <ele>941.27001953125</ele>
        <time>2010-10-10T07:23:24Z</time>
      </trkpt>
      <trkpt lat="43.80367" lon="7.42354">
        <ele>942.71002197266</ele>
        <time>2010-10-10T07:23:29Z</time>
      </trkpt>
      <trkpt lat="43.80375" lon="7.42358">
        <ele>946.07000732422</ele>
        <time>2010-10-10T07:23:37Z</time>
      </trkpt>
      <trkpt lat="43.80392" lon="7.42361">
        <ele>949.91998291016</ele>
        <time>2010-10-10T07:23:50Z</time>
      </trkpt>
      <trkpt lat="43.80393" lon="7.42361">
        <ele>950.40002441406</ele>
        <time>2010-10-10T07:23:51Z</time>
      </trkpt>
      <trkpt lat="43.80394" lon="7.42362">
        <ele>949.91998291016</ele>
        <time>2010-10-10T07:23:52Z</time>
      </trkpt>
      <trkpt lat="43.80408" lon="7.42361">
        <ele>952.79998779297</ele>
        <time>2010-10-10T07:24:05Z</time>
      </trkpt>
      <trkpt lat="43.80411" lon="7.42363">
        <ele>954.72998046875</ele>
        <time>2010-10-10T07:24:08Z</time>
      </trkpt>
      <trkpt lat="43.8042" lon="7.42364">
        <ele>955.69000244141</ele>
        <time>2010-10-10T07:24:13Z</time>
      </trkpt>
      <trkpt lat="43.80429" lon="7.42366">
        <ele>957.60998535156</ele>
        <time>2010-10-10T07:24:18Z</time>
      </trkpt>
      <trkpt lat="43.80438" lon="7.42372">
        <ele>960.01000976562</ele>
        <time>2010-10-10T07:24:25Z</time>
      </trkpt>
      <trkpt lat="43.80442" lon="7.42375">
        <ele>961.46002197266</ele>
        <time>2010-10-10T07:24:29Z</time>
      </trkpt>
      <trkpt lat="43.80447" lon="7.4238">
        <ele>962.41998291016</ele>
        <time>2010-10-10T07:24:34Z</time>
      </trkpt>
      <trkpt lat="43.8046" lon="7.42391">
        <ele>965.78002929688</ele>
        <time>2010-10-10T07:24:45Z</time>
      </trkpt>
      <trkpt lat="43.80466" lon="7.42397">
        <ele>966.26000976562</ele>
        <time>2010-10-10T07:24:49Z</time>
      </trkpt>
      <trkpt lat="43.80471" lon="7.42399">
        <ele>967.70001220703</ele>
        <time>2010-10-10T07:24:52Z</time>
      </trkpt>
      <trkpt lat="43.80472" lon="7.42399">
        <ele>967.70001220703</ele>
        <time>2010-10-10T07:24:53Z</time>
      </trkpt>
      <trkpt lat="43.80493" lon="7.42412">
        <ele>970.59002685547</ele>
        <time>2010-10-10T07:25:04Z</time>
      </trkpt>
      <trkpt lat="43.80513" lon="7.42431">
        <ele>972.98999023438</ele>
        <time>2010-10-10T07:25:15Z</time>
      </trkpt>
      <trkpt lat="43.80523" lon="7.4244">
        <ele>974.90997314453</ele>
        <time>2010-10-10T07:25:22Z</time>
      </trkpt>
      <trkpt lat="43.80536" lon="7.4246">
        <ele>975.39001464844</ele>
        <time>2010-10-10T07:25:32Z</time>
      </trkpt>
      <trkpt lat="43.80561" lon="7.42473">
        <ele>978.76000976562</ele>
        <time>2010-10-10T07:25:43Z</time>
      </trkpt>
      <trkpt lat="43.80563" lon="7.42475">
        <ele>978.76000976562</ele>
        <time>2010-10-10T07:25:44Z</time>
      </trkpt>
      <trkpt lat="43.80584" lon="7.42486">
        <ele>979.23999023438</ele>
        <time>2010-10-10T07:25:55Z</time>
      </trkpt>
      <trkpt lat="43.8062" lon="7.4247">
        <ele>977.79998779297</ele>
        <time>2010-10-10T07:26:09Z</time>
      </trkpt>
      <trkpt lat="43.80637" lon="7.42475">
        <ele>977.79998779297</ele>
        <time>2010-10-10T07:26:15Z</time>
      </trkpt>
      <trkpt lat="43.80644" lon="7.42476">
        <ele>979.23999023438</ele>
        <time>2010-10-10T07:26:19Z</time>
      </trkpt>
      <trkpt lat="43.80651" lon="7.42467">
        <ele>977.32000732422</ele>
        <time>2010-10-10T07:26:24Z</time>
      </trkpt>
      <trkpt lat="43.80668" lon="7.42464">
        <ele>977.79998779297</ele>
        <time>2010-10-10T07:26:30Z</time>
      </trkpt>
      <trkpt lat="43.80673" lon="7.42447">
        <ele>979.23999023438</ele>
        <time>2010-10-10T07:26:36Z</time>
      </trkpt>
      <trkpt lat="43.80692" lon="7.42409">
        <ele>978.28002929688</ele>
        <time>2010-10-10T07:26:50Z</time>
      </trkpt>
      <trkpt lat="43.80693" lon="7.42402">
        <ele>979.71997070312</ele>
        <time>2010-10-10T07:26:52Z</time>
      </trkpt>
      <trkpt lat="43.80723" lon="7.42375">
        <ele>981.64001464844</ele>
        <time>2010-10-10T07:27:05Z</time>
      </trkpt>
      <trkpt lat="43.80735" lon="7.42366">
        <ele>982.11999511719</ele>
        <time>2010-10-10T07:27:10Z</time>
      </trkpt>
      <trkpt lat="43.80747" lon="7.42356">
        <ele>981.15997314453</ele>
        <time>2010-10-10T07:27:16Z</time>
      </trkpt>
      <trkpt lat="43.80761" lon="7.42358">
        <ele>979.71997070312</ele>
        <time>2010-10-10T07:27:21Z</time>
      </trkpt>
      <trkpt lat="43.8077" lon="7.42356">
        <ele>979.23999023438</ele>
        <time>2010-10-10T07:27:24Z</time>
      </trkpt>
      <trkpt lat="43.80783" lon="7.42328">
        <ele>975.88000488281</ele>
        <time>2010-10-10T07:27:32Z</time>
      </trkpt>
      <trkpt lat="43.80786" lon="7.42313">
        <ele>974.90997314453</ele>
        <time>2010-10-10T07:27:36Z</time>
      </trkpt>
      <trkpt lat="43.80789" lon="7.42301">
        <ele>973.46997070312</ele>
        <time>2010-10-10T07:27:39Z</time>
      </trkpt>
      <trkpt lat="43.80796" lon="7.42277">
        <ele>972.03002929688</ele>
        <time>2010-10-10T07:27:45Z</time>
      </trkpt>
      <trkpt lat="43.80798" lon="7.42264">
        <ele>970.59002685547</ele>
        <time>2010-10-10T07:27:48Z</time>
      </trkpt>
      <trkpt lat="43.80798" lon="7.42259">
        <ele>971.07000732422</ele>
        <time>2010-10-10T07:27:49Z</time>
      </trkpt>
      <trkpt lat="43.80799" lon="7.42218">
        <ele>968.66998291016</ele>
        <time>2010-10-10T07:27:59Z</time>
      </trkpt>
      <trkpt lat="43.80791" lon="7.42165">
        <ele>966.73999023438</ele>
        <time>2010-10-10T07:28:12Z</time>
      </trkpt>
      <trkpt lat="43.8079" lon="7.42157">
        <ele>966.73999023438</ele>
        <time>2010-10-10T07:28:14Z</time>
      </trkpt>
      <trkpt lat="43.8078" lon="7.42139">
        <ele>964.82000732422</ele>
        <time>2010-10-10T07:28:19Z</time>
      </trkpt>
      <trkpt lat="43.80757" lon="7.42136">
        <ele>962.90002441406</ele>
        <time>2010-10-10T07:28:25Z</time>
      </trkpt>
      <trkpt lat="43.80749" lon="7.42133">
        <ele>961.46002197266</ele>
        <time>2010-10-10T07:28:27Z</time>
      </trkpt>
      <trkpt lat="43.80741" lon="7.4211">
        <ele>960.01000976562</ele>
        <time>2010-10-10T07:28:32Z</time>
      </trkpt>
      <trkpt lat="43.80759" lon="7.42067">
        <ele>958.09002685547</ele>
        <time>2010-10-10T07:28:43Z</time>
      </trkpt>
      <trkpt lat="43.80772" lon="7.42057">
        <ele>956.65002441406</ele>
        <time>2010-10-10T07:28:47Z</time>
      </trkpt>
      <trkpt lat="43.8079" lon="7.42057">
        <ele>953.77001953125</ele>
        <time>2010-10-10T07:28:51Z</time>
      </trkpt>
      <trkpt lat="43.8081" lon="7.42058">
        <ele>952.32000732422</ele>
        <time>2010-10-10T07:28:55Z</time>
      </trkpt>
      <trkpt lat="43.80838" lon="7.42049">
        <ele>948.96002197266</ele>
        <time>2010-10-10T07:29:03Z</time>
      </trkpt>
      <trkpt lat="43.80859" lon="7.42035">
        <ele>947.52001953125</ele>
        <time>2010-10-10T07:29:10Z</time>
      </trkpt>
      <trkpt lat="43.80872" lon="7.42027">
        <ele>944.63000488281</ele>
        <time>2010-10-10T07:29:15Z</time>
      </trkpt>
      <trkpt lat="43.80874" lon="7.42026">
        <ele>944.15002441406</ele>
        <time>2010-10-10T07:29:16Z</time>
      </trkpt>
      <trkpt lat="43.80882" lon="7.42011">
        <ele>944.15002441406</ele>
        <time>2010-10-10T07:29:21Z</time>
      </trkpt>
      <trkpt lat="43.8088" lon="7.41988">
        <ele>941.75</ele>
        <time>2010-10-10T07:29:26Z</time>
      </trkpt>
      <trkpt lat="43.8088" lon="7.41973">
        <ele>939.83001708984</ele>
        <time>2010-10-10T07:29:29Z</time>
      </trkpt>
      <trkpt lat="43.8088" lon="7.41955">
        <ele>938.38000488281</ele>
        <time>2010-10-10T07:29:33Z</time>
      </trkpt>
      <trkpt lat="43.80876" lon="7.41918">
        <ele>937.41998291016</ele>
        <time>2010-10-10T07:29:40Z</time>
      </trkpt>
      <trkpt lat="43.80877" lon="7.41898">
        <ele>935.97998046875</ele>
        <time>2010-10-10T07:29:43Z</time>
      </trkpt>
      <trkpt lat="43.80878" lon="7.41885">
        <ele>934.53997802734</ele>
        <time>2010-10-10T07:29:45Z</time>
      </trkpt>
      <trkpt lat="43.80876" lon="7.41862">
        <ele>931.16998291016</ele>
        <time>2010-10-10T07:29:49Z</time>
      </trkpt>
      <trkpt lat="43.80873" lon="7.41849">
        <ele>929.25</ele>
        <time>2010-10-10T07:29:51Z</time>
      </trkpt>
      <trkpt lat="43.80873" lon="7.41824">
        <ele>924.45001220703</ele>
        <time>2010-10-10T07:29:57Z</time>
      </trkpt>
      <trkpt lat="43.80873" lon="7.41821">
        <ele>924.92999267578</ele>
        <time>2010-10-10T07:29:58Z</time>
      </trkpt>
      <trkpt lat="43.80876" lon="7.41814">
        <ele>923.47998046875</ele>
        <time>2010-10-10T07:30:01Z</time>
      </trkpt>
      <trkpt lat="43.80892" lon="7.41809">
        <ele>920.11999511719</ele>
        <time>2010-10-10T07:30:06Z</time>
      </trkpt>
      <trkpt lat="43.80902" lon="7.41808">
        <ele>916.75</ele>
        <time>2010-10-10T07:30:09Z</time>
      </trkpt>
      <trkpt lat="43.80915" lon="7.4181">
        <ele>911.95001220703</ele>
        <time>2010-10-10T07:30:13Z</time>
      </trkpt>
      <trkpt lat="43.80921" lon="7.41813">
        <ele>910.51000976562</ele>
        <time>2010-10-10T07:30:15Z</time>
      </trkpt>
      <trkpt lat="43.80952" lon="7.41812">
        <ele>907.61999511719</ele>
        <time>2010-10-10T07:30:25Z</time>
      </trkpt>
      <trkpt lat="43.80964" lon="7.41803">
        <ele>907.61999511719</ele>
        <time>2010-10-10T07:30:30Z</time>
      </trkpt>
      <trkpt lat="43.80976" lon="7.41757">
        <ele>908.09997558594</ele>
        <time>2010-10-10T07:30:41Z</time>
      </trkpt>
      <trkpt lat="43.80986" lon="7.41733">
        <ele>906.65997314453</ele>
        <time>2010-10-10T07:30:47Z</time>
      </trkpt>
      <trkpt lat="43.81007" lon="7.41696">
        <ele>904.26000976562</ele>
        <time>2010-10-10T07:30:57Z</time>
      </trkpt>
      <trkpt lat="43.81016" lon="7.41674">
        <ele>902.82000732422</ele>
        <time>2010-10-10T07:31:05Z</time>
      </trkpt>
      <trkpt lat="43.81023" lon="7.41648">
        <ele>899.45001220703</ele>
        <time>2010-10-10T07:31:10Z</time>
      </trkpt>
      <trkpt lat="43.81012" lon="7.41605">
        <ele>894.64001464844</ele>
        <time>2010-10-10T07:31:18Z</time>
      </trkpt>
      <trkpt lat="43.80998" lon="7.41577">
        <ele>891.28002929688</ele>
        <time>2010-10-10T07:31:24Z</time>
      </trkpt>
      <trkpt lat="43.80994" lon="7.41558">
        <ele>888.88000488281</ele>
        <time>2010-10-10T07:31:28Z</time>
      </trkpt>
      <trkpt lat="43.8099" lon="7.4154">
        <ele>886.95001220703</ele>
        <time>2010-10-10T07:31:32Z</time>
      </trkpt>
      <trkpt lat="43.80984" lon="7.41516">
        <ele>884.07000732422</ele>
        <time>2010-10-10T07:31:37Z</time>
      </trkpt>
      <trkpt lat="43.80983" lon="7.41491">
        <ele>880.71002197266</ele>
        <time>2010-10-10T07:31:42Z</time>
      </trkpt>
      <trkpt lat="43.80989" lon="7.41467">
        <ele>877.82000732422</ele>
        <time>2010-10-10T07:31:47Z</time>
      </trkpt>
      <trkpt lat="43.80989" lon="7.41448">
        <ele>875.90002441406</ele>
        <time>2010-10-10T07:31:51Z</time>
      </trkpt>
      <trkpt lat="43.80984" lon="7.41429">
        <ele>873.5</ele>
        <time>2010-10-10T07:31:55Z</time>
      </trkpt>
      <trkpt lat="43.80981" lon="7.41419">
        <ele>872.04998779297</ele>
        <time>2010-10-10T07:31:57Z</time>
      </trkpt>
      <trkpt lat="43.80976" lon="7.41405">
        <ele>869.65002441406</ele>
        <time>2010-10-10T07:32:00Z</time>
      </trkpt>
      <trkpt lat="43.80972" lon="7.41387">
        <ele>867.72998046875</ele>
        <time>2010-10-10T07:32:04Z</time>
      </trkpt>
      <trkpt lat="43.80971" lon="7.41384">
        <ele>866.77001953125</ele>
        <time>2010-10-10T07:32:05Z</time>
      </trkpt>
      <trkpt lat="43.80967" lon="7.41361">
        <ele>863.88000488281</ele>
        <time>2010-10-10T07:32:10Z</time>
      </trkpt>
      <trkpt lat="43.80966" lon="7.41341">
        <ele>860.03997802734</ele>
        <time>2010-10-10T07:32:14Z</time>
      </trkpt>
      <trkpt lat="43.80965" lon="7.41337">
        <ele>860.03997802734</ele>
        <time>2010-10-10T07:32:15Z</time>
      </trkpt>
      <trkpt lat="43.8096" lon="7.41322">
        <ele>856.66998291016</ele>
        <time>2010-10-10T07:32:19Z</time>
      </trkpt>
      <trkpt lat="43.80958" lon="7.41318">
        <ele>856.66998291016</ele>
        <time>2010-10-10T07:32:20Z</time>
      </trkpt>
      <trkpt lat="43.80943" lon="7.41301">
        <ele>854.27001953125</ele>
        <time>2010-10-10T07:32:26Z</time>
      </trkpt>
      <trkpt lat="43.80935" lon="7.41291">
        <ele>852.34997558594</ele>
        <time>2010-10-10T07:32:29Z</time>
      </trkpt>
      <trkpt lat="43.80912" lon="7.41253">
        <ele>848.97998046875</ele>
        <time>2010-10-10T07:32:39Z</time>
      </trkpt>
      <trkpt lat="43.80909" lon="7.41248">
        <ele>848.5</ele>
        <time>2010-10-10T07:32:40Z</time>
      </trkpt>
      <trkpt lat="43.80898" lon="7.41221">
        <ele>844.65997314453</ele>
        <time>2010-10-10T07:32:45Z</time>
      </trkpt>
      <trkpt lat="43.80889" lon="7.41202">
        <ele>840.33001708984</ele>
        <time>2010-10-10T07:32:49Z</time>
      </trkpt>
      <trkpt lat="43.80886" lon="7.41192">
        <ele>839.84997558594</ele>
        <time>2010-10-10T07:32:51Z</time>
      </trkpt>
      <trkpt lat="43.80882" lon="7.4118">
        <ele>836</ele>
        <time>2010-10-10T07:32:54Z</time>
      </trkpt>
      <trkpt lat="43.80878" lon="7.41156">
        <ele>831.67999267578</ele>
        <time>2010-10-10T07:33:00Z</time>
      </trkpt>
      <trkpt lat="43.80885" lon="7.4113">
        <ele>828.30999755859</ele>
        <time>2010-10-10T07:33:05Z</time>
      </trkpt>
      <trkpt lat="43.80889" lon="7.41113">
        <ele>824.95001220703</ele>
        <time>2010-10-10T07:33:09Z</time>
      </trkpt>
      <trkpt lat="43.80891" lon="7.41104">
        <ele>823.98999023438</ele>
        <time>2010-10-10T07:33:11Z</time>
      </trkpt>
      <trkpt lat="43.80899" lon="7.41086">
        <ele>821.58001708984</ele>
        <time>2010-10-10T07:33:15Z</time>
      </trkpt>
      <trkpt lat="43.80901" lon="7.41082">
        <ele>819.65997314453</ele>
        <time>2010-10-10T07:33:16Z</time>
      </trkpt>
      <trkpt lat="43.80911" lon="7.41063">
        <ele>817.26000976562</ele>
        <time>2010-10-10T07:33:21Z</time>
      </trkpt>
      <trkpt lat="43.80919" lon="7.41041">
        <ele>812.92999267578</ele>
        <time>2010-10-10T07:33:27Z</time>
      </trkpt>
      <trkpt lat="43.8092" lon="7.41037">
        <ele>812.45001220703</ele>
        <time>2010-10-10T07:33:28Z</time>
      </trkpt>
      <trkpt lat="43.80927" lon="7.4102">
        <ele>809.57000732422</ele>
        <time>2010-10-10T07:33:32Z</time>
      </trkpt>
      <trkpt lat="43.8093" lon="7.41007">
        <ele>807.15997314453</ele>
        <time>2010-10-10T07:33:35Z</time>
      </trkpt>
      <trkpt lat="43.80935" lon="7.4098">
        <ele>802.84002685547</ele>
        <time>2010-10-10T07:33:41Z</time>
      </trkpt>
      <trkpt lat="43.80936" lon="7.40976">
        <ele>803.32000732422</ele>
        <time>2010-10-10T07:33:42Z</time>
      </trkpt>
      <trkpt lat="43.80937" lon="7.40958">
        <ele>799.95001220703</ele>
        <time>2010-10-10T07:33:46Z</time>
      </trkpt>
      <trkpt lat="43.80937" lon="7.40947">
        <ele>797.54998779297</ele>
        <time>2010-10-10T07:33:48Z</time>
      </trkpt>
      <trkpt lat="43.80937" lon="7.40937">
        <ele>797.07000732422</ele>
        <time>2010-10-10T07:33:50Z</time>
      </trkpt>
      <trkpt lat="43.80934" lon="7.40924">
        <ele>793.71002197266</ele>
        <time>2010-10-10T07:33:53Z</time>
      </trkpt>
      <trkpt lat="43.80934" lon="7.40919">
        <ele>793.71002197266</ele>
        <time>2010-10-10T07:33:54Z</time>
      </trkpt>
      <trkpt lat="43.80935" lon="7.40906">
        <ele>790.82000732422</ele>
        <time>2010-10-10T07:33:57Z</time>
      </trkpt>
      <trkpt lat="43.8093" lon="7.40898">
        <ele>789.38000488281</ele>
        <time>2010-10-10T07:34:00Z</time>
      </trkpt>
      <trkpt lat="43.80918" lon="7.40893">
        <ele>786.02001953125</ele>
        <time>2010-10-10T07:34:04Z</time>
      </trkpt>
      <trkpt lat="43.80915" lon="7.40892">
        <ele>786.5</ele>
        <time>2010-10-10T07:34:05Z</time>
      </trkpt>
      <trkpt lat="43.80909" lon="7.40878">
        <ele>782.65002441406</ele>
        <time>2010-10-10T07:34:09Z</time>
      </trkpt>
      <trkpt lat="43.80911" lon="7.40868">
        <ele>781.69000244141</ele>
        <time>2010-10-10T07:34:11Z</time>
      </trkpt>
      <trkpt lat="43.80912" lon="7.40849">
        <ele>778.80999755859</ele>
        <time>2010-10-10T07:34:16Z</time>
      </trkpt>
      <trkpt lat="43.80911" lon="7.40839">
        <ele>777.35998535156</ele>
        <time>2010-10-10T07:34:18Z</time>
      </trkpt>
      <trkpt lat="43.8091" lon="7.40829">
        <ele>775.44000244141</ele>
        <time>2010-10-10T07:34:20Z</time>
      </trkpt>
      <trkpt lat="43.80914" lon="7.40804">
        <ele>770.63000488281</ele>
        <time>2010-10-10T07:34:26Z</time>
      </trkpt>
      <trkpt lat="43.80919" lon="7.40787">
        <ele>770.15002441406</ele>
        <time>2010-10-10T07:34:30Z</time>
      </trkpt>
      <trkpt lat="43.80922" lon="7.40772">
        <ele>766.78997802734</ele>
        <time>2010-10-10T07:34:33Z</time>
      </trkpt>
      <trkpt lat="43.80923" lon="7.40762">
        <ele>765.83001708984</ele>
        <time>2010-10-10T07:34:35Z</time>
      </trkpt>
      <trkpt lat="43.80921" lon="7.40748">
        <ele>764.86999511719</ele>
        <time>2010-10-10T07:34:38Z</time>
      </trkpt>
      <trkpt lat="43.80915" lon="7.40741">
        <ele>762.94000244141</ele>
        <time>2010-10-10T07:34:41Z</time>
      </trkpt>
      <trkpt lat="43.80911" lon="7.40731">
        <ele>761.5</ele>
        <time>2010-10-10T07:34:44Z</time>
      </trkpt>
      <trkpt lat="43.80909" lon="7.40718">
        <ele>758.14001464844</ele>
        <time>2010-10-10T07:34:47Z</time>
      </trkpt>
      <trkpt lat="43.80909" lon="7.40714">
        <ele>757.65997314453</ele>
        <time>2010-10-10T07:34:48Z</time>
      </trkpt>
      <trkpt lat="43.80904" lon="7.40692">
        <ele>756.21002197266</ele>
        <time>2010-10-10T07:34:53Z</time>
      </trkpt>
      <trkpt lat="43.80902" lon="7.40681">
        <ele>754.77001953125</ele>
        <time>2010-10-10T07:34:56Z</time>
      </trkpt>
      <trkpt lat="43.80901" lon="7.40679">
        <ele>756.21002197266</ele>
        <time>2010-10-10T07:34:57Z</time>
      </trkpt>
      <trkpt lat="43.80871" lon="7.40656">
        <ele>754.28997802734</ele>
        <time>2010-10-10T07:35:10Z</time>
      </trkpt>
      <trkpt lat="43.80853" lon="7.40627">
        <ele>751.89001464844</ele>
        <time>2010-10-10T07:35:20Z</time>
      </trkpt>
      <trkpt lat="43.80839" lon="7.40598">
        <ele>749.96997070312</ele>
        <time>2010-10-10T07:35:27Z</time>
      </trkpt>
      <trkpt lat="43.80814" lon="7.4056">
        <ele>747.08001708984</ele>
        <time>2010-10-10T07:35:36Z</time>
      </trkpt>
      <trkpt lat="43.80802" lon="7.40529">
        <ele>747.55999755859</ele>
        <time>2010-10-10T07:35:44Z</time>
      </trkpt>
      <trkpt lat="43.8082" lon="7.40507">
        <ele>746.11999511719</ele>
        <time>2010-10-10T07:35:52Z</time>
      </trkpt>
      <trkpt lat="43.80829" lon="7.40511">
        <ele>744.67999267578</ele>
        <time>2010-10-10T07:35:54Z</time>
      </trkpt>
      <trkpt lat="43.80861" lon="7.40528">
        <ele>741.30999755859</ele>
        <time>2010-10-10T07:36:03Z</time>
      </trkpt>
      <trkpt lat="43.80878" lon="7.40534">
        <ele>737.95001220703</ele>
        <time>2010-10-10T07:36:08Z</time>
      </trkpt>
      <trkpt lat="43.80911" lon="7.40547">
        <ele>737.95001220703</ele>
        <time>2010-10-10T07:36:19Z</time>
      </trkpt>
      <trkpt lat="43.80934" lon="7.40581">
        <ele>734.09997558594</ele>
        <time>2010-10-10T07:36:28Z</time>
      </trkpt>
      <trkpt lat="43.80947" lon="7.40608">
        <ele>730.73999023438</ele>
        <time>2010-10-10T07:36:35Z</time>
      </trkpt>
      <trkpt lat="43.80953" lon="7.40614">
        <ele>729.78002929688</ele>
        <time>2010-10-10T07:36:37Z</time>
      </trkpt>
      <trkpt lat="43.80963" lon="7.40625">
        <ele>727.36999511719</ele>
        <time>2010-10-10T07:36:40Z</time>
      </trkpt>
      <trkpt lat="43.80988" lon="7.4065">
        <ele>723.53002929688</ele>
        <time>2010-10-10T07:36:48Z</time>
      </trkpt>
      <trkpt lat="43.80997" lon="7.4067">
        <ele>721.13000488281</ele>
        <time>2010-10-10T07:36:52Z</time>
      </trkpt>
      <trkpt lat="43.81007" lon="7.40692">
        <ele>718.23999023438</ele>
        <time>2010-10-10T07:36:57Z</time>
      </trkpt>
      <trkpt lat="43.81022" lon="7.40714">
        <ele>714.40002441406</ele>
        <time>2010-10-10T07:37:03Z</time>
      </trkpt>
      <trkpt lat="43.81033" lon="7.40729">
        <ele>713.44000244141</ele>
        <time>2010-10-10T07:37:07Z</time>
      </trkpt>
      <trkpt lat="43.81039" lon="7.40733">
        <ele>711.51000976562</ele>
        <time>2010-10-10T07:37:09Z</time>
      </trkpt>
      <trkpt lat="43.81059" lon="7.40735">
        <ele>706.71002197266</ele>
        <time>2010-10-10T07:37:14Z</time>
      </trkpt>
      <trkpt lat="43.81063" lon="7.40735">
        <ele>707.19000244141</ele>
        <time>2010-10-10T07:37:15Z</time>
      </trkpt>
      <trkpt lat="43.81089" lon="7.40754">
        <ele>704.78002929688</ele>
        <time>2010-10-10T07:37:24Z</time>
      </trkpt>
      <trkpt lat="43.81112" lon="7.40784">
        <ele>704.29998779297</ele>
        <time>2010-10-10T07:37:35Z</time>
      </trkpt>
      <trkpt lat="43.81131" lon="7.40819">
        <ele>703.34002685547</ele>
        <time>2010-10-10T07:37:45Z</time>
      </trkpt>
      <trkpt lat="43.81133" lon="7.40828">
        <ele>701.90002441406</ele>
        <time>2010-10-10T07:37:47Z</time>
      </trkpt>
      <trkpt lat="43.81148" lon="7.40854">
        <ele>699.02001953125</ele>
        <time>2010-10-10T07:37:54Z</time>
      </trkpt>
      <trkpt lat="43.8115" lon="7.40858">
        <ele>699.02001953125</ele>
        <time>2010-10-10T07:37:55Z</time>
      </trkpt>
      <trkpt lat="43.81153" lon="7.40866">
        <ele>697.57000732422</ele>
        <time>2010-10-10T07:37:57Z</time>
      </trkpt>
      <trkpt lat="43.81156" lon="7.40881">
        <ele>696.13000488281</ele>
        <time>2010-10-10T07:38:00Z</time>
      </trkpt>
      <trkpt lat="43.81159" lon="7.4091">
        <ele>693.72998046875</ele>
        <time>2010-10-10T07:38:06Z</time>
      </trkpt>
      <trkpt lat="43.81163" lon="7.40925">
        <ele>692.28997802734</ele>
        <time>2010-10-10T07:38:09Z</time>
      </trkpt>
      <trkpt lat="43.81167" lon="7.40933">
        <ele>690.84002685547</ele>
        <time>2010-10-10T07:38:11Z</time>
      </trkpt>
      <trkpt lat="43.81171" lon="7.40941">
        <ele>689.40002441406</ele>
        <time>2010-10-10T07:38:13Z</time>
      </trkpt>
      <trkpt lat="43.8118" lon="7.40958">
        <ele>687</ele>
        <time>2010-10-10T07:38:17Z</time>
      </trkpt>
      <trkpt lat="43.8119" lon="7.40976">
        <ele>685.55999755859</ele>
        <time>2010-10-10T07:38:22Z</time>
      </trkpt>
      <trkpt lat="43.81203" lon="7.40993">
        <ele>682.19000244141</ele>
        <time>2010-10-10T07:38:27Z</time>
      </trkpt>
      <trkpt lat="43.81213" lon="7.41002">
        <ele>681.22998046875</ele>
        <time>2010-10-10T07:38:30Z</time>
      </trkpt>
      <trkpt lat="43.81218" lon="7.41014">
        <ele>679.30999755859</ele>
        <time>2010-10-10T07:38:33Z</time>
      </trkpt>
      <trkpt lat="43.81239" lon="7.41011">
        <ele>678.34997558594</ele>
        <time>2010-10-10T07:38:41Z</time>
      </trkpt>
      <trkpt lat="43.81255" lon="7.41011">
        <ele>675.46002197266</ele>
        <time>2010-10-10T07:38:46Z</time>
      </trkpt>
      <trkpt lat="43.81282" lon="7.41006">
        <ele>673.05999755859</ele>
        <time>2010-10-10T07:38:54Z</time>
      </trkpt>
      <trkpt lat="43.8129" lon="7.41003">
        <ele>671.61999511719</ele>
        <time>2010-10-10T07:38:57Z</time>
      </trkpt>
      <trkpt lat="43.81297" lon="7.40997">
        <ele>669.70001220703</ele>
        <time>2010-10-10T07:39:00Z</time>
      </trkpt>
      <trkpt lat="43.81301" lon="7.40993">
        <ele>668.72998046875</ele>
        <time>2010-10-10T07:39:02Z</time>
      </trkpt>
      <trkpt lat="43.81304" lon="7.40988">
        <ele>667.28997802734</ele>
        <time>2010-10-10T07:39:04Z</time>
      </trkpt>
      <trkpt lat="43.81308" lon="7.40983">
        <ele>665.36999511719</ele>
        <time>2010-10-10T07:39:06Z</time>
      </trkpt>
      <trkpt lat="43.8132" lon="7.40971">
        <ele>662.48999023438</ele>
        <time>2010-10-10T07:39:11Z</time>
      </trkpt>
      <trkpt lat="43.81324" lon="7.40966">
        <ele>661.52001953125</ele>
        <time>2010-10-10T07:39:13Z</time>
      </trkpt>
      <trkpt lat="43.81343" lon="7.4095">
        <ele>658.64001464844</ele>
        <time>2010-10-10T07:39:20Z</time>
      </trkpt>
      <trkpt lat="43.81353" lon="7.40937">
        <ele>655.76000976562</ele>
        <time>2010-10-10T07:39:25Z</time>
      </trkpt>
      <trkpt lat="43.81367" lon="7.40917">
        <ele>652.39001464844</ele>
        <time>2010-10-10T07:39:31Z</time>
      </trkpt>
      <trkpt lat="43.81369" lon="7.40914">
        <ele>652.86999511719</ele>
        <time>2010-10-10T07:39:32Z</time>
      </trkpt>
      <trkpt lat="43.81377" lon="7.40905">
        <ele>650.95001220703</ele>
        <time>2010-10-10T07:39:35Z</time>
      </trkpt>
      <trkpt lat="43.81398" lon="7.40883">
        <ele>647.59002685547</ele>
        <time>2010-10-10T07:39:44Z</time>
      </trkpt>
      <trkpt lat="43.81403" lon="7.40873">
        <ele>645.65997314453</ele>
        <time>2010-10-10T07:39:48Z</time>
      </trkpt>
      <trkpt lat="43.81414" lon="7.40851">
        <ele>642.78002929688</ele>
        <time>2010-10-10T07:39:54Z</time>
      </trkpt>
      <trkpt lat="43.81425" lon="7.40826">
        <ele>639.40997314453</ele>
        <time>2010-10-10T07:40:00Z</time>
      </trkpt>
      <trkpt lat="43.81427" lon="7.40817">
        <ele>638.92999267578</ele>
        <time>2010-10-10T07:40:02Z</time>
      </trkpt>
      <trkpt lat="43.81431" lon="7.40797">
        <ele>636.04998779297</ele>
        <time>2010-10-10T07:40:06Z</time>
      </trkpt>
      <trkpt lat="43.81436" lon="7.40778">
        <ele>633.16998291016</ele>
        <time>2010-10-10T07:40:10Z</time>
      </trkpt>
      <trkpt lat="43.81444" lon="7.40752">
        <ele>629.79998779297</ele>
        <time>2010-10-10T07:40:17Z</time>
      </trkpt>
      <trkpt lat="43.81446" lon="7.40745">
        <ele>628.84002685547</ele>
        <time>2010-10-10T07:40:19Z</time>
      </trkpt>
      <trkpt lat="43.81449" lon="7.40738">
        <ele>627.88000488281</ele>
        <time>2010-10-10T07:40:21Z</time>
      </trkpt>
      <trkpt lat="43.81457" lon="7.40709">
        <ele>622.59002685547</ele>
        <time>2010-10-10T07:40:28Z</time>
      </trkpt>
      <trkpt lat="43.81458" lon="7.40706">
        <ele>623.07000732422</ele>
        <time>2010-10-10T07:40:29Z</time>
      </trkpt>
      <trkpt lat="43.81468" lon="7.40682">
        <ele>619.71002197266</ele>
        <time>2010-10-10T07:40:36Z</time>
      </trkpt>
      <trkpt lat="43.8147" lon="7.40679">
        <ele>619.71002197266</ele>
        <time>2010-10-10T07:40:37Z</time>
      </trkpt>
      <trkpt lat="43.81474" lon="7.40673">
        <ele>618.75</ele>
        <time>2010-10-10T07:40:39Z</time>
      </trkpt>
      <trkpt lat="43.8148" lon="7.40659">
        <ele>616.34002685547</ele>
        <time>2010-10-10T07:40:43Z</time>
      </trkpt>
      <trkpt lat="43.81486" lon="7.40639">
        <ele>613.46002197266</ele>
        <time>2010-10-10T07:40:48Z</time>
      </trkpt>
      <trkpt lat="43.81491" lon="7.40623">
        <ele>611.53997802734</ele>
        <time>2010-10-10T07:40:52Z</time>
      </trkpt>
      <trkpt lat="43.81494" lon="7.40615">
        <ele>610.09002685547</ele>
        <time>2010-10-10T07:40:54Z</time>
      </trkpt>
      <trkpt lat="43.81496" lon="7.40608">
        <ele>608.65002441406</ele>
        <time>2010-10-10T07:40:56Z</time>
      </trkpt>
      <trkpt lat="43.81498" lon="7.40602">
        <ele>608.16998291016</ele>
        <time>2010-10-10T07:40:58Z</time>
      </trkpt>
      <trkpt lat="43.81501" lon="7.40587">
        <ele>604.80999755859</ele>
        <time>2010-10-10T07:41:02Z</time>
      </trkpt>
      <trkpt lat="43.81504" lon="7.40561">
        <ele>600</ele>
        <time>2010-10-10T07:41:07Z</time>
      </trkpt>
      <trkpt lat="43.81506" lon="7.40555">
        <ele>600</ele>
        <time>2010-10-10T07:41:08Z</time>
      </trkpt>
      <trkpt lat="43.81509" lon="7.40539">
        <ele>597.59997558594</ele>
        <time>2010-10-10T07:41:11Z</time>
      </trkpt>
      <trkpt lat="43.81509" lon="7.40528">
        <ele>596.15002441406</ele>
        <time>2010-10-10T07:41:13Z</time>
      </trkpt>
      <trkpt lat="43.81512" lon="7.40495">
        <ele>591.83001708984</ele>
        <time>2010-10-10T07:41:19Z</time>
      </trkpt>
      <trkpt lat="43.81512" lon="7.4047">
        <ele>589.90997314453</ele>
        <time>2010-10-10T07:41:24Z</time>
      </trkpt>
      <trkpt lat="43.81517" lon="7.40435">
        <ele>585.58001708984</ele>
        <time>2010-10-10T07:41:31Z</time>
      </trkpt>
      <trkpt lat="43.8152" lon="7.40426">
        <ele>584.14001464844</ele>
        <time>2010-10-10T07:41:33Z</time>
      </trkpt>
      <trkpt lat="43.8154" lon="7.40418">
        <ele>583.65997314453</ele>
        <time>2010-10-10T07:41:39Z</time>
      </trkpt>
      <trkpt lat="43.81551" lon="7.40426">
        <ele>577.89001464844</ele>
        <time>2010-10-10T07:41:43Z</time>
      </trkpt>
      <trkpt lat="43.81561" lon="7.40433">
        <ele>575.01000976562</ele>
        <time>2010-10-10T07:41:46Z</time>
      </trkpt>
      <trkpt lat="43.81573" lon="7.40444">
        <ele>572.11999511719</ele>
        <time>2010-10-10T07:41:50Z</time>
      </trkpt>
      <trkpt lat="43.81583" lon="7.40453">
        <ele>568.28002929688</ele>
        <time>2010-10-10T07:41:54Z</time>
      </trkpt>
      <trkpt lat="43.81591" lon="7.40455">
        <ele>567.32000732422</ele>
        <time>2010-10-10T07:41:57Z</time>
      </trkpt>
      <trkpt lat="43.81603" lon="7.40454">
        <ele>563.95001220703</ele>
        <time>2010-10-10T07:42:01Z</time>
      </trkpt>
      <trkpt lat="43.81626" lon="7.4046">
        <ele>561.07000732422</ele>
        <time>2010-10-10T07:42:10Z</time>
      </trkpt>
      <trkpt lat="43.8164" lon="7.40456">
        <ele>557.70001220703</ele>
        <time>2010-10-10T07:42:17Z</time>
      </trkpt>
      <trkpt lat="43.81667" lon="7.4045">
        <ele>554.34002685547</ele>
        <time>2010-10-10T07:42:25Z</time>
      </trkpt>
      <trkpt lat="43.81673" lon="7.40447">
        <ele>552.90002441406</ele>
        <time>2010-10-10T07:42:28Z</time>
      </trkpt>
      <trkpt lat="43.8168" lon="7.40444">
        <ele>549.04998779297</ele>
        <time>2010-10-10T07:42:31Z</time>
      </trkpt>
      <trkpt lat="43.81682" lon="7.40442">
        <ele>549.04998779297</ele>
        <time>2010-10-10T07:42:32Z</time>
      </trkpt>
      <trkpt lat="43.81687" lon="7.4044">
        <ele>548.09002685547</ele>
        <time>2010-10-10T07:42:34Z</time>
      </trkpt>
      <trkpt lat="43.81698" lon="7.40435">
        <ele>544.71997070312</ele>
        <time>2010-10-10T07:42:38Z</time>
      </trkpt>
      <trkpt lat="43.81701" lon="7.40434">
        <ele>544.71997070312</ele>
        <time>2010-10-10T07:42:39Z</time>
      </trkpt>
      <trkpt lat="43.81713" lon="7.40424">
        <ele>541.35998535156</ele>
        <time>2010-10-10T07:42:43Z</time>
      </trkpt>
      <trkpt lat="43.81716" lon="7.40423">
        <ele>541.35998535156</ele>
        <time>2010-10-10T07:42:44Z</time>
      </trkpt>
      <trkpt lat="43.81726" lon="7.40421">
        <ele>538.96002197266</ele>
        <time>2010-10-10T07:42:47Z</time>
      </trkpt>
      <trkpt lat="43.81739" lon="7.4042">
        <ele>536.07000732422</ele>
        <time>2010-10-10T07:42:51Z</time>
      </trkpt>
      <trkpt lat="43.81758" lon="7.40425">
        <ele>532.71002197266</ele>
        <time>2010-10-10T07:42:57Z</time>
      </trkpt>
      <trkpt lat="43.81765" lon="7.40427">
        <ele>531.75</ele>
        <time>2010-10-10T07:42:59Z</time>
      </trkpt>
      <trkpt lat="43.81777" lon="7.4043">
        <ele>530.78997802734</ele>
        <time>2010-10-10T07:43:03Z</time>
      </trkpt>
      <trkpt lat="43.81787" lon="7.40431">
        <ele>529.34002685547</ele>
        <time>2010-10-10T07:43:06Z</time>
      </trkpt>
      <trkpt lat="43.81805" lon="7.40438">
        <ele>526.46002197266</ele>
        <time>2010-10-10T07:43:11Z</time>
      </trkpt>
      <trkpt lat="43.81821" lon="7.40449">
        <ele>525.5</ele>
        <time>2010-10-10T07:43:17Z</time>
      </trkpt>
      <trkpt lat="43.81831" lon="7.40451">
        <ele>522.13000488281</ele>
        <time>2010-10-10T07:43:21Z</time>
      </trkpt>
      <trkpt lat="43.81845" lon="7.40453">
        <ele>518.77001953125</ele>
        <time>2010-10-10T07:43:26Z</time>
      </trkpt>
      <trkpt lat="43.81847" lon="7.40455">
        <ele>518.77001953125</ele>
        <time>2010-10-10T07:43:27Z</time>
      </trkpt>
      <trkpt lat="43.81869" lon="7.4046">
        <ele>514.91998291016</ele>
        <time>2010-10-10T07:43:34Z</time>
      </trkpt>
      <trkpt lat="43.81871" lon="7.40461">
        <ele>515.40002441406</ele>
        <time>2010-10-10T07:43:35Z</time>
      </trkpt>
      <trkpt lat="43.81883" lon="7.40462">
        <ele>511.55999755859</ele>
        <time>2010-10-10T07:43:39Z</time>
      </trkpt>
      <trkpt lat="43.81886" lon="7.40463">
        <ele>511.55999755859</ele>
        <time>2010-10-10T07:43:40Z</time>
      </trkpt>
      <trkpt lat="43.81895" lon="7.40467">
        <ele>508.67001342773</ele>
        <time>2010-10-10T07:43:43Z</time>
      </trkpt>
      <trkpt lat="43.81903" lon="7.40466">
        <ele>506.26998901367</ele>
        <time>2010-10-10T07:43:47Z</time>
      </trkpt>
      <trkpt lat="43.81899" lon="7.40453">
        <ele>504.35000610352</ele>
        <time>2010-10-10T07:43:51Z</time>
      </trkpt>
      <trkpt lat="43.8189" lon="7.40442">
        <ele>502.91000366211</ele>
        <time>2010-10-10T07:43:54Z</time>
      </trkpt>
      <trkpt lat="43.81877" lon="7.4043">
        <ele>499.05999755859</ele>
        <time>2010-10-10T07:43:59Z</time>
      </trkpt>
      <trkpt lat="43.81876" lon="7.40428">
        <ele>499.05999755859</ele>
        <time>2010-10-10T07:44:00Z</time>
      </trkpt>
      <trkpt lat="43.81883" lon="7.40422">
        <ele>497.61999511719</ele>
        <time>2010-10-10T07:44:04Z</time>
      </trkpt>
      <trkpt lat="43.81903" lon="7.40426">
        <ele>493.76998901367</ele>
        <time>2010-10-10T07:44:10Z</time>
      </trkpt>
      <trkpt lat="43.81922" lon="7.40438">
        <ele>490.41000366211</ele>
        <time>2010-10-10T07:44:16Z</time>
      </trkpt>
      <trkpt lat="43.81934" lon="7.40446">
        <ele>488.01000976562</ele>
        <time>2010-10-10T07:44:21Z</time>
      </trkpt>
      <trkpt lat="43.81939" lon="7.40459">
        <ele>485.11999511719</ele>
        <time>2010-10-10T07:44:25Z</time>
      </trkpt>
      <trkpt lat="43.81941" lon="7.40466">
        <ele>485.11999511719</ele>
        <time>2010-10-10T07:44:27Z</time>
      </trkpt>
      <trkpt lat="43.8195" lon="7.4047">
        <ele>481.2799987793</ele>
        <time>2010-10-10T07:44:32Z</time>
      </trkpt>
      <trkpt lat="43.8195" lon="7.40467">
        <ele>480.79998779297</ele>
        <time>2010-10-10T07:44:33Z</time>
      </trkpt>
      <trkpt lat="43.81952" lon="7.4046">
        <ele>479.35000610352</ele>
        <time>2010-10-10T07:44:35Z</time>
      </trkpt>
      <trkpt lat="43.81956" lon="7.40462">
        <ele>478.86999511719</ele>
        <time>2010-10-10T07:44:38Z</time>
      </trkpt>
      <trkpt lat="43.81956" lon="7.405">
        <ele>475.0299987793</ele>
        <time>2010-10-10T07:44:47Z</time>
      </trkpt>
      <trkpt lat="43.8196" lon="7.40507">
        <ele>474.07000732422</ele>
        <time>2010-10-10T07:44:49Z</time>
      </trkpt>
      <trkpt lat="43.81987" lon="7.40528">
        <ele>470.70001220703</ele>
        <time>2010-10-10T07:44:58Z</time>
      </trkpt>
      <trkpt lat="43.8199" lon="7.4053">
        <ele>471.17999267578</ele>
        <time>2010-10-10T07:44:59Z</time>
      </trkpt>
      <trkpt lat="43.82002" lon="7.40518">
        <ele>467.33999633789</ele>
        <time>2010-10-10T07:45:06Z</time>
      </trkpt>
      <trkpt lat="43.82001" lon="7.40514">
        <ele>466.85998535156</ele>
        <time>2010-10-10T07:45:07Z</time>
      </trkpt>
      <trkpt lat="43.81995" lon="7.40493">
        <ele>464.45001220703</ele>
        <time>2010-10-10T07:45:12Z</time>
      </trkpt>
      <trkpt lat="43.81995" lon="7.40475">
        <ele>462.04998779297</ele>
        <time>2010-10-10T07:45:17Z</time>
      </trkpt>
      <trkpt lat="43.82009" lon="7.40477">
        <ele>460.13000488281</ele>
        <time>2010-10-10T07:45:21Z</time>
      </trkpt>
      <trkpt lat="43.8202" lon="7.40483">
        <ele>458.20999145508</ele>
        <time>2010-10-10T07:45:24Z</time>
      </trkpt>
      <trkpt lat="43.82037" lon="7.40494">
        <ele>455.32000732422</ele>
        <time>2010-10-10T07:45:29Z</time>
      </trkpt>
      <trkpt lat="43.82058" lon="7.40514">
        <ele>451.95999145508</ele>
        <time>2010-10-10T07:45:36Z</time>
      </trkpt>
      <trkpt lat="43.82061" lon="7.40517">
        <ele>451.95999145508</ele>
        <time>2010-10-10T07:45:37Z</time>
      </trkpt>
      <trkpt lat="43.82087" lon="7.40543">
        <ele>450.0299987793</ele>
        <time>2010-10-10T07:45:47Z</time>
      </trkpt>
      <trkpt lat="43.82089" lon="7.40551">
        <ele>450.0299987793</ele>
        <time>2010-10-10T07:45:50Z</time>
      </trkpt>
      <trkpt lat="43.82117" lon="7.40571">
        <ele>446.67001342773</ele>
        <time>2010-10-10T07:45:56Z</time>
      </trkpt>
      <trkpt lat="43.82124" lon="7.40576">
        <ele>445.23001098633</ele>
        <time>2010-10-10T07:45:58Z</time>
      </trkpt>
      <trkpt lat="43.82135" lon="7.40584">
        <ele>442.82000732422</ele>
        <time>2010-10-10T07:46:02Z</time>
      </trkpt>
      <trkpt lat="43.8215" lon="7.40599">
        <ele>441.38000488281</ele>
        <time>2010-10-10T07:46:07Z</time>
      </trkpt>
      <trkpt lat="43.82184" lon="7.40625">
        <ele>438.5</ele>
        <time>2010-10-10T07:46:19Z</time>
      </trkpt>
      <trkpt lat="43.82196" lon="7.40647">
        <ele>435.13000488281</ele>
        <time>2010-10-10T07:46:25Z</time>
      </trkpt>
      <trkpt lat="43.82197" lon="7.40652">
        <ele>435.13000488281</ele>
        <time>2010-10-10T07:46:26Z</time>
      </trkpt>
      <trkpt lat="43.82202" lon="7.40671">
        <ele>431.76998901367</ele>
        <time>2010-10-10T07:46:30Z</time>
      </trkpt>
      <trkpt lat="43.82212" lon="7.407">
        <ele>427.44000244141</ele>
        <time>2010-10-10T07:46:36Z</time>
      </trkpt>
      <trkpt lat="43.82215" lon="7.40704">
        <ele>427.92001342773</ele>
        <time>2010-10-10T07:46:37Z</time>
      </trkpt>
      <trkpt lat="43.82224" lon="7.40713">
        <ele>426.48001098633</ele>
        <time>2010-10-10T07:46:40Z</time>
      </trkpt>
      <trkpt lat="43.82247" lon="7.40738">
        <ele>425.51998901367</ele>
        <time>2010-10-10T07:46:49Z</time>
      </trkpt>
      <trkpt lat="43.82263" lon="7.40732">
        <ele>426.48001098633</ele>
        <time>2010-10-10T07:46:56Z</time>
      </trkpt>
      <trkpt lat="43.82273" lon="7.40733">
        <ele>427.44000244141</ele>
        <time>2010-10-10T07:47:00Z</time>
      </trkpt>
      <trkpt lat="43.82279" lon="7.40748">
        <ele>430.32998657227</ele>
        <time>2010-10-10T07:47:05Z</time>
      </trkpt>
      <trkpt lat="43.82293" lon="7.40757">
        <ele>432.25</ele>
        <time>2010-10-10T07:47:14Z</time>
      </trkpt>
      <trkpt lat="43.82299" lon="7.40751">
        <ele>435.60998535156</ele>
        <time>2010-10-10T07:47:23Z</time>
      </trkpt>
      <trkpt lat="43.82302" lon="7.40748">
        <ele>436.10000610352</ele>
        <time>2010-10-10T07:47:27Z</time>
      </trkpt>
      <trkpt lat="43.82306" lon="7.40742">
        <ele>436.57998657227</ele>
        <time>2010-10-10T07:47:31Z</time>
      </trkpt>
      <trkpt lat="43.82303" lon="7.40723">
        <ele>438.98001098633</ele>
        <time>2010-10-10T07:47:41Z</time>
      </trkpt>
      <trkpt lat="43.82304" lon="7.40719">
        <ele>440.42001342773</ele>
        <time>2010-10-10T07:47:44Z</time>
      </trkpt>
      <trkpt lat="43.82307" lon="7.40707">
        <ele>441.85998535156</ele>
        <time>2010-10-10T07:47:51Z</time>
      </trkpt>
      <trkpt lat="43.82315" lon="7.40692">
        <ele>445.23001098633</ele>
        <time>2010-10-10T07:48:01Z</time>
      </trkpt>
      <trkpt lat="43.82315" lon="7.40681">
        <ele>446.67001342773</ele>
        <time>2010-10-10T07:48:09Z</time>
      </trkpt>
      <trkpt lat="43.82319" lon="7.4068">
        <ele>448.10998535156</ele>
        <time>2010-10-10T07:48:13Z</time>
      </trkpt>
      <trkpt lat="43.8232" lon="7.40685">
        <ele>449.54998779297</ele>
        <time>2010-10-10T07:48:17Z</time>
      </trkpt>
      <trkpt lat="43.8232" lon="7.4069">
        <ele>451</ele>
        <time>2010-10-10T07:48:20Z</time>
      </trkpt>
      <trkpt lat="43.82322" lon="7.40695">
        <ele>450.51998901367</ele>
        <time>2010-10-10T07:48:23Z</time>
      </trkpt>
      <trkpt lat="43.82327" lon="7.40699">
        <ele>452.92001342773</ele>
        <time>2010-10-10T07:48:27Z</time>
      </trkpt>
      <trkpt lat="43.82331" lon="7.40699">
        <ele>453.39999389648</ele>
        <time>2010-10-10T07:48:30Z</time>
      </trkpt>
      <trkpt lat="43.82342" lon="7.40692">
        <ele>455.79998779297</ele>
        <time>2010-10-10T07:48:37Z</time>
      </trkpt>
      <trkpt lat="43.82341" lon="7.40692">
        <ele>456.76000976562</ele>
        <time>2010-10-10T07:48:41Z</time>
      </trkpt>
      <trkpt lat="43.8234" lon="7.40696">
        <ele>457.23999023438</ele>
        <time>2010-10-10T07:48:44Z</time>
      </trkpt>
      <trkpt lat="43.82341" lon="7.40698">
        <ele>458.69000244141</ele>
        <time>2010-10-10T07:48:46Z</time>
      </trkpt>
      <trkpt lat="43.82344" lon="7.40694">
        <ele>459.17001342773</ele>
        <time>2010-10-10T07:48:50Z</time>
      </trkpt>
      <trkpt lat="43.82347" lon="7.40692">
        <ele>460.13000488281</ele>
        <time>2010-10-10T07:48:54Z</time>
      </trkpt>
      <trkpt lat="43.8235" lon="7.40692">
        <ele>460.60998535156</ele>
        <time>2010-10-10T07:48:56Z</time>
      </trkpt>
      <trkpt lat="43.82352" lon="7.40695">
        <ele>462.04998779297</ele>
        <time>2010-10-10T07:49:01Z</time>
      </trkpt>
      <trkpt lat="43.82357" lon="7.40695">
        <ele>463.48999023438</ele>
        <time>2010-10-10T07:49:06Z</time>
      </trkpt>
      <trkpt lat="43.82364" lon="7.40685">
        <ele>466.85998535156</ele>
        <time>2010-10-10T07:49:17Z</time>
      </trkpt>
      <trkpt lat="43.82375" lon="7.40671">
        <ele>470.2200012207</ele>
        <time>2010-10-10T07:49:30Z</time>
      </trkpt>
      <trkpt lat="43.82378" lon="7.40665">
        <ele>472.14001464844</ele>
        <time>2010-10-10T07:49:37Z</time>
      </trkpt>
      <trkpt lat="43.82383" lon="7.40659">
        <ele>473.58999633789</ele>
        <time>2010-10-10T07:49:43Z</time>
      </trkpt>
      <trkpt lat="43.82395" lon="7.40649">
        <ele>477.42999267578</ele>
        <time>2010-10-10T07:49:56Z</time>
      </trkpt>
      <trkpt lat="43.82397" lon="7.40646">
        <ele>477.91000366211</ele>
        <time>2010-10-10T07:49:59Z</time>
      </trkpt>
      <trkpt lat="43.82407" lon="7.40639">
        <ele>480.79998779297</ele>
        <time>2010-10-10T07:50:10Z</time>
      </trkpt>
      <trkpt lat="43.82409" lon="7.40636">
        <ele>482.23999023438</ele>
        <time>2010-10-10T07:50:13Z</time>
      </trkpt>
      <trkpt lat="43.8241" lon="7.40635">
        <ele>482.23999023438</ele>
        <time>2010-10-10T07:50:14Z</time>
      </trkpt>
      <trkpt lat="43.82412" lon="7.40629">
        <ele>484.64001464844</ele>
        <time>2010-10-10T07:50:21Z</time>
      </trkpt>
      <trkpt lat="43.82421" lon="7.40624">
        <ele>487.5299987793</ele>
        <time>2010-10-10T07:50:32Z</time>
      </trkpt>
      <trkpt lat="43.82425" lon="7.40619">
        <ele>490.89001464844</ele>
        <time>2010-10-10T07:50:42Z</time>
      </trkpt>
      <trkpt lat="43.82431" lon="7.40615">
        <ele>492.80999755859</ele>
        <time>2010-10-10T07:50:49Z</time>
      </trkpt>
      <trkpt lat="43.82433" lon="7.40611">
        <ele>493.76998901367</ele>
        <time>2010-10-10T07:50:54Z</time>
      </trkpt>
      <trkpt lat="43.82434" lon="7.40607">
        <ele>495.2200012207</ele>
        <time>2010-10-10T07:50:58Z</time>
      </trkpt>
      <trkpt lat="43.82433" lon="7.40598">
        <ele>497.14001464844</ele>
        <time>2010-10-10T07:51:05Z</time>
      </trkpt>
      <trkpt lat="43.82435" lon="7.40596">
        <ele>498.10000610352</ele>
        <time>2010-10-10T07:51:08Z</time>
      </trkpt>
      <trkpt lat="43.82436" lon="7.40594">
        <ele>499.05999755859</ele>
        <time>2010-10-10T07:51:10Z</time>
      </trkpt>
      <trkpt lat="43.8244" lon="7.40576">
        <ele>502.42999267578</ele>
        <time>2010-10-10T07:51:23Z</time>
      </trkpt>
      <trkpt lat="43.82447" lon="7.40555">
        <ele>505.79000854492</ele>
        <time>2010-10-10T07:51:39Z</time>
      </trkpt>
      <trkpt lat="43.82452" lon="7.4054">
        <ele>509.16000366211</ele>
        <time>2010-10-10T07:51:49Z</time>
      </trkpt>
      <trkpt lat="43.82453" lon="7.40536">
        <ele>508.67001342773</ele>
        <time>2010-10-10T07:51:51Z</time>
      </trkpt>
      <trkpt lat="43.82457" lon="7.40522">
        <ele>511.07998657227</ele>
        <time>2010-10-10T07:52:01Z</time>
      </trkpt>
      <trkpt lat="43.82463" lon="7.40516">
        <ele>513</ele>
        <time>2010-10-10T07:52:07Z</time>
      </trkpt>
      <trkpt lat="43.82465" lon="7.40505">
        <ele>516.84997558594</ele>
        <time>2010-10-10T07:52:18Z</time>
      </trkpt>
      <trkpt lat="43.8247" lon="7.4048">
        <ele>519.25</ele>
        <time>2010-10-10T07:52:34Z</time>
      </trkpt>
      <trkpt lat="43.82476" lon="7.40458">
        <ele>522.60998535156</ele>
        <time>2010-10-10T07:52:47Z</time>
      </trkpt>
      <trkpt lat="43.82481" lon="7.40444">
        <ele>524.05999755859</ele>
        <time>2010-10-10T07:52:57Z</time>
      </trkpt>
      <trkpt lat="43.82481" lon="7.40438">
        <ele>526.46002197266</ele>
        <time>2010-10-10T07:53:02Z</time>
      </trkpt>
      <trkpt lat="43.82489" lon="7.40427">
        <ele>529.82000732422</ele>
        <time>2010-10-10T07:53:14Z</time>
      </trkpt>
      <trkpt lat="43.82492" lon="7.4041">
        <ele>532.71002197266</ele>
        <time>2010-10-10T07:53:25Z</time>
      </trkpt>
      <trkpt lat="43.82492" lon="7.40382">
        <ele>535.10998535156</ele>
        <time>2010-10-10T07:53:38Z</time>
      </trkpt>
      <trkpt lat="43.82494" lon="7.40366">
        <ele>536.54998779297</ele>
        <time>2010-10-10T07:53:44Z</time>
      </trkpt>
      <trkpt lat="43.82497" lon="7.40362">
        <ele>537.98999023438</ele>
        <time>2010-10-10T07:53:50Z</time>
      </trkpt>
      <trkpt lat="43.82499" lon="7.40378">
        <ele>539.91998291016</ele>
        <time>2010-10-10T07:54:01Z</time>
      </trkpt>
      <trkpt lat="43.82501" lon="7.40386">
        <ele>540.40002441406</ele>
        <time>2010-10-10T07:54:05Z</time>
      </trkpt>
      <trkpt lat="43.82504" lon="7.40393">
        <ele>541.84002685547</ele>
        <time>2010-10-10T07:54:09Z</time>
      </trkpt>
      <trkpt lat="43.82508" lon="7.40406">
        <ele>544.23999023438</ele>
        <time>2010-10-10T07:54:17Z</time>
      </trkpt>
      <trkpt lat="43.82508" lon="7.40409">
        <ele>544.23999023438</ele>
        <time>2010-10-10T07:54:19Z</time>
      </trkpt>
      <trkpt lat="43.82513" lon="7.40427">
        <ele>547.13000488281</ele>
        <time>2010-10-10T07:54:32Z</time>
      </trkpt>
      <trkpt lat="43.82515" lon="7.40431">
        <ele>548.57000732422</ele>
        <time>2010-10-10T07:54:35Z</time>
      </trkpt>
      <trkpt lat="43.82517" lon="7.40435">
        <ele>548.57000732422</ele>
        <time>2010-10-10T07:54:38Z</time>
      </trkpt>
      <trkpt lat="43.82518" lon="7.40441">
        <ele>549.53002929688</ele>
        <time>2010-10-10T07:54:42Z</time>
      </trkpt>
      <trkpt lat="43.82518" lon="7.40444">
        <ele>550.48999023438</ele>
        <time>2010-10-10T07:54:44Z</time>
      </trkpt>
      <trkpt lat="43.8252" lon="7.40456">
        <ele>552.40997314453</ele>
        <time>2010-10-10T07:54:52Z</time>
      </trkpt>
      <trkpt lat="43.82522" lon="7.4046">
        <ele>552.90002441406</ele>
        <time>2010-10-10T07:54:55Z</time>
      </trkpt>
      <trkpt lat="43.82527" lon="7.40478">
        <ele>554.82000732422</ele>
        <time>2010-10-10T07:55:05Z</time>
      </trkpt>
      <trkpt lat="43.82528" lon="7.40491">
        <ele>557.70001220703</ele>
        <time>2010-10-10T07:55:15Z</time>
      </trkpt>
      <trkpt lat="43.82528" lon="7.40488">
        <ele>559.14001464844</ele>
        <time>2010-10-10T07:55:19Z</time>
      </trkpt>
      <trkpt lat="43.8253" lon="7.40488">
        <ele>560.10998535156</ele>
        <time>2010-10-10T07:55:24Z</time>
      </trkpt>
      <trkpt lat="43.82532" lon="7.40492">
        <ele>561.07000732422</ele>
        <time>2010-10-10T07:55:29Z</time>
      </trkpt>
      <trkpt lat="43.82533" lon="7.40486">
        <ele>562.51000976562</ele>
        <time>2010-10-10T07:55:34Z</time>
      </trkpt>
      <trkpt lat="43.82535" lon="7.4048">
        <ele>564.90997314453</ele>
        <time>2010-10-10T07:55:41Z</time>
      </trkpt>
      <trkpt lat="43.82537" lon="7.40472">
        <ele>565.39001464844</ele>
        <time>2010-10-10T07:55:46Z</time>
      </trkpt>
      <trkpt lat="43.82538" lon="7.40469">
        <ele>566.34997558594</ele>
        <time>2010-10-10T07:55:48Z</time>
      </trkpt>
      <trkpt lat="43.8254" lon="7.40464">
        <ele>567.32000732422</ele>
        <time>2010-10-10T07:55:52Z</time>
      </trkpt>
      <trkpt lat="43.82541" lon="7.40462">
        <ele>567.32000732422</ele>
        <time>2010-10-10T07:55:54Z</time>
      </trkpt>
      <trkpt lat="43.82542" lon="7.40465">
        <ele>569.71997070312</ele>
        <time>2010-10-10T07:56:01Z</time>
      </trkpt>
      <trkpt lat="43.82549" lon="7.40458">
        <ele>572.11999511719</ele>
        <time>2010-10-10T07:56:10Z</time>
      </trkpt>
      <trkpt lat="43.82556" lon="7.40443">
        <ele>575.96997070312</ele>
        <time>2010-10-10T07:56:23Z</time>
      </trkpt>
      <trkpt lat="43.8256" lon="7.40435">
        <ele>577.89001464844</ele>
        <time>2010-10-10T07:56:30Z</time>
      </trkpt>
      <trkpt lat="43.82565" lon="7.4043">
        <ele>579.33001708984</ele>
        <time>2010-10-10T07:56:37Z</time>
      </trkpt>
      <trkpt lat="43.82565" lon="7.40433">
        <ele>579.80999755859</ele>
        <time>2010-10-10T07:56:39Z</time>
      </trkpt>
      <trkpt lat="43.82564" lon="7.40443">
        <ele>581.25</ele>
        <time>2010-10-10T07:56:44Z</time>
      </trkpt>
      <trkpt lat="43.82565" lon="7.40459">
        <ele>584.61999511719</ele>
        <time>2010-10-10T07:56:58Z</time>
      </trkpt>
      <trkpt lat="43.82564" lon="7.40471">
        <ele>587.02001953125</ele>
        <time>2010-10-10T07:57:07Z</time>
      </trkpt>
      <trkpt lat="43.82563" lon="7.40479">
        <ele>587.97998046875</ele>
        <time>2010-10-10T07:57:12Z</time>
      </trkpt>
      <trkpt lat="43.82561" lon="7.4049">
        <ele>589.42999267578</ele>
        <time>2010-10-10T07:57:18Z</time>
      </trkpt>
      <trkpt lat="43.82562" lon="7.40507">
        <ele>591.34997558594</ele>
        <time>2010-10-10T07:57:27Z</time>
      </trkpt>
      <trkpt lat="43.82563" lon="7.4051">
        <ele>591.34997558594</ele>
        <time>2010-10-10T07:57:29Z</time>
      </trkpt>
      <trkpt lat="43.82566" lon="7.40525">
        <ele>594.22998046875</ele>
        <time>2010-10-10T07:57:40Z</time>
      </trkpt>
      <trkpt lat="43.82566" lon="7.40525">
        <ele>594.22998046875</ele>
        <time>2010-10-10T07:57:41Z</time>
      </trkpt>
      <trkpt lat="43.82573" lon="7.40508">
        <ele>597.59997558594</ele>
        <time>2010-10-10T07:57:56Z</time>
      </trkpt>
      <trkpt lat="43.82574" lon="7.40506">
        <ele>598.08001708984</ele>
        <time>2010-10-10T07:57:58Z</time>
      </trkpt>
      <trkpt lat="43.82579" lon="7.40503">
        <ele>600</ele>
        <time>2010-10-10T07:58:03Z</time>
      </trkpt>
      <trkpt lat="43.82586" lon="7.40489">
        <ele>603.35998535156</ele>
        <time>2010-10-10T07:58:15Z</time>
      </trkpt>
      <trkpt lat="43.82587" lon="7.40487">
        <ele>602.88000488281</ele>
        <time>2010-10-10T07:58:17Z</time>
      </trkpt>
      <trkpt lat="43.82589" lon="7.40478">
        <ele>604.80999755859</ele>
        <time>2010-10-10T07:58:23Z</time>
      </trkpt>
      <trkpt lat="43.82593" lon="7.40476">
        <ele>606.25</ele>
        <time>2010-10-10T07:58:27Z</time>
      </trkpt>
      <trkpt lat="43.82598" lon="7.40472">
        <ele>606.25</ele>
        <time>2010-10-10T07:58:32Z</time>
      </trkpt>
      <trkpt lat="43.82602" lon="7.40472">
        <ele>608.16998291016</ele>
        <time>2010-10-10T07:58:36Z</time>
      </trkpt>
      <trkpt lat="43.826" lon="7.40478">
        <ele>609.13000488281</ele>
        <time>2010-10-10T07:58:41Z</time>
      </trkpt>
      <trkpt lat="43.82601" lon="7.40481">
        <ele>610.57000732422</ele>
        <time>2010-10-10T07:58:44Z</time>
      </trkpt>
      <trkpt lat="43.82604" lon="7.40477">
        <ele>611.05999755859</ele>
        <time>2010-10-10T07:58:50Z</time>
      </trkpt>
      <trkpt lat="43.82608" lon="7.40478">
        <ele>612.5</ele>
        <time>2010-10-10T07:58:55Z</time>
      </trkpt>
      <trkpt lat="43.82614" lon="7.40475">
        <ele>615.85998535156</ele>
        <time>2010-10-10T07:59:04Z</time>
      </trkpt>
      <trkpt lat="43.82624" lon="7.40463">
        <ele>618.75</ele>
        <time>2010-10-10T07:59:17Z</time>
      </trkpt>
      <trkpt lat="43.82634" lon="7.40451">
        <ele>619.71002197266</ele>
        <time>2010-10-10T07:59:25Z</time>
      </trkpt>
      <trkpt lat="43.82655" lon="7.40421">
        <ele>622.10998535156</ele>
        <time>2010-10-10T07:59:38Z</time>
      </trkpt>
      <trkpt lat="43.82673" lon="7.40396">
        <ele>624.98999023438</ele>
        <time>2010-10-10T07:59:52Z</time>
      </trkpt>
      <trkpt lat="43.8269" lon="7.40377">
        <ele>627.40002441406</ele>
        <time>2010-10-10T08:00:08Z</time>
      </trkpt>
      <trkpt lat="43.82706" lon="7.40364">
        <ele>629.79998779297</ele>
        <time>2010-10-10T08:00:22Z</time>
      </trkpt>
      <trkpt lat="43.82701" lon="7.40381">
        <ele>632.67999267578</ele>
        <time>2010-10-10T08:00:33Z</time>
      </trkpt>
      <trkpt lat="43.82703" lon="7.40391">
        <ele>634.13000488281</ele>
        <time>2010-10-10T08:00:38Z</time>
      </trkpt>
      <trkpt lat="43.82729" lon="7.40377">
        <ele>636.53002929688</ele>
        <time>2010-10-10T08:00:52Z</time>
      </trkpt>
      <trkpt lat="43.82732" lon="7.40376">
        <ele>637.48999023438</ele>
        <time>2010-10-10T08:00:54Z</time>
      </trkpt>
      <trkpt lat="43.82738" lon="7.40379">
        <ele>638.92999267578</ele>
        <time>2010-10-10T08:00:59Z</time>
      </trkpt>
      <trkpt lat="43.82759" lon="7.40379">
        <ele>641.82000732422</ele>
        <time>2010-10-10T08:01:16Z</time>
      </trkpt>
      <trkpt lat="43.82781" lon="7.40358">
        <ele>645.65997314453</ele>
        <time>2010-10-10T08:01:29Z</time>
      </trkpt>
      <trkpt lat="43.82801" lon="7.40336">
        <ele>648.07000732422</ele>
        <time>2010-10-10T08:01:44Z</time>
      </trkpt>
      <trkpt lat="43.82807" lon="7.40315">
        <ele>651.42999267578</ele>
        <time>2010-10-10T08:01:57Z</time>
      </trkpt>
      <trkpt lat="43.82809" lon="7.40307">
        <ele>652.39001464844</ele>
        <time>2010-10-10T08:02:02Z</time>
      </trkpt>
      <trkpt lat="43.8282" lon="7.40305">
        <ele>655.28002929688</ele>
        <time>2010-10-10T08:02:13Z</time>
      </trkpt>
      <trkpt lat="43.82827" lon="7.40308">
        <ele>658.15997314453</ele>
        <time>2010-10-10T08:02:22Z</time>
      </trkpt>
      <trkpt lat="43.8284" lon="7.40311">
        <ele>661.03997802734</ele>
        <time>2010-10-10T08:02:35Z</time>
      </trkpt>
      <trkpt lat="43.82853" lon="7.40315">
        <ele>664.40997314453</ele>
        <time>2010-10-10T08:02:47Z</time>
      </trkpt>
      <trkpt lat="43.82857" lon="7.40316">
        <ele>664.89001464844</ele>
        <time>2010-10-10T08:02:50Z</time>
      </trkpt>
      <trkpt lat="43.82875" lon="7.40319">
        <ele>666.80999755859</ele>
        <time>2010-10-10T08:03:04Z</time>
      </trkpt>
      <trkpt lat="43.8289" lon="7.4033">
        <ele>669.21997070312</ele>
        <time>2010-10-10T08:03:16Z</time>
      </trkpt>
      <trkpt lat="43.82902" lon="7.40339">
        <ele>671.14001464844</ele>
        <time>2010-10-10T08:03:26Z</time>
      </trkpt>
      <trkpt lat="43.82909" lon="7.40351">
        <ele>672.09997558594</ele>
        <time>2010-10-10T08:03:34Z</time>
      </trkpt>
      <trkpt lat="43.82921" lon="7.40365">
        <ele>675.46002197266</ele>
        <time>2010-10-10T08:03:48Z</time>
      </trkpt>
      <trkpt lat="43.82936" lon="7.40374">
        <ele>678.34997558594</ele>
        <time>2010-10-10T08:03:58Z</time>
      </trkpt>
      <trkpt lat="43.8295" lon="7.40387">
        <ele>681.71002197266</ele>
        <time>2010-10-10T08:04:13Z</time>
      </trkpt>
      <trkpt lat="43.82965" lon="7.40393">
        <ele>684.59997558594</ele>
        <time>2010-10-10T08:04:26Z</time>
      </trkpt>
      <trkpt lat="43.82983" lon="7.40397">
        <ele>687.47998046875</ele>
        <time>2010-10-10T08:04:38Z</time>
      </trkpt>
      <trkpt lat="43.82988" lon="7.404">
        <ele>687.96002197266</ele>
        <time>2010-10-10T08:04:42Z</time>
      </trkpt>
      <trkpt lat="43.82995" lon="7.40403">
        <ele>688.44000244141</ele>
        <time>2010-10-10T08:04:47Z</time>
      </trkpt>
      <trkpt lat="43.82999" lon="7.40404">
        <ele>689.40002441406</ele>
        <time>2010-10-10T08:04:49Z</time>
      </trkpt>
      <trkpt lat="43.83018" lon="7.40411">
        <ele>691.33001708984</ele>
        <time>2010-10-10T08:05:00Z</time>
      </trkpt>
      <trkpt lat="43.83038" lon="7.40424">
        <ele>692.77001953125</ele>
        <time>2010-10-10T08:05:11Z</time>
      </trkpt>
      <trkpt lat="43.83059" lon="7.40436">
        <ele>693.25</ele>
        <time>2010-10-10T08:05:21Z</time>
      </trkpt>
      <trkpt lat="43.83081" lon="7.40443">
        <ele>694.69000244141</ele>
        <time>2010-10-10T08:05:31Z</time>
      </trkpt>
      <trkpt lat="43.83091" lon="7.40454">
        <ele>696.60998535156</ele>
        <time>2010-10-10T08:05:43Z</time>
      </trkpt>
      <trkpt lat="43.83092" lon="7.40463">
        <ele>697.57000732422</ele>
        <time>2010-10-10T08:05:48Z</time>
      </trkpt>
      <trkpt lat="43.83096" lon="7.40476">
        <ele>698.53002929688</ele>
        <time>2010-10-10T08:05:52Z</time>
      </trkpt>
      <trkpt lat="43.83105" lon="7.40501">
        <ele>700.94000244141</ele>
        <time>2010-10-10T08:06:05Z</time>
      </trkpt>
      <trkpt lat="43.83108" lon="7.40506">
        <ele>701.90002441406</ele>
        <time>2010-10-10T08:06:08Z</time>
      </trkpt>
      <trkpt lat="43.83116" lon="7.40526">
        <ele>705.75</ele>
        <time>2010-10-10T08:06:21Z</time>
      </trkpt>
      <trkpt lat="43.83119" lon="7.4053">
        <ele>706.22998046875</ele>
        <time>2010-10-10T08:06:24Z</time>
      </trkpt>
      <trkpt lat="43.83124" lon="7.40537">
        <ele>708.15002441406</ele>
        <time>2010-10-10T08:06:30Z</time>
      </trkpt>
      <trkpt lat="43.83131" lon="7.40545">
        <ele>710.54998779297</ele>
        <time>2010-10-10T08:06:39Z</time>
      </trkpt>
      <trkpt lat="43.83139" lon="7.40555">
        <ele>713.91998291016</ele>
        <time>2010-10-10T08:06:50Z</time>
      </trkpt>
      <trkpt lat="43.83142" lon="7.40559">
        <ele>714.40002441406</ele>
        <time>2010-10-10T08:06:54Z</time>
      </trkpt>
      <trkpt lat="43.83147" lon="7.40566">
        <ele>715.84002685547</ele>
        <time>2010-10-10T08:07:00Z</time>
      </trkpt>
      <trkpt lat="43.8315" lon="7.40571">
        <ele>717.28002929688</ele>
        <time>2010-10-10T08:07:04Z</time>
      </trkpt>
      <trkpt lat="43.83165" lon="7.4059">
        <ele>719.67999267578</ele>
        <time>2010-10-10T08:07:17Z</time>
      </trkpt>
      <trkpt lat="43.83167" lon="7.40591">
        <ele>720.15997314453</ele>
        <time>2010-10-10T08:07:18Z</time>
      </trkpt>
      <trkpt lat="43.83181" lon="7.4061">
        <ele>723.53002929688</ele>
        <time>2010-10-10T08:07:28Z</time>
      </trkpt>
      <trkpt lat="43.83189" lon="7.40618">
        <ele>725.92999267578</ele>
        <time>2010-10-10T08:07:41Z</time>
      </trkpt>
      <trkpt lat="43.83195" lon="7.40623">
        <ele>727.36999511719</ele>
        <time>2010-10-10T08:07:46Z</time>
      </trkpt>
      <trkpt lat="43.83198" lon="7.40628">
        <ele>728.82000732422</ele>
        <time>2010-10-10T08:07:50Z</time>
      </trkpt>
      <trkpt lat="43.83209" lon="7.40637">
        <ele>732.65997314453</ele>
        <time>2010-10-10T08:08:05Z</time>
      </trkpt>
      <trkpt lat="43.83216" lon="7.40642">
        <ele>733.61999511719</ele>
        <time>2010-10-10T08:08:11Z</time>
      </trkpt>
      <trkpt lat="43.83221" lon="7.40649">
        <ele>734.09997558594</ele>
        <time>2010-10-10T08:08:15Z</time>
      </trkpt>
      <trkpt lat="43.83226" lon="7.40658">
        <ele>734.09997558594</ele>
        <time>2010-10-10T08:08:19Z</time>
      </trkpt>
      <trkpt lat="43.8324" lon="7.40682">
        <ele>735.07000732422</ele>
        <time>2010-10-10T08:08:30Z</time>
      </trkpt>
      <trkpt lat="43.83245" lon="7.40696">
        <ele>738.42999267578</ele>
        <time>2010-10-10T08:08:39Z</time>
      </trkpt>
      <trkpt lat="43.83247" lon="7.40701">
        <ele>737.95001220703</ele>
        <time>2010-10-10T08:08:42Z</time>
      </trkpt>
      <trkpt lat="43.83249" lon="7.40704">
        <ele>738.42999267578</ele>
        <time>2010-10-10T08:08:45Z</time>
      </trkpt>
      <trkpt lat="43.83256" lon="7.40713">
        <ele>739.86999511719</ele>
        <time>2010-10-10T08:08:53Z</time>
      </trkpt>
      <trkpt lat="43.83263" lon="7.40718">
        <ele>740.83001708984</ele>
        <time>2010-10-10T08:08:58Z</time>
      </trkpt>
      <trkpt lat="43.83266" lon="7.40719">
        <ele>741.78997802734</ele>
        <time>2010-10-10T08:09:01Z</time>
      </trkpt>
      <trkpt lat="43.83277" lon="7.40724">
        <ele>744.20001220703</ele>
        <time>2010-10-10T08:09:13Z</time>
      </trkpt>
      <trkpt lat="43.83288" lon="7.40727">
        <ele>747.55999755859</ele>
        <time>2010-10-10T08:09:24Z</time>
      </trkpt>
      <trkpt lat="43.83297" lon="7.40728">
        <ele>750.92999267578</ele>
        <time>2010-10-10T08:09:34Z</time>
      </trkpt>
      <trkpt lat="43.8331" lon="7.40728">
        <ele>754.28997802734</ele>
        <time>2010-10-10T08:09:48Z</time>
      </trkpt>
      <trkpt lat="43.83318" lon="7.40728">
        <ele>755.25</ele>
        <time>2010-10-10T08:09:55Z</time>
      </trkpt>
      <trkpt lat="43.83333" lon="7.40729">
        <ele>756.69000244141</ele>
        <time>2010-10-10T08:10:05Z</time>
      </trkpt>
      <trkpt lat="43.83336" lon="7.4073">
        <ele>756.69000244141</ele>
        <time>2010-10-10T08:10:09Z</time>
      </trkpt>
      <trkpt lat="43.83342" lon="7.40755">
        <ele>757.65997314453</ele>
        <time>2010-10-10T08:10:21Z</time>
      </trkpt>
      <trkpt lat="43.83342" lon="7.40775">
        <ele>758.14001464844</ele>
        <time>2010-10-10T08:10:27Z</time>
      </trkpt>
      <trkpt lat="43.83339" lon="7.40804">
        <ele>760.53997802734</ele>
        <time>2010-10-10T08:10:39Z</time>
      </trkpt>
      <trkpt lat="43.8334" lon="7.40809">
        <ele>760.53997802734</ele>
        <time>2010-10-10T08:10:42Z</time>
      </trkpt>
      <trkpt lat="43.83342" lon="7.40813">
        <ele>763.41998291016</ele>
        <time>2010-10-10T08:10:48Z</time>
      </trkpt>
      <trkpt lat="43.83345" lon="7.40825">
        <ele>766.30999755859</ele>
        <time>2010-10-10T08:11:00Z</time>
      </trkpt>
      <trkpt lat="43.83353" lon="7.40831">
        <ele>769.66998291016</ele>
        <time>2010-10-10T08:11:11Z</time>
      </trkpt>
      <trkpt lat="43.83356" lon="7.40832">
        <ele>771.10998535156</ele>
        <time>2010-10-10T08:11:16Z</time>
      </trkpt>
      <trkpt lat="43.83357" lon="7.40833">
        <ele>772.08001708984</ele>
        <time>2010-10-10T08:11:19Z</time>
      </trkpt>
      <trkpt lat="43.83368" lon="7.40842">
        <ele>774.96002197266</ele>
        <time>2010-10-10T08:11:31Z</time>
      </trkpt>
      <trkpt lat="43.83372" lon="7.40854">
        <ele>777.35998535156</ele>
        <time>2010-10-10T08:11:45Z</time>
      </trkpt>
      <trkpt lat="43.83374" lon="7.40863">
        <ele>780.25</ele>
        <time>2010-10-10T08:11:53Z</time>
      </trkpt>
      <trkpt lat="43.83378" lon="7.40875">
        <ele>783.60998535156</ele>
        <time>2010-10-10T08:12:06Z</time>
      </trkpt>
      <trkpt lat="43.83381" lon="7.40888">
        <ele>786.97998046875</ele>
        <time>2010-10-10T08:12:19Z</time>
      </trkpt>
      <trkpt lat="43.83381" lon="7.4089">
        <ele>787.46002197266</ele>
        <time>2010-10-10T08:12:22Z</time>
      </trkpt>
      <trkpt lat="43.83389" lon="7.40897">
        <ele>790.34002685547</ele>
        <time>2010-10-10T08:12:33Z</time>
      </trkpt>
      <trkpt lat="43.83391" lon="7.40902">
        <ele>791.78002929688</ele>
        <time>2010-10-10T08:12:37Z</time>
      </trkpt>
      <trkpt lat="43.83391" lon="7.40903">
        <ele>791.78002929688</ele>
        <time>2010-10-10T08:12:38Z</time>
      </trkpt>
      <trkpt lat="43.83392" lon="7.40909">
        <ele>793.71002197266</ele>
        <time>2010-10-10T08:12:44Z</time>
      </trkpt>
      <trkpt lat="43.83403" lon="7.40924">
        <ele>796.59002685547</ele>
        <time>2010-10-10T08:12:57Z</time>
      </trkpt>
      <trkpt lat="43.83408" lon="7.4093">
        <ele>798.98999023438</ele>
        <time>2010-10-10T08:13:04Z</time>
      </trkpt>
      <trkpt lat="43.83413" lon="7.40938">
        <ele>801.40002441406</ele>
        <time>2010-10-10T08:13:14Z</time>
      </trkpt>
      <trkpt lat="43.83423" lon="7.40951">
        <ele>804.76000976562</ele>
        <time>2010-10-10T08:13:28Z</time>
      </trkpt>
      <trkpt lat="43.83424" lon="7.40952">
        <ele>805.23999023438</ele>
        <time>2010-10-10T08:13:29Z</time>
      </trkpt>
      <trkpt lat="43.83435" lon="7.40957">
        <ele>807.64001464844</ele>
        <time>2010-10-10T08:13:43Z</time>
      </trkpt>
      <trkpt lat="43.83446" lon="7.40959">
        <ele>811.01000976562</ele>
        <time>2010-10-10T08:13:56Z</time>
      </trkpt>
      <trkpt lat="43.83452" lon="7.40959">
        <ele>814.36999511719</ele>
        <time>2010-10-10T08:14:06Z</time>
      </trkpt>
      <trkpt lat="43.83463" lon="7.40961">
        <ele>817.26000976562</ele>
        <time>2010-10-10T08:14:20Z</time>
      </trkpt>
      <trkpt lat="43.83475" lon="7.4096">
        <ele>819.65997314453</ele>
        <time>2010-10-10T08:14:33Z</time>
      </trkpt>
      <trkpt lat="43.83477" lon="7.4096">
        <ele>821.09997558594</ele>
        <time>2010-10-10T08:14:36Z</time>
      </trkpt>
      <trkpt lat="43.83492" lon="7.40961">
        <ele>824.46997070312</ele>
        <time>2010-10-10T08:14:51Z</time>
      </trkpt>
      <trkpt lat="43.83496" lon="7.40959">
        <ele>825.42999267578</ele>
        <time>2010-10-10T08:14:55Z</time>
      </trkpt>
      <trkpt lat="43.83519" lon="7.40963">
        <ele>827.34997558594</ele>
        <time>2010-10-10T08:15:12Z</time>
      </trkpt>
      <trkpt lat="43.83538" lon="7.4096">
        <ele>829.76000976562</ele>
        <time>2010-10-10T08:15:27Z</time>
      </trkpt>
      <trkpt lat="43.83549" lon="7.40965">
        <ele>831.67999267578</ele>
        <time>2010-10-10T08:15:36Z</time>
      </trkpt>
      <trkpt lat="43.83562" lon="7.40971">
        <ele>835.03997802734</ele>
        <time>2010-10-10T08:15:46Z</time>
      </trkpt>
      <trkpt lat="43.83578" lon="7.40979">
        <ele>836.47998046875</ele>
        <time>2010-10-10T08:16:01Z</time>
      </trkpt>
      <trkpt lat="43.83585" lon="7.40979">
        <ele>836.47998046875</ele>
        <time>2010-10-10T08:16:07Z</time>
      </trkpt>
      <trkpt lat="43.83601" lon="7.40989">
        <ele>838.89001464844</ele>
        <time>2010-10-10T08:16:19Z</time>
      </trkpt>
      <trkpt lat="43.83611" lon="7.40993">
        <ele>838.89001464844</ele>
        <time>2010-10-10T08:16:31Z</time>
      </trkpt>
      <trkpt lat="43.83622" lon="7.41003">
        <ele>841.28997802734</ele>
        <time>2010-10-10T08:16:42Z</time>
      </trkpt>
      <trkpt lat="43.83643" lon="7.41009">
        <ele>843.69000244141</ele>
        <time>2010-10-10T08:16:55Z</time>
      </trkpt>
      <trkpt lat="43.83665" lon="7.41012">
        <ele>844.65997314453</ele>
        <time>2010-10-10T08:17:07Z</time>
      </trkpt>
      <trkpt lat="43.83669" lon="7.41016">
        <ele>845.61999511719</ele>
        <time>2010-10-10T08:17:11Z</time>
      </trkpt>
      <trkpt lat="43.83673" lon="7.41014">
        <ele>847.53997802734</ele>
        <time>2010-10-10T08:17:17Z</time>
      </trkpt>
      <trkpt lat="43.83681" lon="7.41028">
        <ele>848.97998046875</ele>
        <time>2010-10-10T08:17:27Z</time>
      </trkpt>
      <trkpt lat="43.83685" lon="7.41032">
        <ele>847.53997802734</ele>
        <time>2010-10-10T08:17:30Z</time>
      </trkpt>
      <trkpt lat="43.83691" lon="7.41034">
        <ele>848.02001953125</ele>
        <time>2010-10-10T08:17:33Z</time>
      </trkpt>
      <trkpt lat="43.83701" lon="7.41046">
        <ele>849.46002197266</ele>
        <time>2010-10-10T08:17:45Z</time>
      </trkpt>
      <trkpt lat="43.83709" lon="7.41055">
        <ele>851.38000488281</ele>
        <time>2010-10-10T08:17:55Z</time>
      </trkpt>
      <trkpt lat="43.83715" lon="7.41053">
        <ele>853.78997802734</ele>
        <time>2010-10-10T08:18:03Z</time>
      </trkpt>
      <trkpt lat="43.83716" lon="7.41052">
        <ele>854.75</ele>
        <time>2010-10-10T08:18:05Z</time>
      </trkpt>
      <trkpt lat="43.83722" lon="7.41048">
        <ele>857.63000488281</ele>
        <time>2010-10-10T08:18:15Z</time>
      </trkpt>
      <trkpt lat="43.83723" lon="7.41046">
        <ele>858.10998535156</ele>
        <time>2010-10-10T08:18:17Z</time>
      </trkpt>
      <trkpt lat="43.83725" lon="7.41047">
        <ele>858.10998535156</ele>
        <time>2010-10-10T08:18:20Z</time>
      </trkpt>
      <trkpt lat="43.83725" lon="7.41051">
        <ele>859.08001708984</ele>
        <time>2010-10-10T08:18:23Z</time>
      </trkpt>
      <trkpt lat="43.83718" lon="7.41068">
        <ele>861.47998046875</ele>
        <time>2010-10-10T08:18:39Z</time>
      </trkpt>
      <trkpt lat="43.83716" lon="7.41071">
        <ele>863.40002441406</ele>
        <time>2010-10-10T08:18:42Z</time>
      </trkpt>
      <trkpt lat="43.8371" lon="7.41083">
        <ele>865.79998779297</ele>
        <time>2010-10-10T08:18:53Z</time>
      </trkpt>
      <trkpt lat="43.83709" lon="7.41098">
        <ele>868.21002197266</ele>
        <time>2010-10-10T08:19:07Z</time>
      </trkpt>
      <trkpt lat="43.83712" lon="7.41104">
        <ele>871.57000732422</ele>
        <time>2010-10-10T08:19:18Z</time>
      </trkpt>
      <trkpt lat="43.83715" lon="7.41108">
        <ele>872.53002929688</ele>
        <time>2010-10-10T08:19:25Z</time>
      </trkpt>
      <trkpt lat="43.83724" lon="7.41096">
        <ele>875.90002441406</ele>
        <time>2010-10-10T08:19:38Z</time>
      </trkpt>
      <trkpt lat="43.83739" lon="7.41089">
        <ele>880.21997070312</ele>
        <time>2010-10-10T08:19:56Z</time>
      </trkpt>
      <trkpt lat="43.8374" lon="7.41089">
        <ele>880.21997070312</ele>
        <time>2010-10-10T08:19:57Z</time>
      </trkpt>
      <trkpt lat="43.83745" lon="7.41087">
        <ele>880.71002197266</ele>
        <time>2010-10-10T08:20:02Z</time>
      </trkpt>
      <trkpt lat="43.83759" lon="7.4108">
        <ele>883.59002685547</ele>
        <time>2010-10-10T08:20:15Z</time>
      </trkpt>
      <trkpt lat="43.83762" lon="7.41079">
        <ele>882.63000488281</ele>
        <time>2010-10-10T08:20:18Z</time>
      </trkpt>
      <trkpt lat="43.83766" lon="7.41081">
        <ele>883.59002685547</ele>
        <time>2010-10-10T08:20:22Z</time>
      </trkpt>
      <trkpt lat="43.83775" lon="7.41081">
        <ele>885.51000976562</ele>
        <time>2010-10-10T08:20:31Z</time>
      </trkpt>
      <trkpt lat="43.83792" lon="7.41067">
        <ele>889.35998535156</ele>
        <time>2010-10-10T08:20:49Z</time>
      </trkpt>
      <trkpt lat="43.83802" lon="7.41055">
        <ele>892.23999023438</ele>
        <time>2010-10-10T08:21:02Z</time>
      </trkpt>
      <trkpt lat="43.83807" lon="7.41048">
        <ele>893.20001220703</ele>
        <time>2010-10-10T08:21:08Z</time>
      </trkpt>
      <trkpt lat="43.83817" lon="7.41038">
        <ele>896.09002685547</ele>
        <time>2010-10-10T08:21:21Z</time>
      </trkpt>
      <trkpt lat="43.83817" lon="7.41037">
        <ele>896.09002685547</ele>
        <time>2010-10-10T08:21:22Z</time>
      </trkpt>
      <trkpt lat="43.8382" lon="7.41025">
        <ele>899.45001220703</ele>
        <time>2010-10-10T08:21:31Z</time>
      </trkpt>
      <trkpt lat="43.83826" lon="7.41013">
        <ele>902.33001708984</ele>
        <time>2010-10-10T08:21:42Z</time>
      </trkpt>
      <trkpt lat="43.83832" lon="7.41002">
        <ele>903.29998779297</ele>
        <time>2010-10-10T08:21:52Z</time>
      </trkpt>
      <trkpt lat="43.83833" lon="7.41001">
        <ele>904.26000976562</ele>
        <time>2010-10-10T08:21:54Z</time>
      </trkpt>
      <trkpt lat="43.83835" lon="7.41003">
        <ele>905.70001220703</ele>
        <time>2010-10-10T08:21:57Z</time>
      </trkpt>
      <trkpt lat="43.83836" lon="7.41003">
        <ele>906.65997314453</ele>
        <time>2010-10-10T08:21:58Z</time>
      </trkpt>
      <trkpt lat="43.83837" lon="7.41012">
        <ele>906.65997314453</ele>
        <time>2010-10-10T08:22:06Z</time>
      </trkpt>
      <trkpt lat="43.8384" lon="7.41028">
        <ele>910.03002929688</ele>
        <time>2010-10-10T08:22:20Z</time>
      </trkpt>
      <trkpt lat="43.83841" lon="7.41024">
        <ele>910.98999023438</ele>
        <time>2010-10-10T08:22:24Z</time>
      </trkpt>
      <trkpt lat="43.83843" lon="7.41016">
        <ele>911.95001220703</ele>
        <time>2010-10-10T08:22:30Z</time>
      </trkpt>
      <trkpt lat="43.83858" lon="7.41004">
        <ele>913.86999511719</ele>
        <time>2010-10-10T08:22:47Z</time>
      </trkpt>
      <trkpt lat="43.83868" lon="7.41008">
        <ele>917.23999023438</ele>
        <time>2010-10-10T08:22:59Z</time>
      </trkpt>
      <trkpt lat="43.83868" lon="7.41009">
        <ele>916.75</ele>
        <time>2010-10-10T08:23:00Z</time>
      </trkpt>
      <trkpt lat="43.83869" lon="7.41011">
        <ele>915.78997802734</ele>
        <time>2010-10-10T08:23:02Z</time>
      </trkpt>
      <trkpt lat="43.83871" lon="7.41019">
        <ele>917.71997070312</ele>
        <time>2010-10-10T08:23:07Z</time>
      </trkpt>
      <trkpt lat="43.83875" lon="7.41027">
        <ele>916.27001953125</ele>
        <time>2010-10-10T08:23:13Z</time>
      </trkpt>
      <trkpt lat="43.83881" lon="7.4103">
        <ele>917.71997070312</ele>
        <time>2010-10-10T08:23:18Z</time>
      </trkpt>
      <trkpt lat="43.83891" lon="7.41035">
        <ele>920.59997558594</ele>
        <time>2010-10-10T08:23:30Z</time>
      </trkpt>
      <trkpt lat="43.83901" lon="7.41032">
        <ele>924.45001220703</ele>
        <time>2010-10-10T08:23:43Z</time>
      </trkpt>
      <trkpt lat="43.83901" lon="7.41032">
        <ele>923.96002197266</ele>
        <time>2010-10-10T08:23:44Z</time>
      </trkpt>
      <trkpt lat="43.83913" lon="7.41044">
        <ele>925.40997314453</ele>
        <time>2010-10-10T08:23:58Z</time>
      </trkpt>
      <trkpt lat="43.83915" lon="7.41046">
        <ele>926.36999511719</ele>
        <time>2010-10-10T08:24:00Z</time>
      </trkpt>
      <trkpt lat="43.8392" lon="7.41049">
        <ele>929.72998046875</ele>
        <time>2010-10-10T08:24:04Z</time>
      </trkpt>
      <trkpt lat="43.83921" lon="7.41049">
        <ele>927.33001708984</ele>
        <time>2010-10-10T08:24:05Z</time>
      </trkpt>
      <trkpt lat="43.83924" lon="7.41046">
        <ele>928.77001953125</ele>
        <time>2010-10-10T08:24:09Z</time>
      </trkpt>
      <trkpt lat="43.83939" lon="7.4104">
        <ele>931.16998291016</ele>
        <time>2010-10-10T08:24:25Z</time>
      </trkpt>
      <trkpt lat="43.83941" lon="7.41038">
        <ele>932.14001464844</ele>
        <time>2010-10-10T08:24:27Z</time>
      </trkpt>
      <trkpt lat="43.83951" lon="7.41025">
        <ele>932.61999511719</ele>
        <time>2010-10-10T08:24:39Z</time>
      </trkpt>
      <trkpt lat="43.83956" lon="7.41023">
        <ele>932.61999511719</ele>
        <time>2010-10-10T08:24:43Z</time>
      </trkpt>
      <trkpt lat="43.83963" lon="7.41013">
        <ele>933.58001708984</ele>
        <time>2010-10-10T08:24:51Z</time>
      </trkpt>
      <trkpt lat="43.83975" lon="7.41003">
        <ele>936.46002197266</ele>
        <time>2010-10-10T08:25:05Z</time>
      </trkpt>
      <trkpt lat="43.83992" lon="7.40999">
        <ele>936.46002197266</ele>
        <time>2010-10-10T08:25:19Z</time>
      </trkpt>
      <trkpt lat="43.83998" lon="7.41001">
        <ele>937.41998291016</ele>
        <time>2010-10-10T08:25:24Z</time>
      </trkpt>
      <trkpt lat="43.84001" lon="7.41002">
        <ele>936.94000244141</ele>
        <time>2010-10-10T08:25:26Z</time>
      </trkpt>
      <trkpt lat="43.84007" lon="7.41002">
        <ele>937.90002441406</ele>
        <time>2010-10-10T08:25:31Z</time>
      </trkpt>
      <trkpt lat="43.84022" lon="7.40993">
        <ele>940.30999755859</ele>
        <time>2010-10-10T08:25:43Z</time>
      </trkpt>
      <trkpt lat="43.84045" lon="7.40986">
        <ele>943.66998291016</ele>
        <time>2010-10-10T08:26:04Z</time>
      </trkpt>
      <trkpt lat="43.8406" lon="7.40985">
        <ele>946.55999755859</ele>
        <time>2010-10-10T08:26:20Z</time>
      </trkpt>
      <trkpt lat="43.84061" lon="7.40985">
        <ele>947.03997802734</ele>
        <time>2010-10-10T08:26:21Z</time>
      </trkpt>
      <trkpt lat="43.84074" lon="7.40983">
        <ele>949.44000244141</ele>
        <time>2010-10-10T08:26:34Z</time>
      </trkpt>
      <trkpt lat="43.84089" lon="7.40987">
        <ele>951.84002685547</ele>
        <time>2010-10-10T08:26:50Z</time>
      </trkpt>
      <trkpt lat="43.84104" lon="7.40993">
        <ele>953.77001953125</ele>
        <time>2010-10-10T08:27:05Z</time>
      </trkpt>
      <trkpt lat="43.84106" lon="7.40993">
        <ele>955.69000244141</ele>
        <time>2010-10-10T08:27:08Z</time>
      </trkpt>
      <trkpt lat="43.84118" lon="7.40992">
        <ele>959.04998779297</ele>
        <time>2010-10-10T08:27:22Z</time>
      </trkpt>
      <trkpt lat="43.84126" lon="7.40993">
        <ele>961.94000244141</ele>
        <time>2010-10-10T08:27:34Z</time>
      </trkpt>
      <trkpt lat="43.84132" lon="7.40993">
        <ele>964.34002685547</ele>
        <time>2010-10-10T08:27:43Z</time>
      </trkpt>
      <trkpt lat="43.84141" lon="7.40996">
        <ele>967.21997070312</ele>
        <time>2010-10-10T08:27:56Z</time>
      </trkpt>
      <trkpt lat="43.84147" lon="7.40988">
        <ele>971.07000732422</ele>
        <time>2010-10-10T08:28:09Z</time>
      </trkpt>
      <trkpt lat="43.8416" lon="7.40982">
        <ele>973.95001220703</ele>
        <time>2010-10-10T08:28:27Z</time>
      </trkpt>
      <trkpt lat="43.84165" lon="7.4098">
        <ele>975.88000488281</ele>
        <time>2010-10-10T08:28:33Z</time>
      </trkpt>
      <trkpt lat="43.84182" lon="7.40965">
        <ele>975.39001464844</ele>
        <time>2010-10-10T08:28:46Z</time>
      </trkpt>
      <trkpt lat="43.842" lon="7.40958">
        <ele>978.76000976562</ele>
        <time>2010-10-10T08:29:01Z</time>
      </trkpt>
      <trkpt lat="43.84214" lon="7.4095">
        <ele>981.64001464844</ele>
        <time>2010-10-10T08:29:17Z</time>
      </trkpt>
      <trkpt lat="43.84227" lon="7.40947">
        <ele>985.01000976562</ele>
        <time>2010-10-10T08:29:32Z</time>
      </trkpt>
      <trkpt lat="43.84238" lon="7.4095">
        <ele>987.89001464844</ele>
        <time>2010-10-10T08:29:46Z</time>
      </trkpt>
      <trkpt lat="43.84255" lon="7.40945">
        <ele>989.80999755859</ele>
        <time>2010-10-10T08:30:04Z</time>
      </trkpt>
      <trkpt lat="43.84269" lon="7.40947">
        <ele>991.73999023438</ele>
        <time>2010-10-10T08:30:19Z</time>
      </trkpt>
      <trkpt lat="43.84272" lon="7.40944">
        <ele>995.09997558594</ele>
        <time>2010-10-10T08:30:26Z</time>
      </trkpt>
      <trkpt lat="43.84272" lon="7.40942">
        <ele>994.61999511719</ele>
        <time>2010-10-10T08:30:28Z</time>
      </trkpt>
      <trkpt lat="43.84276" lon="7.40927">
        <ele>996.53997802734</ele>
        <time>2010-10-10T08:30:39Z</time>
      </trkpt>
      <trkpt lat="43.84276" lon="7.40924">
        <ele>997.02001953125</ele>
        <time>2010-10-10T08:30:41Z</time>
      </trkpt>
      <trkpt lat="43.84286" lon="7.40929">
        <ele>1000.3900146484</ele>
        <time>2010-10-10T08:30:56Z</time>
      </trkpt>
      <trkpt lat="43.84292" lon="7.40938">
        <ele>1002.7899780273</ele>
        <time>2010-10-10T08:31:07Z</time>
      </trkpt>
      <trkpt lat="43.84293" lon="7.40941">
        <ele>1003.2700195312</ele>
        <time>2010-10-10T08:31:10Z</time>
      </trkpt>
      <trkpt lat="43.84299" lon="7.40954">
        <ele>1005.200012207</ele>
        <time>2010-10-10T08:31:21Z</time>
      </trkpt>
      <trkpt lat="43.84301" lon="7.40966">
        <ele>1007.1199951172</ele>
        <time>2010-10-10T08:31:33Z</time>
      </trkpt>
      <trkpt lat="43.84301" lon="7.40968">
        <ele>1006.6400146484</ele>
        <time>2010-10-10T08:31:35Z</time>
      </trkpt>
      <trkpt lat="43.84301" lon="7.40972">
        <ele>1007.5999755859</ele>
        <time>2010-10-10T08:31:38Z</time>
      </trkpt>
      <trkpt lat="43.84301" lon="7.40975">
        <ele>1007.5999755859</ele>
        <time>2010-10-10T08:31:40Z</time>
      </trkpt>
      <trkpt lat="43.84289" lon="7.40987">
        <ele>1008.0800170898</ele>
        <time>2010-10-10T08:31:55Z</time>
      </trkpt>
      <trkpt lat="43.84281" lon="7.40992">
        <ele>1009.0399780273</ele>
        <time>2010-10-10T08:32:05Z</time>
      </trkpt>
      <trkpt lat="43.84283" lon="7.40999">
        <ele>1011.4400024414</ele>
        <time>2010-10-10T08:32:11Z</time>
      </trkpt>
      <trkpt lat="43.84295" lon="7.41002">
        <ele>1012.4099731445</ele>
        <time>2010-10-10T08:32:27Z</time>
      </trkpt>
      <trkpt lat="43.84303" lon="7.41003">
        <ele>1014.3300170898</ele>
        <time>2010-10-10T08:32:36Z</time>
      </trkpt>
      <trkpt lat="43.84308" lon="7.41015">
        <ele>1017.6900024414</ele>
        <time>2010-10-10T08:32:49Z</time>
      </trkpt>
      <trkpt lat="43.84319" lon="7.41024">
        <ele>1021.0599975586</ele>
        <time>2010-10-10T08:33:03Z</time>
      </trkpt>
      <trkpt lat="43.84322" lon="7.41027">
        <ele>1021.5399780273</ele>
        <time>2010-10-10T08:33:07Z</time>
      </trkpt>
      <trkpt lat="43.84322" lon="7.41029">
        <ele>1022.5</ele>
        <time>2010-10-10T08:33:09Z</time>
      </trkpt>
      <trkpt lat="43.84293" lon="7.41025">
        <ele>1024.9000244141</ele>
        <time>2010-10-10T08:33:30Z</time>
      </trkpt>
      <trkpt lat="43.84291" lon="7.41025">
        <ele>1025.3800048828</ele>
        <time>2010-10-10T08:33:32Z</time>
      </trkpt>
      <trkpt lat="43.84287" lon="7.41027">
        <ele>1025.3800048828</ele>
        <time>2010-10-10T08:33:36Z</time>
      </trkpt>
      <trkpt lat="43.8428" lon="7.41032">
        <ele>1026.8299560547</ele>
        <time>2010-10-10T08:33:44Z</time>
      </trkpt>
      <trkpt lat="43.84275" lon="7.41037">
        <ele>1028.75</ele>
        <time>2010-10-10T08:33:51Z</time>
      </trkpt>
      <trkpt lat="43.84264" lon="7.41046">
        <ele>1031.6300048828</ele>
        <time>2010-10-10T08:34:05Z</time>
      </trkpt>
      <trkpt lat="43.84264" lon="7.41047">
        <ele>1031.1500244141</ele>
        <time>2010-10-10T08:34:06Z</time>
      </trkpt>
      <trkpt lat="43.8425" lon="7.41051">
        <ele>1032.1099853516</ele>
        <time>2010-10-10T08:34:19Z</time>
      </trkpt>
      <trkpt lat="43.84232" lon="7.41055">
        <ele>1035</ele>
        <time>2010-10-10T08:34:33Z</time>
      </trkpt>
      <trkpt lat="43.84231" lon="7.41055">
        <ele>1034.5200195312</ele>
        <time>2010-10-10T08:34:34Z</time>
      </trkpt>
      <trkpt lat="43.84231" lon="7.41063">
        <ele>1036.4399414062</ele>
        <time>2010-10-10T08:34:42Z</time>
      </trkpt>
      <trkpt lat="43.84233" lon="7.41064">
        <ele>1036.9200439453</ele>
        <time>2010-10-10T08:34:46Z</time>
      </trkpt>
      <trkpt lat="43.8425" lon="7.41069">
        <ele>1039.8000488281</ele>
        <time>2010-10-10T08:34:58Z</time>
      </trkpt>
      <trkpt lat="43.84271" lon="7.41073">
        <ele>1042.2099609375</ele>
        <time>2010-10-10T08:35:16Z</time>
      </trkpt>
      <trkpt lat="43.8429" lon="7.41076">
        <ele>1043.1700439453</ele>
        <time>2010-10-10T08:35:32Z</time>
      </trkpt>
      <trkpt lat="43.84312" lon="7.41085">
        <ele>1046.5300292969</ele>
        <time>2010-10-10T08:35:49Z</time>
      </trkpt>
      <trkpt lat="43.84331" lon="7.4109">
        <ele>1048.4499511719</ele>
        <time>2010-10-10T08:36:06Z</time>
      </trkpt>
      <trkpt lat="43.84351" lon="7.41089">
        <ele>1051.8199462891</ele>
        <time>2010-10-10T08:36:23Z</time>
      </trkpt>
      <trkpt lat="43.84363" lon="7.41092">
        <ele>1054.2199707031</ele>
        <time>2010-10-10T08:36:37Z</time>
      </trkpt>
      <trkpt lat="43.84364" lon="7.41093">
        <ele>1055.1800537109</ele>
        <time>2010-10-10T08:36:38Z</time>
      </trkpt>
      <trkpt lat="43.84386" lon="7.41094">
        <ele>1058.0699462891</ele>
        <time>2010-10-10T08:36:57Z</time>
      </trkpt>
      <trkpt lat="43.84406" lon="7.41099">
        <ele>1060.4699707031</ele>
        <time>2010-10-10T08:37:14Z</time>
      </trkpt>
      <trkpt lat="43.8443" lon="7.41102">
        <ele>1062.3900146484</ele>
        <time>2010-10-10T08:37:32Z</time>
      </trkpt>
      <trkpt lat="43.84439" lon="7.41108">
        <ele>1063.8399658203</ele>
        <time>2010-10-10T08:37:39Z</time>
      </trkpt>
      <trkpt lat="43.84448" lon="7.41105">
        <ele>1065.7600097656</ele>
        <time>2010-10-10T08:37:48Z</time>
      </trkpt>
      <trkpt lat="43.8445" lon="7.41104">
        <ele>1065.7600097656</ele>
        <time>2010-10-10T08:37:50Z</time>
      </trkpt>
      <trkpt lat="43.84464" lon="7.41106">
        <ele>1069.5999755859</ele>
        <time>2010-10-10T08:38:05Z</time>
      </trkpt>
      <trkpt lat="43.84468" lon="7.41108">
        <ele>1071.0500488281</ele>
        <time>2010-10-10T08:38:10Z</time>
      </trkpt>
      <trkpt lat="43.8447" lon="7.41109">
        <ele>1072.0100097656</ele>
        <time>2010-10-10T08:38:12Z</time>
      </trkpt>
      <trkpt lat="43.84473" lon="7.41111">
        <ele>1072.9699707031</ele>
        <time>2010-10-10T08:38:16Z</time>
      </trkpt>
      <trkpt lat="43.84486" lon="7.41115">
        <ele>1074.8900146484</ele>
        <time>2010-10-10T08:38:29Z</time>
      </trkpt>
      <trkpt lat="43.84487" lon="7.41116">
        <ele>1075.8499755859</ele>
        <time>2010-10-10T08:38:30Z</time>
      </trkpt>
      <trkpt lat="43.84494" lon="7.41121">
        <ele>1078.7399902344</ele>
        <time>2010-10-10T08:38:40Z</time>
      </trkpt>
      <trkpt lat="43.84495" lon="7.4112">
        <ele>1079.2199707031</ele>
        <time>2010-10-10T08:39:04Z</time>
      </trkpt>
      <trkpt lat="43.84496" lon="7.41123">
        <ele>1079.2199707031</ele>
        <time>2010-10-10T08:39:40Z</time>
      </trkpt>
      <trkpt lat="43.845" lon="7.41128">
        <ele>1080.1800537109</ele>
        <time>2010-10-10T08:40:18Z</time>
      </trkpt>
      <trkpt lat="43.8451" lon="7.41144">
        <ele>1082.5799560547</ele>
        <time>2010-10-10T08:40:32Z</time>
      </trkpt>
      <trkpt lat="43.84524" lon="7.41173">
        <ele>1084.0200195312</ele>
        <time>2010-10-10T08:40:53Z</time>
      </trkpt>
      <trkpt lat="43.84534" lon="7.41186">
        <ele>1084.9899902344</ele>
        <time>2010-10-10T08:41:05Z</time>
      </trkpt>
      <trkpt lat="43.84538" lon="7.41193">
        <ele>1085.4699707031</ele>
        <time>2010-10-10T08:41:10Z</time>
      </trkpt>
      <trkpt lat="43.84545" lon="7.41213">
        <ele>1088.3499755859</ele>
        <time>2010-10-10T08:41:27Z</time>
      </trkpt>
      <trkpt lat="43.84547" lon="7.41216">
        <ele>1089.3100585938</ele>
        <time>2010-10-10T08:41:30Z</time>
      </trkpt>
      <trkpt lat="43.84557" lon="7.41232">
        <ele>1091.7099609375</ele>
        <time>2010-10-10T08:41:44Z</time>
      </trkpt>
      <trkpt lat="43.84558" lon="7.41234">
        <ele>1091.7099609375</ele>
        <time>2010-10-10T08:41:46Z</time>
      </trkpt>
      <trkpt lat="43.84565" lon="7.41248">
        <ele>1094.5999755859</ele>
        <time>2010-10-10T08:41:59Z</time>
      </trkpt>
      <trkpt lat="43.84566" lon="7.41249">
        <ele>1094.5999755859</ele>
        <time>2010-10-10T08:42:00Z</time>
      </trkpt>
      <trkpt lat="43.84568" lon="7.41253">
        <ele>1096.0400390625</ele>
        <time>2010-10-10T08:42:04Z</time>
      </trkpt>
      <trkpt lat="43.84571" lon="7.41257">
        <ele>1097</ele>
        <time>2010-10-10T08:42:09Z</time>
      </trkpt>
      <trkpt lat="43.84577" lon="7.41273">
        <ele>1098.9200439453</ele>
        <time>2010-10-10T08:42:22Z</time>
      </trkpt>
      <trkpt lat="43.84575" lon="7.41292">
        <ele>1101.3299560547</ele>
        <time>2010-10-10T08:42:35Z</time>
      </trkpt>
      <trkpt lat="43.84575" lon="7.41293">
        <ele>1101.3299560547</ele>
        <time>2010-10-10T08:42:36Z</time>
      </trkpt>
      <trkpt lat="43.84576" lon="7.41302">
        <ele>1102.2900390625</ele>
        <time>2010-10-10T08:42:42Z</time>
      </trkpt>
      <trkpt lat="43.84578" lon="7.41306">
        <ele>1102.7700195312</ele>
        <time>2010-10-10T08:42:45Z</time>
      </trkpt>
      <trkpt lat="43.84588" lon="7.41323">
        <ele>1102.2900390625</ele>
        <time>2010-10-10T08:42:57Z</time>
      </trkpt>
      <trkpt lat="43.84587" lon="7.41334">
        <ele>1102.7700195312</ele>
        <time>2010-10-10T08:43:03Z</time>
      </trkpt>
      <trkpt lat="43.84584" lon="7.41347">
        <ele>1103.7299804688</ele>
        <time>2010-10-10T08:43:13Z</time>
      </trkpt>
      <trkpt lat="43.84583" lon="7.41372">
        <ele>1105.6500244141</ele>
        <time>2010-10-10T08:43:30Z</time>
      </trkpt>
      <trkpt lat="43.84585" lon="7.41383">
        <ele>1106.1300048828</ele>
        <time>2010-10-10T08:43:37Z</time>
      </trkpt>
      <trkpt lat="43.84589" lon="7.41405">
        <ele>1107.0999755859</ele>
        <time>2010-10-10T08:43:50Z</time>
      </trkpt>
      <trkpt lat="43.84586" lon="7.41414">
        <ele>1108.5400390625</ele>
        <time>2010-10-10T08:43:57Z</time>
      </trkpt>
      <trkpt lat="43.84583" lon="7.41419">
        <ele>1109.5</ele>
        <time>2010-10-10T08:44:01Z</time>
      </trkpt>
      <trkpt lat="43.84581" lon="7.41424">
        <ele>1110.4599609375</ele>
        <time>2010-10-10T08:44:04Z</time>
      </trkpt>
      <trkpt lat="43.84576" lon="7.41434">
        <ele>1112.3800048828</ele>
        <time>2010-10-10T08:44:12Z</time>
      </trkpt>
      <trkpt lat="43.84575" lon="7.41442">
        <ele>1112.8599853516</ele>
        <time>2010-10-10T08:44:18Z</time>
      </trkpt>
      <trkpt lat="43.84576" lon="7.41447">
        <ele>1112.8599853516</ele>
        <time>2010-10-10T08:44:22Z</time>
      </trkpt>
      <trkpt lat="43.8458" lon="7.41458">
        <ele>1114.3100585938</ele>
        <time>2010-10-10T08:44:31Z</time>
      </trkpt>
      <trkpt lat="43.84584" lon="7.41466">
        <ele>1115.75</ele>
        <time>2010-10-10T08:44:38Z</time>
      </trkpt>
      <trkpt lat="43.84586" lon="7.4148">
        <ele>1117.6700439453</ele>
        <time>2010-10-10T08:44:51Z</time>
      </trkpt>
      <trkpt lat="43.84598" lon="7.41489">
        <ele>1117.1899414062</ele>
        <time>2010-10-10T08:45:03Z</time>
      </trkpt>
      <trkpt lat="43.84599" lon="7.41512">
        <ele>1116.7099609375</ele>
        <time>2010-10-10T08:45:15Z</time>
      </trkpt>
      <trkpt lat="43.84605" lon="7.41531">
        <ele>1114.7900390625</ele>
        <time>2010-10-10T08:45:23Z</time>
      </trkpt>
      <trkpt lat="43.84608" lon="7.41546">
        <ele>1112.8599853516</ele>
        <time>2010-10-10T08:45:28Z</time>
      </trkpt>
      <trkpt lat="43.84609" lon="7.41549">
        <ele>1113.3399658203</ele>
        <time>2010-10-10T08:45:29Z</time>
      </trkpt>
      <trkpt lat="43.84611" lon="7.41553">
        <ele>1111.4200439453</ele>
        <time>2010-10-10T08:45:31Z</time>
      </trkpt>
      <trkpt lat="43.84613" lon="7.41557">
        <ele>1109.9799804688</ele>
        <time>2010-10-10T08:45:33Z</time>
      </trkpt>
      <trkpt lat="43.84616" lon="7.41561">
        <ele>1108.5400390625</ele>
        <time>2010-10-10T08:45:35Z</time>
      </trkpt>
      <trkpt lat="43.84624" lon="7.41571">
        <ele>1105.1700439453</ele>
        <time>2010-10-10T08:45:40Z</time>
      </trkpt>
      <trkpt lat="43.84626" lon="7.41574">
        <ele>1104.6899414062</ele>
        <time>2010-10-10T08:45:41Z</time>
      </trkpt>
      <trkpt lat="43.84636" lon="7.41584">
        <ele>1100.8499755859</ele>
        <time>2010-10-10T08:45:46Z</time>
      </trkpt>
      <trkpt lat="43.84637" lon="7.41586">
        <ele>1100.8499755859</ele>
        <time>2010-10-10T08:45:47Z</time>
      </trkpt>
      <trkpt lat="43.84642" lon="7.41595">
        <ele>1097.4799804688</ele>
        <time>2010-10-10T08:45:50Z</time>
      </trkpt>
      <trkpt lat="43.84644" lon="7.41597">
        <ele>1097.9599609375</ele>
        <time>2010-10-10T08:45:51Z</time>
      </trkpt>
      <trkpt lat="43.84652" lon="7.41607">
        <ele>1095.5600585938</ele>
        <time>2010-10-10T08:45:56Z</time>
      </trkpt>
      <trkpt lat="43.84654" lon="7.41608">
        <ele>1094.5999755859</ele>
        <time>2010-10-10T08:45:57Z</time>
      </trkpt>
      <trkpt lat="43.84658" lon="7.41615">
        <ele>1093.1600341797</ele>
        <time>2010-10-10T08:46:00Z</time>
      </trkpt>
      <trkpt lat="43.84663" lon="7.41633">
        <ele>1091.2299804688</ele>
        <time>2010-10-10T08:46:05Z</time>
      </trkpt>
      <trkpt lat="43.84664" lon="7.41644">
        <ele>1089.3100585938</ele>
        <time>2010-10-10T08:46:08Z</time>
      </trkpt>
      <trkpt lat="43.84666" lon="7.41656">
        <ele>1087.3900146484</ele>
        <time>2010-10-10T08:46:12Z</time>
      </trkpt>
      <trkpt lat="43.84671" lon="7.41672">
        <ele>1084.0200195312</ele>
        <time>2010-10-10T08:46:17Z</time>
      </trkpt>
      <trkpt lat="43.84676" lon="7.41686">
        <ele>1081.1400146484</ele>
        <time>2010-10-10T08:46:21Z</time>
      </trkpt>
      <trkpt lat="43.8468" lon="7.41704">
        <ele>1079.2199707031</ele>
        <time>2010-10-10T08:46:26Z</time>
      </trkpt>
      <trkpt lat="43.8468" lon="7.4171">
        <ele>1078.2600097656</ele>
        <time>2010-10-10T08:46:28Z</time>
      </trkpt>
      <trkpt lat="43.84683" lon="7.41724">
        <ele>1074.8900146484</ele>
        <time>2010-10-10T08:46:34Z</time>
      </trkpt>
      <trkpt lat="43.84686" lon="7.4173">
        <ele>1072.9699707031</ele>
        <time>2010-10-10T08:46:36Z</time>
      </trkpt>
      <trkpt lat="43.84691" lon="7.41754">
        <ele>1070.0799560547</ele>
        <time>2010-10-10T08:46:43Z</time>
      </trkpt>
      <trkpt lat="43.8469" lon="7.41775">
        <ele>1066.7199707031</ele>
        <time>2010-10-10T08:46:49Z</time>
      </trkpt>
      <trkpt lat="43.84689" lon="7.41795">
        <ele>1064.3199462891</ele>
        <time>2010-10-10T08:46:54Z</time>
      </trkpt>
      <trkpt lat="43.84699" lon="7.41831">
        <ele>1060.9499511719</ele>
        <time>2010-10-10T08:47:05Z</time>
      </trkpt>
      <trkpt lat="43.847" lon="7.41834">
        <ele>1060.9499511719</ele>
        <time>2010-10-10T08:47:06Z</time>
      </trkpt>
      <trkpt lat="43.84711" lon="7.41854">
        <ele>1059.0300292969</ele>
        <time>2010-10-10T08:47:12Z</time>
      </trkpt>
      <trkpt lat="43.84726" lon="7.41884">
        <ele>1055.6700439453</ele>
        <time>2010-10-10T08:47:22Z</time>
      </trkpt>
      <trkpt lat="43.84732" lon="7.41911">
        <ele>1052.3000488281</ele>
        <time>2010-10-10T08:47:30Z</time>
      </trkpt>
      <trkpt lat="43.84734" lon="7.41924">
        <ele>1050.3800048828</ele>
        <time>2010-10-10T08:47:34Z</time>
      </trkpt>
      <trkpt lat="43.84734" lon="7.4193">
        <ele>1049.9000244141</ele>
        <time>2010-10-10T08:47:36Z</time>
      </trkpt>
      <trkpt lat="43.84742" lon="7.41952">
        <ele>1046.5300292969</ele>
        <time>2010-10-10T08:47:43Z</time>
      </trkpt>
      <trkpt lat="43.84743" lon="7.41962">
        <ele>1044.1300048828</ele>
        <time>2010-10-10T08:47:46Z</time>
      </trkpt>
      <trkpt lat="43.84737" lon="7.41976">
        <ele>1041.25</ele>
        <time>2010-10-10T08:47:51Z</time>
      </trkpt>
      <trkpt lat="43.8473" lon="7.41983">
        <ele>1038.3599853516</ele>
        <time>2010-10-10T08:47:59Z</time>
      </trkpt>
      <trkpt lat="43.8473" lon="7.41984">
        <ele>1037.8800048828</ele>
        <time>2010-10-10T08:48:00Z</time>
      </trkpt>
      <trkpt lat="43.84729" lon="7.41988">
        <ele>1035.9599609375</ele>
        <time>2010-10-10T08:48:04Z</time>
      </trkpt>
      <trkpt lat="43.84727" lon="7.41997">
        <ele>1032.5899658203</ele>
        <time>2010-10-10T08:48:15Z</time>
      </trkpt>
      <trkpt lat="43.84727" lon="7.41999">
        <ele>1032.5899658203</ele>
        <time>2010-10-10T08:48:17Z</time>
      </trkpt>
      <trkpt lat="43.84727" lon="7.42009">
        <ele>1028.75</ele>
        <time>2010-10-10T08:48:22Z</time>
      </trkpt>
      <trkpt lat="43.84727" lon="7.42019">
        <ele>1027.3100585938</ele>
        <time>2010-10-10T08:48:26Z</time>
      </trkpt>
      <trkpt lat="43.84727" lon="7.42025">
        <ele>1024.9000244141</ele>
        <time>2010-10-10T08:48:29Z</time>
      </trkpt>
      <trkpt lat="43.84725" lon="7.42041">
        <ele>1020.5800170898</ele>
        <time>2010-10-10T08:48:38Z</time>
      </trkpt>
      <trkpt lat="43.84724" lon="7.42049">
        <ele>1018.6500244141</ele>
        <time>2010-10-10T08:48:42Z</time>
      </trkpt>
      <trkpt lat="43.84724" lon="7.42061">
        <ele>1014.8099975586</ele>
        <time>2010-10-10T08:48:47Z</time>
      </trkpt>
      <trkpt lat="43.84723" lon="7.42079">
        <ele>1011.9299926758</ele>
        <time>2010-10-10T08:48:52Z</time>
      </trkpt>
      <trkpt lat="43.84722" lon="7.42083">
        <ele>1010.4799804688</ele>
        <time>2010-10-10T08:48:53Z</time>
      </trkpt>
      <trkpt lat="43.84721" lon="7.4209">
        <ele>1009.5200195312</ele>
        <time>2010-10-10T08:48:55Z</time>
      </trkpt>
      <trkpt lat="43.8472" lon="7.42097">
        <ele>1007.5999755859</ele>
        <time>2010-10-10T08:48:57Z</time>
      </trkpt>
      <trkpt lat="43.84719" lon="7.42106">
        <ele>1007.5999755859</ele>
        <time>2010-10-10T08:49:00Z</time>
      </trkpt>
      <trkpt lat="43.84718" lon="7.42135">
        <ele>1004.7199707031</ele>
        <time>2010-10-10T08:49:08Z</time>
      </trkpt>
      <trkpt lat="43.84715" lon="7.42152">
        <ele>1003.2700195312</ele>
        <time>2010-10-10T08:49:12Z</time>
      </trkpt>
      <trkpt lat="43.84715" lon="7.42162">
        <ele>1001.3499755859</ele>
        <time>2010-10-10T08:49:15Z</time>
      </trkpt>
      <trkpt lat="43.84718" lon="7.42183">
        <ele>999.42999267578</ele>
        <time>2010-10-10T08:49:20Z</time>
      </trkpt>
      <trkpt lat="43.84714" lon="7.42213">
        <ele>995.58001708984</ele>
        <time>2010-10-10T08:49:28Z</time>
      </trkpt>
      <trkpt lat="43.84713" lon="7.42221">
        <ele>995.09997558594</ele>
        <time>2010-10-10T08:49:30Z</time>
      </trkpt>
      <trkpt lat="43.84716" lon="7.42235">
        <ele>993.65997314453</ele>
        <time>2010-10-10T08:49:34Z</time>
      </trkpt>
      <trkpt lat="43.84724" lon="7.42246">
        <ele>993.17999267578</ele>
        <time>2010-10-10T08:49:38Z</time>
      </trkpt>
      <trkpt lat="43.84731" lon="7.42284">
        <ele>991.73999023438</ele>
        <time>2010-10-10T08:49:49Z</time>
      </trkpt>
      <trkpt lat="43.84735" lon="7.42293">
        <ele>991.73999023438</ele>
        <time>2010-10-10T08:49:52Z</time>
      </trkpt>
      <trkpt lat="43.84747" lon="7.4232">
        <ele>991.73999023438</ele>
        <time>2010-10-10T08:50:02Z</time>
      </trkpt>
      <trkpt lat="43.84756" lon="7.42341">
        <ele>991.73999023438</ele>
        <time>2010-10-10T08:50:11Z</time>
      </trkpt>
      <trkpt lat="43.84759" lon="7.42353">
        <ele>992.21997070312</ele>
        <time>2010-10-10T08:50:17Z</time>
      </trkpt>
      <trkpt lat="43.84767" lon="7.42369">
        <ele>992.21997070312</ele>
        <time>2010-10-10T08:50:23Z</time>
      </trkpt>
      <trkpt lat="43.84785" lon="7.42404">
        <ele>992.21997070312</ele>
        <time>2010-10-10T08:50:35Z</time>
      </trkpt>
      <trkpt lat="43.84805" lon="7.42443">
        <ele>993.17999267578</ele>
        <time>2010-10-10T08:50:47Z</time>
      </trkpt>
      <trkpt lat="43.84816" lon="7.42472">
        <ele>992.21997070312</ele>
        <time>2010-10-10T08:50:57Z</time>
      </trkpt>
      <trkpt lat="43.84831" lon="7.42494">
        <ele>993.17999267578</ele>
        <time>2010-10-10T08:51:05Z</time>
      </trkpt>
      <trkpt lat="43.8484" lon="7.42511">
        <ele>995.09997558594</ele>
        <time>2010-10-10T08:51:13Z</time>
      </trkpt>
      <trkpt lat="43.84869" lon="7.42551">
        <ele>994.61999511719</ele>
        <time>2010-10-10T08:51:26Z</time>
      </trkpt>
      <trkpt lat="43.84876" lon="7.42591">
        <ele>994.14001464844</ele>
        <time>2010-10-10T08:51:38Z</time>
      </trkpt>
      <trkpt lat="43.84882" lon="7.42622">
        <ele>993.65997314453</ele>
        <time>2010-10-10T08:51:47Z</time>
      </trkpt>
      <trkpt lat="43.84883" lon="7.42625">
        <ele>994.14001464844</ele>
        <time>2010-10-10T08:51:48Z</time>
      </trkpt>
      <trkpt lat="43.8489" lon="7.4267">
        <ele>991.73999023438</ele>
        <time>2010-10-10T08:52:00Z</time>
      </trkpt>
      <trkpt lat="43.8489" lon="7.42689">
        <ele>990.29998779297</ele>
        <time>2010-10-10T08:52:06Z</time>
      </trkpt>
      <trkpt lat="43.84892" lon="7.42737">
        <ele>988.36999511719</ele>
        <time>2010-10-10T08:52:18Z</time>
      </trkpt>
      <trkpt lat="43.84891" lon="7.42746">
        <ele>988.84997558594</ele>
        <time>2010-10-10T08:52:20Z</time>
      </trkpt>
      <trkpt lat="43.84881" lon="7.42773">
        <ele>986.45001220703</ele>
        <time>2010-10-10T08:52:27Z</time>
      </trkpt>
      <trkpt lat="43.84865" lon="7.42802">
        <ele>983.09002685547</ele>
        <time>2010-10-10T08:52:35Z</time>
      </trkpt>
      <trkpt lat="43.84854" lon="7.42814">
        <ele>982.11999511719</ele>
        <time>2010-10-10T08:52:39Z</time>
      </trkpt>
      <trkpt lat="43.84835" lon="7.4285">
        <ele>980.67999267578</ele>
        <time>2010-10-10T08:52:51Z</time>
      </trkpt>
      <trkpt lat="43.8482" lon="7.42889">
        <ele>980.20001220703</ele>
        <time>2010-10-10T08:53:02Z</time>
      </trkpt>
      <trkpt lat="43.84793" lon="7.42924">
        <ele>981.15997314453</ele>
        <time>2010-10-10T08:53:15Z</time>
      </trkpt>
      <trkpt lat="43.84773" lon="7.42947">
        <ele>980.20001220703</ele>
        <time>2010-10-10T08:53:25Z</time>
      </trkpt>
      <trkpt lat="43.84752" lon="7.42982">
        <ele>980.20001220703</ele>
        <time>2010-10-10T08:53:37Z</time>
      </trkpt>
      <trkpt lat="43.84725" lon="7.43016">
        <ele>979.71997070312</ele>
        <time>2010-10-10T08:53:50Z</time>
      </trkpt>
      <trkpt lat="43.84711" lon="7.43056">
        <ele>977.79998779297</ele>
        <time>2010-10-10T08:54:02Z</time>
      </trkpt>
      <trkpt lat="43.84698" lon="7.43102">
        <ele>976.35998535156</ele>
        <time>2010-10-10T08:54:15Z</time>
      </trkpt>
      <trkpt lat="43.84661" lon="7.43151">
        <ele>974.90997314453</ele>
        <time>2010-10-10T08:54:33Z</time>
      </trkpt>
      <trkpt lat="43.84639" lon="7.43168">
        <ele>974.90997314453</ele>
        <time>2010-10-10T08:54:42Z</time>
      </trkpt>
      <trkpt lat="43.8463" lon="7.43187">
        <ele>975.39001464844</ele>
        <time>2010-10-10T08:54:49Z</time>
      </trkpt>
      <trkpt lat="43.84612" lon="7.43217">
        <ele>972.51000976562</ele>
        <time>2010-10-10T08:54:58Z</time>
      </trkpt>
      <trkpt lat="43.84585" lon="7.43233">
        <ele>970.10998535156</ele>
        <time>2010-10-10T08:55:07Z</time>
      </trkpt>
      <trkpt lat="43.84563" lon="7.43238">
        <ele>966.26000976562</ele>
        <time>2010-10-10T08:55:14Z</time>
      </trkpt>
      <trkpt lat="43.84546" lon="7.43248">
        <ele>963.38000488281</ele>
        <time>2010-10-10T08:55:20Z</time>
      </trkpt>
      <trkpt lat="43.84512" lon="7.43262">
        <ele>961.94000244141</ele>
        <time>2010-10-10T08:55:33Z</time>
      </trkpt>
      <trkpt lat="43.84505" lon="7.43267">
        <ele>960.01000976562</ele>
        <time>2010-10-10T08:55:36Z</time>
      </trkpt>
      <trkpt lat="43.8448" lon="7.43296">
        <ele>960.01000976562</ele>
        <time>2010-10-10T08:55:48Z</time>
      </trkpt>
      <trkpt lat="43.84455" lon="7.43312">
        <ele>960.01000976562</ele>
        <time>2010-10-10T08:56:01Z</time>
      </trkpt>
      <trkpt lat="43.84423" lon="7.43332">
        <ele>960.01000976562</ele>
        <time>2010-10-10T08:56:14Z</time>
      </trkpt>
      <trkpt lat="43.84397" lon="7.43353">
        <ele>960.48999023438</ele>
        <time>2010-10-10T08:56:26Z</time>
      </trkpt>
      <trkpt lat="43.8437" lon="7.43382">
        <ele>960.97998046875</ele>
        <time>2010-10-10T08:56:39Z</time>
      </trkpt>
      <trkpt lat="43.84342" lon="7.43411">
        <ele>960.97998046875</ele>
        <time>2010-10-10T08:56:52Z</time>
      </trkpt>
      <trkpt lat="43.8431" lon="7.43435">
        <ele>959.53002929688</ele>
        <time>2010-10-10T08:57:05Z</time>
      </trkpt>
      <trkpt lat="43.84282" lon="7.43465">
        <ele>958.57000732422</ele>
        <time>2010-10-10T08:57:18Z</time>
      </trkpt>
      <trkpt lat="43.84274" lon="7.43509">
        <ele>958.57000732422</ele>
        <time>2010-10-10T08:57:30Z</time>
      </trkpt>
      <trkpt lat="43.84256" lon="7.43558">
        <ele>957.13000488281</ele>
        <time>2010-10-10T08:57:43Z</time>
      </trkpt>
      <trkpt lat="43.84217" lon="7.43583">
        <ele>955.21002197266</ele>
        <time>2010-10-10T08:57:57Z</time>
      </trkpt>
      <trkpt lat="43.84175" lon="7.4361">
        <ele>953.28002929688</ele>
        <time>2010-10-10T08:58:13Z</time>
      </trkpt>
      <trkpt lat="43.84138" lon="7.43638">
        <ele>950.88000488281</ele>
        <time>2010-10-10T08:58:27Z</time>
      </trkpt>
      <trkpt lat="43.84101" lon="7.43668">
        <ele>948.47998046875</ele>
        <time>2010-10-10T08:58:41Z</time>
      </trkpt>
      <trkpt lat="43.84072" lon="7.43676">
        <ele>948</ele>
        <time>2010-10-10T08:58:53Z</time>
      </trkpt>
      <trkpt lat="43.84043" lon="7.43682">
        <ele>947.52001953125</ele>
        <time>2010-10-10T08:59:04Z</time>
      </trkpt>
      <trkpt lat="43.84" lon="7.43696">
        <ele>947.52001953125</ele>
        <time>2010-10-10T08:59:19Z</time>
      </trkpt>
      <trkpt lat="43.83961" lon="7.43719">
        <ele>946.55999755859</ele>
        <time>2010-10-10T08:59:34Z</time>
      </trkpt>
      <trkpt lat="43.83932" lon="7.43745">
        <ele>946.55999755859</ele>
        <time>2010-10-10T08:59:47Z</time>
      </trkpt>
      <trkpt lat="43.83908" lon="7.43761">
        <ele>947.03997802734</ele>
        <time>2010-10-10T08:59:56Z</time>
      </trkpt>
      <trkpt lat="43.83899" lon="7.43767">
        <ele>947.03997802734</ele>
        <time>2010-10-10T09:00:00Z</time>
      </trkpt>
      <trkpt lat="43.8387" lon="7.43789">
        <ele>947.52001953125</ele>
        <time>2010-10-10T09:00:14Z</time>
      </trkpt>
      <trkpt lat="43.83837" lon="7.43817">
        <ele>948</ele>
        <time>2010-10-10T09:00:28Z</time>
      </trkpt>
      <trkpt lat="43.83809" lon="7.43852">
        <ele>949.91998291016</ele>
        <time>2010-10-10T09:00:43Z</time>
      </trkpt>
      <trkpt lat="43.83785" lon="7.43883">
        <ele>950.88000488281</ele>
        <time>2010-10-10T09:00:57Z</time>
      </trkpt>
      <trkpt lat="43.83761" lon="7.43918">
        <ele>953.28002929688</ele>
        <time>2010-10-10T09:01:12Z</time>
      </trkpt>
      <trkpt lat="43.83746" lon="7.43954">
        <ele>954.25</ele>
        <time>2010-10-10T09:01:24Z</time>
      </trkpt>
      <trkpt lat="43.83741" lon="7.44">
        <ele>955.69000244141</ele>
        <time>2010-10-10T09:01:37Z</time>
      </trkpt>
      <trkpt lat="43.83738" lon="7.44056">
        <ele>955.69000244141</ele>
        <time>2010-10-10T09:01:53Z</time>
      </trkpt>
      <trkpt lat="43.83729" lon="7.4411">
        <ele>956.65002441406</ele>
        <time>2010-10-10T09:02:08Z</time>
      </trkpt>
      <trkpt lat="43.8373" lon="7.44166">
        <ele>956.65002441406</ele>
        <time>2010-10-10T09:02:23Z</time>
      </trkpt>
      <trkpt lat="43.83719" lon="7.44214">
        <ele>957.13000488281</ele>
        <time>2010-10-10T09:02:36Z</time>
      </trkpt>
      <trkpt lat="43.83707" lon="7.44268">
        <ele>957.13000488281</ele>
        <time>2010-10-10T09:02:51Z</time>
      </trkpt>
      <trkpt lat="43.83683" lon="7.44307">
        <ele>957.13000488281</ele>
        <time>2010-10-10T09:03:04Z</time>
      </trkpt>
      <trkpt lat="43.83652" lon="7.4435">
        <ele>957.60998535156</ele>
        <time>2010-10-10T09:03:20Z</time>
      </trkpt>
      <trkpt lat="43.83624" lon="7.4438">
        <ele>958.09002685547</ele>
        <time>2010-10-10T09:03:33Z</time>
      </trkpt>
      <trkpt lat="43.83593" lon="7.44421">
        <ele>958.09002685547</ele>
        <time>2010-10-10T09:03:49Z</time>
      </trkpt>
      <trkpt lat="43.83567" lon="7.4446">
        <ele>958.57000732422</ele>
        <time>2010-10-10T09:04:03Z</time>
      </trkpt>
      <trkpt lat="43.83564" lon="7.44466">
        <ele>958.57000732422</ele>
        <time>2010-10-10T09:04:05Z</time>
      </trkpt>
      <trkpt lat="43.83568" lon="7.44489">
        <ele>960.01000976562</ele>
        <time>2010-10-10T09:04:13Z</time>
      </trkpt>
      <trkpt lat="43.83579" lon="7.44522">
        <ele>963.38000488281</ele>
        <time>2010-10-10T09:04:25Z</time>
      </trkpt>
      <trkpt lat="43.83581" lon="7.44528">
        <ele>963.85998535156</ele>
        <time>2010-10-10T09:04:27Z</time>
      </trkpt>
      <trkpt lat="43.83578" lon="7.44544">
        <ele>963.38000488281</ele>
        <time>2010-10-10T09:04:32Z</time>
      </trkpt>
      <trkpt lat="43.8354" lon="7.44571">
        <ele>961.46002197266</ele>
        <time>2010-10-10T09:04:46Z</time>
      </trkpt>
      <trkpt lat="43.83529" lon="7.44587">
        <ele>960.48999023438</ele>
        <time>2010-10-10T09:04:52Z</time>
      </trkpt>
      <trkpt lat="43.83524" lon="7.44602">
        <ele>959.04998779297</ele>
        <time>2010-10-10T09:04:58Z</time>
      </trkpt>
      <trkpt lat="43.83524" lon="7.44644">
        <ele>955.21002197266</ele>
        <time>2010-10-10T09:05:10Z</time>
      </trkpt>
      <trkpt lat="43.83525" lon="7.44647">
        <ele>955.21002197266</ele>
        <time>2010-10-10T09:05:11Z</time>
      </trkpt>
      <trkpt lat="43.83537" lon="7.44682">
        <ele>951.84002685547</ele>
        <time>2010-10-10T09:05:21Z</time>
      </trkpt>
      <trkpt lat="43.83537" lon="7.44686">
        <ele>951.35998535156</ele>
        <time>2010-10-10T09:05:22Z</time>
      </trkpt>
      <trkpt lat="43.83533" lon="7.44712">
        <ele>948.47998046875</ele>
        <time>2010-10-10T09:05:28Z</time>
      </trkpt>
      <trkpt lat="43.83523" lon="7.44749">
        <ele>946.55999755859</ele>
        <time>2010-10-10T09:05:39Z</time>
      </trkpt>
      <trkpt lat="43.83511" lon="7.44793">
        <ele>945.10998535156</ele>
        <time>2010-10-10T09:05:52Z</time>
      </trkpt>
      <trkpt lat="43.83505" lon="7.44806">
        <ele>941.27001953125</ele>
        <time>2010-10-10T09:05:56Z</time>
      </trkpt>
      <trkpt lat="43.83487" lon="7.44832">
        <ele>938.38000488281</ele>
        <time>2010-10-10T09:06:05Z</time>
      </trkpt>
      <trkpt lat="43.83483" lon="7.44838">
        <ele>936.94000244141</ele>
        <time>2010-10-10T09:06:07Z</time>
      </trkpt>
      <trkpt lat="43.83474" lon="7.4485">
        <ele>935.02001953125</ele>
        <time>2010-10-10T09:06:11Z</time>
      </trkpt>
      <trkpt lat="43.83469" lon="7.44859">
        <ele>932.61999511719</ele>
        <time>2010-10-10T09:06:14Z</time>
      </trkpt>
      <trkpt lat="43.83465" lon="7.44866">
        <ele>931.65002441406</ele>
        <time>2010-10-10T09:06:17Z</time>
      </trkpt>
      <trkpt lat="43.83462" lon="7.44874">
        <ele>929.25</ele>
        <time>2010-10-10T09:06:20Z</time>
      </trkpt>
      <trkpt lat="43.83457" lon="7.44886">
        <ele>926.84997558594</ele>
        <time>2010-10-10T09:06:24Z</time>
      </trkpt>
      <trkpt lat="43.83451" lon="7.44895">
        <ele>924.92999267578</ele>
        <time>2010-10-10T09:06:27Z</time>
      </trkpt>
      <trkpt lat="43.8345" lon="7.44897">
        <ele>923.47998046875</ele>
        <time>2010-10-10T09:06:28Z</time>
      </trkpt>
      <trkpt lat="43.83446" lon="7.44902">
        <ele>923</ele>
        <time>2010-10-10T09:06:31Z</time>
      </trkpt>
      <trkpt lat="43.83441" lon="7.44913">
        <ele>919.15997314453</ele>
        <time>2010-10-10T09:06:37Z</time>
      </trkpt>
      <trkpt lat="43.83445" lon="7.44915">
        <ele>916.27001953125</ele>
        <time>2010-10-10T09:06:42Z</time>
      </trkpt>
      <trkpt lat="43.83445" lon="7.4492">
        <ele>915.30999755859</ele>
        <time>2010-10-10T09:06:44Z</time>
      </trkpt>
      <trkpt lat="43.83443" lon="7.44936">
        <ele>911.95001220703</ele>
        <time>2010-10-10T09:06:50Z</time>
      </trkpt>
      <trkpt lat="43.83442" lon="7.44943">
        <ele>910.98999023438</ele>
        <time>2010-10-10T09:06:52Z</time>
      </trkpt>
      <trkpt lat="43.8344" lon="7.44948">
        <ele>910.03002929688</ele>
        <time>2010-10-10T09:06:54Z</time>
      </trkpt>
      <trkpt lat="43.83446" lon="7.44946">
        <ele>906.17999267578</ele>
        <time>2010-10-10T09:07:00Z</time>
      </trkpt>
      <trkpt lat="43.83452" lon="7.44941">
        <ele>904.26000976562</ele>
        <time>2010-10-10T09:07:03Z</time>
      </trkpt>
      <trkpt lat="43.83466" lon="7.44927">
        <ele>901.36999511719</ele>
        <time>2010-10-10T09:07:11Z</time>
      </trkpt>
      <trkpt lat="43.83467" lon="7.44936">
        <ele>899.45001220703</ele>
        <time>2010-10-10T09:07:17Z</time>
      </trkpt>
      <trkpt lat="43.83463" lon="7.44948">
        <ele>898.01000976562</ele>
        <time>2010-10-10T09:07:21Z</time>
      </trkpt>
      <trkpt lat="43.83461" lon="7.44957">
        <ele>897.53002929688</ele>
        <time>2010-10-10T09:07:24Z</time>
      </trkpt>
      <trkpt lat="43.83458" lon="7.44969">
        <ele>896.09002685547</ele>
        <time>2010-10-10T09:07:28Z</time>
      </trkpt>
      <trkpt lat="43.83455" lon="7.44975">
        <ele>895.11999511719</ele>
        <time>2010-10-10T09:07:30Z</time>
      </trkpt>
      <trkpt lat="43.83447" lon="7.44991">
        <ele>893.20001220703</ele>
        <time>2010-10-10T09:07:36Z</time>
      </trkpt>
      <trkpt lat="43.83445" lon="7.45">
        <ele>890.79998779297</ele>
        <time>2010-10-10T09:07:40Z</time>
      </trkpt>
      <trkpt lat="43.83443" lon="7.45007">
        <ele>890.32000732422</ele>
        <time>2010-10-10T09:07:42Z</time>
      </trkpt>
      <trkpt lat="43.83437" lon="7.45018">
        <ele>888.40002441406</ele>
        <time>2010-10-10T09:07:46Z</time>
      </trkpt>
      <trkpt lat="43.83432" lon="7.45025">
        <ele>886.46997070312</ele>
        <time>2010-10-10T09:07:49Z</time>
      </trkpt>
      <trkpt lat="43.83423" lon="7.45043">
        <ele>883.59002685547</ele>
        <time>2010-10-10T09:07:56Z</time>
      </trkpt>
      <trkpt lat="43.83421" lon="7.45046">
        <ele>883.10998535156</ele>
        <time>2010-10-10T09:07:57Z</time>
      </trkpt>
      <trkpt lat="43.83416" lon="7.45059">
        <ele>881.66998291016</ele>
        <time>2010-10-10T09:08:01Z</time>
      </trkpt>
      <trkpt lat="43.83411" lon="7.4507">
        <ele>879.73999023438</ele>
        <time>2010-10-10T09:08:04Z</time>
      </trkpt>
      <trkpt lat="43.83399" lon="7.4508">
        <ele>877.82000732422</ele>
        <time>2010-10-10T09:08:08Z</time>
      </trkpt>
      <trkpt lat="43.83387" lon="7.45088">
        <ele>874.46002197266</ele>
        <time>2010-10-10T09:08:13Z</time>
      </trkpt>
      <trkpt lat="43.83383" lon="7.451">
        <ele>872.04998779297</ele>
        <time>2010-10-10T09:08:17Z</time>
      </trkpt>
      <trkpt lat="43.83383" lon="7.45104">
        <ele>871.09002685547</ele>
        <time>2010-10-10T09:08:18Z</time>
      </trkpt>
      <trkpt lat="43.83378" lon="7.45128">
        <ele>867.72998046875</ele>
        <time>2010-10-10T09:08:25Z</time>
      </trkpt>
      <trkpt lat="43.83373" lon="7.45138">
        <ele>866.28997802734</ele>
        <time>2010-10-10T09:08:28Z</time>
      </trkpt>
      <trkpt lat="43.83371" lon="7.45145">
        <ele>864.84002685547</ele>
        <time>2010-10-10T09:08:30Z</time>
      </trkpt>
      <trkpt lat="43.83377" lon="7.45156">
        <ele>861.47998046875</ele>
        <time>2010-10-10T09:08:36Z</time>
      </trkpt>
      <trkpt lat="43.83389" lon="7.45167">
        <ele>860.03997802734</ele>
        <time>2010-10-10T09:08:41Z</time>
      </trkpt>
      <trkpt lat="43.83387" lon="7.45177">
        <ele>857.63000488281</ele>
        <time>2010-10-10T09:08:44Z</time>
      </trkpt>
      <trkpt lat="43.83382" lon="7.4519">
        <ele>854.75</ele>
        <time>2010-10-10T09:08:48Z</time>
      </trkpt>
      <trkpt lat="43.83381" lon="7.452">
        <ele>852.83001708984</ele>
        <time>2010-10-10T09:08:51Z</time>
      </trkpt>
      <trkpt lat="43.83377" lon="7.45219">
        <ele>848.97998046875</ele>
        <time>2010-10-10T09:08:57Z</time>
      </trkpt>
      <trkpt lat="43.83373" lon="7.45236">
        <ele>846.09997558594</ele>
        <time>2010-10-10T09:09:02Z</time>
      </trkpt>
      <trkpt lat="43.83368" lon="7.45251">
        <ele>842.72998046875</ele>
        <time>2010-10-10T09:09:06Z</time>
      </trkpt>
      <trkpt lat="43.83355" lon="7.45289">
        <ele>839.84997558594</ele>
        <time>2010-10-10T09:09:17Z</time>
      </trkpt>
      <trkpt lat="43.83352" lon="7.45302">
        <ele>838.40997314453</ele>
        <time>2010-10-10T09:09:21Z</time>
      </trkpt>
      <trkpt lat="43.83336" lon="7.45338">
        <ele>835.03997802734</ele>
        <time>2010-10-10T09:09:31Z</time>
      </trkpt>
      <trkpt lat="43.83334" lon="7.45345">
        <ele>835.03997802734</ele>
        <time>2010-10-10T09:09:33Z</time>
      </trkpt>
      <trkpt lat="43.83333" lon="7.45357">
        <ele>833.59997558594</ele>
        <time>2010-10-10T09:09:36Z</time>
      </trkpt>
      <trkpt lat="43.83332" lon="7.45361">
        <ele>832.15997314453</ele>
        <time>2010-10-10T09:09:37Z</time>
      </trkpt>
      <trkpt lat="43.83323" lon="7.45391">
        <ele>828.78997802734</ele>
        <time>2010-10-10T09:09:45Z</time>
      </trkpt>
      <trkpt lat="43.83312" lon="7.45426">
        <ele>825.42999267578</ele>
        <time>2010-10-10T09:09:54Z</time>
      </trkpt>
      <trkpt lat="43.8331" lon="7.4543">
        <ele>825.42999267578</ele>
        <time>2010-10-10T09:09:55Z</time>
      </trkpt>
      <trkpt lat="43.83308" lon="7.45438">
        <ele>823.98999023438</ele>
        <time>2010-10-10T09:09:57Z</time>
      </trkpt>
      <trkpt lat="43.83306" lon="7.45483">
        <ele>822.54998779297</ele>
        <time>2010-10-10T09:10:08Z</time>
      </trkpt>
      <trkpt lat="43.83303" lon="7.45526">
        <ele>820.61999511719</ele>
        <time>2010-10-10T09:10:19Z</time>
      </trkpt>
      <trkpt lat="43.83305" lon="7.45544">
        <ele>817.26000976562</ele>
        <time>2010-10-10T09:10:23Z</time>
      </trkpt>
      <trkpt lat="43.83309" lon="7.4556">
        <ele>814.36999511719</ele>
        <time>2010-10-10T09:10:27Z</time>
      </trkpt>
      <trkpt lat="43.83312" lon="7.45567">
        <ele>812.92999267578</ele>
        <time>2010-10-10T09:10:30Z</time>
      </trkpt>
      <trkpt lat="43.83313" lon="7.4557">
        <ele>812.45001220703</ele>
        <time>2010-10-10T09:10:31Z</time>
      </trkpt>
      <trkpt lat="43.83315" lon="7.45573">
        <ele>811.01000976562</ele>
        <time>2010-10-10T09:10:33Z</time>
      </trkpt>
      <trkpt lat="43.83317" lon="7.45581">
        <ele>808.13000488281</ele>
        <time>2010-10-10T09:10:37Z</time>
      </trkpt>
      <trkpt lat="43.83318" lon="7.45601">
        <ele>803.79998779297</ele>
        <time>2010-10-10T09:10:43Z</time>
      </trkpt>
      <trkpt lat="43.83317" lon="7.45605">
        <ele>803.79998779297</ele>
        <time>2010-10-10T09:10:44Z</time>
      </trkpt>
      <trkpt lat="43.83318" lon="7.45622">
        <ele>801.40002441406</ele>
        <time>2010-10-10T09:10:49Z</time>
      </trkpt>
      <trkpt lat="43.83315" lon="7.45632">
        <ele>798.03002929688</ele>
        <time>2010-10-10T09:10:55Z</time>
      </trkpt>
      <trkpt lat="43.83314" lon="7.45636">
        <ele>797.54998779297</ele>
        <time>2010-10-10T09:10:57Z</time>
      </trkpt>
      <trkpt lat="43.83312" lon="7.45643">
        <ele>796.10998535156</ele>
        <time>2010-10-10T09:11:00Z</time>
      </trkpt>
      <trkpt lat="43.83311" lon="7.4566">
        <ele>792.73999023438</ele>
        <time>2010-10-10T09:11:07Z</time>
      </trkpt>
      <trkpt lat="43.8331" lon="7.45672">
        <ele>791.29998779297</ele>
        <time>2010-10-10T09:11:10Z</time>
      </trkpt>
      <trkpt lat="43.83307" lon="7.4568">
        <ele>789.85998535156</ele>
        <time>2010-10-10T09:11:12Z</time>
      </trkpt>
      <trkpt lat="43.83293" lon="7.45707">
        <ele>786.5</ele>
        <time>2010-10-10T09:11:21Z</time>
      </trkpt>
      <trkpt lat="43.8328" lon="7.45723">
        <ele>783.60998535156</ele>
        <time>2010-10-10T09:11:27Z</time>
      </trkpt>
      <trkpt lat="43.83278" lon="7.45726">
        <ele>783.60998535156</ele>
        <time>2010-10-10T09:11:28Z</time>
      </trkpt>
      <trkpt lat="43.83271" lon="7.45736">
        <ele>781.21002197266</ele>
        <time>2010-10-10T09:11:32Z</time>
      </trkpt>
      <trkpt lat="43.83263" lon="7.45743">
        <ele>779.77001953125</ele>
        <time>2010-10-10T09:11:36Z</time>
      </trkpt>
      <trkpt lat="43.83257" lon="7.45755">
        <ele>777.35998535156</ele>
        <time>2010-10-10T09:11:41Z</time>
      </trkpt>
      <trkpt lat="43.83256" lon="7.4576">
        <ele>775.91998291016</ele>
        <time>2010-10-10T09:11:43Z</time>
      </trkpt>
      <trkpt lat="43.83255" lon="7.45766">
        <ele>774.96002197266</ele>
        <time>2010-10-10T09:11:45Z</time>
      </trkpt>
      <trkpt lat="43.83255" lon="7.45768">
        <ele>774</ele>
        <time>2010-10-10T09:11:46Z</time>
      </trkpt>
      <trkpt lat="43.83252" lon="7.45776">
        <ele>773.03997802734</ele>
        <time>2010-10-10T09:11:50Z</time>
      </trkpt>
      <trkpt lat="43.83245" lon="7.45785">
        <ele>770.15002441406</ele>
        <time>2010-10-10T09:11:54Z</time>
      </trkpt>
      <trkpt lat="43.83235" lon="7.45803">
        <ele>766.30999755859</ele>
        <time>2010-10-10T09:12:01Z</time>
      </trkpt>
      <trkpt lat="43.83231" lon="7.45814">
        <ele>765.34997558594</ele>
        <time>2010-10-10T09:12:05Z</time>
      </trkpt>
      <trkpt lat="43.83226" lon="7.4583">
        <ele>763.41998291016</ele>
        <time>2010-10-10T09:12:10Z</time>
      </trkpt>
      <trkpt lat="43.83222" lon="7.45847">
        <ele>761.5</ele>
        <time>2010-10-10T09:12:16Z</time>
      </trkpt>
      <trkpt lat="43.83228" lon="7.45852">
        <ele>759.09997558594</ele>
        <time>2010-10-10T09:12:20Z</time>
      </trkpt>
      <trkpt lat="43.83233" lon="7.45869">
        <ele>757.17999267578</ele>
        <time>2010-10-10T09:12:26Z</time>
      </trkpt>
      <trkpt lat="43.83236" lon="7.45879">
        <ele>756.21002197266</ele>
        <time>2010-10-10T09:12:29Z</time>
      </trkpt>
      <trkpt lat="43.83235" lon="7.459">
        <ele>752.84997558594</ele>
        <time>2010-10-10T09:12:35Z</time>
      </trkpt>
      <trkpt lat="43.83233" lon="7.45903">
        <ele>753.80999755859</ele>
        <time>2010-10-10T09:12:36Z</time>
      </trkpt>
      <trkpt lat="43.83226" lon="7.45924">
        <ele>752.84997558594</ele>
        <time>2010-10-10T09:12:43Z</time>
      </trkpt>
      <trkpt lat="43.83214" lon="7.45943">
        <ele>754.28997802734</ele>
        <time>2010-10-10T09:12:52Z</time>
      </trkpt>
      <trkpt lat="43.83213" lon="7.45958">
        <ele>754.77001953125</ele>
        <time>2010-10-10T09:12:59Z</time>
      </trkpt>
      <trkpt lat="43.83235" lon="7.45958">
        <ele>755.72998046875</ele>
        <time>2010-10-10T09:13:14Z</time>
      </trkpt>
      <trkpt lat="43.83254" lon="7.45951">
        <ele>755.72998046875</ele>
        <time>2010-10-10T09:13:24Z</time>
      </trkpt>
      <trkpt lat="43.83283" lon="7.45948">
        <ele>756.21002197266</ele>
        <time>2010-10-10T09:13:37Z</time>
      </trkpt>
      <trkpt lat="43.83312" lon="7.45951">
        <ele>755.25</ele>
        <time>2010-10-10T09:13:49Z</time>
      </trkpt>
      <trkpt lat="43.83339" lon="7.45949">
        <ele>753.33001708984</ele>
        <time>2010-10-10T09:14:00Z</time>
      </trkpt>
      <trkpt lat="43.83367" lon="7.45951">
        <ele>751.40997314453</ele>
        <time>2010-10-10T09:14:11Z</time>
      </trkpt>
      <trkpt lat="43.83398" lon="7.45962">
        <ele>751.40997314453</ele>
        <time>2010-10-10T09:14:24Z</time>
      </trkpt>
      <trkpt lat="43.83406" lon="7.45973">
        <ele>751.89001464844</ele>
        <time>2010-10-10T09:14:28Z</time>
      </trkpt>
      <trkpt lat="43.83425" lon="7.45996">
        <ele>750.92999267578</ele>
        <time>2010-10-10T09:14:39Z</time>
      </trkpt>
      <trkpt lat="43.83452" lon="7.45999">
        <ele>750.92999267578</ele>
        <time>2010-10-10T09:14:51Z</time>
      </trkpt>
      <trkpt lat="43.83484" lon="7.45997">
        <ele>749.96997070312</ele>
        <time>2010-10-10T09:15:03Z</time>
      </trkpt>
      <trkpt lat="43.83504" lon="7.45998">
        <ele>749.96997070312</ele>
        <time>2010-10-10T09:15:11Z</time>
      </trkpt>
      <trkpt lat="43.83517" lon="7.46">
        <ele>749.96997070312</ele>
        <time>2010-10-10T09:15:17Z</time>
      </trkpt>
      <trkpt lat="43.8353" lon="7.46002">
        <ele>749.96997070312</ele>
        <time>2010-10-10T09:15:31Z</time>
      </trkpt>
      <trkpt lat="43.8353" lon="7.46002">
        <ele>749.48999023438</ele>
        <time>2010-10-10T09:15:32Z</time>
      </trkpt>
      <trkpt lat="43.83543" lon="7.46006">
        <ele>749.48999023438</ele>
        <time>2010-10-10T09:15:43Z</time>
      </trkpt>
      <trkpt lat="43.83549" lon="7.46008">
        <ele>749</ele>
        <time>2010-10-10T09:15:46Z</time>
      </trkpt>
      <trkpt lat="43.83577" lon="7.46013">
        <ele>749</ele>
        <time>2010-10-10T09:15:57Z</time>
      </trkpt>
      <trkpt lat="43.83595" lon="7.46005">
        <ele>749.48999023438</ele>
        <time>2010-10-10T09:16:03Z</time>
      </trkpt>
      <trkpt lat="43.83627" lon="7.46001">
        <ele>747.08001708984</ele>
        <time>2010-10-10T09:16:14Z</time>
      </trkpt>
      <trkpt lat="43.83666" lon="7.46">
        <ele>745.64001464844</ele>
        <time>2010-10-10T09:16:27Z</time>
      </trkpt>
      <trkpt lat="43.83701" lon="7.46003">
        <ele>742.76000976562</ele>
        <time>2010-10-10T09:16:39Z</time>
      </trkpt>
      <trkpt lat="43.83724" lon="7.46002">
        <ele>740.83001708984</ele>
        <time>2010-10-10T09:16:47Z</time>
      </trkpt>
      <trkpt lat="43.83757" lon="7.46027">
        <ele>737.46997070312</ele>
        <time>2010-10-10T09:16:59Z</time>
      </trkpt>
      <trkpt lat="43.8378" lon="7.46056">
        <ele>736.03002929688</ele>
        <time>2010-10-10T09:17:10Z</time>
      </trkpt>
      <trkpt lat="43.83816" lon="7.46069">
        <ele>735.54998779297</ele>
        <time>2010-10-10T09:17:23Z</time>
      </trkpt>
      <trkpt lat="43.83858" lon="7.46068">
        <ele>732.65997314453</ele>
        <time>2010-10-10T09:17:37Z</time>
      </trkpt>
      <trkpt lat="43.83903" lon="7.46072">
        <ele>729.78002929688</ele>
        <time>2010-10-10T09:17:51Z</time>
      </trkpt>
      <trkpt lat="43.83916" lon="7.46082">
        <ele>729.78002929688</ele>
        <time>2010-10-10T09:18:03Z</time>
      </trkpt>
      <trkpt lat="43.83916" lon="7.46081">
        <ele>729.78002929688</ele>
        <time>2010-10-10T09:18:24Z</time>
      </trkpt>
      <trkpt lat="43.83917" lon="7.46082">
        <ele>729.78002929688</ele>
        <time>2010-10-10T09:18:43Z</time>
      </trkpt>
      <trkpt lat="43.83917" lon="7.46083">
        <ele>729.78002929688</ele>
        <time>2010-10-10T09:18:50Z</time>
      </trkpt>
      <trkpt lat="43.83898" lon="7.46099">
        <ele>728.82000732422</ele>
        <time>2010-10-10T09:19:02Z</time>
      </trkpt>
      <trkpt lat="43.83876" lon="7.46108">
        <ele>726.89001464844</ele>
        <time>2010-10-10T09:19:11Z</time>
      </trkpt>
      <trkpt lat="43.83847" lon="7.46115">
        <ele>725.45001220703</ele>
        <time>2010-10-10T09:19:24Z</time>
      </trkpt>
      <trkpt lat="43.83818" lon="7.46125">
        <ele>724.01000976562</ele>
        <time>2010-10-10T09:19:34Z</time>
      </trkpt>
      <trkpt lat="43.83788" lon="7.46146">
        <ele>722.09002685547</ele>
        <time>2010-10-10T09:19:45Z</time>
      </trkpt>
      <trkpt lat="43.83753" lon="7.46158">
        <ele>721.60998535156</ele>
        <time>2010-10-10T09:19:57Z</time>
      </trkpt>
      <trkpt lat="43.83716" lon="7.46178">
        <ele>720.15997314453</ele>
        <time>2010-10-10T09:20:09Z</time>
      </trkpt>
      <trkpt lat="43.83705" lon="7.4618">
        <ele>719.67999267578</ele>
        <time>2010-10-10T09:20:13Z</time>
      </trkpt>
      <trkpt lat="43.83696" lon="7.46172">
        <ele>718.71997070312</ele>
        <time>2010-10-10T09:20:17Z</time>
      </trkpt>
      <trkpt lat="43.83696" lon="7.46117">
        <ele>716.79998779297</ele>
        <time>2010-10-10T09:20:30Z</time>
      </trkpt>
      <trkpt lat="43.83678" lon="7.46084">
        <ele>715.84002685547</ele>
        <time>2010-10-10T09:20:40Z</time>
      </trkpt>
      <trkpt lat="43.8364" lon="7.4607">
        <ele>713.91998291016</ele>
        <time>2010-10-10T09:20:53Z</time>
      </trkpt>
      <trkpt lat="43.83598" lon="7.4607">
        <ele>711.51000976562</ele>
        <time>2010-10-10T09:21:07Z</time>
      </trkpt>
      <trkpt lat="43.83558" lon="7.46072">
        <ele>709.10998535156</ele>
        <time>2010-10-10T09:21:20Z</time>
      </trkpt>
      <trkpt lat="43.83537" lon="7.46073">
        <ele>707.19000244141</ele>
        <time>2010-10-10T09:21:26Z</time>
      </trkpt>
      <trkpt lat="43.83496" lon="7.46069">
        <ele>706.22998046875</ele>
        <time>2010-10-10T09:21:40Z</time>
      </trkpt>
      <trkpt lat="43.8346" lon="7.46076">
        <ele>704.29998779297</ele>
        <time>2010-10-10T09:21:52Z</time>
      </trkpt>
      <trkpt lat="43.83426" lon="7.4608">
        <ele>703.82000732422</ele>
        <time>2010-10-10T09:22:04Z</time>
      </trkpt>
      <trkpt lat="43.83412" lon="7.46086">
        <ele>702.85998535156</ele>
        <time>2010-10-10T09:22:10Z</time>
      </trkpt>
      <trkpt lat="43.83399" lon="7.46105">
        <ele>700.46002197266</ele>
        <time>2010-10-10T09:22:18Z</time>
      </trkpt>
      <trkpt lat="43.83365" lon="7.46134">
        <ele>702.38000488281</ele>
        <time>2010-10-10T09:22:30Z</time>
      </trkpt>
      <trkpt lat="43.83332" lon="7.4617">
        <ele>704.29998779297</ele>
        <time>2010-10-10T09:22:46Z</time>
      </trkpt>
      <trkpt lat="43.8331" lon="7.46206">
        <ele>706.22998046875</ele>
        <time>2010-10-10T09:23:00Z</time>
      </trkpt>
      <trkpt lat="43.83289" lon="7.46247">
        <ele>708.63000488281</ele>
        <time>2010-10-10T09:23:16Z</time>
      </trkpt>
      <trkpt lat="43.8327" lon="7.46282">
        <ele>710.07000732422</ele>
        <time>2010-10-10T09:23:30Z</time>
      </trkpt>
      <trkpt lat="43.83229" lon="7.46292">
        <ele>707.19000244141</ele>
        <time>2010-10-10T09:23:44Z</time>
      </trkpt>
      <trkpt lat="43.83192" lon="7.46317">
        <ele>704.29998779297</ele>
        <time>2010-10-10T09:23:58Z</time>
      </trkpt>
      <trkpt lat="43.8316" lon="7.46346">
        <ele>705.26000976562</ele>
        <time>2010-10-10T09:24:12Z</time>
      </trkpt>
      <trkpt lat="43.83127" lon="7.46363">
        <ele>704.78002929688</ele>
        <time>2010-10-10T09:24:25Z</time>
      </trkpt>
      <trkpt lat="43.83083" lon="7.46385">
        <ele>705.75</ele>
        <time>2010-10-10T09:24:42Z</time>
      </trkpt>
      <trkpt lat="43.8306" lon="7.46407">
        <ele>705.75</ele>
        <time>2010-10-10T09:24:54Z</time>
      </trkpt>
      <trkpt lat="43.83041" lon="7.46449">
        <ele>707.19000244141</ele>
        <time>2010-10-10T09:25:07Z</time>
      </trkpt>
      <trkpt lat="43.83031" lon="7.4649">
        <ele>707.19000244141</ele>
        <time>2010-10-10T09:25:19Z</time>
      </trkpt>
      <trkpt lat="43.83009" lon="7.46527">
        <ele>709.10998535156</ele>
        <time>2010-10-10T09:25:34Z</time>
      </trkpt>
      <trkpt lat="43.82964" lon="7.46558">
        <ele>710.07000732422</ele>
        <time>2010-10-10T09:25:52Z</time>
      </trkpt>
      <trkpt lat="43.82928" lon="7.46583">
        <ele>712.46997070312</ele>
        <time>2010-10-10T09:26:09Z</time>
      </trkpt>
      <trkpt lat="43.82907" lon="7.46599">
        <ele>715.84002685547</ele>
        <time>2010-10-10T09:26:21Z</time>
      </trkpt>
      <trkpt lat="43.82897" lon="7.46603">
        <ele>717.28002929688</ele>
        <time>2010-10-10T09:26:26Z</time>
      </trkpt>
      <trkpt lat="43.82886" lon="7.46607">
        <ele>718.71997070312</ele>
        <time>2010-10-10T09:26:31Z</time>
      </trkpt>
      <trkpt lat="43.82865" lon="7.46631">
        <ele>722.09002685547</ele>
        <time>2010-10-10T09:26:45Z</time>
      </trkpt>
      <trkpt lat="43.82859" lon="7.4664">
        <ele>722.57000732422</ele>
        <time>2010-10-10T09:26:51Z</time>
      </trkpt>
      <trkpt lat="43.8285" lon="7.46663">
        <ele>724.48999023438</ele>
        <time>2010-10-10T09:27:05Z</time>
      </trkpt>
      <trkpt lat="43.82835" lon="7.467">
        <ele>723.53002929688</ele>
        <time>2010-10-10T09:27:17Z</time>
      </trkpt>
      <trkpt lat="43.82806" lon="7.46735">
        <ele>722.57000732422</ele>
        <time>2010-10-10T09:27:30Z</time>
      </trkpt>
      <trkpt lat="43.82765" lon="7.46755">
        <ele>720.65002441406</ele>
        <time>2010-10-10T09:27:44Z</time>
      </trkpt>
      <trkpt lat="43.82727" lon="7.46746">
        <ele>719.20001220703</ele>
        <time>2010-10-10T09:27:57Z</time>
      </trkpt>
      <trkpt lat="43.82689" lon="7.4674">
        <ele>718.23999023438</ele>
        <time>2010-10-10T09:28:10Z</time>
      </trkpt>
      <trkpt lat="43.82643" lon="7.46724">
        <ele>717.76000976562</ele>
        <time>2010-10-10T09:28:27Z</time>
      </trkpt>
      <trkpt lat="43.82613" lon="7.46697">
        <ele>718.23999023438</ele>
        <time>2010-10-10T09:28:41Z</time>
      </trkpt>
      <trkpt lat="43.82577" lon="7.46699">
        <ele>720.15997314453</ele>
        <time>2010-10-10T09:28:55Z</time>
      </trkpt>
      <trkpt lat="43.82558" lon="7.46669">
        <ele>722.57000732422</ele>
        <time>2010-10-10T09:29:07Z</time>
      </trkpt>
      <trkpt lat="43.82535" lon="7.46641">
        <ele>724.01000976562</ele>
        <time>2010-10-10T09:29:21Z</time>
      </trkpt>
      <trkpt lat="43.82508" lon="7.46623">
        <ele>727.36999511719</ele>
        <time>2010-10-10T09:29:35Z</time>
      </trkpt>
      <trkpt lat="43.82479" lon="7.46607">
        <ele>730.73999023438</ele>
        <time>2010-10-10T09:29:50Z</time>
      </trkpt>
      <trkpt lat="43.82453" lon="7.46597">
        <ele>732.17999267578</ele>
        <time>2010-10-10T09:30:03Z</time>
      </trkpt>
      <trkpt lat="43.82427" lon="7.46601">
        <ele>735.54998779297</ele>
        <time>2010-10-10T09:30:16Z</time>
      </trkpt>
      <trkpt lat="43.82409" lon="7.46625">
        <ele>737.95001220703</ele>
        <time>2010-10-10T09:30:29Z</time>
      </trkpt>
      <trkpt lat="43.82392" lon="7.46658">
        <ele>740.34997558594</ele>
        <time>2010-10-10T09:30:46Z</time>
      </trkpt>
      <trkpt lat="43.82385" lon="7.46678">
        <ele>742.76000976562</ele>
        <time>2010-10-10T09:30:59Z</time>
      </trkpt>
      <trkpt lat="43.82355" lon="7.46688">
        <ele>744.20001220703</ele>
        <time>2010-10-10T09:31:12Z</time>
      </trkpt>
      <trkpt lat="43.82315" lon="7.46666">
        <ele>741.78997802734</ele>
        <time>2010-10-10T09:31:27Z</time>
      </trkpt>
      <trkpt lat="43.82278" lon="7.46662">
        <ele>740.83001708984</ele>
        <time>2010-10-10T09:31:40Z</time>
      </trkpt>
      <trkpt lat="43.82256" lon="7.46699">
        <ele>738.90997314453</ele>
        <time>2010-10-10T09:31:52Z</time>
      </trkpt>
      <trkpt lat="43.82222" lon="7.46716">
        <ele>736.51000976562</ele>
        <time>2010-10-10T09:32:04Z</time>
      </trkpt>
      <trkpt lat="43.82188" lon="7.46733">
        <ele>734.58001708984</ele>
        <time>2010-10-10T09:32:16Z</time>
      </trkpt>
      <trkpt lat="43.82177" lon="7.46738">
        <ele>734.09997558594</ele>
        <time>2010-10-10T09:32:20Z</time>
      </trkpt>
      <trkpt lat="43.82144" lon="7.46753">
        <ele>732.17999267578</ele>
        <time>2010-10-10T09:32:32Z</time>
      </trkpt>
      <trkpt lat="43.82119" lon="7.46759">
        <ele>732.17999267578</ele>
        <time>2010-10-10T09:32:41Z</time>
      </trkpt>
      <trkpt lat="43.82088" lon="7.46777">
        <ele>735.07000732422</ele>
        <time>2010-10-10T09:32:56Z</time>
      </trkpt>
      <trkpt lat="43.82059" lon="7.46781">
        <ele>736.51000976562</ele>
        <time>2010-10-10T09:33:09Z</time>
      </trkpt>
      <trkpt lat="43.82019" lon="7.46794">
        <ele>736.98999023438</ele>
        <time>2010-10-10T09:33:25Z</time>
      </trkpt>
      <trkpt lat="43.81993" lon="7.46795">
        <ele>736.03002929688</ele>
        <time>2010-10-10T09:33:35Z</time>
      </trkpt>
      <trkpt lat="43.81958" lon="7.46791">
        <ele>736.03002929688</ele>
        <time>2010-10-10T09:33:47Z</time>
      </trkpt>
      <trkpt lat="43.81937" lon="7.4677">
        <ele>738.42999267578</ele>
        <time>2010-10-10T09:34:05Z</time>
      </trkpt>
      <trkpt lat="43.81913" lon="7.46752">
        <ele>741.78997802734</ele>
        <time>2010-10-10T09:34:22Z</time>
      </trkpt>
      <trkpt lat="43.81887" lon="7.46748">
        <ele>742.76000976562</ele>
        <time>2010-10-10T09:34:34Z</time>
      </trkpt>
      <trkpt lat="43.81845" lon="7.46737">
        <ele>741.78997802734</ele>
        <time>2010-10-10T09:34:49Z</time>
      </trkpt>
      <trkpt lat="43.81814" lon="7.46714">
        <ele>738.42999267578</ele>
        <time>2010-10-10T09:35:01Z</time>
      </trkpt>
      <trkpt lat="43.818" lon="7.46686">
        <ele>735.54998779297</ele>
        <time>2010-10-10T09:35:09Z</time>
      </trkpt>
      <trkpt lat="43.81769" lon="7.46655">
        <ele>732.65997314453</ele>
        <time>2010-10-10T09:35:21Z</time>
      </trkpt>
      <trkpt lat="43.81741" lon="7.46638">
        <ele>729.29998779297</ele>
        <time>2010-10-10T09:35:31Z</time>
      </trkpt>
      <trkpt lat="43.81706" lon="7.46642">
        <ele>726.40997314453</ele>
        <time>2010-10-10T09:35:42Z</time>
      </trkpt>
      <trkpt lat="43.81703" lon="7.46642">
        <ele>726.40997314453</ele>
        <time>2010-10-10T09:35:43Z</time>
      </trkpt>
      <trkpt lat="43.81673" lon="7.46637">
        <ele>722.57000732422</ele>
        <time>2010-10-10T09:35:52Z</time>
      </trkpt>
      <trkpt lat="43.81643" lon="7.46636">
        <ele>719.20001220703</ele>
        <time>2010-10-10T09:36:02Z</time>
      </trkpt>
      <trkpt lat="43.81624" lon="7.46642">
        <ele>717.76000976562</ele>
        <time>2010-10-10T09:36:08Z</time>
      </trkpt>
      <trkpt lat="43.81613" lon="7.46639">
        <ele>715.35998535156</ele>
        <time>2010-10-10T09:36:12Z</time>
      </trkpt>
      <trkpt lat="43.8161" lon="7.46623">
        <ele>713.91998291016</ele>
        <time>2010-10-10T09:36:16Z</time>
      </trkpt>
      <trkpt lat="43.81632" lon="7.4657">
        <ele>711.03002929688</ele>
        <time>2010-10-10T09:36:30Z</time>
      </trkpt>
      <trkpt lat="43.8166" lon="7.46538">
        <ele>710.07000732422</ele>
        <time>2010-10-10T09:36:43Z</time>
      </trkpt>
      <trkpt lat="43.81666" lon="7.46522">
        <ele>711.51000976562</ele>
        <time>2010-10-10T09:36:48Z</time>
      </trkpt>
      <trkpt lat="43.81662" lon="7.4648">
        <ele>711.03002929688</ele>
        <time>2010-10-10T09:37:01Z</time>
      </trkpt>
      <trkpt lat="43.81644" lon="7.46435">
        <ele>711.51000976562</ele>
        <time>2010-10-10T09:37:15Z</time>
      </trkpt>
      <trkpt lat="43.81609" lon="7.46433">
        <ele>711.51000976562</ele>
        <time>2010-10-10T09:37:27Z</time>
      </trkpt>
      <trkpt lat="43.81591" lon="7.46435">
        <ele>709.10998535156</ele>
        <time>2010-10-10T09:37:33Z</time>
      </trkpt>
      <trkpt lat="43.81551" lon="7.46434">
        <ele>707.19000244141</ele>
        <time>2010-10-10T09:37:47Z</time>
      </trkpt>
      <trkpt lat="43.81509" lon="7.46412">
        <ele>707.66998291016</ele>
        <time>2010-10-10T09:38:03Z</time>
      </trkpt>
      <trkpt lat="43.8148" lon="7.46393">
        <ele>708.15002441406</ele>
        <time>2010-10-10T09:38:15Z</time>
      </trkpt>
      <trkpt lat="43.81431" lon="7.46357">
        <ele>707.19000244141</ele>
        <time>2010-10-10T09:38:34Z</time>
      </trkpt>
      <trkpt lat="43.81403" lon="7.46324">
        <ele>710.54998779297</ele>
        <time>2010-10-10T09:38:49Z</time>
      </trkpt>
      <trkpt lat="43.81373" lon="7.46299">
        <ele>710.54998779297</ele>
        <time>2010-10-10T09:39:03Z</time>
      </trkpt>
      <trkpt lat="43.8134" lon="7.46265">
        <ele>710.07000732422</ele>
        <time>2010-10-10T09:39:18Z</time>
      </trkpt>
      <trkpt lat="43.81308" lon="7.46227">
        <ele>709.59002685547</ele>
        <time>2010-10-10T09:39:33Z</time>
      </trkpt>
      <trkpt lat="43.81284" lon="7.46191">
        <ele>709.59002685547</ele>
        <time>2010-10-10T09:39:46Z</time>
      </trkpt>
      <trkpt lat="43.81277" lon="7.46139">
        <ele>710.07000732422</ele>
        <time>2010-10-10T09:39:59Z</time>
      </trkpt>
      <trkpt lat="43.81266" lon="7.461">
        <ele>710.54998779297</ele>
        <time>2010-10-10T09:40:11Z</time>
      </trkpt>
      <trkpt lat="43.81247" lon="7.46064">
        <ele>712.46997070312</ele>
        <time>2010-10-10T09:40:25Z</time>
      </trkpt>
      <trkpt lat="43.81216" lon="7.46037">
        <ele>710.07000732422</ele>
        <time>2010-10-10T09:40:38Z</time>
      </trkpt>
      <trkpt lat="43.81212" lon="7.45996">
        <ele>709.59002685547</ele>
        <time>2010-10-10T09:40:48Z</time>
      </trkpt>
      <trkpt lat="43.81224" lon="7.45948">
        <ele>709.10998535156</ele>
        <time>2010-10-10T09:41:01Z</time>
      </trkpt>
      <trkpt lat="43.8124" lon="7.45908">
        <ele>711.98999023438</ele>
        <time>2010-10-10T09:41:15Z</time>
      </trkpt>
      <trkpt lat="43.81236" lon="7.45871">
        <ele>714.88000488281</ele>
        <time>2010-10-10T09:41:27Z</time>
      </trkpt>
      <trkpt lat="43.81226" lon="7.45825">
        <ele>712.46997070312</ele>
        <time>2010-10-10T09:41:40Z</time>
      </trkpt>
      <trkpt lat="43.81216" lon="7.45784">
        <ele>708.63000488281</ele>
        <time>2010-10-10T09:41:50Z</time>
      </trkpt>
      <trkpt lat="43.81223" lon="7.45744">
        <ele>707.19000244141</ele>
        <time>2010-10-10T09:42:00Z</time>
      </trkpt>
      <trkpt lat="43.81243" lon="7.45702">
        <ele>704.78002929688</ele>
        <time>2010-10-10T09:42:12Z</time>
      </trkpt>
      <trkpt lat="43.8126" lon="7.45665">
        <ele>705.75</ele>
        <time>2010-10-10T09:42:24Z</time>
      </trkpt>
      <trkpt lat="43.81269" lon="7.45627">
        <ele>704.78002929688</ele>
        <time>2010-10-10T09:42:35Z</time>
      </trkpt>
      <trkpt lat="43.8127" lon="7.45587">
        <ele>701.41998291016</ele>
        <time>2010-10-10T09:42:44Z</time>
      </trkpt>
      <trkpt lat="43.81268" lon="7.45571">
        <ele>699.5</ele>
        <time>2010-10-10T09:42:48Z</time>
      </trkpt>
      <trkpt lat="43.81262" lon="7.45553">
        <ele>697.09002685547</ele>
        <time>2010-10-10T09:42:53Z</time>
      </trkpt>
      <trkpt lat="43.81243" lon="7.45502">
        <ele>696.13000488281</ele>
        <time>2010-10-10T09:43:08Z</time>
      </trkpt>
      <trkpt lat="43.81252" lon="7.45463">
        <ele>697.09002685547</ele>
        <time>2010-10-10T09:43:20Z</time>
      </trkpt>
      <trkpt lat="43.81276" lon="7.4543">
        <ele>695.65002441406</ele>
        <time>2010-10-10T09:43:32Z</time>
      </trkpt>
      <trkpt lat="43.81289" lon="7.45374">
        <ele>692.77001953125</ele>
        <time>2010-10-10T09:43:46Z</time>
      </trkpt>
      <trkpt lat="43.81304" lon="7.45326">
        <ele>690.84002685547</ele>
        <time>2010-10-10T09:43:59Z</time>
      </trkpt>
      <trkpt lat="43.81324" lon="7.45291">
        <ele>689.88000488281</ele>
        <time>2010-10-10T09:44:10Z</time>
      </trkpt>
      <trkpt lat="43.81334" lon="7.45263">
        <ele>688.44000244141</ele>
        <time>2010-10-10T09:44:18Z</time>
      </trkpt>
      <trkpt lat="43.81345" lon="7.45206">
        <ele>685.08001708984</ele>
        <time>2010-10-10T09:44:32Z</time>
      </trkpt>
      <trkpt lat="43.81366" lon="7.45161">
        <ele>685.08001708984</ele>
        <time>2010-10-10T09:44:45Z</time>
      </trkpt>
      <trkpt lat="43.814" lon="7.45128">
        <ele>684.11999511719</ele>
        <time>2010-10-10T09:44:59Z</time>
      </trkpt>
      <trkpt lat="43.81393" lon="7.45125">
        <ele>683.15002441406</ele>
        <time>2010-10-10T09:45:06Z</time>
      </trkpt>
      <trkpt lat="43.81387" lon="7.4513">
        <ele>681.71002197266</ele>
        <time>2010-10-10T09:45:08Z</time>
      </trkpt>
      <trkpt lat="43.81356" lon="7.45159">
        <ele>677.39001464844</ele>
        <time>2010-10-10T09:45:20Z</time>
      </trkpt>
      <trkpt lat="43.81349" lon="7.45165">
        <ele>675.94000244141</ele>
        <time>2010-10-10T09:45:23Z</time>
      </trkpt>
      <trkpt lat="43.81334" lon="7.45181">
        <ele>673.05999755859</ele>
        <time>2010-10-10T09:45:29Z</time>
      </trkpt>
      <trkpt lat="43.81323" lon="7.45206">
        <ele>669.70001220703</ele>
        <time>2010-10-10T09:45:36Z</time>
      </trkpt>
      <trkpt lat="43.81313" lon="7.45237">
        <ele>666.80999755859</ele>
        <time>2010-10-10T09:45:44Z</time>
      </trkpt>
      <trkpt lat="43.81296" lon="7.45264">
        <ele>663.45001220703</ele>
        <time>2010-10-10T09:45:52Z</time>
      </trkpt>
      <trkpt lat="43.81276" lon="7.4528">
        <ele>660.55999755859</ele>
        <time>2010-10-10T09:45:59Z</time>
      </trkpt>
      <trkpt lat="43.81259" lon="7.45292">
        <ele>657.67999267578</ele>
        <time>2010-10-10T09:46:05Z</time>
      </trkpt>
      <trkpt lat="43.81247" lon="7.45306">
        <ele>656.71997070312</ele>
        <time>2010-10-10T09:46:10Z</time>
      </trkpt>
      <trkpt lat="43.81234" lon="7.45331">
        <ele>652.86999511719</ele>
        <time>2010-10-10T09:46:17Z</time>
      </trkpt>
      <trkpt lat="43.81232" lon="7.45334">
        <ele>652.86999511719</ele>
        <time>2010-10-10T09:46:18Z</time>
      </trkpt>
      <trkpt lat="43.8121" lon="7.45367">
        <ele>649.51000976562</ele>
        <time>2010-10-10T09:46:28Z</time>
      </trkpt>
      <trkpt lat="43.81206" lon="7.45373">
        <ele>649.51000976562</ele>
        <time>2010-10-10T09:46:30Z</time>
      </trkpt>
      <trkpt lat="43.81198" lon="7.45368">
        <ele>646.61999511719</ele>
        <time>2010-10-10T09:46:35Z</time>
      </trkpt>
      <trkpt lat="43.81221" lon="7.45321">
        <ele>643.26000976562</ele>
        <time>2010-10-10T09:46:48Z</time>
      </trkpt>
      <trkpt lat="43.81233" lon="7.45286">
        <ele>639.89001464844</ele>
        <time>2010-10-10T09:46:57Z</time>
      </trkpt>
      <trkpt lat="43.8124" lon="7.45276">
        <ele>639.40997314453</ele>
        <time>2010-10-10T09:47:00Z</time>
      </trkpt>
      <trkpt lat="43.81238" lon="7.45267">
        <ele>637.01000976562</ele>
        <time>2010-10-10T09:47:07Z</time>
      </trkpt>
      <trkpt lat="43.81213" lon="7.453">
        <ele>634.13000488281</ele>
        <time>2010-10-10T09:47:18Z</time>
      </trkpt>
      <trkpt lat="43.81202" lon="7.45309">
        <ele>632.20001220703</ele>
        <time>2010-10-10T09:47:22Z</time>
      </trkpt>
      <trkpt lat="43.81185" lon="7.45328">
        <ele>630.28002929688</ele>
        <time>2010-10-10T09:47:29Z</time>
      </trkpt>
      <trkpt lat="43.81176" lon="7.45322">
        <ele>628.84002685547</ele>
        <time>2010-10-10T09:47:36Z</time>
      </trkpt>
      <trkpt lat="43.8119" lon="7.45288">
        <ele>624.98999023438</ele>
        <time>2010-10-10T09:47:44Z</time>
      </trkpt>
      <trkpt lat="43.81214" lon="7.45262">
        <ele>623.54998779297</ele>
        <time>2010-10-10T09:47:54Z</time>
      </trkpt>
      <trkpt lat="43.81214" lon="7.45255">
        <ele>621.15002441406</ele>
        <time>2010-10-10T09:47:58Z</time>
      </trkpt>
      <trkpt lat="43.81208" lon="7.45257">
        <ele>621.15002441406</ele>
        <time>2010-10-10T09:48:00Z</time>
      </trkpt>
      <trkpt lat="43.81177" lon="7.45281">
        <ele>617.29998779297</ele>
        <time>2010-10-10T09:48:11Z</time>
      </trkpt>
      <trkpt lat="43.81175" lon="7.45284">
        <ele>617.29998779297</ele>
        <time>2010-10-10T09:48:12Z</time>
      </trkpt>
      <trkpt lat="43.81166" lon="7.45296">
        <ele>615.85998535156</ele>
        <time>2010-10-10T09:48:16Z</time>
      </trkpt>
      <trkpt lat="43.8116" lon="7.45285">
        <ele>613.46002197266</ele>
        <time>2010-10-10T09:48:23Z</time>
      </trkpt>
      <trkpt lat="43.81163" lon="7.45276">
        <ele>612.02001953125</ele>
        <time>2010-10-10T09:48:25Z</time>
      </trkpt>
      <trkpt lat="43.81172" lon="7.45245">
        <ele>609.13000488281</ele>
        <time>2010-10-10T09:48:32Z</time>
      </trkpt>
      <trkpt lat="43.81175" lon="7.45213">
        <ele>606.25</ele>
        <time>2010-10-10T09:48:41Z</time>
      </trkpt>
      <trkpt lat="43.81152" lon="7.45215">
        <ele>607.21002197266</ele>
        <time>2010-10-10T09:48:50Z</time>
      </trkpt>
      <trkpt lat="43.81121" lon="7.45238">
        <ele>606.25</ele>
        <time>2010-10-10T09:49:03Z</time>
      </trkpt>
      <trkpt lat="43.81096" lon="7.45266">
        <ele>606.25</ele>
        <time>2010-10-10T09:49:15Z</time>
      </trkpt>
      <trkpt lat="43.81083" lon="7.45304">
        <ele>607.69000244141</ele>
        <time>2010-10-10T09:49:27Z</time>
      </trkpt>
      <trkpt lat="43.8107" lon="7.4533">
        <ele>611.05999755859</ele>
        <time>2010-10-10T09:49:38Z</time>
      </trkpt>
      <trkpt lat="43.81058" lon="7.45345">
        <ele>611.05999755859</ele>
        <time>2010-10-10T09:49:45Z</time>
      </trkpt>
      <trkpt lat="43.81024" lon="7.45337">
        <ele>613.94000244141</ele>
        <time>2010-10-10T09:49:57Z</time>
      </trkpt>
      <trkpt lat="43.80995" lon="7.45347">
        <ele>614.90002441406</ele>
        <time>2010-10-10T09:50:10Z</time>
      </trkpt>
      <trkpt lat="43.80981" lon="7.45369">
        <ele>613.94000244141</ele>
        <time>2010-10-10T09:50:18Z</time>
      </trkpt>
      <trkpt lat="43.80985" lon="7.45386">
        <ele>614.90002441406</ele>
        <time>2010-10-10T09:50:22Z</time>
      </trkpt>
      <trkpt lat="43.80981" lon="7.45396">
        <ele>613.46002197266</ele>
        <time>2010-10-10T09:50:25Z</time>
      </trkpt>
      <trkpt lat="43.80973" lon="7.45399">
        <ele>612.97998046875</ele>
        <time>2010-10-10T09:50:27Z</time>
      </trkpt>
      <trkpt lat="43.8092" lon="7.45401">
        <ele>611.05999755859</ele>
        <time>2010-10-10T09:50:44Z</time>
      </trkpt>
      <trkpt lat="43.80903" lon="7.45409">
        <ele>609.60998535156</ele>
        <time>2010-10-10T09:50:50Z</time>
      </trkpt>
      <trkpt lat="43.80895" lon="7.45413">
        <ele>609.60998535156</ele>
        <time>2010-10-10T09:50:57Z</time>
      </trkpt>
      <trkpt lat="43.80862" lon="7.45407">
        <ele>608.16998291016</ele>
        <time>2010-10-10T09:51:12Z</time>
      </trkpt>
      <trkpt lat="43.80823" lon="7.45409">
        <ele>609.13000488281</ele>
        <time>2010-10-10T09:51:27Z</time>
      </trkpt>
      <trkpt lat="43.8081" lon="7.45415">
        <ele>605.77001953125</ele>
        <time>2010-10-10T09:51:32Z</time>
      </trkpt>
      <trkpt lat="43.80775" lon="7.45421">
        <ele>602.40002441406</ele>
        <time>2010-10-10T09:51:43Z</time>
      </trkpt>
      <trkpt lat="43.80771" lon="7.45421">
        <ele>602.40002441406</ele>
        <time>2010-10-10T09:51:44Z</time>
      </trkpt>
      <trkpt lat="43.80761" lon="7.45418">
        <ele>600.47998046875</ele>
        <time>2010-10-10T09:51:47Z</time>
      </trkpt>
      <trkpt lat="43.80746" lon="7.45394">
        <ele>598.08001708984</ele>
        <time>2010-10-10T09:51:55Z</time>
      </trkpt>
      <trkpt lat="43.80727" lon="7.45365">
        <ele>595.19000244141</ele>
        <time>2010-10-10T09:52:04Z</time>
      </trkpt>
      <trkpt lat="43.80717" lon="7.4536">
        <ele>592.78997802734</ele>
        <time>2010-10-10T09:52:08Z</time>
      </trkpt>
      <trkpt lat="43.80693" lon="7.45338">
        <ele>588.95001220703</ele>
        <time>2010-10-10T09:52:19Z</time>
      </trkpt>
      <trkpt lat="43.80683" lon="7.45325">
        <ele>588.95001220703</ele>
        <time>2010-10-10T09:52:24Z</time>
      </trkpt>
      <trkpt lat="43.80676" lon="7.45315">
        <ele>588.46002197266</ele>
        <time>2010-10-10T09:52:28Z</time>
      </trkpt>
      <trkpt lat="43.80664" lon="7.45328">
        <ele>588.46002197266</ele>
        <time>2010-10-10T09:52:35Z</time>
      </trkpt>
      <trkpt lat="43.8066" lon="7.4536">
        <ele>588.95001220703</ele>
        <time>2010-10-10T09:52:44Z</time>
      </trkpt>
      <trkpt lat="43.80648" lon="7.45377">
        <ele>592.78997802734</ele>
        <time>2010-10-10T09:52:56Z</time>
      </trkpt>
      <trkpt lat="43.80644" lon="7.45386">
        <ele>594.71002197266</ele>
        <time>2010-10-10T09:53:03Z</time>
      </trkpt>
      <trkpt lat="43.80636" lon="7.45408">
        <ele>598.08001708984</ele>
        <time>2010-10-10T09:53:22Z</time>
      </trkpt>
      <trkpt lat="43.80615" lon="7.4542">
        <ele>601.44000244141</ele>
        <time>2010-10-10T09:53:37Z</time>
      </trkpt>
      <trkpt lat="43.80593" lon="7.45434">
        <ele>602.88000488281</ele>
        <time>2010-10-10T09:53:51Z</time>
      </trkpt>
      <trkpt lat="43.80574" lon="7.45468">
        <ele>606.25</ele>
        <time>2010-10-10T09:54:04Z</time>
      </trkpt>
      <trkpt lat="43.8055" lon="7.455">
        <ele>606.25</ele>
        <time>2010-10-10T09:54:18Z</time>
      </trkpt>
      <trkpt lat="43.80523" lon="7.45528">
        <ele>606.72998046875</ele>
        <time>2010-10-10T09:54:31Z</time>
      </trkpt>
      <trkpt lat="43.80492" lon="7.45546">
        <ele>608.16998291016</ele>
        <time>2010-10-10T09:54:44Z</time>
      </trkpt>
      <trkpt lat="43.80465" lon="7.45575">
        <ele>608.16998291016</ele>
        <time>2010-10-10T09:54:56Z</time>
      </trkpt>
      <trkpt lat="43.80435" lon="7.45568">
        <ele>608.65002441406</ele>
        <time>2010-10-10T09:55:07Z</time>
      </trkpt>
      <trkpt lat="43.80405" lon="7.45558">
        <ele>610.57000732422</ele>
        <time>2010-10-10T09:55:20Z</time>
      </trkpt>
      <trkpt lat="43.804" lon="7.45555">
        <ele>612.02001953125</ele>
        <time>2010-10-10T09:55:25Z</time>
      </trkpt>
      <trkpt lat="43.8039" lon="7.4557">
        <ele>614.90002441406</ele>
        <time>2010-10-10T09:55:37Z</time>
      </trkpt>
      <trkpt lat="43.80379" lon="7.45592">
        <ele>616.34002685547</ele>
        <time>2010-10-10T09:55:53Z</time>
      </trkpt>
      <trkpt lat="43.80367" lon="7.456">
        <ele>615.85998535156</ele>
        <time>2010-10-10T09:55:58Z</time>
      </trkpt>
      <trkpt lat="43.80328" lon="7.45607">
        <ele>613.94000244141</ele>
        <time>2010-10-10T09:56:11Z</time>
      </trkpt>
      <trkpt lat="43.80288" lon="7.4561">
        <ele>612.02001953125</ele>
        <time>2010-10-10T09:56:24Z</time>
      </trkpt>
      <trkpt lat="43.80281" lon="7.45608">
        <ele>611.53997802734</ele>
        <time>2010-10-10T09:56:26Z</time>
      </trkpt>
      <trkpt lat="43.80268" lon="7.45617">
        <ele>611.05999755859</ele>
        <time>2010-10-10T09:56:31Z</time>
      </trkpt>
      <trkpt lat="43.80252" lon="7.45667">
        <ele>609.60998535156</ele>
        <time>2010-10-10T09:56:44Z</time>
      </trkpt>
      <trkpt lat="43.8024" lon="7.45702">
        <ele>607.69000244141</ele>
        <time>2010-10-10T09:56:54Z</time>
      </trkpt>
      <trkpt lat="43.80235" lon="7.45749">
        <ele>607.21002197266</ele>
        <time>2010-10-10T09:57:06Z</time>
      </trkpt>
      <trkpt lat="43.80236" lon="7.45788">
        <ele>605.28997802734</ele>
        <time>2010-10-10T09:57:19Z</time>
      </trkpt>
      <trkpt lat="43.80237" lon="7.45786">
        <ele>605.28997802734</ele>
        <time>2010-10-10T09:57:47Z</time>
      </trkpt>
      <trkpt lat="43.80237" lon="7.45785">
        <ele>605.28997802734</ele>
        <time>2010-10-10T09:58:11Z</time>
      </trkpt>
      <trkpt lat="43.80239" lon="7.4579">
        <ele>604.33001708984</ele>
        <time>2010-10-10T09:58:27Z</time>
      </trkpt>
      <trkpt lat="43.80238" lon="7.4579">
        <ele>604.80999755859</ele>
        <time>2010-10-10T09:58:40Z</time>
      </trkpt>
      <trkpt lat="43.80236" lon="7.45791">
        <ele>605.28997802734</ele>
        <time>2010-10-10T09:58:48Z</time>
      </trkpt>
      <trkpt lat="43.80236" lon="7.45798">
        <ele>606.25</ele>
        <time>2010-10-10T09:58:54Z</time>
      </trkpt>
      <trkpt lat="43.80236" lon="7.458">
        <ele>607.21002197266</ele>
        <time>2010-10-10T09:58:56Z</time>
      </trkpt>
      <trkpt lat="43.80235" lon="7.45801">
        <ele>607.21002197266</ele>
        <time>2010-10-10T09:58:58Z</time>
      </trkpt>
      <trkpt lat="43.8023" lon="7.45796">
        <ele>608.65002441406</ele>
        <time>2010-10-10T09:59:04Z</time>
      </trkpt>
      <trkpt lat="43.80227" lon="7.45792">
        <ele>610.09002685547</ele>
        <time>2010-10-10T09:59:10Z</time>
      </trkpt>
      <trkpt lat="43.80225" lon="7.45784">
        <ele>612.5</ele>
        <time>2010-10-10T09:59:16Z</time>
      </trkpt>
      <trkpt lat="43.80224" lon="7.45779">
        <ele>612.02001953125</ele>
        <time>2010-10-10T09:59:20Z</time>
      </trkpt>
      <trkpt lat="43.80222" lon="7.45772">
        <ele>614.41998291016</ele>
        <time>2010-10-10T09:59:26Z</time>
      </trkpt>
      <trkpt lat="43.8022" lon="7.45754">
        <ele>616.82000732422</ele>
        <time>2010-10-10T09:59:38Z</time>
      </trkpt>
      <trkpt lat="43.80217" lon="7.45745">
        <ele>618.75</ele>
        <time>2010-10-10T09:59:46Z</time>
      </trkpt>
      <trkpt lat="43.80214" lon="7.45743">
        <ele>620.19000244141</ele>
        <time>2010-10-10T09:59:50Z</time>
      </trkpt>
      <trkpt lat="43.80213" lon="7.45729">
        <ele>622.59002685547</ele>
        <time>2010-10-10T10:00:00Z</time>
      </trkpt>
      <trkpt lat="43.80212" lon="7.45727">
        <ele>623.54998779297</ele>
        <time>2010-10-10T10:00:03Z</time>
      </trkpt>
      <trkpt lat="43.80211" lon="7.45726">
        <ele>624.51000976562</ele>
        <time>2010-10-10T10:00:05Z</time>
      </trkpt>
      <trkpt lat="43.8021" lon="7.45721">
        <ele>625.46997070312</ele>
        <time>2010-10-10T10:00:12Z</time>
      </trkpt>
      <trkpt lat="43.80209" lon="7.45715">
        <ele>626.91998291016</ele>
        <time>2010-10-10T10:00:17Z</time>
      </trkpt>
      <trkpt lat="43.80206" lon="7.45713">
        <ele>627.40002441406</ele>
        <time>2010-10-10T10:00:20Z</time>
      </trkpt>
      <trkpt lat="43.80206" lon="7.45694">
        <ele>631.23999023438</ele>
        <time>2010-10-10T10:00:34Z</time>
      </trkpt>
      <trkpt lat="43.80205" lon="7.45678">
        <ele>634.60998535156</ele>
        <time>2010-10-10T10:00:46Z</time>
      </trkpt>
      <trkpt lat="43.80203" lon="7.45663">
        <ele>637.48999023438</ele>
        <time>2010-10-10T10:01:00Z</time>
      </trkpt>
      <trkpt lat="43.802" lon="7.45642">
        <ele>640.85998535156</ele>
        <time>2010-10-10T10:01:14Z</time>
      </trkpt>
      <trkpt lat="43.802" lon="7.4564">
        <ele>641.82000732422</ele>
        <time>2010-10-10T10:01:16Z</time>
      </trkpt>
      <trkpt lat="43.80204" lon="7.45627">
        <ele>644.21997070312</ele>
        <time>2010-10-10T10:01:28Z</time>
      </trkpt>
      <trkpt lat="43.80202" lon="7.45612">
        <ele>646.61999511719</ele>
        <time>2010-10-10T10:01:41Z</time>
      </trkpt>
      <trkpt lat="43.80203" lon="7.45604">
        <ele>649.51000976562</ele>
        <time>2010-10-10T10:01:50Z</time>
      </trkpt>
      <trkpt lat="43.80203" lon="7.45589">
        <ele>652.86999511719</ele>
        <time>2010-10-10T10:02:06Z</time>
      </trkpt>
      <trkpt lat="43.80202" lon="7.45574">
        <ele>656.23999023438</ele>
        <time>2010-10-10T10:02:19Z</time>
      </trkpt>
      <trkpt lat="43.80205" lon="7.45559">
        <ele>659.11999511719</ele>
        <time>2010-10-10T10:02:30Z</time>
      </trkpt>
      <trkpt lat="43.80205" lon="7.45552">
        <ele>659.59997558594</ele>
        <time>2010-10-10T10:02:37Z</time>
      </trkpt>
      <trkpt lat="43.80209" lon="7.45543">
        <ele>661.03997802734</ele>
        <time>2010-10-10T10:02:42Z</time>
      </trkpt>
      <trkpt lat="43.80215" lon="7.45531">
        <ele>661.52001953125</ele>
        <time>2010-10-10T10:02:50Z</time>
      </trkpt>
      <trkpt lat="43.80223" lon="7.45522">
        <ele>664.40997314453</ele>
        <time>2010-10-10T10:03:00Z</time>
      </trkpt>
      <trkpt lat="43.80237" lon="7.45513">
        <ele>667.28997802734</ele>
        <time>2010-10-10T10:03:14Z</time>
      </trkpt>
      <trkpt lat="43.80238" lon="7.45512">
        <ele>667.28997802734</ele>
        <time>2010-10-10T10:03:15Z</time>
      </trkpt>
      <trkpt lat="43.80244" lon="7.45506">
        <ele>670.17999267578</ele>
        <time>2010-10-10T10:03:25Z</time>
      </trkpt>
      <trkpt lat="43.80246" lon="7.45505">
        <ele>671.14001464844</ele>
        <time>2010-10-10T10:03:28Z</time>
      </trkpt>
      <trkpt lat="43.80258" lon="7.45494">
        <ele>674.97998046875</ele>
        <time>2010-10-10T10:03:42Z</time>
      </trkpt>
      <trkpt lat="43.80257" lon="7.45492">
        <ele>677.86999511719</ele>
        <time>2010-10-10T10:03:58Z</time>
      </trkpt>
      <trkpt lat="43.80259" lon="7.45481">
        <ele>680.75</ele>
        <time>2010-10-10T10:04:09Z</time>
      </trkpt>
      <trkpt lat="43.80256" lon="7.4548">
        <ele>683.63000488281</ele>
        <time>2010-10-10T10:04:18Z</time>
      </trkpt>
      <trkpt lat="43.80254" lon="7.45475">
        <ele>686.03997802734</ele>
        <time>2010-10-10T10:04:29Z</time>
      </trkpt>
      <trkpt lat="43.80255" lon="7.45464">
        <ele>688.91998291016</ele>
        <time>2010-10-10T10:04:42Z</time>
      </trkpt>
      <trkpt lat="43.8026" lon="7.4546">
        <ele>690.35998535156</ele>
        <time>2010-10-10T10:04:49Z</time>
      </trkpt>
      <trkpt lat="43.80266" lon="7.45457">
        <ele>692.28997802734</ele>
        <time>2010-10-10T10:04:55Z</time>
      </trkpt>
      <trkpt lat="43.80275" lon="7.45452">
        <ele>695.65002441406</ele>
        <time>2010-10-10T10:05:09Z</time>
      </trkpt>
      <trkpt lat="43.80284" lon="7.4545">
        <ele>698.53002929688</ele>
        <time>2010-10-10T10:05:22Z</time>
      </trkpt>
      <trkpt lat="43.80287" lon="7.4545">
        <ele>699.97998046875</ele>
        <time>2010-10-10T10:05:27Z</time>
      </trkpt>
      <trkpt lat="43.80298" lon="7.45447">
        <ele>702.85998535156</ele>
        <time>2010-10-10T10:05:39Z</time>
      </trkpt>
      <trkpt lat="43.803" lon="7.45446">
        <ele>703.34002685547</ele>
        <time>2010-10-10T10:05:41Z</time>
      </trkpt>
      <trkpt lat="43.80305" lon="7.45441">
        <ele>705.75</ele>
        <time>2010-10-10T10:05:50Z</time>
      </trkpt>
      <trkpt lat="43.80312" lon="7.45431">
        <ele>709.10998535156</ele>
        <time>2010-10-10T10:06:04Z</time>
      </trkpt>
      <trkpt lat="43.80313" lon="7.4543">
        <ele>709.10998535156</ele>
        <time>2010-10-10T10:06:05Z</time>
      </trkpt>
      <trkpt lat="43.80317" lon="7.45413">
        <ele>712.95001220703</ele>
        <time>2010-10-10T10:06:20Z</time>
      </trkpt>
      <trkpt lat="43.80315" lon="7.45406">
        <ele>716.32000732422</ele>
        <time>2010-10-10T10:06:34Z</time>
      </trkpt>
      <trkpt lat="43.80311" lon="7.45398">
        <ele>719.67999267578</ele>
        <time>2010-10-10T10:06:45Z</time>
      </trkpt>
      <trkpt lat="43.80312" lon="7.45389">
        <ele>721.60998535156</ele>
        <time>2010-10-10T10:06:52Z</time>
      </trkpt>
      <trkpt lat="43.80312" lon="7.45375">
        <ele>723.04998779297</ele>
        <time>2010-10-10T10:07:04Z</time>
      </trkpt>
      <trkpt lat="43.80312" lon="7.45374">
        <ele>723.53002929688</ele>
        <time>2010-10-10T10:07:05Z</time>
      </trkpt>
      <trkpt lat="43.80314" lon="7.45371">
        <ele>724.01000976562</ele>
        <time>2010-10-10T10:07:08Z</time>
      </trkpt>
      <trkpt lat="43.80323" lon="7.45361">
        <ele>722.09002685547</ele>
        <time>2010-10-10T10:07:14Z</time>
      </trkpt>
      <trkpt lat="43.8033" lon="7.45363">
        <ele>721.60998535156</ele>
        <time>2010-10-10T10:07:17Z</time>
      </trkpt>
      <trkpt lat="43.8034" lon="7.45367">
        <ele>721.60998535156</ele>
        <time>2010-10-10T10:07:22Z</time>
      </trkpt>
      <trkpt lat="43.80353" lon="7.45362">
        <ele>722.09002685547</ele>
        <time>2010-10-10T10:07:30Z</time>
      </trkpt>
      <trkpt lat="43.8036" lon="7.45357">
        <ele>723.04998779297</ele>
        <time>2010-10-10T10:07:36Z</time>
      </trkpt>
      <trkpt lat="43.80364" lon="7.45353">
        <ele>724.48999023438</ele>
        <time>2010-10-10T10:07:40Z</time>
      </trkpt>
      <trkpt lat="43.80368" lon="7.4535">
        <ele>724.48999023438</ele>
        <time>2010-10-10T10:07:43Z</time>
      </trkpt>
      <trkpt lat="43.80378" lon="7.45342">
        <ele>726.89001464844</ele>
        <time>2010-10-10T10:07:54Z</time>
      </trkpt>
      <trkpt lat="43.80391" lon="7.4533">
        <ele>729.78002929688</ele>
        <time>2010-10-10T10:08:07Z</time>
      </trkpt>
      <trkpt lat="43.80393" lon="7.45317">
        <ele>732.65997314453</ele>
        <time>2010-10-10T10:08:19Z</time>
      </trkpt>
      <trkpt lat="43.80393" lon="7.45309">
        <ele>734.58001708984</ele>
        <time>2010-10-10T10:08:26Z</time>
      </trkpt>
      <trkpt lat="43.80394" lon="7.45296">
        <ele>735.07000732422</ele>
        <time>2010-10-10T10:08:32Z</time>
      </trkpt>
      <trkpt lat="43.80395" lon="7.45288">
        <ele>734.09997558594</ele>
        <time>2010-10-10T10:08:35Z</time>
      </trkpt>
      <trkpt lat="43.804" lon="7.45275">
        <ele>734.09997558594</ele>
        <time>2010-10-10T10:08:39Z</time>
      </trkpt>
      <trkpt lat="43.80404" lon="7.45265">
        <ele>734.58001708984</ele>
        <time>2010-10-10T10:08:43Z</time>
      </trkpt>
      <trkpt lat="43.80406" lon="7.4526">
        <ele>736.03002929688</ele>
        <time>2010-10-10T10:08:47Z</time>
      </trkpt>
      <trkpt lat="43.80397" lon="7.45248">
        <ele>738.42999267578</ele>
        <time>2010-10-10T10:08:58Z</time>
      </trkpt>
      <trkpt lat="43.80397" lon="7.45243">
        <ele>738.42999267578</ele>
        <time>2010-10-10T10:09:01Z</time>
      </trkpt>
      <trkpt lat="43.80393" lon="7.45226">
        <ele>742.28002929688</ele>
        <time>2010-10-10T10:09:13Z</time>
      </trkpt>
      <trkpt lat="43.80391" lon="7.45224">
        <ele>743.23999023438</ele>
        <time>2010-10-10T10:09:16Z</time>
      </trkpt>
      <trkpt lat="43.80389" lon="7.45216">
        <ele>743.71997070312</ele>
        <time>2010-10-10T10:09:21Z</time>
      </trkpt>
      <trkpt lat="43.8039" lon="7.45208">
        <ele>743.23999023438</ele>
        <time>2010-10-10T10:09:25Z</time>
      </trkpt>
      <trkpt lat="43.8039" lon="7.45202">
        <ele>743.71997070312</ele>
        <time>2010-10-10T10:09:28Z</time>
      </trkpt>
      <trkpt lat="43.80384" lon="7.45191">
        <ele>746.11999511719</ele>
        <time>2010-10-10T10:09:36Z</time>
      </trkpt>
      <trkpt lat="43.80381" lon="7.45188">
        <ele>746.59997558594</ele>
        <time>2010-10-10T10:09:40Z</time>
      </trkpt>
      <trkpt lat="43.80379" lon="7.45182">
        <ele>748.03997802734</ele>
        <time>2010-10-10T10:09:45Z</time>
      </trkpt>
      <trkpt lat="43.80382" lon="7.45169">
        <ele>749.48999023438</ele>
        <time>2010-10-10T10:09:54Z</time>
      </trkpt>
      <trkpt lat="43.80388" lon="7.45162">
        <ele>751.89001464844</ele>
        <time>2010-10-10T10:10:02Z</time>
      </trkpt>
      <trkpt lat="43.80393" lon="7.45157">
        <ele>753.80999755859</ele>
        <time>2010-10-10T10:10:07Z</time>
      </trkpt>
      <trkpt lat="43.80394" lon="7.45147">
        <ele>757.17999267578</ele>
        <time>2010-10-10T10:10:18Z</time>
      </trkpt>
      <trkpt lat="43.8039" lon="7.45144">
        <ele>758.14001464844</ele>
        <time>2010-10-10T10:10:24Z</time>
      </trkpt>
      <trkpt lat="43.8039" lon="7.45141">
        <ele>758.61999511719</ele>
        <time>2010-10-10T10:10:27Z</time>
      </trkpt>
      <trkpt lat="43.80394" lon="7.45133">
        <ele>760.05999755859</ele>
        <time>2010-10-10T10:10:33Z</time>
      </trkpt>
      <trkpt lat="43.80399" lon="7.45125">
        <ele>761.5</ele>
        <time>2010-10-10T10:10:40Z</time>
      </trkpt>
      <trkpt lat="43.80398" lon="7.45118">
        <ele>762.94000244141</ele>
        <time>2010-10-10T10:10:45Z</time>
      </trkpt>
      <trkpt lat="43.80389" lon="7.45101">
        <ele>765.34997558594</ele>
        <time>2010-10-10T10:10:59Z</time>
      </trkpt>
      <trkpt lat="43.80386" lon="7.45098">
        <ele>765.83001708984</ele>
        <time>2010-10-10T10:11:02Z</time>
      </trkpt>
      <trkpt lat="43.80379" lon="7.45081">
        <ele>766.78997802734</ele>
        <time>2010-10-10T10:11:12Z</time>
      </trkpt>
      <trkpt lat="43.80367" lon="7.45057">
        <ele>765.83001708984</ele>
        <time>2010-10-10T10:11:20Z</time>
      </trkpt>
      <trkpt lat="43.80362" lon="7.45041">
        <ele>766.78997802734</ele>
        <time>2010-10-10T10:11:27Z</time>
      </trkpt>
      <trkpt lat="43.80352" lon="7.45016">
        <ele>769.66998291016</ele>
        <time>2010-10-10T10:11:41Z</time>
      </trkpt>
      <trkpt lat="43.80352" lon="7.45015">
        <ele>769.66998291016</ele>
        <time>2010-10-10T10:11:42Z</time>
      </trkpt>
      <trkpt lat="43.80351" lon="7.45008">
        <ele>770.63000488281</ele>
        <time>2010-10-10T10:11:46Z</time>
      </trkpt>
      <trkpt lat="43.80352" lon="7.45004">
        <ele>770.63000488281</ele>
        <time>2010-10-10T10:11:48Z</time>
      </trkpt>
      <trkpt lat="43.8035" lon="7.44987">
        <ele>773.52001953125</ele>
        <time>2010-10-10T10:12:01Z</time>
      </trkpt>
      <trkpt lat="43.80347" lon="7.44965">
        <ele>776.88000488281</ele>
        <time>2010-10-10T10:12:16Z</time>
      </trkpt>
      <trkpt lat="43.80348" lon="7.44961">
        <ele>776.88000488281</ele>
        <time>2010-10-10T10:12:19Z</time>
      </trkpt>
      <trkpt lat="43.80352" lon="7.44951">
        <ele>778.32000732422</ele>
        <time>2010-10-10T10:12:25Z</time>
      </trkpt>
      <trkpt lat="43.80355" lon="7.44941">
        <ele>779.77001953125</ele>
        <time>2010-10-10T10:12:31Z</time>
      </trkpt>
      <trkpt lat="43.80356" lon="7.44934">
        <ele>779.77001953125</ele>
        <time>2010-10-10T10:12:35Z</time>
      </trkpt>
      <trkpt lat="43.80365" lon="7.44917">
        <ele>782.65002441406</ele>
        <time>2010-10-10T10:12:47Z</time>
      </trkpt>
      <trkpt lat="43.80371" lon="7.44902">
        <ele>783.60998535156</ele>
        <time>2010-10-10T10:12:57Z</time>
      </trkpt>
      <trkpt lat="43.80379" lon="7.44879">
        <ele>786.5</ele>
        <time>2010-10-10T10:13:10Z</time>
      </trkpt>
      <trkpt lat="43.80388" lon="7.44866">
        <ele>787.46002197266</ele>
        <time>2010-10-10T10:13:21Z</time>
      </trkpt>
      <trkpt lat="43.80405" lon="7.4485">
        <ele>788.41998291016</ele>
        <time>2010-10-10T10:13:32Z</time>
      </trkpt>
      <trkpt lat="43.80409" lon="7.44842">
        <ele>790.82000732422</ele>
        <time>2010-10-10T10:13:41Z</time>
      </trkpt>
      <trkpt lat="43.80413" lon="7.4483">
        <ele>794.19000244141</ele>
        <time>2010-10-10T10:13:55Z</time>
      </trkpt>
      <trkpt lat="43.80418" lon="7.44825">
        <ele>796.59002685547</ele>
        <time>2010-10-10T10:14:04Z</time>
      </trkpt>
      <trkpt lat="43.80428" lon="7.44818">
        <ele>799.95001220703</ele>
        <time>2010-10-10T10:14:16Z</time>
      </trkpt>
      <trkpt lat="43.80428" lon="7.44817">
        <ele>799.95001220703</ele>
        <time>2010-10-10T10:14:17Z</time>
      </trkpt>
      <trkpt lat="43.80432" lon="7.44805">
        <ele>803.32000732422</ele>
        <time>2010-10-10T10:14:30Z</time>
      </trkpt>
      <trkpt lat="43.80435" lon="7.44803">
        <ele>804.76000976562</ele>
        <time>2010-10-10T10:14:36Z</time>
      </trkpt>
      <trkpt lat="43.80437" lon="7.44798">
        <ele>806.67999267578</ele>
        <time>2010-10-10T10:14:44Z</time>
      </trkpt>
      <trkpt lat="43.8045" lon="7.44794">
        <ele>809.57000732422</ele>
        <time>2010-10-10T10:14:59Z</time>
      </trkpt>
      <trkpt lat="43.80459" lon="7.44783">
        <ele>812.92999267578</ele>
        <time>2010-10-10T10:15:12Z</time>
      </trkpt>
      <trkpt lat="43.80466" lon="7.44775">
        <ele>815.34002685547</ele>
        <time>2010-10-10T10:15:25Z</time>
      </trkpt>
      <trkpt lat="43.80471" lon="7.4477">
        <ele>815.82000732422</ele>
        <time>2010-10-10T10:15:29Z</time>
      </trkpt>
      <trkpt lat="43.80474" lon="7.44765">
        <ele>816.29998779297</ele>
        <time>2010-10-10T10:15:31Z</time>
      </trkpt>
      <trkpt lat="43.8048" lon="7.4476">
        <ele>815.82000732422</ele>
        <time>2010-10-10T10:15:34Z</time>
      </trkpt>
      <trkpt lat="43.80491" lon="7.44757">
        <ele>819.17999267578</ele>
        <time>2010-10-10T10:15:46Z</time>
      </trkpt>
      <trkpt lat="43.80492" lon="7.44757">
        <ele>819.65997314453</ele>
        <time>2010-10-10T10:15:47Z</time>
      </trkpt>
      <trkpt lat="43.80504" lon="7.44755">
        <ele>821.09997558594</ele>
        <time>2010-10-10T10:15:59Z</time>
      </trkpt>
      <trkpt lat="43.80507" lon="7.44754">
        <ele>822.05999755859</ele>
        <time>2010-10-10T10:16:02Z</time>
      </trkpt>
      <trkpt lat="43.80518" lon="7.44743">
        <ele>825.42999267578</ele>
        <time>2010-10-10T10:16:14Z</time>
      </trkpt>
      <trkpt lat="43.80528" lon="7.44735">
        <ele>828.78997802734</ele>
        <time>2010-10-10T10:16:27Z</time>
      </trkpt>
      <trkpt lat="43.80537" lon="7.44726">
        <ele>832.64001464844</ele>
        <time>2010-10-10T10:16:41Z</time>
      </trkpt>
      <trkpt lat="43.80545" lon="7.44714">
        <ele>835.52001953125</ele>
        <time>2010-10-10T10:16:54Z</time>
      </trkpt>
      <trkpt lat="43.80553" lon="7.44703">
        <ele>839.36999511719</ele>
        <time>2010-10-10T10:17:09Z</time>
      </trkpt>
      <trkpt lat="43.80558" lon="7.44696">
        <ele>842.25</ele>
        <time>2010-10-10T10:17:22Z</time>
      </trkpt>
      <trkpt lat="43.80563" lon="7.44688">
        <ele>845.61999511719</ele>
        <time>2010-10-10T10:17:34Z</time>
      </trkpt>
      <trkpt lat="43.80564" lon="7.44687">
        <ele>845.61999511719</ele>
        <time>2010-10-10T10:17:35Z</time>
      </trkpt>
      <trkpt lat="43.80569" lon="7.44679">
        <ele>848.97998046875</ele>
        <time>2010-10-10T10:17:51Z</time>
      </trkpt>
      <trkpt lat="43.80569" lon="7.44678">
        <ele>848.97998046875</ele>
        <time>2010-10-10T10:17:52Z</time>
      </trkpt>
      <trkpt lat="43.80569" lon="7.44677">
        <ele>849.94000244141</ele>
        <time>2010-10-10T10:17:53Z</time>
      </trkpt>
      <trkpt lat="43.80569" lon="7.44668">
        <ele>852.83001708984</ele>
        <time>2010-10-10T10:18:07Z</time>
      </trkpt>
      <trkpt lat="43.80574" lon="7.44657">
        <ele>853.78997802734</ele>
        <time>2010-10-10T10:18:15Z</time>
      </trkpt>
      <trkpt lat="43.80581" lon="7.44641">
        <ele>855.71002197266</ele>
        <time>2010-10-10T10:18:27Z</time>
      </trkpt>
      <trkpt lat="43.8059" lon="7.44623">
        <ele>858.59002685547</ele>
        <time>2010-10-10T10:18:46Z</time>
      </trkpt>
      <trkpt lat="43.80598" lon="7.44609">
        <ele>861.96002197266</ele>
        <time>2010-10-10T10:18:59Z</time>
      </trkpt>
      <trkpt lat="43.80606" lon="7.44588">
        <ele>864.84002685547</ele>
        <time>2010-10-10T10:19:18Z</time>
      </trkpt>
      <trkpt lat="43.8061" lon="7.44582">
        <ele>865.79998779297</ele>
        <time>2010-10-10T10:19:23Z</time>
      </trkpt>
      <trkpt lat="43.80614" lon="7.44578">
        <ele>865.79998779297</ele>
        <time>2010-10-10T10:19:26Z</time>
      </trkpt>
      <trkpt lat="43.80627" lon="7.44567">
        <ele>869.16998291016</ele>
        <time>2010-10-10T10:19:42Z</time>
      </trkpt>
      <trkpt lat="43.80638" lon="7.44556">
        <ele>871.57000732422</ele>
        <time>2010-10-10T10:19:59Z</time>
      </trkpt>
      <trkpt lat="43.80642" lon="7.44548">
        <ele>873.97998046875</ele>
        <time>2010-10-10T10:20:06Z</time>
      </trkpt>
      <trkpt lat="43.80655" lon="7.44535">
        <ele>875.90002441406</ele>
        <time>2010-10-10T10:20:19Z</time>
      </trkpt>
      <trkpt lat="43.80662" lon="7.44532">
        <ele>878.29998779297</ele>
        <time>2010-10-10T10:20:28Z</time>
      </trkpt>
      <trkpt lat="43.80678" lon="7.44528">
        <ele>880.21997070312</ele>
        <time>2010-10-10T10:20:41Z</time>
      </trkpt>
      <trkpt lat="43.80683" lon="7.44522">
        <ele>883.10998535156</ele>
        <time>2010-10-10T10:20:49Z</time>
      </trkpt>
      <trkpt lat="43.80684" lon="7.44513">
        <ele>886.46997070312</ele>
        <time>2010-10-10T10:21:02Z</time>
      </trkpt>
      <trkpt lat="43.80692" lon="7.44506">
        <ele>887.42999267578</ele>
        <time>2010-10-10T10:21:12Z</time>
      </trkpt>
      <trkpt lat="43.80701" lon="7.44496">
        <ele>887.90997314453</ele>
        <time>2010-10-10T10:21:18Z</time>
      </trkpt>
      <trkpt lat="43.80711" lon="7.44484">
        <ele>891.28002929688</ele>
        <time>2010-10-10T10:21:30Z</time>
      </trkpt>
      <trkpt lat="43.80713" lon="7.44478">
        <ele>891.28002929688</ele>
        <time>2010-10-10T10:21:34Z</time>
      </trkpt>
      <trkpt lat="43.80729" lon="7.44469">
        <ele>893.20001220703</ele>
        <time>2010-10-10T10:21:47Z</time>
      </trkpt>
      <trkpt lat="43.80739" lon="7.44468">
        <ele>894.64001464844</ele>
        <time>2010-10-10T10:21:52Z</time>
      </trkpt>
      <trkpt lat="43.80755" lon="7.44453">
        <ele>896.57000732422</ele>
        <time>2010-10-10T10:22:04Z</time>
      </trkpt>
      <trkpt lat="43.80761" lon="7.44439">
        <ele>898.48999023438</ele>
        <time>2010-10-10T10:22:16Z</time>
      </trkpt>
      <trkpt lat="43.80761" lon="7.44438">
        <ele>898.96997070312</ele>
        <time>2010-10-10T10:22:17Z</time>
      </trkpt>
      <trkpt lat="43.80768" lon="7.4443">
        <ele>901.84997558594</ele>
        <time>2010-10-10T10:22:29Z</time>
      </trkpt>
      <trkpt lat="43.8077" lon="7.44428">
        <ele>901.84997558594</ele>
        <time>2010-10-10T10:22:32Z</time>
      </trkpt>
      <trkpt lat="43.80776" lon="7.4442">
        <ele>903.78002929688</ele>
        <time>2010-10-10T10:22:39Z</time>
      </trkpt>
      <trkpt lat="43.80792" lon="7.44407">
        <ele>907.14001464844</ele>
        <time>2010-10-10T10:22:54Z</time>
      </trkpt>
      <trkpt lat="43.80793" lon="7.44407">
        <ele>906.65997314453</ele>
        <time>2010-10-10T10:22:55Z</time>
      </trkpt>
      <trkpt lat="43.80803" lon="7.44402">
        <ele>910.03002929688</ele>
        <time>2010-10-10T10:23:09Z</time>
      </trkpt>
      <trkpt lat="43.80812" lon="7.44387">
        <ele>913.39001464844</ele>
        <time>2010-10-10T10:23:24Z</time>
      </trkpt>
      <trkpt lat="43.80813" lon="7.44386">
        <ele>913.86999511719</ele>
        <time>2010-10-10T10:23:26Z</time>
      </trkpt>
      <trkpt lat="43.80819" lon="7.44377">
        <ele>917.23999023438</ele>
        <time>2010-10-10T10:23:39Z</time>
      </trkpt>
      <trkpt lat="43.80823" lon="7.44369">
        <ele>919.64001464844</ele>
        <time>2010-10-10T10:23:49Z</time>
      </trkpt>
      <trkpt lat="43.80828" lon="7.4436">
        <ele>922.52001953125</ele>
        <time>2010-10-10T10:24:00Z</time>
      </trkpt>
      <trkpt lat="43.80829" lon="7.44359">
        <ele>923</ele>
        <time>2010-10-10T10:24:01Z</time>
      </trkpt>
      <trkpt lat="43.80837" lon="7.44346">
        <ele>925.89001464844</ele>
        <time>2010-10-10T10:24:15Z</time>
      </trkpt>
      <trkpt lat="43.80842" lon="7.44338">
        <ele>927.33001708984</ele>
        <time>2010-10-10T10:24:36Z</time>
      </trkpt>
      <trkpt lat="43.80841" lon="7.44332">
        <ele>930.21002197266</ele>
        <time>2010-10-10T10:24:49Z</time>
      </trkpt>
      <trkpt lat="43.80839" lon="7.44317">
        <ele>930.69000244141</ele>
        <time>2010-10-10T10:25:02Z</time>
      </trkpt>
      <trkpt lat="43.80834" lon="7.44314">
        <ele>934.05999755859</ele>
        <time>2010-10-10T10:25:12Z</time>
      </trkpt>
      <trkpt lat="43.80823" lon="7.44295">
        <ele>936.94000244141</ele>
        <time>2010-10-10T10:25:27Z</time>
      </trkpt>
      <trkpt lat="43.80823" lon="7.44293">
        <ele>936.46002197266</ele>
        <time>2010-10-10T10:25:28Z</time>
      </trkpt>
      <trkpt lat="43.8083" lon="7.44272">
        <ele>939.83001708984</ele>
        <time>2010-10-10T10:25:43Z</time>
      </trkpt>
      <trkpt lat="43.80829" lon="7.44256">
        <ele>942.71002197266</ele>
        <time>2010-10-10T10:25:59Z</time>
      </trkpt>
      <trkpt lat="43.80827" lon="7.44262">
        <ele>945.59002685547</ele>
        <time>2010-10-10T10:26:09Z</time>
      </trkpt>
      <trkpt lat="43.80823" lon="7.44268">
        <ele>948.96002197266</ele>
        <time>2010-10-10T10:26:25Z</time>
      </trkpt>
      <trkpt lat="43.80821" lon="7.44271">
        <ele>949.91998291016</ele>
        <time>2010-10-10T10:26:30Z</time>
      </trkpt>
      <trkpt lat="43.80819" lon="7.44276">
        <ele>952.32000732422</ele>
        <time>2010-10-10T10:26:36Z</time>
      </trkpt>
      <trkpt lat="43.8081" lon="7.44291">
        <ele>955.21002197266</ele>
        <time>2010-10-10T10:26:53Z</time>
      </trkpt>
      <trkpt lat="43.80807" lon="7.44287">
        <ele>958.09002685547</ele>
        <time>2010-10-10T10:27:07Z</time>
      </trkpt>
      <trkpt lat="43.80803" lon="7.44281">
        <ele>961.94000244141</ele>
        <time>2010-10-10T10:27:19Z</time>
      </trkpt>
      <trkpt lat="43.808" lon="7.44271">
        <ele>965.29998779297</ele>
        <time>2010-10-10T10:27:36Z</time>
      </trkpt>
      <trkpt lat="43.80804" lon="7.4426">
        <ele>968.17999267578</ele>
        <time>2010-10-10T10:27:53Z</time>
      </trkpt>
      <trkpt lat="43.80803" lon="7.44258">
        <ele>969.15002441406</ele>
        <time>2010-10-10T10:27:57Z</time>
      </trkpt>
      <trkpt lat="43.80799" lon="7.4426">
        <ele>972.03002929688</ele>
        <time>2010-10-10T10:28:06Z</time>
      </trkpt>
      <trkpt lat="43.80793" lon="7.4426">
        <ele>974.42999267578</ele>
        <time>2010-10-10T10:28:18Z</time>
      </trkpt>
      <trkpt lat="43.8079" lon="7.44257">
        <ele>977.79998779297</ele>
        <time>2010-10-10T10:28:32Z</time>
      </trkpt>
      <trkpt lat="43.80785" lon="7.4426">
        <ele>979.23999023438</ele>
        <time>2010-10-10T10:28:44Z</time>
      </trkpt>
      <trkpt lat="43.80786" lon="7.44254">
        <ele>981.15997314453</ele>
        <time>2010-10-10T10:28:54Z</time>
      </trkpt>
      <trkpt lat="43.80784" lon="7.44253">
        <ele>983.09002685547</ele>
        <time>2010-10-10T10:28:59Z</time>
      </trkpt>
      <trkpt lat="43.80782" lon="7.44247">
        <ele>986.45001220703</ele>
        <time>2010-10-10T10:29:13Z</time>
      </trkpt>
      <trkpt lat="43.80776" lon="7.44251">
        <ele>988.84997558594</ele>
        <time>2010-10-10T10:29:25Z</time>
      </trkpt>
      <trkpt lat="43.80772" lon="7.44245">
        <ele>991.73999023438</ele>
        <time>2010-10-10T10:29:37Z</time>
      </trkpt>
      <trkpt lat="43.80772" lon="7.44236">
        <ele>994.14001464844</ele>
        <time>2010-10-10T10:29:49Z</time>
      </trkpt>
      <trkpt lat="43.80775" lon="7.44227">
        <ele>996.53997802734</ele>
        <time>2010-10-10T10:30:01Z</time>
      </trkpt>
      <trkpt lat="43.80775" lon="7.44223">
        <ele>998.95001220703</ele>
        <time>2010-10-10T10:30:10Z</time>
      </trkpt>
      <trkpt lat="43.80776" lon="7.44216">
        <ele>1001.3499755859</ele>
        <time>2010-10-10T10:30:21Z</time>
      </trkpt>
      <trkpt lat="43.80779" lon="7.44203">
        <ele>1004.2299804688</ele>
        <time>2010-10-10T10:30:37Z</time>
      </trkpt>
      <trkpt lat="43.80779" lon="7.44191">
        <ele>1006.6400146484</ele>
        <time>2010-10-10T10:30:49Z</time>
      </trkpt>
      <trkpt lat="43.80782" lon="7.44181">
        <ele>1009.0399780273</ele>
        <time>2010-10-10T10:31:01Z</time>
      </trkpt>
      <trkpt lat="43.80781" lon="7.44174">
        <ele>1011.9299926758</ele>
        <time>2010-10-10T10:31:11Z</time>
      </trkpt>
      <trkpt lat="43.80782" lon="7.4417">
        <ele>1012.8900146484</ele>
        <time>2010-10-10T10:31:15Z</time>
      </trkpt>
      <trkpt lat="43.80782" lon="7.44167">
        <ele>1012.8900146484</ele>
        <time>2010-10-10T10:31:19Z</time>
      </trkpt>
      <trkpt lat="43.8078" lon="7.4416">
        <ele>1015.7700195312</ele>
        <time>2010-10-10T10:31:32Z</time>
      </trkpt>
      <trkpt lat="43.80778" lon="7.44151">
        <ele>1019.1300048828</ele>
        <time>2010-10-10T10:31:47Z</time>
      </trkpt>
      <trkpt lat="43.80785" lon="7.44138">
        <ele>1022.5</ele>
        <time>2010-10-10T10:32:01Z</time>
      </trkpt>
      <trkpt lat="43.80786" lon="7.44136">
        <ele>1022.0200195312</ele>
        <time>2010-10-10T10:32:04Z</time>
      </trkpt>
      <trkpt lat="43.8079" lon="7.4412">
        <ele>1026.3399658203</ele>
        <time>2010-10-10T10:32:21Z</time>
      </trkpt>
      <trkpt lat="43.80794" lon="7.44105">
        <ele>1026.8299560547</ele>
        <time>2010-10-10T10:32:37Z</time>
      </trkpt>
      <trkpt lat="43.80793" lon="7.44104">
        <ele>1028.75</ele>
        <time>2010-10-10T10:32:39Z</time>
      </trkpt>
      <trkpt lat="43.80794" lon="7.4409">
        <ele>1028.75</ele>
        <time>2010-10-10T10:32:52Z</time>
      </trkpt>
      <trkpt lat="43.80796" lon="7.44083">
        <ele>1029.7099609375</ele>
        <time>2010-10-10T10:32:57Z</time>
      </trkpt>
      <trkpt lat="43.80796" lon="7.44081">
        <ele>1029.7099609375</ele>
        <time>2010-10-10T10:32:59Z</time>
      </trkpt>
      <trkpt lat="43.80798" lon="7.44065">
        <ele>1030.6700439453</ele>
        <time>2010-10-10T10:33:11Z</time>
      </trkpt>
      <trkpt lat="43.80798" lon="7.44059">
        <ele>1032.5899658203</ele>
        <time>2010-10-10T10:33:17Z</time>
      </trkpt>
      <trkpt lat="43.808" lon="7.44034">
        <ele>1034.0400390625</ele>
        <time>2010-10-10T10:33:36Z</time>
      </trkpt>
      <trkpt lat="43.80801" lon="7.44019">
        <ele>1037.8800048828</ele>
        <time>2010-10-10T10:33:49Z</time>
      </trkpt>
      <trkpt lat="43.80801" lon="7.44019">
        <ele>1037.8800048828</ele>
        <time>2010-10-10T10:33:50Z</time>
      </trkpt>
      <trkpt lat="43.80798" lon="7.4401">
        <ele>1040.7600097656</ele>
        <time>2010-10-10T10:34:03Z</time>
      </trkpt>
      <trkpt lat="43.80796" lon="7.44006">
        <ele>1043.1700439453</ele>
        <time>2010-10-10T10:34:14Z</time>
      </trkpt>
      <trkpt lat="43.80796" lon="7.44005">
        <ele>1044.1300048828</ele>
        <time>2010-10-10T10:34:16Z</time>
      </trkpt>
      <trkpt lat="43.80797" lon="7.43995">
        <ele>1046.0500488281</ele>
        <time>2010-10-10T10:34:28Z</time>
      </trkpt>
      <trkpt lat="43.80794" lon="7.4399">
        <ele>1048.4499511719</ele>
        <time>2010-10-10T10:34:41Z</time>
      </trkpt>
      <trkpt lat="43.80798" lon="7.43988">
        <ele>1049.9000244141</ele>
        <time>2010-10-10T10:34:45Z</time>
      </trkpt>
      <trkpt lat="43.80801" lon="7.43973">
        <ele>1053.2600097656</ele>
        <time>2010-10-10T10:35:02Z</time>
      </trkpt>
      <trkpt lat="43.80807" lon="7.43963">
        <ele>1056.1500244141</ele>
        <time>2010-10-10T10:35:17Z</time>
      </trkpt>
      <trkpt lat="43.80809" lon="7.43954">
        <ele>1059.0300292969</ele>
        <time>2010-10-10T10:35:29Z</time>
      </trkpt>
      <trkpt lat="43.80824" lon="7.4395">
        <ele>1059.5100097656</ele>
        <time>2010-10-10T10:35:42Z</time>
      </trkpt>
      <trkpt lat="43.8083" lon="7.43945">
        <ele>1059.9899902344</ele>
        <time>2010-10-10T10:35:47Z</time>
      </trkpt>
      <trkpt lat="43.80838" lon="7.43929">
        <ele>1062.8699951172</ele>
        <time>2010-10-10T10:35:59Z</time>
      </trkpt>
      <trkpt lat="43.8084" lon="7.43926">
        <ele>1062.8699951172</ele>
        <time>2010-10-10T10:36:02Z</time>
      </trkpt>
      <trkpt lat="43.80841" lon="7.43922">
        <ele>1063.3599853516</ele>
        <time>2010-10-10T10:36:06Z</time>
      </trkpt>
      <trkpt lat="43.80845" lon="7.43911">
        <ele>1064.8000488281</ele>
        <time>2010-10-10T10:36:14Z</time>
      </trkpt>
      <trkpt lat="43.80849" lon="7.43893">
        <ele>1067.6800537109</ele>
        <time>2010-10-10T10:36:31Z</time>
      </trkpt>
      <trkpt lat="43.80846" lon="7.43886">
        <ele>1071.0500488281</ele>
        <time>2010-10-10T10:36:43Z</time>
      </trkpt>
      <trkpt lat="43.80845" lon="7.43885">
        <ele>1071.5300292969</ele>
        <time>2010-10-10T10:36:44Z</time>
      </trkpt>
      <trkpt lat="43.80843" lon="7.43875">
        <ele>1074.8900146484</ele>
        <time>2010-10-10T10:36:57Z</time>
      </trkpt>
      <trkpt lat="43.80842" lon="7.4387">
        <ele>1076.3299560547</ele>
        <time>2010-10-10T10:37:04Z</time>
      </trkpt>
      <trkpt lat="43.80839" lon="7.4386">
        <ele>1080.1800537109</ele>
        <time>2010-10-10T10:37:18Z</time>
      </trkpt>
      <trkpt lat="43.80839" lon="7.43841">
        <ele>1083.5400390625</ele>
        <time>2010-10-10T10:37:34Z</time>
      </trkpt>
      <trkpt lat="43.8084" lon="7.43827">
        <ele>1086.4300537109</ele>
        <time>2010-10-10T10:37:48Z</time>
      </trkpt>
      <trkpt lat="43.80843" lon="7.43809">
        <ele>1089.7900390625</ele>
        <time>2010-10-10T10:38:03Z</time>
      </trkpt>
      <trkpt lat="43.80849" lon="7.43786">
        <ele>1090.2700195312</ele>
        <time>2010-10-10T10:38:20Z</time>
      </trkpt>
      <trkpt lat="43.80853" lon="7.4378">
        <ele>1091.2299804688</ele>
        <time>2010-10-10T10:38:26Z</time>
      </trkpt>
      <trkpt lat="43.8086" lon="7.43766">
        <ele>1094.1199951172</ele>
        <time>2010-10-10T10:38:40Z</time>
      </trkpt>
      <trkpt lat="43.80862" lon="7.43762">
        <ele>1095.5600585938</ele>
        <time>2010-10-10T10:38:45Z</time>
      </trkpt>
      <trkpt lat="43.80863" lon="7.43749">
        <ele>1098.9200439453</ele>
        <time>2010-10-10T10:38:56Z</time>
      </trkpt>
      <trkpt lat="43.80862" lon="7.43739">
        <ele>1102.2900390625</ele>
        <time>2010-10-10T10:39:09Z</time>
      </trkpt>
      <trkpt lat="43.80861" lon="7.43732">
        <ele>1105.6500244141</ele>
        <time>2010-10-10T10:39:25Z</time>
      </trkpt>
      <trkpt lat="43.80862" lon="7.43718">
        <ele>1108.5400390625</ele>
        <time>2010-10-10T10:39:38Z</time>
      </trkpt>
      <trkpt lat="43.8087" lon="7.43705">
        <ele>1111.4200439453</ele>
        <time>2010-10-10T10:39:55Z</time>
      </trkpt>
      <trkpt lat="43.80873" lon="7.43694">
        <ele>1112.8599853516</ele>
        <time>2010-10-10T10:40:06Z</time>
      </trkpt>
      <trkpt lat="43.80874" lon="7.4369">
        <ele>1111.9000244141</ele>
        <time>2010-10-10T10:40:09Z</time>
      </trkpt>
      <trkpt lat="43.80874" lon="7.43675">
        <ele>1114.3100585938</ele>
        <time>2010-10-10T10:40:23Z</time>
      </trkpt>
      <trkpt lat="43.80877" lon="7.43669">
        <ele>1117.1899414062</ele>
        <time>2010-10-10T10:40:29Z</time>
      </trkpt>
      <trkpt lat="43.80891" lon="7.4365">
        <ele>1118.1500244141</ele>
        <time>2010-10-10T10:40:48Z</time>
      </trkpt>
      <trkpt lat="43.80894" lon="7.43638">
        <ele>1116.7099609375</ele>
        <time>2010-10-10T10:40:57Z</time>
      </trkpt>
      <trkpt lat="43.80895" lon="7.43629">
        <ele>1116.2299804688</ele>
        <time>2010-10-10T10:41:02Z</time>
      </trkpt>
      <trkpt lat="43.80902" lon="7.4361">
        <ele>1118.1500244141</ele>
        <time>2010-10-10T10:41:15Z</time>
      </trkpt>
      <trkpt lat="43.80907" lon="7.43599">
        <ele>1120.5500488281</ele>
        <time>2010-10-10T10:41:26Z</time>
      </trkpt>
      <trkpt lat="43.80908" lon="7.4359">
        <ele>1120.5500488281</ele>
        <time>2010-10-10T10:41:33Z</time>
      </trkpt>
      <trkpt lat="43.80912" lon="7.43571">
        <ele>1122.4799804688</ele>
        <time>2010-10-10T10:41:43Z</time>
      </trkpt>
      <trkpt lat="43.80913" lon="7.43567">
        <ele>1122.4799804688</ele>
        <time>2010-10-10T10:41:45Z</time>
      </trkpt>
      <trkpt lat="43.80914" lon="7.43563">
        <ele>1122.9599609375</ele>
        <time>2010-10-10T10:41:47Z</time>
      </trkpt>
      <trkpt lat="43.8092" lon="7.43547">
        <ele>1122.9599609375</ele>
        <time>2010-10-10T10:41:55Z</time>
      </trkpt>
      <trkpt lat="43.80925" lon="7.43526">
        <ele>1122</ele>
        <time>2010-10-10T10:42:05Z</time>
      </trkpt>
      <trkpt lat="43.80927" lon="7.4352">
        <ele>1122.9599609375</ele>
        <time>2010-10-10T10:42:08Z</time>
      </trkpt>
      <trkpt lat="43.80934" lon="7.43499">
        <ele>1122</ele>
        <time>2010-10-10T10:42:18Z</time>
      </trkpt>
      <trkpt lat="43.80936" lon="7.43489">
        <ele>1122.9599609375</ele>
        <time>2010-10-10T10:42:23Z</time>
      </trkpt>
      <trkpt lat="43.80939" lon="7.43469">
        <ele>1125.8399658203</ele>
        <time>2010-10-10T10:42:40Z</time>
      </trkpt>
      <trkpt lat="43.8094" lon="7.43449">
        <ele>1128.7299804688</ele>
        <time>2010-10-10T10:42:55Z</time>
      </trkpt>
      <trkpt lat="43.8094" lon="7.43438">
        <ele>1132.5699462891</ele>
        <time>2010-10-10T10:43:06Z</time>
      </trkpt>
      <trkpt lat="43.80942" lon="7.43419">
        <ele>1135.4499511719</ele>
        <time>2010-10-10T10:43:23Z</time>
      </trkpt>
      <trkpt lat="43.80942" lon="7.43417">
        <ele>1135.9399414062</ele>
        <time>2010-10-10T10:43:25Z</time>
      </trkpt>
      <trkpt lat="43.80946" lon="7.43395">
        <ele>1139.3000488281</ele>
        <time>2010-10-10T10:43:40Z</time>
      </trkpt>
      <trkpt lat="43.80952" lon="7.43385">
        <ele>1138.8199462891</ele>
        <time>2010-10-10T10:43:49Z</time>
      </trkpt>
      <trkpt lat="43.80954" lon="7.43365">
        <ele>1141.2199707031</ele>
        <time>2010-10-10T10:44:01Z</time>
      </trkpt>
      <trkpt lat="43.8095" lon="7.4335">
        <ele>1145.0699462891</ele>
        <time>2010-10-10T10:44:13Z</time>
      </trkpt>
      <trkpt lat="43.80949" lon="7.43328">
        <ele>1147.4699707031</ele>
        <time>2010-10-10T10:44:29Z</time>
      </trkpt>
      <trkpt lat="43.80949" lon="7.4331">
        <ele>1150.8399658203</ele>
        <time>2010-10-10T10:44:42Z</time>
      </trkpt>
      <trkpt lat="43.80948" lon="7.43308">
        <ele>1150.8399658203</ele>
        <time>2010-10-10T10:44:43Z</time>
      </trkpt>
      <trkpt lat="43.80954" lon="7.43283">
        <ele>1154.1999511719</ele>
        <time>2010-10-10T10:45:03Z</time>
      </trkpt>
      <trkpt lat="43.80957" lon="7.43275">
        <ele>1154.6800537109</ele>
        <time>2010-10-10T10:45:09Z</time>
      </trkpt>
      <trkpt lat="43.80956" lon="7.43264">
        <ele>1156.5999755859</ele>
        <time>2010-10-10T10:45:18Z</time>
      </trkpt>
      <trkpt lat="43.80957" lon="7.43248">
        <ele>1159.4899902344</ele>
        <time>2010-10-10T10:45:32Z</time>
      </trkpt>
      <trkpt lat="43.8096" lon="7.43233">
        <ele>1162.8499755859</ele>
        <time>2010-10-10T10:45:47Z</time>
      </trkpt>
      <trkpt lat="43.8096" lon="7.43221">
        <ele>1164.2900390625</ele>
        <time>2010-10-10T10:45:56Z</time>
      </trkpt>
      <trkpt lat="43.8096" lon="7.43212">
        <ele>1166.6999511719</ele>
        <time>2010-10-10T10:46:04Z</time>
      </trkpt>
      <trkpt lat="43.80961" lon="7.43201">
        <ele>1170.0600585938</ele>
        <time>2010-10-10T10:46:16Z</time>
      </trkpt>
      <trkpt lat="43.80955" lon="7.43188">
        <ele>1172.4699707031</ele>
        <time>2010-10-10T10:46:26Z</time>
      </trkpt>
      <trkpt lat="43.80954" lon="7.43185">
        <ele>1173.4300537109</ele>
        <time>2010-10-10T10:46:28Z</time>
      </trkpt>
      <trkpt lat="43.80956" lon="7.43182">
        <ele>1174.3900146484</ele>
        <time>2010-10-10T10:46:42Z</time>
      </trkpt>
      <trkpt lat="43.80956" lon="7.43174">
        <ele>1177.75</ele>
        <time>2010-10-10T10:46:54Z</time>
      </trkpt>
      <trkpt lat="43.80954" lon="7.43162">
        <ele>1181.1199951172</ele>
        <time>2010-10-10T10:47:09Z</time>
      </trkpt>
      <trkpt lat="43.80954" lon="7.43159">
        <ele>1182.5600585938</ele>
        <time>2010-10-10T10:47:12Z</time>
      </trkpt>
      <trkpt lat="43.80953" lon="7.43151">
        <ele>1185.4399414062</ele>
        <time>2010-10-10T10:47:25Z</time>
      </trkpt>
      <trkpt lat="43.8095" lon="7.4315">
        <ele>1188.8100585938</ele>
        <time>2010-10-10T10:47:35Z</time>
      </trkpt>
      <trkpt lat="43.8095" lon="7.43146">
        <ele>1189.7700195312</ele>
        <time>2010-10-10T10:47:41Z</time>
      </trkpt>
      <trkpt lat="43.80947" lon="7.43137">
        <ele>1193.1300048828</ele>
        <time>2010-10-10T10:47:50Z</time>
      </trkpt>
      <trkpt lat="43.80947" lon="7.43136">
        <ele>1192.6500244141</ele>
        <time>2010-10-10T10:47:51Z</time>
      </trkpt>
      <trkpt lat="43.80947" lon="7.43128">
        <ele>1194.5799560547</ele>
        <time>2010-10-10T10:47:59Z</time>
      </trkpt>
      <trkpt lat="43.80946" lon="7.43117">
        <ele>1197.9399414062</ele>
        <time>2010-10-10T10:48:13Z</time>
      </trkpt>
      <trkpt lat="43.80947" lon="7.43111">
        <ele>1199.8599853516</ele>
        <time>2010-10-10T10:48:21Z</time>
      </trkpt>
      <trkpt lat="43.80945" lon="7.43099">
        <ele>1203.2299804688</ele>
        <time>2010-10-10T10:48:34Z</time>
      </trkpt>
      <trkpt lat="43.80945" lon="7.43097">
        <ele>1204.6700439453</ele>
        <time>2010-10-10T10:48:40Z</time>
      </trkpt>
      <trkpt lat="43.80944" lon="7.43084">
        <ele>1208.0300292969</ele>
        <time>2010-10-10T10:48:53Z</time>
      </trkpt>
      <trkpt lat="43.80947" lon="7.43071">
        <ele>1210.9200439453</ele>
        <time>2010-10-10T10:49:07Z</time>
      </trkpt>
      <trkpt lat="43.80947" lon="7.43063">
        <ele>1213.8000488281</ele>
        <time>2010-10-10T10:49:16Z</time>
      </trkpt>
      <trkpt lat="43.80946" lon="7.4305">
        <ele>1217.6500244141</ele>
        <time>2010-10-10T10:49:29Z</time>
      </trkpt>
      <trkpt lat="43.8094" lon="7.43049">
        <ele>1219.0899658203</ele>
        <time>2010-10-10T10:49:43Z</time>
      </trkpt>
      <trkpt lat="43.80942" lon="7.43036">
        <ele>1222.4499511719</ele>
        <time>2010-10-10T10:49:54Z</time>
      </trkpt>
      <trkpt lat="43.80942" lon="7.43027">
        <ele>1224.8599853516</ele>
        <time>2010-10-10T10:50:03Z</time>
      </trkpt>
      <trkpt lat="43.80939" lon="7.43011">
        <ele>1229.1800537109</ele>
        <time>2010-10-10T10:50:19Z</time>
      </trkpt>
      <trkpt lat="43.80939" lon="7.43003">
        <ele>1233.0300292969</ele>
        <time>2010-10-10T10:50:32Z</time>
      </trkpt>
      <trkpt lat="43.80941" lon="7.43002">
        <ele>1232.0699462891</ele>
        <time>2010-10-10T10:50:34Z</time>
      </trkpt>
      <trkpt lat="43.80947" lon="7.42992">
        <ele>1236.3900146484</ele>
        <time>2010-10-10T10:50:47Z</time>
      </trkpt>
      <trkpt lat="43.80947" lon="7.42992">
        <ele>1236.3900146484</ele>
        <time>2010-10-10T10:50:48Z</time>
      </trkpt>
      <trkpt lat="43.80952" lon="7.42977">
        <ele>1239.7600097656</ele>
        <time>2010-10-10T10:51:04Z</time>
      </trkpt>
      <trkpt lat="43.80956" lon="7.42964">
        <ele>1243.1199951172</ele>
        <time>2010-10-10T10:51:19Z</time>
      </trkpt>
      <trkpt lat="43.80956" lon="7.42963">
        <ele>1244.0799560547</ele>
        <time>2010-10-10T10:51:21Z</time>
      </trkpt>
      <trkpt lat="43.80955" lon="7.4296">
        <ele>1244.0799560547</ele>
        <time>2010-10-10T10:51:23Z</time>
      </trkpt>
      <trkpt lat="43.80957" lon="7.42944">
        <ele>1247.4499511719</ele>
        <time>2010-10-10T10:51:36Z</time>
      </trkpt>
      <trkpt lat="43.80959" lon="7.42925">
        <ele>1249.3699951172</ele>
        <time>2010-10-10T10:51:50Z</time>
      </trkpt>
      <trkpt lat="43.80959" lon="7.42921">
        <ele>1250.8100585938</ele>
        <time>2010-10-10T10:51:54Z</time>
      </trkpt>
      <trkpt lat="43.80954" lon="7.42906">
        <ele>1254.1800537109</ele>
        <time>2010-10-10T10:52:07Z</time>
      </trkpt>
      <trkpt lat="43.80953" lon="7.42904">
        <ele>1255.1400146484</ele>
        <time>2010-10-10T10:52:09Z</time>
      </trkpt>
      <trkpt lat="43.80954" lon="7.42898">
        <ele>1254.6600341797</ele>
        <time>2010-10-10T10:52:19Z</time>
      </trkpt>
      <trkpt lat="43.80954" lon="7.42885">
        <ele>1251.7700195312</ele>
        <time>2010-10-10T10:52:27Z</time>
      </trkpt>
      <trkpt lat="43.80954" lon="7.42878">
        <ele>1251.2900390625</ele>
        <time>2010-10-10T10:52:30Z</time>
      </trkpt>
      <trkpt lat="43.80954" lon="7.4287">
        <ele>1248.4100341797</ele>
        <time>2010-10-10T10:52:34Z</time>
      </trkpt>
      <trkpt lat="43.80958" lon="7.42862">
        <ele>1244.5600585938</ele>
        <time>2010-10-10T10:52:38Z</time>
      </trkpt>
      <trkpt lat="43.80959" lon="7.4286">
        <ele>1244.5600585938</ele>
        <time>2010-10-10T10:52:39Z</time>
      </trkpt>
      <trkpt lat="43.80965" lon="7.42846">
        <ele>1241.1999511719</ele>
        <time>2010-10-10T10:52:44Z</time>
      </trkpt>
      <trkpt lat="43.80966" lon="7.42843">
        <ele>1241.1999511719</ele>
        <time>2010-10-10T10:52:45Z</time>
      </trkpt>
      <trkpt lat="43.80968" lon="7.42837">
        <ele>1239.7600097656</ele>
        <time>2010-10-10T10:52:47Z</time>
      </trkpt>
      <trkpt lat="43.80972" lon="7.4283">
        <ele>1237.8299560547</ele>
        <time>2010-10-10T10:52:50Z</time>
      </trkpt>
      <trkpt lat="43.80979" lon="7.42815">
        <ele>1235.9100341797</ele>
        <time>2010-10-10T10:52:55Z</time>
      </trkpt>
      <trkpt lat="43.80981" lon="7.42796">
        <ele>1235.4300537109</ele>
        <time>2010-10-10T10:53:04Z</time>
      </trkpt>
      <trkpt lat="43.80986" lon="7.42789">
        <ele>1232.5500488281</ele>
        <time>2010-10-10T10:53:10Z</time>
      </trkpt>
      <trkpt lat="43.80988" lon="7.42777">
        <ele>1229.1800537109</ele>
        <time>2010-10-10T10:53:18Z</time>
      </trkpt>
      <trkpt lat="43.80989" lon="7.42771">
        <ele>1227.7399902344</ele>
        <time>2010-10-10T10:53:22Z</time>
      </trkpt>
      <trkpt lat="43.8099" lon="7.42765">
        <ele>1226.7800292969</ele>
        <time>2010-10-10T10:53:26Z</time>
      </trkpt>
      <trkpt lat="43.80993" lon="7.42759">
        <ele>1224.8599853516</ele>
        <time>2010-10-10T10:53:32Z</time>
      </trkpt>
      <trkpt lat="43.80994" lon="7.42757">
        <ele>1223.4200439453</ele>
        <time>2010-10-10T10:53:35Z</time>
      </trkpt>
      <trkpt lat="43.80994" lon="7.42755">
        <ele>1222.4499511719</ele>
        <time>2010-10-10T10:53:37Z</time>
      </trkpt>
      <trkpt lat="43.80996" lon="7.42747">
        <ele>1221.0100097656</ele>
        <time>2010-10-10T10:53:41Z</time>
      </trkpt>
      <trkpt lat="43.80997" lon="7.4274">
        <ele>1221.0100097656</ele>
        <time>2010-10-10T10:53:45Z</time>
      </trkpt>
      <trkpt lat="43.80997" lon="7.42731">
        <ele>1219.0899658203</ele>
        <time>2010-10-10T10:53:51Z</time>
      </trkpt>
      <trkpt lat="43.81" lon="7.42721">
        <ele>1214.2800292969</ele>
        <time>2010-10-10T10:53:57Z</time>
      </trkpt>
      <trkpt lat="43.81001" lon="7.42719">
        <ele>1214.2800292969</ele>
        <time>2010-10-10T10:53:58Z</time>
      </trkpt>
      <trkpt lat="43.81004" lon="7.42704">
        <ele>1210.9200439453</ele>
        <time>2010-10-10T10:54:05Z</time>
      </trkpt>
      <trkpt lat="43.80998" lon="7.42687">
        <ele>1208.5100097656</ele>
        <time>2010-10-10T10:54:11Z</time>
      </trkpt>
      <trkpt lat="43.80996" lon="7.42668">
        <ele>1205.6300048828</ele>
        <time>2010-10-10T10:54:16Z</time>
      </trkpt>
      <trkpt lat="43.80999" lon="7.4265">
        <ele>1202.75</ele>
        <time>2010-10-10T10:54:21Z</time>
      </trkpt>
      <trkpt lat="43.80993" lon="7.42633">
        <ele>1203.2299804688</ele>
        <time>2010-10-10T10:54:32Z</time>
      </trkpt>
      <trkpt lat="43.80993" lon="7.42632">
        <ele>1201.7900390625</ele>
        <time>2010-10-10T10:54:33Z</time>
      </trkpt>
      <trkpt lat="43.80992" lon="7.42626">
        <ele>1199.8599853516</ele>
        <time>2010-10-10T10:54:37Z</time>
      </trkpt>
      <trkpt lat="43.8099" lon="7.42614">
        <ele>1197.9399414062</ele>
        <time>2010-10-10T10:54:42Z</time>
      </trkpt>
      <trkpt lat="43.80988" lon="7.42603">
        <ele>1197.4599609375</ele>
        <time>2010-10-10T10:54:45Z</time>
      </trkpt>
      <trkpt lat="43.80982" lon="7.42575">
        <ele>1193.6099853516</ele>
        <time>2010-10-10T10:54:54Z</time>
      </trkpt>
      <trkpt lat="43.80982" lon="7.42569">
        <ele>1193.1300048828</ele>
        <time>2010-10-10T10:54:57Z</time>
      </trkpt>
      <trkpt lat="43.8098" lon="7.42565">
        <ele>1191.6899414062</ele>
        <time>2010-10-10T10:55:02Z</time>
      </trkpt>
      <trkpt lat="43.80979" lon="7.42565">
        <ele>1190.7299804688</ele>
        <time>2010-10-10T10:55:04Z</time>
      </trkpt>
      <trkpt lat="43.80977" lon="7.42564">
        <ele>1189.2900390625</ele>
        <time>2010-10-10T10:55:07Z</time>
      </trkpt>
      <trkpt lat="43.80973" lon="7.42561">
        <ele>1188.3299560547</ele>
        <time>2010-10-10T10:55:11Z</time>
      </trkpt>
      <trkpt lat="43.80971" lon="7.4256">
        <ele>1187.8499755859</ele>
        <time>2010-10-10T10:55:13Z</time>
      </trkpt>
      <trkpt lat="43.80968" lon="7.42563">
        <ele>1184.9599609375</ele>
        <time>2010-10-10T10:55:17Z</time>
      </trkpt>
      <trkpt lat="43.80966" lon="7.42565">
        <ele>1184.9599609375</ele>
        <time>2010-10-10T10:55:20Z</time>
      </trkpt>
      <trkpt lat="43.80966" lon="7.42577">
        <ele>1181.5999755859</ele>
        <time>2010-10-10T10:55:28Z</time>
      </trkpt>
      <trkpt lat="43.80966" lon="7.42579">
        <ele>1180.6400146484</ele>
        <time>2010-10-10T10:55:30Z</time>
      </trkpt>
      <trkpt lat="43.80963" lon="7.42582">
        <ele>1179.1899414062</ele>
        <time>2010-10-10T10:55:34Z</time>
      </trkpt>
      <trkpt lat="43.80962" lon="7.42584">
        <ele>1177.75</ele>
        <time>2010-10-10T10:55:36Z</time>
      </trkpt>
      <trkpt lat="43.80958" lon="7.42588">
        <ele>1175.3499755859</ele>
        <time>2010-10-10T10:55:42Z</time>
      </trkpt>
      <trkpt lat="43.80956" lon="7.4259">
        <ele>1174.3900146484</ele>
        <time>2010-10-10T10:55:44Z</time>
      </trkpt>
      <trkpt lat="43.80955" lon="7.42592">
        <ele>1173.4300537109</ele>
        <time>2010-10-10T10:55:46Z</time>
      </trkpt>
      <trkpt lat="43.80953" lon="7.42598">
        <ele>1171.9799804688</ele>
        <time>2010-10-10T10:55:49Z</time>
      </trkpt>
      <trkpt lat="43.80946" lon="7.42613">
        <ele>1167.6600341797</ele>
        <time>2010-10-10T10:55:56Z</time>
      </trkpt>
      <trkpt lat="43.80941" lon="7.42617">
        <ele>1166.2199707031</ele>
        <time>2010-10-10T10:55:59Z</time>
      </trkpt>
      <trkpt lat="43.80933" lon="7.42621">
        <ele>1162.8499755859</ele>
        <time>2010-10-10T10:56:03Z</time>
      </trkpt>
      <trkpt lat="43.80931" lon="7.42621">
        <ele>1162.3699951172</ele>
        <time>2010-10-10T10:56:04Z</time>
      </trkpt>
      <trkpt lat="43.80915" lon="7.42624">
        <ele>1159.9699707031</ele>
        <time>2010-10-10T10:56:10Z</time>
      </trkpt>
      <trkpt lat="43.80907" lon="7.42626">
        <ele>1157.5600585938</ele>
        <time>2010-10-10T10:56:13Z</time>
      </trkpt>
      <trkpt lat="43.80894" lon="7.42636">
        <ele>1157.0799560547</ele>
        <time>2010-10-10T10:56:24Z</time>
      </trkpt>
      <trkpt lat="43.80888" lon="7.42636">
        <ele>1156.5999755859</ele>
        <time>2010-10-10T10:56:28Z</time>
      </trkpt>
      <trkpt lat="43.80878" lon="7.4264">
        <ele>1156.1199951172</ele>
        <time>2010-10-10T10:56:33Z</time>
      </trkpt>
      <trkpt lat="43.80876" lon="7.42642">
        <ele>1155.6400146484</ele>
        <time>2010-10-10T10:56:35Z</time>
      </trkpt>
      <trkpt lat="43.80874" lon="7.42648">
        <ele>1155.1600341797</ele>
        <time>2010-10-10T10:56:39Z</time>
      </trkpt>
      <trkpt lat="43.80875" lon="7.42654">
        <ele>1154.6800537109</ele>
        <time>2010-10-10T10:56:42Z</time>
      </trkpt>
      <trkpt lat="43.80876" lon="7.42659">
        <ele>1153.2399902344</ele>
        <time>2010-10-10T10:56:45Z</time>
      </trkpt>
      <trkpt lat="43.80876" lon="7.42665">
        <ele>1151.8000488281</ele>
        <time>2010-10-10T10:56:49Z</time>
      </trkpt>
      <trkpt lat="43.80875" lon="7.42673">
        <ele>1148.9100341797</ele>
        <time>2010-10-10T10:56:53Z</time>
      </trkpt>
      <trkpt lat="43.80874" lon="7.4268">
        <ele>1147.4699707031</ele>
        <time>2010-10-10T10:56:56Z</time>
      </trkpt>
      <trkpt lat="43.80873" lon="7.42682">
        <ele>1146.5100097656</ele>
        <time>2010-10-10T10:56:57Z</time>
      </trkpt>
      <trkpt lat="43.80879" lon="7.42701">
        <ele>1145.0699462891</ele>
        <time>2010-10-10T10:57:05Z</time>
      </trkpt>
      <trkpt lat="43.80881" lon="7.42721">
        <ele>1142.6600341797</ele>
        <time>2010-10-10T10:57:14Z</time>
      </trkpt>
      <trkpt lat="43.80877" lon="7.42734">
        <ele>1142.6600341797</ele>
        <time>2010-10-10T10:57:19Z</time>
      </trkpt>
      <trkpt lat="43.80872" lon="7.42745">
        <ele>1143.1400146484</ele>
        <time>2010-10-10T10:57:23Z</time>
      </trkpt>
      <trkpt lat="43.80862" lon="7.42755">
        <ele>1144.5899658203</ele>
        <time>2010-10-10T10:57:30Z</time>
      </trkpt>
      <trkpt lat="43.8086" lon="7.42758">
        <ele>1143.6300048828</ele>
        <time>2010-10-10T10:57:32Z</time>
      </trkpt>
      <trkpt lat="43.80856" lon="7.42762">
        <ele>1144.1099853516</ele>
        <time>2010-10-10T10:57:35Z</time>
      </trkpt>
      <trkpt lat="43.80854" lon="7.4277">
        <ele>1140.2600097656</ele>
        <time>2010-10-10T10:57:40Z</time>
      </trkpt>
      <trkpt lat="43.80853" lon="7.42774">
        <ele>1137.3800048828</ele>
        <time>2010-10-10T10:57:44Z</time>
      </trkpt>
      <trkpt lat="43.80851" lon="7.42775">
        <ele>1138.3399658203</ele>
        <time>2010-10-10T10:57:47Z</time>
      </trkpt>
      <trkpt lat="43.8085" lon="7.42776">
        <ele>1137.8599853516</ele>
        <time>2010-10-10T10:57:49Z</time>
      </trkpt>
      <trkpt lat="43.8085" lon="7.42778">
        <ele>1135.9399414062</ele>
        <time>2010-10-10T10:57:51Z</time>
      </trkpt>
      <trkpt lat="43.80847" lon="7.42786">
        <ele>1132.5699462891</ele>
        <time>2010-10-10T10:57:56Z</time>
      </trkpt>
      <trkpt lat="43.80846" lon="7.42789">
        <ele>1132.5699462891</ele>
        <time>2010-10-10T10:57:57Z</time>
      </trkpt>
      <trkpt lat="43.80846" lon="7.42795">
        <ele>1132.5699462891</ele>
        <time>2010-10-10T10:57:59Z</time>
      </trkpt>
      <trkpt lat="43.80849" lon="7.42806">
        <ele>1129.6899414062</ele>
        <time>2010-10-10T10:58:04Z</time>
      </trkpt>
      <trkpt lat="43.80849" lon="7.42807">
        <ele>1129.2099609375</ele>
        <time>2010-10-10T10:58:05Z</time>
      </trkpt>
      <trkpt lat="43.80849" lon="7.42813">
        <ele>1128.2399902344</ele>
        <time>2010-10-10T10:58:11Z</time>
      </trkpt>
      <trkpt lat="43.80848" lon="7.42816">
        <ele>1126.3199462891</ele>
        <time>2010-10-10T10:58:14Z</time>
      </trkpt>
      <trkpt lat="43.80847" lon="7.42817">
        <ele>1125.3599853516</ele>
        <time>2010-10-10T10:58:15Z</time>
      </trkpt>
      <trkpt lat="43.80845" lon="7.42818">
        <ele>1124.4000244141</ele>
        <time>2010-10-10T10:58:17Z</time>
      </trkpt>
      <trkpt lat="43.80843" lon="7.42818">
        <ele>1123.4399414062</ele>
        <time>2010-10-10T10:58:19Z</time>
      </trkpt>
      <trkpt lat="43.80838" lon="7.42826">
        <ele>1121.0300292969</ele>
        <time>2010-10-10T10:58:25Z</time>
      </trkpt>
      <trkpt lat="43.80838" lon="7.4283">
        <ele>1119.1099853516</ele>
        <time>2010-10-10T10:58:27Z</time>
      </trkpt>
      <trkpt lat="43.8084" lon="7.42844">
        <ele>1114.7900390625</ele>
        <time>2010-10-10T10:58:34Z</time>
      </trkpt>
      <trkpt lat="43.8084" lon="7.42846">
        <ele>1115.2700195312</ele>
        <time>2010-10-10T10:58:35Z</time>
      </trkpt>
      <trkpt lat="43.8084" lon="7.42852">
        <ele>1112.8599853516</ele>
        <time>2010-10-10T10:58:38Z</time>
      </trkpt>
      <trkpt lat="43.8084" lon="7.42855">
        <ele>1111.9000244141</ele>
        <time>2010-10-10T10:58:40Z</time>
      </trkpt>
      <trkpt lat="43.80839" lon="7.42862">
        <ele>1109.0200195312</ele>
        <time>2010-10-10T10:58:44Z</time>
      </trkpt>
      <trkpt lat="43.80836" lon="7.42869">
        <ele>1107.5799560547</ele>
        <time>2010-10-10T10:58:49Z</time>
      </trkpt>
      <trkpt lat="43.80829" lon="7.4287">
        <ele>1104.2099609375</ele>
        <time>2010-10-10T10:59:01Z</time>
      </trkpt>
      <trkpt lat="43.80828" lon="7.42871">
        <ele>1104.6899414062</ele>
        <time>2010-10-10T10:59:03Z</time>
      </trkpt>
      <trkpt lat="43.80825" lon="7.4287">
        <ele>1101.8100585938</ele>
        <time>2010-10-10T10:59:07Z</time>
      </trkpt>
      <trkpt lat="43.80822" lon="7.42871">
        <ele>1100.8499755859</ele>
        <time>2010-10-10T10:59:11Z</time>
      </trkpt>
      <trkpt lat="43.8082" lon="7.42877">
        <ele>1099.4000244141</ele>
        <time>2010-10-10T10:59:15Z</time>
      </trkpt>
      <trkpt lat="43.8082" lon="7.42882">
        <ele>1097.4799804688</ele>
        <time>2010-10-10T10:59:20Z</time>
      </trkpt>
      <trkpt lat="43.80819" lon="7.42891">
        <ele>1095.5600585938</ele>
        <time>2010-10-10T10:59:28Z</time>
      </trkpt>
      <trkpt lat="43.80817" lon="7.42894">
        <ele>1094.5999755859</ele>
        <time>2010-10-10T10:59:30Z</time>
      </trkpt>
      <trkpt lat="43.80814" lon="7.42893">
        <ele>1092.6800537109</ele>
        <time>2010-10-10T10:59:34Z</time>
      </trkpt>
      <trkpt lat="43.80811" lon="7.4289">
        <ele>1089.7900390625</ele>
        <time>2010-10-10T10:59:37Z</time>
      </trkpt>
      <trkpt lat="43.8081" lon="7.4289">
        <ele>1089.7900390625</ele>
        <time>2010-10-10T10:59:38Z</time>
      </trkpt>
      <trkpt lat="43.80808" lon="7.42892">
        <ele>1088.8299560547</ele>
        <time>2010-10-10T10:59:40Z</time>
      </trkpt>
      <trkpt lat="43.80806" lon="7.42892">
        <ele>1086.9100341797</ele>
        <time>2010-10-10T10:59:44Z</time>
      </trkpt>
      <trkpt lat="43.80805" lon="7.42891">
        <ele>1086.4300537109</ele>
        <time>2010-10-10T10:59:45Z</time>
      </trkpt>
      <trkpt lat="43.80803" lon="7.42893">
        <ele>1084.5</ele>
        <time>2010-10-10T10:59:49Z</time>
      </trkpt>
      <trkpt lat="43.80799" lon="7.429">
        <ele>1081.1400146484</ele>
        <time>2010-10-10T10:59:55Z</time>
      </trkpt>
      <trkpt lat="43.80798" lon="7.42898">
        <ele>1079.6999511719</ele>
        <time>2010-10-10T10:59:57Z</time>
      </trkpt>
      <trkpt lat="43.80796" lon="7.42896">
        <ele>1077.7800292969</ele>
        <time>2010-10-10T11:00:00Z</time>
      </trkpt>
      <trkpt lat="43.80793" lon="7.42895">
        <ele>1075.8499755859</ele>
        <time>2010-10-10T11:00:03Z</time>
      </trkpt>
      <trkpt lat="43.80791" lon="7.42893">
        <ele>1073.9300537109</ele>
        <time>2010-10-10T11:00:05Z</time>
      </trkpt>
      <trkpt lat="43.8079" lon="7.4289">
        <ele>1073.4499511719</ele>
        <time>2010-10-10T11:00:08Z</time>
      </trkpt>
      <trkpt lat="43.80788" lon="7.42883">
        <ele>1070.0799560547</ele>
        <time>2010-10-10T11:00:12Z</time>
      </trkpt>
      <trkpt lat="43.80788" lon="7.4288">
        <ele>1070.5699462891</ele>
        <time>2010-10-10T11:00:13Z</time>
      </trkpt>
      <trkpt lat="43.80787" lon="7.42871">
        <ele>1069.1199951172</ele>
        <time>2010-10-10T11:00:16Z</time>
      </trkpt>
      <trkpt lat="43.80783" lon="7.42844">
        <ele>1065.2800292969</ele>
        <time>2010-10-10T11:00:25Z</time>
      </trkpt>
      <trkpt lat="43.80783" lon="7.42838">
        <ele>1064.8000488281</ele>
        <time>2010-10-10T11:00:27Z</time>
      </trkpt>
      <trkpt lat="43.8078" lon="7.42828">
        <ele>1061.4300537109</ele>
        <time>2010-10-10T11:00:32Z</time>
      </trkpt>
      <trkpt lat="43.80778" lon="7.42814">
        <ele>1060.9499511719</ele>
        <time>2010-10-10T11:00:38Z</time>
      </trkpt>
      <trkpt lat="43.80779" lon="7.42807">
        <ele>1059.5100097656</ele>
        <time>2010-10-10T11:00:41Z</time>
      </trkpt>
      <trkpt lat="43.80779" lon="7.42804">
        <ele>1059.0300292969</ele>
        <time>2010-10-10T11:00:43Z</time>
      </trkpt>
      <trkpt lat="43.80776" lon="7.42798">
        <ele>1056.6300048828</ele>
        <time>2010-10-10T11:00:47Z</time>
      </trkpt>
      <trkpt lat="43.80774" lon="7.42783">
        <ele>1053.2600097656</ele>
        <time>2010-10-10T11:00:53Z</time>
      </trkpt>
      <trkpt lat="43.80772" lon="7.42778">
        <ele>1052.3000488281</ele>
        <time>2010-10-10T11:00:55Z</time>
      </trkpt>
      <trkpt lat="43.8077" lon="7.42773">
        <ele>1051.8199462891</ele>
        <time>2010-10-10T11:00:57Z</time>
      </trkpt>
      <trkpt lat="43.80766" lon="7.42763">
        <ele>1047.9699707031</ele>
        <time>2010-10-10T11:01:02Z</time>
      </trkpt>
      <trkpt lat="43.80761" lon="7.42753">
        <ele>1046.0500488281</ele>
        <time>2010-10-10T11:01:06Z</time>
      </trkpt>
      <trkpt lat="43.80753" lon="7.42742">
        <ele>1042.6899414062</ele>
        <time>2010-10-10T11:01:12Z</time>
      </trkpt>
      <trkpt lat="43.80751" lon="7.42735">
        <ele>1042.2099609375</ele>
        <time>2010-10-10T11:01:15Z</time>
      </trkpt>
      <trkpt lat="43.8075" lon="7.42725">
        <ele>1038.8399658203</ele>
        <time>2010-10-10T11:01:19Z</time>
      </trkpt>
      <trkpt lat="43.80747" lon="7.42718">
        <ele>1037.4000244141</ele>
        <time>2010-10-10T11:01:22Z</time>
      </trkpt>
      <trkpt lat="43.80745" lon="7.42713">
        <ele>1036.4399414062</ele>
        <time>2010-10-10T11:01:24Z</time>
      </trkpt>
      <trkpt lat="43.80744" lon="7.42704">
        <ele>1034.5200195312</ele>
        <time>2010-10-10T11:01:27Z</time>
      </trkpt>
      <trkpt lat="43.80744" lon="7.42699">
        <ele>1034.0400390625</ele>
        <time>2010-10-10T11:01:29Z</time>
      </trkpt>
      <trkpt lat="43.80743" lon="7.42691">
        <ele>1031.6300048828</ele>
        <time>2010-10-10T11:01:33Z</time>
      </trkpt>
      <trkpt lat="43.80736" lon="7.42682">
        <ele>1028.2700195312</ele>
        <time>2010-10-10T11:01:39Z</time>
      </trkpt>
      <trkpt lat="43.80733" lon="7.42674">
        <ele>1025.8599853516</ele>
        <time>2010-10-10T11:01:42Z</time>
      </trkpt>
      <trkpt lat="43.8073" lon="7.42664">
        <ele>1023.4600219727</ele>
        <time>2010-10-10T11:01:46Z</time>
      </trkpt>
      <trkpt lat="43.80726" lon="7.42658">
        <ele>1021.0599975586</ele>
        <time>2010-10-10T11:01:49Z</time>
      </trkpt>
      <trkpt lat="43.80718" lon="7.42642">
        <ele>1016.7299804688</ele>
        <time>2010-10-10T11:01:55Z</time>
      </trkpt>
      <trkpt lat="43.80715" lon="7.42631">
        <ele>1015.2899780273</ele>
        <time>2010-10-10T11:01:58Z</time>
      </trkpt>
      <trkpt lat="43.80714" lon="7.42623">
        <ele>1013.8499755859</ele>
        <time>2010-10-10T11:02:00Z</time>
      </trkpt>
      <trkpt lat="43.80711" lon="7.42603">
        <ele>1010.9600219727</ele>
        <time>2010-10-10T11:02:05Z</time>
      </trkpt>
      <trkpt lat="43.80708" lon="7.42593">
        <ele>1009.0399780273</ele>
        <time>2010-10-10T11:02:09Z</time>
      </trkpt>
      <trkpt lat="43.80703" lon="7.42587">
        <ele>1006.1599731445</ele>
        <time>2010-10-10T11:02:13Z</time>
      </trkpt>
      <trkpt lat="43.80697" lon="7.42581">
        <ele>1003.2700195312</ele>
        <time>2010-10-10T11:02:18Z</time>
      </trkpt>
      <trkpt lat="43.8069" lon="7.42569">
        <ele>1000.3900146484</ele>
        <time>2010-10-10T11:02:25Z</time>
      </trkpt>
      <trkpt lat="43.80689" lon="7.4257">
        <ele>999.42999267578</ele>
        <time>2010-10-10T11:02:26Z</time>
      </trkpt>
      <trkpt lat="43.80687" lon="7.42571">
        <ele>997.98999023438</ele>
        <time>2010-10-10T11:02:28Z</time>
      </trkpt>
      <trkpt lat="43.8068" lon="7.42552">
        <ele>994.61999511719</ele>
        <time>2010-10-10T11:02:36Z</time>
      </trkpt>
      <trkpt lat="43.8068" lon="7.42548">
        <ele>993.65997314453</ele>
        <time>2010-10-10T11:02:37Z</time>
      </trkpt>
      <trkpt lat="43.80677" lon="7.42536">
        <ele>991.26000976562</ele>
        <time>2010-10-10T11:02:41Z</time>
      </trkpt>
      <trkpt lat="43.80669" lon="7.42524">
        <ele>987.89001464844</ele>
        <time>2010-10-10T11:02:46Z</time>
      </trkpt>
      <trkpt lat="43.80661" lon="7.42517">
        <ele>985.96997070312</ele>
        <time>2010-10-10T11:02:50Z</time>
      </trkpt>
      <trkpt lat="43.80657" lon="7.42515">
        <ele>984.53002929688</ele>
        <time>2010-10-10T11:02:52Z</time>
      </trkpt>
      <trkpt lat="43.80643" lon="7.42513">
        <ele>982.11999511719</ele>
        <time>2010-10-10T11:02:58Z</time>
      </trkpt>
      <trkpt lat="43.80634" lon="7.42511">
        <ele>979.23999023438</ele>
        <time>2010-10-10T11:03:02Z</time>
      </trkpt>
      <trkpt lat="43.80629" lon="7.42511">
        <ele>978.28002929688</ele>
        <time>2010-10-10T11:03:04Z</time>
      </trkpt>
      <trkpt lat="43.80621" lon="7.4251">
        <ele>976.35998535156</ele>
        <time>2010-10-10T11:03:07Z</time>
      </trkpt>
      <trkpt lat="43.80592" lon="7.42499">
        <ele>973.46997070312</ele>
        <time>2010-10-10T11:03:18Z</time>
      </trkpt>
      <trkpt lat="43.8057" lon="7.42487">
        <ele>972.98999023438</ele>
        <time>2010-10-10T11:03:27Z</time>
      </trkpt>
      <trkpt lat="43.8055" lon="7.42471">
        <ele>969.63000488281</ele>
        <time>2010-10-10T11:03:37Z</time>
      </trkpt>
      <trkpt lat="43.80535" lon="7.42452">
        <ele>968.17999267578</ele>
        <time>2010-10-10T11:03:47Z</time>
      </trkpt>
      <trkpt lat="43.80531" lon="7.42444">
        <ele>968.17999267578</ele>
        <time>2010-10-10T11:03:50Z</time>
      </trkpt>
      <trkpt lat="43.80515" lon="7.42424">
        <ele>964.34002685547</ele>
        <time>2010-10-10T11:03:58Z</time>
      </trkpt>
      <trkpt lat="43.80505" lon="7.42417">
        <ele>963.85998535156</ele>
        <time>2010-10-10T11:04:05Z</time>
      </trkpt>
      <trkpt lat="43.80487" lon="7.42406">
        <ele>960.48999023438</ele>
        <time>2010-10-10T11:04:12Z</time>
      </trkpt>
      <trkpt lat="43.8046" lon="7.42389">
        <ele>957.13000488281</ele>
        <time>2010-10-10T11:04:20Z</time>
      </trkpt>
      <trkpt lat="43.80445" lon="7.42373">
        <ele>953.28002929688</ele>
        <time>2010-10-10T11:04:25Z</time>
      </trkpt>
      <trkpt lat="43.8044" lon="7.42367">
        <ele>951.35998535156</ele>
        <time>2010-10-10T11:04:27Z</time>
      </trkpt>
      <trkpt lat="43.80435" lon="7.42363">
        <ele>950.88000488281</ele>
        <time>2010-10-10T11:04:29Z</time>
      </trkpt>
      <trkpt lat="43.80432" lon="7.42362">
        <ele>950.88000488281</ele>
        <time>2010-10-10T11:04:30Z</time>
      </trkpt>
      <trkpt lat="43.80406" lon="7.42361">
        <ele>946.07000732422</ele>
        <time>2010-10-10T11:04:39Z</time>
      </trkpt>
      <trkpt lat="43.80397" lon="7.42365">
        <ele>944.63000488281</ele>
        <time>2010-10-10T11:04:43Z</time>
      </trkpt>
      <trkpt lat="43.80378" lon="7.42362">
        <ele>939.34997558594</ele>
        <time>2010-10-10T11:04:50Z</time>
      </trkpt>
      <trkpt lat="43.80375" lon="7.42361">
        <ele>938.38000488281</ele>
        <time>2010-10-10T11:04:51Z</time>
      </trkpt>
      <trkpt lat="43.80359" lon="7.42348">
        <ele>933.58001708984</ele>
        <time>2010-10-10T11:04:58Z</time>
      </trkpt>
      <trkpt lat="43.80355" lon="7.42346">
        <ele>933.09997558594</ele>
        <time>2010-10-10T11:05:00Z</time>
      </trkpt>
      <trkpt lat="43.80351" lon="7.42344">
        <ele>932.14001464844</ele>
        <time>2010-10-10T11:05:02Z</time>
      </trkpt>
      <trkpt lat="43.80345" lon="7.42338">
        <ele>930.21002197266</ele>
        <time>2010-10-10T11:05:06Z</time>
      </trkpt>
      <trkpt lat="43.80344" lon="7.42332">
        <ele>929.25</ele>
        <time>2010-10-10T11:05:08Z</time>
      </trkpt>
      <trkpt lat="43.80343" lon="7.42325">
        <ele>928.28997802734</ele>
        <time>2010-10-10T11:05:10Z</time>
      </trkpt>
      <trkpt lat="43.8034" lon="7.42322">
        <ele>928.28997802734</ele>
        <time>2010-10-10T11:05:12Z</time>
      </trkpt>
      <trkpt lat="43.80319" lon="7.42324">
        <ele>926.36999511719</ele>
        <time>2010-10-10T11:05:20Z</time>
      </trkpt>
      <trkpt lat="43.80314" lon="7.42329">
        <ele>925.89001464844</ele>
        <time>2010-10-10T11:05:32Z</time>
      </trkpt>
      <trkpt lat="43.80313" lon="7.42329">
        <ele>926.84997558594</ele>
        <time>2010-10-10T11:05:53Z</time>
      </trkpt>
      <trkpt lat="43.80313" lon="7.42331">
        <ele>923.96002197266</ele>
        <time>2010-10-10T11:05:56Z</time>
      </trkpt>
      <trkpt lat="43.80313" lon="7.42331">
        <ele>924.45001220703</ele>
        <time>2010-10-10T11:05:57Z</time>
      </trkpt>
      <trkpt lat="43.80314" lon="7.42339">
        <ele>924.45001220703</ele>
        <time>2010-10-10T11:06:01Z</time>
      </trkpt>
      <trkpt lat="43.80313" lon="7.42349">
        <ele>922.03997802734</ele>
        <time>2010-10-10T11:06:05Z</time>
      </trkpt>
      <trkpt lat="43.80308" lon="7.42355">
        <ele>918.20001220703</ele>
        <time>2010-10-10T11:06:08Z</time>
      </trkpt>
      <trkpt lat="43.80304" lon="7.42359">
        <ele>917.71997070312</ele>
        <time>2010-10-10T11:06:10Z</time>
      </trkpt>
      <trkpt lat="43.80293" lon="7.42362">
        <ele>915.30999755859</ele>
        <time>2010-10-10T11:06:14Z</time>
      </trkpt>
      <trkpt lat="43.80287" lon="7.42363">
        <ele>913.39001464844</ele>
        <time>2010-10-10T11:06:16Z</time>
      </trkpt>
      <trkpt lat="43.80277" lon="7.42368">
        <ele>910.03002929688</ele>
        <time>2010-10-10T11:06:20Z</time>
      </trkpt>
      <trkpt lat="43.80275" lon="7.42369">
        <ele>910.51000976562</ele>
        <time>2010-10-10T11:06:21Z</time>
      </trkpt>
      <trkpt lat="43.80268" lon="7.42371">
        <ele>908.58001708984</ele>
        <time>2010-10-10T11:06:24Z</time>
      </trkpt>
      <trkpt lat="43.80266" lon="7.42372">
        <ele>906.65997314453</ele>
        <time>2010-10-10T11:06:25Z</time>
      </trkpt>
      <trkpt lat="43.80249" lon="7.42386">
        <ele>900.89001464844</ele>
        <time>2010-10-10T11:06:34Z</time>
      </trkpt>
      <trkpt lat="43.80247" lon="7.42389">
        <ele>901.36999511719</ele>
        <time>2010-10-10T11:06:35Z</time>
      </trkpt>
      <trkpt lat="43.80246" lon="7.42391">
        <ele>900.40997314453</ele>
        <time>2010-10-10T11:06:36Z</time>
      </trkpt>
      <trkpt lat="43.80241" lon="7.42394">
        <ele>897.53002929688</ele>
        <time>2010-10-10T11:06:38Z</time>
      </trkpt>
      <trkpt lat="43.80234" lon="7.424">
        <ele>895.11999511719</ele>
        <time>2010-10-10T11:06:42Z</time>
      </trkpt>
      <trkpt lat="43.80229" lon="7.42406">
        <ele>892.71997070312</ele>
        <time>2010-10-10T11:06:45Z</time>
      </trkpt>
      <trkpt lat="43.8022" lon="7.42416">
        <ele>890.79998779297</ele>
        <time>2010-10-10T11:06:50Z</time>
      </trkpt>
      <trkpt lat="43.80213" lon="7.42424">
        <ele>887.90997314453</ele>
        <time>2010-10-10T11:06:55Z</time>
      </trkpt>
      <trkpt lat="43.80207" lon="7.42429">
        <ele>885.98999023438</ele>
        <time>2010-10-10T11:06:58Z</time>
      </trkpt>
      <trkpt lat="43.80195" lon="7.42446">
        <ele>881.66998291016</ele>
        <time>2010-10-10T11:07:05Z</time>
      </trkpt>
      <trkpt lat="43.8019" lon="7.4245">
        <ele>880.71002197266</ele>
        <time>2010-10-10T11:07:07Z</time>
      </trkpt>
      <trkpt lat="43.80176" lon="7.42454">
        <ele>878.78002929688</ele>
        <time>2010-10-10T11:07:11Z</time>
      </trkpt>
      <trkpt lat="43.80158" lon="7.42453">
        <ele>875.90002441406</ele>
        <time>2010-10-10T11:07:17Z</time>
      </trkpt>
      <trkpt lat="43.80153" lon="7.42453">
        <ele>874.94000244141</ele>
        <time>2010-10-10T11:07:19Z</time>
      </trkpt>
      <trkpt lat="43.8014" lon="7.42457">
        <ele>872.53002929688</ele>
        <time>2010-10-10T11:07:24Z</time>
      </trkpt>
      <trkpt lat="43.80135" lon="7.42461">
        <ele>869.65002441406</ele>
        <time>2010-10-10T11:07:27Z</time>
      </trkpt>
      <trkpt lat="43.80133" lon="7.42462">
        <ele>868.69000244141</ele>
        <time>2010-10-10T11:07:28Z</time>
      </trkpt>
      <trkpt lat="43.80118" lon="7.42468">
        <ele>866.28997802734</ele>
        <time>2010-10-10T11:07:34Z</time>
      </trkpt>
      <trkpt lat="43.80091" lon="7.42465">
        <ele>863.88000488281</ele>
        <time>2010-10-10T11:07:44Z</time>
      </trkpt>
      <trkpt lat="43.80086" lon="7.42467">
        <ele>863.88000488281</ele>
        <time>2010-10-10T11:07:46Z</time>
      </trkpt>
      <trkpt lat="43.8008" lon="7.42472">
        <ele>862.44000244141</ele>
        <time>2010-10-10T11:07:49Z</time>
      </trkpt>
      <trkpt lat="43.80078" lon="7.42472">
        <ele>861.96002197266</ele>
        <time>2010-10-10T11:07:50Z</time>
      </trkpt>
      <trkpt lat="43.80071" lon="7.42472">
        <ele>860.03997802734</ele>
        <time>2010-10-10T11:07:53Z</time>
      </trkpt>
      <trkpt lat="43.80061" lon="7.42472">
        <ele>857.63000488281</ele>
        <time>2010-10-10T11:07:57Z</time>
      </trkpt>
      <trkpt lat="43.80034" lon="7.42466">
        <ele>856.19000244141</ele>
        <time>2010-10-10T11:08:07Z</time>
      </trkpt>
      <trkpt lat="43.80019" lon="7.42467">
        <ele>853.78997802734</ele>
        <time>2010-10-10T11:08:13Z</time>
      </trkpt>
      <trkpt lat="43.80017" lon="7.42467">
        <ele>853.30999755859</ele>
        <time>2010-10-10T11:08:14Z</time>
      </trkpt>
      <trkpt lat="43.80005" lon="7.42467">
        <ele>849.94000244141</ele>
        <time>2010-10-10T11:08:19Z</time>
      </trkpt>
      <trkpt lat="43.8" lon="7.42466">
        <ele>848.97998046875</ele>
        <time>2010-10-10T11:08:21Z</time>
      </trkpt>
      <trkpt lat="43.79989" lon="7.4246">
        <ele>846.09997558594</ele>
        <time>2010-10-10T11:08:26Z</time>
      </trkpt>
      <trkpt lat="43.79982" lon="7.42458">
        <ele>844.17999267578</ele>
        <time>2010-10-10T11:08:29Z</time>
      </trkpt>
      <trkpt lat="43.79973" lon="7.42455">
        <ele>841.77001953125</ele>
        <time>2010-10-10T11:08:33Z</time>
      </trkpt>
      <trkpt lat="43.79967" lon="7.42452">
        <ele>839.84997558594</ele>
        <time>2010-10-10T11:08:36Z</time>
      </trkpt>
      <trkpt lat="43.79959" lon="7.42449">
        <ele>837.45001220703</ele>
        <time>2010-10-10T11:08:41Z</time>
      </trkpt>
      <trkpt lat="43.79952" lon="7.42448">
        <ele>835.52001953125</ele>
        <time>2010-10-10T11:08:47Z</time>
      </trkpt>
      <trkpt lat="43.79948" lon="7.42448">
        <ele>833.59997558594</ele>
        <time>2010-10-10T11:08:50Z</time>
      </trkpt>
      <trkpt lat="43.79943" lon="7.4245">
        <ele>830.23999023438</ele>
        <time>2010-10-10T11:08:54Z</time>
      </trkpt>
      <trkpt lat="43.79942" lon="7.4245">
        <ele>831.20001220703</ele>
        <time>2010-10-10T11:08:55Z</time>
      </trkpt>
      <trkpt lat="43.79929" lon="7.42445">
        <ele>827.34997558594</ele>
        <time>2010-10-10T11:09:02Z</time>
      </trkpt>
      <trkpt lat="43.79927" lon="7.42445">
        <ele>826.86999511719</ele>
        <time>2010-10-10T11:09:03Z</time>
      </trkpt>
      <trkpt lat="43.79923" lon="7.42445">
        <ele>826.39001464844</ele>
        <time>2010-10-10T11:09:05Z</time>
      </trkpt>
      <trkpt lat="43.79917" lon="7.42445">
        <ele>823.51000976562</ele>
        <time>2010-10-10T11:09:09Z</time>
      </trkpt>
      <trkpt lat="43.79907" lon="7.42442">
        <ele>820.61999511719</ele>
        <time>2010-10-10T11:09:15Z</time>
      </trkpt>
      <trkpt lat="43.79905" lon="7.42442">
        <ele>820.61999511719</ele>
        <time>2010-10-10T11:09:16Z</time>
      </trkpt>
      <trkpt lat="43.79896" lon="7.42442">
        <ele>817.73999023438</ele>
        <time>2010-10-10T11:09:23Z</time>
      </trkpt>
      <trkpt lat="43.79896" lon="7.42446">
        <ele>815.82000732422</ele>
        <time>2010-10-10T11:09:26Z</time>
      </trkpt>
      <trkpt lat="43.79896" lon="7.42447">
        <ele>815.34002685547</ele>
        <time>2010-10-10T11:09:27Z</time>
      </trkpt>
      <trkpt lat="43.79893" lon="7.42448">
        <ele>814.36999511719</ele>
        <time>2010-10-10T11:09:30Z</time>
      </trkpt>
      <trkpt lat="43.79889" lon="7.42448">
        <ele>812.45001220703</ele>
        <time>2010-10-10T11:09:33Z</time>
      </trkpt>
      <trkpt lat="43.7989" lon="7.42458">
        <ele>810.53002929688</ele>
        <time>2010-10-10T11:09:37Z</time>
      </trkpt>
      <trkpt lat="43.79897" lon="7.42467">
        <ele>808.13000488281</ele>
        <time>2010-10-10T11:09:41Z</time>
      </trkpt>
      <trkpt lat="43.79906" lon="7.42484">
        <ele>805.23999023438</ele>
        <time>2010-10-10T11:09:50Z</time>
      </trkpt>
      <trkpt lat="43.79906" lon="7.42485">
        <ele>803.32000732422</ele>
        <time>2010-10-10T11:09:51Z</time>
      </trkpt>
      <trkpt lat="43.79915" lon="7.42505">
        <ele>802.35998535156</ele>
        <time>2010-10-10T11:10:00Z</time>
      </trkpt>
      <trkpt lat="43.79907" lon="7.42511">
        <ele>799.46997070312</ele>
        <time>2010-10-10T11:10:07Z</time>
      </trkpt>
      <trkpt lat="43.79897" lon="7.42516">
        <ele>798.03002929688</ele>
        <time>2010-10-10T11:10:13Z</time>
      </trkpt>
      <trkpt lat="43.79885" lon="7.42516">
        <ele>796.10998535156</ele>
        <time>2010-10-10T11:10:20Z</time>
      </trkpt>
      <trkpt lat="43.79882" lon="7.42513">
        <ele>795.15002441406</ele>
        <time>2010-10-10T11:10:22Z</time>
      </trkpt>
      <trkpt lat="43.79878" lon="7.42509">
        <ele>793.71002197266</ele>
        <time>2010-10-10T11:10:24Z</time>
      </trkpt>
      <trkpt lat="43.79876" lon="7.42508">
        <ele>793.21997070312</ele>
        <time>2010-10-10T11:10:25Z</time>
      </trkpt>
      <trkpt lat="43.79873" lon="7.42507">
        <ele>792.26000976562</ele>
        <time>2010-10-10T11:10:27Z</time>
      </trkpt>
      <trkpt lat="43.79863" lon="7.4251">
        <ele>789.85998535156</ele>
        <time>2010-10-10T11:10:32Z</time>
      </trkpt>
      <trkpt lat="43.79858" lon="7.42512">
        <ele>788.90002441406</ele>
        <time>2010-10-10T11:10:34Z</time>
      </trkpt>
      <trkpt lat="43.7984" lon="7.42523">
        <ele>787.46002197266</ele>
        <time>2010-10-10T11:10:42Z</time>
      </trkpt>
      <trkpt lat="43.79826" lon="7.42535">
        <ele>785.04998779297</ele>
        <time>2010-10-10T11:10:49Z</time>
      </trkpt>
      <trkpt lat="43.7982" lon="7.42543">
        <ele>784.57000732422</ele>
        <time>2010-10-10T11:10:53Z</time>
      </trkpt>
      <trkpt lat="43.79818" lon="7.42549">
        <ele>783.60998535156</ele>
        <time>2010-10-10T11:10:55Z</time>
      </trkpt>
      <trkpt lat="43.79817" lon="7.42552">
        <ele>783.13000488281</ele>
        <time>2010-10-10T11:10:56Z</time>
      </trkpt>
      <trkpt lat="43.79806" lon="7.42577">
        <ele>780.25</ele>
        <time>2010-10-10T11:11:06Z</time>
      </trkpt>
      <trkpt lat="43.79804" lon="7.42581">
        <ele>779.28997802734</ele>
        <time>2010-10-10T11:11:08Z</time>
      </trkpt>
      <trkpt lat="43.79789" lon="7.42582">
        <ele>775.91998291016</ele>
        <time>2010-10-10T11:11:15Z</time>
      </trkpt>
      <trkpt lat="43.79784" lon="7.42587">
        <ele>774</ele>
        <time>2010-10-10T11:11:18Z</time>
      </trkpt>
      <trkpt lat="43.7978" lon="7.42589">
        <ele>773.03997802734</ele>
        <time>2010-10-10T11:11:22Z</time>
      </trkpt>
      <trkpt lat="43.79779" lon="7.42585">
        <ele>771.59997558594</ele>
        <time>2010-10-10T11:11:24Z</time>
      </trkpt>
      <trkpt lat="43.79778" lon="7.42584">
        <ele>771.59997558594</ele>
        <time>2010-10-10T11:11:25Z</time>
      </trkpt>
      <trkpt lat="43.79779" lon="7.42591">
        <ele>770.15002441406</ele>
        <time>2010-10-10T11:11:29Z</time>
      </trkpt>
      <trkpt lat="43.79776" lon="7.42612">
        <ele>768.22998046875</ele>
        <time>2010-10-10T11:11:36Z</time>
      </trkpt>
      <trkpt lat="43.7977" lon="7.42626">
        <ele>766.30999755859</ele>
        <time>2010-10-10T11:11:42Z</time>
      </trkpt>
      <trkpt lat="43.7977" lon="7.4263">
        <ele>766.78997802734</ele>
        <time>2010-10-10T11:11:43Z</time>
      </trkpt>
      <trkpt lat="43.79766" lon="7.4266">
        <ele>761.97998046875</ele>
        <time>2010-10-10T11:11:53Z</time>
      </trkpt>
      <trkpt lat="43.79756" lon="7.4267">
        <ele>760.53997802734</ele>
        <time>2010-10-10T11:11:58Z</time>
      </trkpt>
      <trkpt lat="43.79751" lon="7.42675">
        <ele>758.14001464844</ele>
        <time>2010-10-10T11:12:00Z</time>
      </trkpt>
      <trkpt lat="43.79726" lon="7.42698">
        <ele>756.69000244141</ele>
        <time>2010-10-10T11:12:10Z</time>
      </trkpt>
      <trkpt lat="43.79722" lon="7.42699">
        <ele>755.72998046875</ele>
        <time>2010-10-10T11:12:11Z</time>
      </trkpt>
      <trkpt lat="43.79716" lon="7.42701">
        <ele>754.28997802734</ele>
        <time>2010-10-10T11:12:13Z</time>
      </trkpt>
      <trkpt lat="43.79713" lon="7.42703">
        <ele>753.33001708984</ele>
        <time>2010-10-10T11:12:15Z</time>
      </trkpt>
      <trkpt lat="43.79712" lon="7.42704">
        <ele>751.40997314453</ele>
        <time>2010-10-10T11:12:20Z</time>
      </trkpt>
      <trkpt lat="43.7971" lon="7.42705">
        <ele>750.45001220703</ele>
        <time>2010-10-10T11:12:21Z</time>
      </trkpt>
      <trkpt lat="43.79693" lon="7.42711">
        <ele>749.96997070312</ele>
        <time>2010-10-10T11:12:27Z</time>
      </trkpt>
      <trkpt lat="43.79664" lon="7.4272">
        <ele>748.03997802734</ele>
        <time>2010-10-10T11:12:37Z</time>
      </trkpt>
      <trkpt lat="43.7964" lon="7.42719">
        <ele>747.08001708984</ele>
        <time>2010-10-10T11:12:44Z</time>
      </trkpt>
      <trkpt lat="43.79631" lon="7.42722">
        <ele>745.64001464844</ele>
        <time>2010-10-10T11:12:48Z</time>
      </trkpt>
      <trkpt lat="43.79621" lon="7.42731">
        <ele>742.76000976562</ele>
        <time>2010-10-10T11:12:54Z</time>
      </trkpt>
      <trkpt lat="43.79618" lon="7.42735">
        <ele>741.30999755859</ele>
        <time>2010-10-10T11:12:56Z</time>
      </trkpt>
      <trkpt lat="43.79613" lon="7.4274">
        <ele>739.86999511719</ele>
        <time>2010-10-10T11:12:59Z</time>
      </trkpt>
      <trkpt lat="43.79589" lon="7.42747">
        <ele>738.42999267578</ele>
        <time>2010-10-10T11:13:09Z</time>
      </trkpt>
      <trkpt lat="43.79581" lon="7.42755">
        <ele>736.03002929688</ele>
        <time>2010-10-10T11:13:13Z</time>
      </trkpt>
      <trkpt lat="43.79576" lon="7.42771">
        <ele>733.61999511719</ele>
        <time>2010-10-10T11:13:18Z</time>
      </trkpt>
      <trkpt lat="43.79575" lon="7.42785">
        <ele>730.73999023438</ele>
        <time>2010-10-10T11:13:22Z</time>
      </trkpt>
      <trkpt lat="43.79575" lon="7.42789">
        <ele>730.26000976562</ele>
        <time>2010-10-10T11:13:23Z</time>
      </trkpt>
      <trkpt lat="43.7957" lon="7.428">
        <ele>727.36999511719</ele>
        <time>2010-10-10T11:13:27Z</time>
      </trkpt>
      <trkpt lat="43.79567" lon="7.42805">
        <ele>725.92999267578</ele>
        <time>2010-10-10T11:13:29Z</time>
      </trkpt>
      <trkpt lat="43.79562" lon="7.4281">
        <ele>723.53002929688</ele>
        <time>2010-10-10T11:13:31Z</time>
      </trkpt>
      <trkpt lat="43.79557" lon="7.42827">
        <ele>722.57000732422</ele>
        <time>2010-10-10T11:13:37Z</time>
      </trkpt>
      <trkpt lat="43.79553" lon="7.42841">
        <ele>718.71997070312</ele>
        <time>2010-10-10T11:13:42Z</time>
      </trkpt>
      <trkpt lat="43.79554" lon="7.42858">
        <ele>715.84002685547</ele>
        <time>2010-10-10T11:13:47Z</time>
      </trkpt>
      <trkpt lat="43.79553" lon="7.42871">
        <ele>712.95001220703</ele>
        <time>2010-10-10T11:13:51Z</time>
      </trkpt>
      <trkpt lat="43.79551" lon="7.4288">
        <ele>712.46997070312</ele>
        <time>2010-10-10T11:13:53Z</time>
      </trkpt>
      <trkpt lat="43.79555" lon="7.42906">
        <ele>709.10998535156</ele>
        <time>2010-10-10T11:13:59Z</time>
      </trkpt>
      <trkpt lat="43.79552" lon="7.42922">
        <ele>705.26000976562</ele>
        <time>2010-10-10T11:14:03Z</time>
      </trkpt>
      <trkpt lat="43.79549" lon="7.4293">
        <ele>704.78002929688</ele>
        <time>2010-10-10T11:14:05Z</time>
      </trkpt>
      <trkpt lat="43.79544" lon="7.42949">
        <ele>701.41998291016</ele>
        <time>2010-10-10T11:14:10Z</time>
      </trkpt>
      <trkpt lat="43.79541" lon="7.42964">
        <ele>698.04998779297</ele>
        <time>2010-10-10T11:14:14Z</time>
      </trkpt>
      <trkpt lat="43.79525" lon="7.4298">
        <ele>695.65002441406</ele>
        <time>2010-10-10T11:14:22Z</time>
      </trkpt>
      <trkpt lat="43.79525" lon="7.4298">
        <ele>694.69000244141</ele>
        <time>2010-10-10T11:14:24Z</time>
      </trkpt>
      <trkpt lat="43.79533" lon="7.42984">
        <ele>690.84002685547</ele>
        <time>2010-10-10T11:14:31Z</time>
      </trkpt>
      <trkpt lat="43.79532" lon="7.42987">
        <ele>689.40002441406</ele>
        <time>2010-10-10T11:14:33Z</time>
      </trkpt>
      <trkpt lat="43.7952" lon="7.42991">
        <ele>685.55999755859</ele>
        <time>2010-10-10T11:14:39Z</time>
      </trkpt>
      <trkpt lat="43.79519" lon="7.42992">
        <ele>685.55999755859</ele>
        <time>2010-10-10T11:14:40Z</time>
      </trkpt>
      <trkpt lat="43.79516" lon="7.43001">
        <ele>684.59997558594</ele>
        <time>2010-10-10T11:14:44Z</time>
      </trkpt>
      <trkpt lat="43.79514" lon="7.43004">
        <ele>683.15002441406</ele>
        <time>2010-10-10T11:14:46Z</time>
      </trkpt>
      <trkpt lat="43.79506" lon="7.43016">
        <ele>680.27001953125</ele>
        <time>2010-10-10T11:14:51Z</time>
      </trkpt>
      <trkpt lat="43.79504" lon="7.43027">
        <ele>677.86999511719</ele>
        <time>2010-10-10T11:14:55Z</time>
      </trkpt>
      <trkpt lat="43.79503" lon="7.43033">
        <ele>676.90997314453</ele>
        <time>2010-10-10T11:14:57Z</time>
      </trkpt>
      <trkpt lat="43.79501" lon="7.43039">
        <ele>676.41998291016</ele>
        <time>2010-10-10T11:14:59Z</time>
      </trkpt>
      <trkpt lat="43.79498" lon="7.43044">
        <ele>674.5</ele>
        <time>2010-10-10T11:15:01Z</time>
      </trkpt>
      <trkpt lat="43.79483" lon="7.43061">
        <ele>672.09997558594</ele>
        <time>2010-10-10T11:15:08Z</time>
      </trkpt>
      <trkpt lat="43.79467" lon="7.43084">
        <ele>669.21997070312</ele>
        <time>2010-10-10T11:15:16Z</time>
      </trkpt>
      <trkpt lat="43.79463" lon="7.43089">
        <ele>668.25</ele>
        <time>2010-10-10T11:15:18Z</time>
      </trkpt>
      <trkpt lat="43.79451" lon="7.43103">
        <ele>664.89001464844</ele>
        <time>2010-10-10T11:15:24Z</time>
      </trkpt>
      <trkpt lat="43.79428" lon="7.43106">
        <ele>665.36999511719</ele>
        <time>2010-10-10T11:15:32Z</time>
      </trkpt>
      <trkpt lat="43.79398" lon="7.43107">
        <ele>663.45001220703</ele>
        <time>2010-10-10T11:15:44Z</time>
      </trkpt>
      <trkpt lat="43.7938" lon="7.43137">
        <ele>661.03997802734</ele>
        <time>2010-10-10T11:15:56Z</time>
      </trkpt>
      <trkpt lat="43.79361" lon="7.43161">
        <ele>657.20001220703</ele>
        <time>2010-10-10T11:16:06Z</time>
      </trkpt>
      <trkpt lat="43.79355" lon="7.43169">
        <ele>654.79998779297</ele>
        <time>2010-10-10T11:16:10Z</time>
      </trkpt>
      <trkpt lat="43.79349" lon="7.43181">
        <ele>653.83001708984</ele>
        <time>2010-10-10T11:16:15Z</time>
      </trkpt>
      <trkpt lat="43.79348" lon="7.43187">
        <ele>652.39001464844</ele>
        <time>2010-10-10T11:16:17Z</time>
      </trkpt>
      <trkpt lat="43.7935" lon="7.43207">
        <ele>649.98999023438</ele>
        <time>2010-10-10T11:16:22Z</time>
      </trkpt>
      <trkpt lat="43.79353" lon="7.43221">
        <ele>649.03002929688</ele>
        <time>2010-10-10T11:16:26Z</time>
      </trkpt>
      <trkpt lat="43.79354" lon="7.43237">
        <ele>646.61999511719</ele>
        <time>2010-10-10T11:16:31Z</time>
      </trkpt>
      <trkpt lat="43.79351" lon="7.43248">
        <ele>644.70001220703</ele>
        <time>2010-10-10T11:16:34Z</time>
      </trkpt>
      <trkpt lat="43.7935" lon="7.43255">
        <ele>643.26000976562</ele>
        <time>2010-10-10T11:16:37Z</time>
      </trkpt>
      <trkpt lat="43.79353" lon="7.4326">
        <ele>640.38000488281</ele>
        <time>2010-10-10T11:16:41Z</time>
      </trkpt>
      <trkpt lat="43.79351" lon="7.43266">
        <ele>637.96997070312</ele>
        <time>2010-10-10T11:16:44Z</time>
      </trkpt>
      <trkpt lat="43.7934" lon="7.43274">
        <ele>635.09002685547</ele>
        <time>2010-10-10T11:16:50Z</time>
      </trkpt>
      <trkpt lat="43.79327" lon="7.4329">
        <ele>631.71997070312</ele>
        <time>2010-10-10T11:16:58Z</time>
      </trkpt>
      <trkpt lat="43.79324" lon="7.43294">
        <ele>630.28002929688</ele>
        <time>2010-10-10T11:17:00Z</time>
      </trkpt>
      <trkpt lat="43.79325" lon="7.433">
        <ele>630.28002929688</ele>
        <time>2010-10-10T11:17:03Z</time>
      </trkpt>
      <trkpt lat="43.79322" lon="7.43311">
        <ele>628.35998535156</ele>
        <time>2010-10-10T11:17:07Z</time>
      </trkpt>
      <trkpt lat="43.79311" lon="7.43325">
        <ele>625.46997070312</ele>
        <time>2010-10-10T11:17:14Z</time>
      </trkpt>
      <trkpt lat="43.79303" lon="7.43334">
        <ele>623.54998779297</ele>
        <time>2010-10-10T11:17:18Z</time>
      </trkpt>
      <trkpt lat="43.79299" lon="7.43339">
        <ele>622.59002685547</ele>
        <time>2010-10-10T11:17:20Z</time>
      </trkpt>
      <trkpt lat="43.79296" lon="7.43348">
        <ele>621.15002441406</ele>
        <time>2010-10-10T11:17:23Z</time>
      </trkpt>
      <trkpt lat="43.7929" lon="7.43362">
        <ele>616.34002685547</ele>
        <time>2010-10-10T11:17:28Z</time>
      </trkpt>
      <trkpt lat="43.79287" lon="7.43365">
        <ele>618.26000976562</ele>
        <time>2010-10-10T11:17:30Z</time>
      </trkpt>
      <trkpt lat="43.79283" lon="7.43367">
        <ele>616.34002685547</ele>
        <time>2010-10-10T11:17:32Z</time>
      </trkpt>
      <trkpt lat="43.79271" lon="7.43364">
        <ele>614.90002441406</ele>
        <time>2010-10-10T11:17:36Z</time>
      </trkpt>
      <trkpt lat="43.79264" lon="7.43362">
        <ele>613.46002197266</ele>
        <time>2010-10-10T11:17:39Z</time>
      </trkpt>
      <trkpt lat="43.7926" lon="7.43362">
        <ele>612.02001953125</ele>
        <time>2010-10-10T11:17:41Z</time>
      </trkpt>
      <trkpt lat="43.79258" lon="7.43363">
        <ele>612.02001953125</ele>
        <time>2010-10-10T11:17:42Z</time>
      </trkpt>
      <trkpt lat="43.79256" lon="7.43364">
        <ele>610.57000732422</ele>
        <time>2010-10-10T11:17:44Z</time>
      </trkpt>
      <trkpt lat="43.79259" lon="7.43366">
        <ele>610.09002685547</ele>
        <time>2010-10-10T11:17:47Z</time>
      </trkpt>
      <trkpt lat="43.79263" lon="7.4337">
        <ele>608.65002441406</ele>
        <time>2010-10-10T11:17:51Z</time>
      </trkpt>
      <trkpt lat="43.79256" lon="7.43372">
        <ele>603.84997558594</ele>
        <time>2010-10-10T11:17:54Z</time>
      </trkpt>
      <trkpt lat="43.79253" lon="7.43372">
        <ele>606.72998046875</ele>
        <time>2010-10-10T11:17:55Z</time>
      </trkpt>
      <trkpt lat="43.79231" lon="7.43371">
        <ele>604.33001708984</ele>
        <time>2010-10-10T11:18:03Z</time>
      </trkpt>
      <trkpt lat="43.79219" lon="7.43385">
        <ele>600.47998046875</ele>
        <time>2010-10-10T11:18:11Z</time>
      </trkpt>
      <trkpt lat="43.79217" lon="7.43387">
        <ele>600.47998046875</ele>
        <time>2010-10-10T11:18:12Z</time>
      </trkpt>
      <trkpt lat="43.7921" lon="7.43396">
        <ele>596.64001464844</ele>
        <time>2010-10-10T11:18:17Z</time>
      </trkpt>
      <trkpt lat="43.7921" lon="7.43398">
        <ele>596.64001464844</ele>
        <time>2010-10-10T11:18:18Z</time>
      </trkpt>
      <trkpt lat="43.79209" lon="7.43401">
        <ele>595.66998291016</ele>
        <time>2010-10-10T11:18:20Z</time>
      </trkpt>
      <trkpt lat="43.7921" lon="7.43406">
        <ele>593.75</ele>
        <time>2010-10-10T11:18:23Z</time>
      </trkpt>
      <trkpt lat="43.79211" lon="7.43409">
        <ele>592.30999755859</ele>
        <time>2010-10-10T11:18:25Z</time>
      </trkpt>
      <trkpt lat="43.79208" lon="7.43415">
        <ele>590.39001464844</ele>
        <time>2010-10-10T11:18:28Z</time>
      </trkpt>
      <trkpt lat="43.79206" lon="7.43424">
        <ele>587.97998046875</ele>
        <time>2010-10-10T11:18:33Z</time>
      </trkpt>
      <trkpt lat="43.79206" lon="7.43426">
        <ele>587.5</ele>
        <time>2010-10-10T11:18:34Z</time>
      </trkpt>
      <trkpt lat="43.79207" lon="7.43428">
        <ele>586.53997802734</ele>
        <time>2010-10-10T11:18:36Z</time>
      </trkpt>
      <trkpt lat="43.79206" lon="7.43434">
        <ele>584.61999511719</ele>
        <time>2010-10-10T11:18:39Z</time>
      </trkpt>
      <trkpt lat="43.79205" lon="7.43445">
        <ele>581.72998046875</ele>
        <time>2010-10-10T11:18:44Z</time>
      </trkpt>
      <trkpt lat="43.79205" lon="7.43462">
        <ele>578.84997558594</ele>
        <time>2010-10-10T11:18:50Z</time>
      </trkpt>
      <trkpt lat="43.79207" lon="7.43483">
        <ele>577.40997314453</ele>
        <time>2010-10-10T11:18:56Z</time>
      </trkpt>
      <trkpt lat="43.79205" lon="7.43493">
        <ele>574.53002929688</ele>
        <time>2010-10-10T11:18:59Z</time>
      </trkpt>
      <trkpt lat="43.79204" lon="7.43498">
        <ele>574.03997802734</ele>
        <time>2010-10-10T11:19:01Z</time>
      </trkpt>
      <trkpt lat="43.79203" lon="7.43511">
        <ele>570.20001220703</ele>
        <time>2010-10-10T11:19:06Z</time>
      </trkpt>
      <trkpt lat="43.79203" lon="7.43514">
        <ele>569.71997070312</ele>
        <time>2010-10-10T11:19:07Z</time>
      </trkpt>
      <trkpt lat="43.79204" lon="7.43519">
        <ele>568.76000976562</ele>
        <time>2010-10-10T11:19:09Z</time>
      </trkpt>
      <trkpt lat="43.79205" lon="7.43529">
        <ele>564.90997314453</ele>
        <time>2010-10-10T11:19:13Z</time>
      </trkpt>
      <trkpt lat="43.79205" lon="7.43531">
        <ele>564.90997314453</ele>
        <time>2010-10-10T11:19:14Z</time>
      </trkpt>
      <trkpt lat="43.79206" lon="7.43536">
        <ele>563.46997070312</ele>
        <time>2010-10-10T11:19:16Z</time>
      </trkpt>
      <trkpt lat="43.79204" lon="7.43543">
        <ele>562.03002929688</ele>
        <time>2010-10-10T11:19:19Z</time>
      </trkpt>
      <trkpt lat="43.79204" lon="7.43548">
        <ele>560.10998535156</ele>
        <time>2010-10-10T11:19:22Z</time>
      </trkpt>
      <trkpt lat="43.79206" lon="7.43554">
        <ele>558.65997314453</ele>
        <time>2010-10-10T11:19:26Z</time>
      </trkpt>
      <trkpt lat="43.7921" lon="7.43561">
        <ele>556.26000976562</ele>
        <time>2010-10-10T11:19:30Z</time>
      </trkpt>
      <trkpt lat="43.7921" lon="7.43563">
        <ele>556.26000976562</ele>
        <time>2010-10-10T11:19:31Z</time>
      </trkpt>
      <trkpt lat="43.79202" lon="7.43577">
        <ele>554.34002685547</ele>
        <time>2010-10-10T11:19:37Z</time>
      </trkpt>
      <trkpt lat="43.79193" lon="7.43585">
        <ele>551.92999267578</ele>
        <time>2010-10-10T11:19:41Z</time>
      </trkpt>
      <trkpt lat="43.79192" lon="7.43587">
        <ele>551.45001220703</ele>
        <time>2010-10-10T11:19:42Z</time>
      </trkpt>
      <trkpt lat="43.79179" lon="7.43594">
        <ele>550.01000976562</ele>
        <time>2010-10-10T11:19:47Z</time>
      </trkpt>
      <trkpt lat="43.79176" lon="7.43596">
        <ele>550.48999023438</ele>
        <time>2010-10-10T11:19:48Z</time>
      </trkpt>
      <trkpt lat="43.79173" lon="7.436">
        <ele>548.09002685547</ele>
        <time>2010-10-10T11:19:52Z</time>
      </trkpt>
      <trkpt lat="43.79177" lon="7.43601">
        <ele>547.60998535156</ele>
        <time>2010-10-10T11:19:54Z</time>
      </trkpt>
      <trkpt lat="43.79184" lon="7.43602">
        <ele>545.20001220703</ele>
        <time>2010-10-10T11:19:57Z</time>
      </trkpt>
      <trkpt lat="43.79189" lon="7.43606">
        <ele>543.76000976562</ele>
        <time>2010-10-10T11:20:02Z</time>
      </trkpt>
      <trkpt lat="43.79183" lon="7.43611">
        <ele>540.88000488281</ele>
        <time>2010-10-10T11:20:05Z</time>
      </trkpt>
      <trkpt lat="43.79174" lon="7.43622">
        <ele>538.96002197266</ele>
        <time>2010-10-10T11:20:10Z</time>
      </trkpt>
      <trkpt lat="43.79171" lon="7.43626">
        <ele>537.51000976562</ele>
        <time>2010-10-10T11:20:12Z</time>
      </trkpt>
      <trkpt lat="43.79164" lon="7.4364">
        <ele>533.66998291016</ele>
        <time>2010-10-10T11:20:17Z</time>
      </trkpt>
      <trkpt lat="43.79156" lon="7.43655">
        <ele>531.27001953125</ele>
        <time>2010-10-10T11:20:23Z</time>
      </trkpt>
      <trkpt lat="43.79154" lon="7.4366">
        <ele>530.29998779297</ele>
        <time>2010-10-10T11:20:25Z</time>
      </trkpt>
      <trkpt lat="43.79152" lon="7.43668">
        <ele>528.38000488281</ele>
        <time>2010-10-10T11:20:28Z</time>
      </trkpt>
      <trkpt lat="43.79148" lon="7.43675">
        <ele>526.94000244141</ele>
        <time>2010-10-10T11:20:31Z</time>
      </trkpt>
      <trkpt lat="43.79133" lon="7.43694">
        <ele>522.13000488281</ele>
        <time>2010-10-10T11:20:39Z</time>
      </trkpt>
      <trkpt lat="43.79129" lon="7.43698">
        <ele>521.65002441406</ele>
        <time>2010-10-10T11:20:41Z</time>
      </trkpt>
      <trkpt lat="43.79126" lon="7.43704">
        <ele>519.25</ele>
        <time>2010-10-10T11:20:43Z</time>
      </trkpt>
      <trkpt lat="43.79127" lon="7.43713">
        <ele>517.33001708984</ele>
        <time>2010-10-10T11:20:46Z</time>
      </trkpt>
      <trkpt lat="43.79141" lon="7.43716">
        <ele>513.96002197266</ele>
        <time>2010-10-10T11:20:52Z</time>
      </trkpt>
      <trkpt lat="43.79152" lon="7.43731">
        <ele>510.60000610352</ele>
        <time>2010-10-10T11:20:59Z</time>
      </trkpt>
      <trkpt lat="43.79152" lon="7.43733">
        <ele>510.60000610352</ele>
        <time>2010-10-10T11:21:00Z</time>
      </trkpt>
      <trkpt lat="43.79118" lon="7.43745">
        <ele>504.82998657227</ele>
        <time>2010-10-10T11:21:12Z</time>
      </trkpt>
      <trkpt lat="43.79115" lon="7.43747">
        <ele>504.82998657227</ele>
        <time>2010-10-10T11:21:13Z</time>
      </trkpt>
      <trkpt lat="43.79107" lon="7.43754">
        <ele>501.95001220703</ele>
        <time>2010-10-10T11:21:17Z</time>
      </trkpt>
      <trkpt lat="43.79105" lon="7.43756">
        <ele>502.42999267578</ele>
        <time>2010-10-10T11:21:18Z</time>
      </trkpt>
      <trkpt lat="43.79105" lon="7.43765">
        <ele>501.45999145508</ele>
        <time>2010-10-10T11:21:22Z</time>
      </trkpt>
      <trkpt lat="43.79114" lon="7.43767">
        <ele>500.01998901367</ele>
        <time>2010-10-10T11:21:25Z</time>
      </trkpt>
      <trkpt lat="43.79135" lon="7.4377">
        <ele>497.61999511719</ele>
        <time>2010-10-10T11:21:32Z</time>
      </trkpt>
      <trkpt lat="43.79162" lon="7.43764">
        <ele>494.73999023438</ele>
        <time>2010-10-10T11:21:42Z</time>
      </trkpt>
      <trkpt lat="43.7919" lon="7.4374">
        <ele>491.36999511719</ele>
        <time>2010-10-10T11:21:53Z</time>
      </trkpt>
      <trkpt lat="43.79218" lon="7.43729">
        <ele>488.9700012207</ele>
        <time>2010-10-10T11:22:03Z</time>
      </trkpt>
      <trkpt lat="43.79241" lon="7.43745">
        <ele>485.60000610352</ele>
        <time>2010-10-10T11:22:11Z</time>
      </trkpt>
      <trkpt lat="43.79261" lon="7.43764">
        <ele>482.7200012207</ele>
        <time>2010-10-10T11:22:19Z</time>
      </trkpt>
      <trkpt lat="43.79263" lon="7.43765">
        <ele>482.7200012207</ele>
        <time>2010-10-10T11:22:20Z</time>
      </trkpt>
      <trkpt lat="43.79293" lon="7.43773">
        <ele>478.86999511719</ele>
        <time>2010-10-10T11:22:30Z</time>
      </trkpt>
      <trkpt lat="43.793" lon="7.43781">
        <ele>478.39001464844</ele>
        <time>2010-10-10T11:22:35Z</time>
      </trkpt>
      <trkpt lat="43.79254" lon="7.43791">
        <ele>475.98999023438</ele>
        <time>2010-10-10T11:22:51Z</time>
      </trkpt>
      <trkpt lat="43.79227" lon="7.43787">
        <ele>473.10998535156</ele>
        <time>2010-10-10T11:22:59Z</time>
      </trkpt>
      <trkpt lat="43.79212" lon="7.43788">
        <ele>469.26000976562</ele>
        <time>2010-10-10T11:23:04Z</time>
      </trkpt>
      <trkpt lat="43.79209" lon="7.43789">
        <ele>469.26000976562</ele>
        <time>2010-10-10T11:23:05Z</time>
      </trkpt>
      <trkpt lat="43.79206" lon="7.43789">
        <ele>469.73999023438</ele>
        <time>2010-10-10T11:23:06Z</time>
      </trkpt>
      <trkpt lat="43.7919" lon="7.43822">
        <ele>466.85998535156</ele>
        <time>2010-10-10T11:23:16Z</time>
      </trkpt>
      <trkpt lat="43.79176" lon="7.43855">
        <ele>463.48999023438</ele>
        <time>2010-10-10T11:23:25Z</time>
      </trkpt>
      <trkpt lat="43.7916" lon="7.43887">
        <ele>460.13000488281</ele>
        <time>2010-10-10T11:23:33Z</time>
      </trkpt>
      <trkpt lat="43.79153" lon="7.43894">
        <ele>459.17001342773</ele>
        <time>2010-10-10T11:23:35Z</time>
      </trkpt>
      <trkpt lat="43.79141" lon="7.43914">
        <ele>455.79998779297</ele>
        <time>2010-10-10T11:23:41Z</time>
      </trkpt>
      <trkpt lat="43.7914" lon="7.43918">
        <ele>455.79998779297</ele>
        <time>2010-10-10T11:23:42Z</time>
      </trkpt>
      <trkpt lat="43.79135" lon="7.43934">
        <ele>453.88000488281</ele>
        <time>2010-10-10T11:23:46Z</time>
      </trkpt>
      <trkpt lat="43.79129" lon="7.43939">
        <ele>453.88000488281</ele>
        <time>2010-10-10T11:23:48Z</time>
      </trkpt>
      <trkpt lat="43.791" lon="7.43948">
        <ele>449.07000732422</ele>
        <time>2010-10-10T11:23:55Z</time>
      </trkpt>
      <trkpt lat="43.79095" lon="7.4395">
        <ele>448.58999633789</ele>
        <time>2010-10-10T11:23:56Z</time>
      </trkpt>
      <trkpt lat="43.79078" lon="7.43961">
        <ele>447.14999389648</ele>
        <time>2010-10-10T11:24:01Z</time>
      </trkpt>
      <trkpt lat="43.7904" lon="7.43983">
        <ele>444.26998901367</ele>
        <time>2010-10-10T11:24:13Z</time>
      </trkpt>
      <trkpt lat="43.7901" lon="7.44002">
        <ele>441.85998535156</ele>
        <time>2010-10-10T11:24:23Z</time>
      </trkpt>
      <trkpt lat="43.78978" lon="7.44025">
        <ele>438.5</ele>
        <time>2010-10-10T11:24:33Z</time>
      </trkpt>
      <trkpt lat="43.78966" lon="7.44043">
        <ele>437.54000854492</ele>
        <time>2010-10-10T11:24:38Z</time>
      </trkpt>
      <trkpt lat="43.78957" lon="7.44072">
        <ele>434.17001342773</ele>
        <time>2010-10-10T11:24:45Z</time>
      </trkpt>
      <trkpt lat="43.78931" lon="7.44092">
        <ele>432.73001098633</ele>
        <time>2010-10-10T11:24:54Z</time>
      </trkpt>
      <trkpt lat="43.78896" lon="7.44079">
        <ele>430.32998657227</ele>
        <time>2010-10-10T11:25:04Z</time>
      </trkpt>
      <trkpt lat="43.78857" lon="7.44071">
        <ele>427.44000244141</ele>
        <time>2010-10-10T11:25:16Z</time>
      </trkpt>
      <trkpt lat="43.78836" lon="7.44073">
        <ele>425.51998901367</ele>
        <time>2010-10-10T11:25:22Z</time>
      </trkpt>
      <trkpt lat="43.78805" lon="7.44069">
        <ele>425.04000854492</ele>
        <time>2010-10-10T11:25:32Z</time>
      </trkpt>
      <trkpt lat="43.78785" lon="7.44061">
        <ele>422.64001464844</ele>
        <time>2010-10-10T11:25:38Z</time>
      </trkpt>
      <trkpt lat="43.78762" lon="7.44049">
        <ele>421.19000244141</ele>
        <time>2010-10-10T11:25:44Z</time>
      </trkpt>
      <trkpt lat="43.78738" lon="7.44025">
        <ele>418.30999755859</ele>
        <time>2010-10-10T11:25:52Z</time>
      </trkpt>
      <trkpt lat="43.78709" lon="7.4401">
        <ele>414.95001220703</ele>
        <time>2010-10-10T11:26:01Z</time>
      </trkpt>
      <trkpt lat="43.78706" lon="7.44008">
        <ele>414.4700012207</ele>
        <time>2010-10-10T11:26:02Z</time>
      </trkpt>
      <trkpt lat="43.78703" lon="7.44006">
        <ele>414.4700012207</ele>
        <time>2010-10-10T11:26:03Z</time>
      </trkpt>
      <trkpt lat="43.78691" lon="7.44021">
        <ele>413.01998901367</ele>
        <time>2010-10-10T11:26:10Z</time>
      </trkpt>
      <trkpt lat="43.78698" lon="7.44043">
        <ele>412.05999755859</ele>
        <time>2010-10-10T11:26:15Z</time>
      </trkpt>
      <trkpt lat="43.78705" lon="7.44056">
        <ele>410.14001464844</ele>
        <time>2010-10-10T11:26:19Z</time>
      </trkpt>
      <trkpt lat="43.78713" lon="7.4406">
        <ele>409.66000366211</ele>
        <time>2010-10-10T11:26:22Z</time>
      </trkpt>
      <trkpt lat="43.78721" lon="7.44068">
        <ele>407.73999023438</ele>
        <time>2010-10-10T11:26:26Z</time>
      </trkpt>
      <trkpt lat="43.78714" lon="7.44082">
        <ele>406.76998901367</ele>
        <time>2010-10-10T11:26:30Z</time>
      </trkpt>
      <trkpt lat="43.78682" lon="7.4409">
        <ele>403.89001464844</ele>
        <time>2010-10-10T11:26:39Z</time>
      </trkpt>
      <trkpt lat="43.7865" lon="7.44097">
        <ele>401.48999023438</ele>
        <time>2010-10-10T11:26:49Z</time>
      </trkpt>
      <trkpt lat="43.78633" lon="7.44085">
        <ele>398.60000610352</ele>
        <time>2010-10-10T11:26:54Z</time>
      </trkpt>
      <trkpt lat="43.78617" lon="7.44074">
        <ele>396.67999267578</ele>
        <time>2010-10-10T11:26:59Z</time>
      </trkpt>
      <trkpt lat="43.78585" lon="7.44087">
        <ele>393.79998779297</ele>
        <time>2010-10-10T11:27:09Z</time>
      </trkpt>
      <trkpt lat="43.78572" lon="7.4413">
        <ele>392.83999633789</ele>
        <time>2010-10-10T11:27:19Z</time>
      </trkpt>
      <trkpt lat="43.78568" lon="7.44147">
        <ele>392.35998535156</ele>
        <time>2010-10-10T11:27:23Z</time>
      </trkpt>
      <trkpt lat="43.78565" lon="7.44167">
        <ele>389.95001220703</ele>
        <time>2010-10-10T11:27:30Z</time>
      </trkpt>
      <trkpt lat="43.78561" lon="7.44171">
        <ele>388.0299987793</ele>
        <time>2010-10-10T11:27:34Z</time>
      </trkpt>
      <trkpt lat="43.78557" lon="7.44176">
        <ele>386.10998535156</ele>
        <time>2010-10-10T11:27:37Z</time>
      </trkpt>
      <trkpt lat="43.78566" lon="7.44196">
        <ele>382.73999023438</ele>
        <time>2010-10-10T11:27:43Z</time>
      </trkpt>
      <trkpt lat="43.78582" lon="7.44214">
        <ele>381.29998779297</ele>
        <time>2010-10-10T11:27:50Z</time>
      </trkpt>
      <trkpt lat="43.78595" lon="7.44231">
        <ele>377.45001220703</ele>
        <time>2010-10-10T11:27:57Z</time>
      </trkpt>
      <trkpt lat="43.78598" lon="7.44236">
        <ele>375.5299987793</ele>
        <time>2010-10-10T11:28:00Z</time>
      </trkpt>
      <trkpt lat="43.78601" lon="7.44243">
        <ele>372.64999389648</ele>
        <time>2010-10-10T11:28:04Z</time>
      </trkpt>
      <trkpt lat="43.78606" lon="7.44247">
        <ele>369.2799987793</ele>
        <time>2010-10-10T11:28:09Z</time>
      </trkpt>
      <trkpt lat="43.78605" lon="7.44252">
        <ele>368.32000732422</ele>
        <time>2010-10-10T11:28:11Z</time>
      </trkpt>
      <trkpt lat="43.78608" lon="7.44259">
        <ele>366.39999389648</ele>
        <time>2010-10-10T11:28:15Z</time>
      </trkpt>
      <trkpt lat="43.78619" lon="7.44263">
        <ele>364.48001098633</ele>
        <time>2010-10-10T11:28:18Z</time>
      </trkpt>
      <trkpt lat="43.78651" lon="7.4429">
        <ele>362.07000732422</ele>
        <time>2010-10-10T11:28:29Z</time>
      </trkpt>
      <trkpt lat="43.78654" lon="7.44293">
        <ele>361.10998535156</ele>
        <time>2010-10-10T11:28:30Z</time>
      </trkpt>
      <trkpt lat="43.78672" lon="7.44328">
        <ele>360.63000488281</ele>
        <time>2010-10-10T11:28:39Z</time>
      </trkpt>
      <trkpt lat="43.7867" lon="7.4435">
        <ele>359.67001342773</ele>
        <time>2010-10-10T11:28:43Z</time>
      </trkpt>
      <trkpt lat="43.78667" lon="7.44359">
        <ele>357.75</ele>
        <time>2010-10-10T11:28:45Z</time>
      </trkpt>
      <trkpt lat="43.78666" lon="7.4437">
        <ele>357.75</ele>
        <time>2010-10-10T11:28:51Z</time>
      </trkpt>
    </trkseg>
  </trk>
</gpx>